<?xml version="1.0" encoding="UTF-8" standalone="no" ?>
<gpx xmlns="http://www.topografix.com/GPX/1/1" xmlns:xsi="http://www.w3.org/2001/XMLSchema-instance" xsi:schemaLocation="http://www.topografix.com/GPX/1/1 http://www.topografix.com/GPX/1/1/gpx.xsd" version="1.1" creator="VisuGPX - https://www.visugpx.com">
  <metadata>
    <name>20180526-lacs-flanc-cremon</name>
    <desc><![CDATA[Tous au départ jusqu’au vieux pont de Castellane. Hervé, Daniel et Daniel optent pour la traversée sur le gué du Verdon. Ça passe mais c’est glissant et l’eau monte jusqu’aux genoux. Le groupe se reforme jusqu’à la montée vers Demandolx. Hervé, Jean-Luc et Michèle cherchent le passage vers le barrage de Castillon dans le ravin mais sans succès. Pique-nique et Michèle rentre à Castellane. André et les autres partent sur un sentier sur le flanc de la crête de Crémon puis descendent sur St Julien où nous nous retrouvons.
Retour par le barrage puis le col de Cheiron et belle descente VTT sur Castellane.]]></desc>
  </metadata>
  <trk>
    <name><![CDATA[20180526-101636-172837-x-av-MNT]]></name>
    <trkseg>
      <trkpt lat="43.83783" lon="6.49531">
        <ele>717</ele>
        <time>2018-05-26T08:16:36Z</time>
      </trkpt>
      <trkpt lat="43.83784" lon="6.49485">
        <ele>715</ele>
        <time>2018-05-26T08:16:49Z</time>
      </trkpt>
      <trkpt lat="43.83831" lon="6.49464">
        <ele>716</ele>
        <time>2018-05-26T08:17:01Z</time>
      </trkpt>
      <trkpt lat="43.8388" lon="6.49467">
        <ele>717</ele>
        <time>2018-05-26T08:17:13Z</time>
      </trkpt>
      <trkpt lat="43.83934" lon="6.49471">
        <ele>717</ele>
        <time>2018-05-26T08:17:24Z</time>
      </trkpt>
      <trkpt lat="43.83947" lon="6.4948">
        <ele>717</ele>
        <time>2018-05-26T08:17:34Z</time>
      </trkpt>
      <trkpt lat="43.83954" lon="6.49558">
        <ele>718</ele>
        <time>2018-05-26T08:17:46Z</time>
      </trkpt>
      <trkpt lat="43.83965" lon="6.49567">
        <ele>719</ele>
        <time>2018-05-26T08:17:55Z</time>
      </trkpt>
      <trkpt lat="43.83966" lon="6.4957">
        <ele>719</ele>
        <time>2018-05-26T08:17:58Z</time>
      </trkpt>
      <trkpt lat="43.83959" lon="6.49576">
        <ele>719</ele>
        <time>2018-05-26T08:18:05Z</time>
      </trkpt>
      <trkpt lat="43.83977" lon="6.49619">
        <ele>719</ele>
        <time>2018-05-26T08:18:18Z</time>
      </trkpt>
      <trkpt lat="43.83994" lon="6.4966">
        <ele>719</ele>
        <time>2018-05-26T08:18:33Z</time>
      </trkpt>
      <trkpt lat="43.84015" lon="6.49707">
        <ele>719</ele>
        <time>2018-05-26T08:18:50Z</time>
      </trkpt>
      <trkpt lat="43.84017" lon="6.49709">
        <ele>719</ele>
        <time>2018-05-26T08:18:51Z</time>
      </trkpt>
      <trkpt lat="43.84018" lon="6.49712">
        <ele>719</ele>
        <time>2018-05-26T08:18:52Z</time>
      </trkpt>
      <trkpt lat="43.84019" lon="6.49715">
        <ele>719</ele>
        <time>2018-05-26T08:18:53Z</time>
      </trkpt>
      <trkpt lat="43.8402" lon="6.49718">
        <ele>719</ele>
        <time>2018-05-26T08:18:54Z</time>
      </trkpt>
      <trkpt lat="43.84043" lon="6.49768">
        <ele>719</ele>
        <time>2018-05-26T08:19:09Z</time>
      </trkpt>
      <trkpt lat="43.84069" lon="6.49825">
        <ele>719</ele>
        <time>2018-05-26T08:19:26Z</time>
      </trkpt>
      <trkpt lat="43.84092" lon="6.49876">
        <ele>720</ele>
        <time>2018-05-26T08:19:40Z</time>
      </trkpt>
      <trkpt lat="43.84116" lon="6.49929">
        <ele>719</ele>
        <time>2018-05-26T08:19:56Z</time>
      </trkpt>
      <trkpt lat="43.84142" lon="6.49983">
        <ele>719</ele>
        <time>2018-05-26T08:20:10Z</time>
      </trkpt>
      <trkpt lat="43.84166" lon="6.50036">
        <ele>719</ele>
        <time>2018-05-26T08:20:24Z</time>
      </trkpt>
      <trkpt lat="43.84189" lon="6.50088">
        <ele>719</ele>
        <time>2018-05-26T08:20:42Z</time>
      </trkpt>
      <trkpt lat="43.84209" lon="6.50132">
        <ele>719</ele>
        <time>2018-05-26T08:20:57Z</time>
      </trkpt>
      <trkpt lat="43.84232" lon="6.50182">
        <ele>719</ele>
        <time>2018-05-26T08:21:13Z</time>
      </trkpt>
      <trkpt lat="43.84251" lon="6.50227">
        <ele>719</ele>
        <time>2018-05-26T08:21:26Z</time>
      </trkpt>
      <trkpt lat="43.8427" lon="6.50274">
        <ele>719</ele>
        <time>2018-05-26T08:21:38Z</time>
      </trkpt>
      <trkpt lat="43.8429" lon="6.50323">
        <ele>719</ele>
        <time>2018-05-26T08:21:52Z</time>
      </trkpt>
      <trkpt lat="43.84312" lon="6.50372">
        <ele>719</ele>
        <time>2018-05-26T08:22:07Z</time>
      </trkpt>
      <trkpt lat="43.84325" lon="6.50416">
        <ele>719</ele>
        <time>2018-05-26T08:22:21Z</time>
      </trkpt>
      <trkpt lat="43.84348" lon="6.50506">
        <ele>719</ele>
        <time>2018-05-26T08:22:40Z</time>
      </trkpt>
      <trkpt lat="43.8437" lon="6.50593">
        <ele>719</ele>
        <time>2018-05-26T08:22:57Z</time>
      </trkpt>
      <trkpt lat="43.84391" lon="6.50675">
        <ele>719</ele>
        <time>2018-05-26T08:23:15Z</time>
      </trkpt>
      <trkpt lat="43.84409" lon="6.50746">
        <ele>721</ele>
        <time>2018-05-26T08:23:31Z</time>
      </trkpt>
      <trkpt lat="43.84427" lon="6.50815">
        <ele>722</ele>
        <time>2018-05-26T08:23:46Z</time>
      </trkpt>
      <trkpt lat="43.84445" lon="6.50887">
        <ele>722</ele>
        <time>2018-05-26T08:24:02Z</time>
      </trkpt>
      <trkpt lat="43.84469" lon="6.50987">
        <ele>722</ele>
        <time>2018-05-26T08:24:22Z</time>
      </trkpt>
      <trkpt lat="43.8449" lon="6.51067">
        <ele>723</ele>
        <time>2018-05-26T08:24:39Z</time>
      </trkpt>
      <trkpt lat="43.84508" lon="6.51145">
        <ele>722</ele>
        <time>2018-05-26T08:24:56Z</time>
      </trkpt>
      <trkpt lat="43.84517" lon="6.51219">
        <ele>721</ele>
        <time>2018-05-26T08:25:12Z</time>
      </trkpt>
      <trkpt lat="43.84536" lon="6.51274">
        <ele>721</ele>
        <time>2018-05-26T08:25:25Z</time>
      </trkpt>
      <trkpt lat="43.84538" lon="6.51278">
        <ele>721</ele>
        <time>2018-05-26T08:25:38Z</time>
      </trkpt>
      <trkpt lat="43.84537" lon="6.51283">
        <ele>721</ele>
        <time>2018-05-26T08:25:56Z</time>
      </trkpt>
      <trkpt lat="43.8454" lon="6.51281">
        <ele>721</ele>
        <time>2018-05-26T08:26:16Z</time>
      </trkpt>
      <trkpt lat="43.84539" lon="6.51281">
        <ele>721</ele>
        <time>2018-05-26T08:26:36Z</time>
      </trkpt>
      <trkpt lat="43.84538" lon="6.5128">
        <ele>721</ele>
        <time>2018-05-26T08:27:01Z</time>
      </trkpt>
      <trkpt lat="43.84538" lon="6.51282">
        <ele>721</ele>
        <time>2018-05-26T08:27:22Z</time>
      </trkpt>
      <trkpt lat="43.84541" lon="6.51287">
        <ele>721</ele>
        <time>2018-05-26T08:27:43Z</time>
      </trkpt>
      <trkpt lat="43.84558" lon="6.51336">
        <ele>722</ele>
        <time>2018-05-26T08:27:54Z</time>
      </trkpt>
      <trkpt lat="43.84562" lon="6.51347">
        <ele>722</ele>
        <time>2018-05-26T08:27:56Z</time>
      </trkpt>
      <trkpt lat="43.8457" lon="6.51369">
        <ele>721</ele>
        <time>2018-05-26T08:28:00Z</time>
      </trkpt>
      <trkpt lat="43.84576" lon="6.51396">
        <ele>721</ele>
        <time>2018-05-26T08:28:09Z</time>
      </trkpt>
      <trkpt lat="43.84577" lon="6.51399">
        <ele>721</ele>
        <time>2018-05-26T08:28:10Z</time>
      </trkpt>
      <trkpt lat="43.84578" lon="6.51401">
        <ele>721</ele>
        <time>2018-05-26T08:28:11Z</time>
      </trkpt>
      <trkpt lat="43.84579" lon="6.51404">
        <ele>721</ele>
        <time>2018-05-26T08:28:12Z</time>
      </trkpt>
      <trkpt lat="43.84581" lon="6.51407">
        <ele>722</ele>
        <time>2018-05-26T08:28:13Z</time>
      </trkpt>
      <trkpt lat="43.84584" lon="6.51412">
        <ele>722</ele>
        <time>2018-05-26T08:28:14Z</time>
      </trkpt>
      <trkpt lat="43.84589" lon="6.51431">
        <ele>722</ele>
        <time>2018-05-26T08:28:18Z</time>
      </trkpt>
      <trkpt lat="43.84591" lon="6.51436">
        <ele>723</ele>
        <time>2018-05-26T08:28:19Z</time>
      </trkpt>
      <trkpt lat="43.84594" lon="6.51441">
        <ele>723</ele>
        <time>2018-05-26T08:28:20Z</time>
      </trkpt>
      <trkpt lat="43.84597" lon="6.51445">
        <ele>724</ele>
        <time>2018-05-26T08:28:21Z</time>
      </trkpt>
      <trkpt lat="43.846" lon="6.51449">
        <ele>724</ele>
        <time>2018-05-26T08:28:22Z</time>
      </trkpt>
      <trkpt lat="43.84603" lon="6.51452">
        <ele>724</ele>
        <time>2018-05-26T08:28:23Z</time>
      </trkpt>
      <trkpt lat="43.84607" lon="6.51456">
        <ele>725</ele>
        <time>2018-05-26T08:28:24Z</time>
      </trkpt>
      <trkpt lat="43.84643" lon="6.51503">
        <ele>733</ele>
        <time>2018-05-26T08:28:38Z</time>
      </trkpt>
      <trkpt lat="43.84642" lon="6.51508">
        <ele>733</ele>
        <time>2018-05-26T08:28:39Z</time>
      </trkpt>
      <trkpt lat="43.84641" lon="6.51512">
        <ele>734</ele>
        <time>2018-05-26T08:28:40Z</time>
      </trkpt>
      <trkpt lat="43.84628" lon="6.5156">
        <ele>736</ele>
        <time>2018-05-26T08:28:52Z</time>
      </trkpt>
      <trkpt lat="43.84621" lon="6.51589">
        <ele>738</ele>
        <time>2018-05-26T08:29:01Z</time>
      </trkpt>
      <trkpt lat="43.84603" lon="6.51634">
        <ele>740</ele>
        <time>2018-05-26T08:29:13Z</time>
      </trkpt>
      <trkpt lat="43.84578" lon="6.51666">
        <ele>751</ele>
        <time>2018-05-26T08:29:25Z</time>
      </trkpt>
      <trkpt lat="43.84576" lon="6.51666">
        <ele>749</ele>
        <time>2018-05-26T08:29:26Z</time>
      </trkpt>
      <trkpt lat="43.84574" lon="6.51666">
        <ele>746</ele>
        <time>2018-05-26T08:29:27Z</time>
      </trkpt>
      <trkpt lat="43.84572" lon="6.51665">
        <ele>744</ele>
        <time>2018-05-26T08:29:28Z</time>
      </trkpt>
      <trkpt lat="43.8457" lon="6.51664">
        <ele>741</ele>
        <time>2018-05-26T08:29:29Z</time>
      </trkpt>
      <trkpt lat="43.84568" lon="6.51663">
        <ele>739</ele>
        <time>2018-05-26T08:29:30Z</time>
      </trkpt>
      <trkpt lat="43.84567" lon="6.51662">
        <ele>736</ele>
        <time>2018-05-26T08:29:31Z</time>
      </trkpt>
      <trkpt lat="43.84565" lon="6.51662">
        <ele>734</ele>
        <time>2018-05-26T08:29:32Z</time>
      </trkpt>
      <trkpt lat="43.8456" lon="6.51663">
        <ele>731</ele>
        <time>2018-05-26T08:29:44Z</time>
      </trkpt>
      <trkpt lat="43.84563" lon="6.51662">
        <ele>732</ele>
        <time>2018-05-26T08:29:59Z</time>
      </trkpt>
      <trkpt lat="43.84561" lon="6.51665">
        <ele>732</ele>
        <time>2018-05-26T08:30:28Z</time>
      </trkpt>
      <trkpt lat="43.84561" lon="6.51665">
        <ele>732</ele>
        <time>2018-05-26T08:30:48Z</time>
      </trkpt>
      <trkpt lat="43.84559" lon="6.5166">
        <ele>731</ele>
        <time>2018-05-26T08:31:20Z</time>
      </trkpt>
      <trkpt lat="43.84563" lon="6.51663">
        <ele>733</ele>
        <time>2018-05-26T08:31:46Z</time>
      </trkpt>
      <trkpt lat="43.84563" lon="6.51668">
        <ele>734</ele>
        <time>2018-05-26T08:32:18Z</time>
      </trkpt>
      <trkpt lat="43.84558" lon="6.51664">
        <ele>732</ele>
        <time>2018-05-26T08:32:56Z</time>
      </trkpt>
      <trkpt lat="43.84559" lon="6.51665">
        <ele>732</ele>
        <time>2018-05-26T08:33:21Z</time>
      </trkpt>
      <trkpt lat="43.84558" lon="6.51666">
        <ele>732</ele>
        <time>2018-05-26T08:33:52Z</time>
      </trkpt>
      <trkpt lat="43.8456" lon="6.51662">
        <ele>731</ele>
        <time>2018-05-26T08:34:06Z</time>
      </trkpt>
      <trkpt lat="43.84563" lon="6.51664">
        <ele>733</ele>
        <time>2018-05-26T08:34:09Z</time>
      </trkpt>
      <trkpt lat="43.84565" lon="6.51664">
        <ele>735</ele>
        <time>2018-05-26T08:34:10Z</time>
      </trkpt>
      <trkpt lat="43.84568" lon="6.51664">
        <ele>738</ele>
        <time>2018-05-26T08:34:11Z</time>
      </trkpt>
      <trkpt lat="43.84571" lon="6.51665">
        <ele>742</ele>
        <time>2018-05-26T08:34:12Z</time>
      </trkpt>
      <trkpt lat="43.84573" lon="6.51666">
        <ele>745</ele>
        <time>2018-05-26T08:34:13Z</time>
      </trkpt>
      <trkpt lat="43.84575" lon="6.51669">
        <ele>749</ele>
        <time>2018-05-26T08:34:14Z</time>
      </trkpt>
      <trkpt lat="43.84575" lon="6.51673">
        <ele>752</ele>
        <time>2018-05-26T08:34:15Z</time>
      </trkpt>
      <trkpt lat="43.84575" lon="6.51677">
        <ele>754</ele>
        <time>2018-05-26T08:34:16Z</time>
      </trkpt>
      <trkpt lat="43.84574" lon="6.51698">
        <ele>766</ele>
        <time>2018-05-26T08:34:19Z</time>
      </trkpt>
      <trkpt lat="43.84572" lon="6.51735">
        <ele>805</ele>
        <time>2018-05-26T08:34:23Z</time>
      </trkpt>
      <trkpt lat="43.84569" lon="6.51758">
        <ele>820</ele>
        <time>2018-05-26T08:34:25Z</time>
      </trkpt>
      <trkpt lat="43.84566" lon="6.51768">
        <ele>811</ele>
        <time>2018-05-26T08:34:26Z</time>
      </trkpt>
      <trkpt lat="43.84563" lon="6.51777">
        <ele>800</ele>
        <time>2018-05-26T08:34:27Z</time>
      </trkpt>
      <trkpt lat="43.84555" lon="6.51794">
        <ele>778</ele>
        <time>2018-05-26T08:34:29Z</time>
      </trkpt>
      <trkpt lat="43.84553" lon="6.51802">
        <ele>771</ele>
        <time>2018-05-26T08:34:30Z</time>
      </trkpt>
      <trkpt lat="43.84553" lon="6.51809">
        <ele>768</ele>
        <time>2018-05-26T08:34:31Z</time>
      </trkpt>
      <trkpt lat="43.84554" lon="6.51816">
        <ele>766</ele>
        <time>2018-05-26T08:34:32Z</time>
      </trkpt>
      <trkpt lat="43.84555" lon="6.51823">
        <ele>764</ele>
        <time>2018-05-26T08:34:33Z</time>
      </trkpt>
      <trkpt lat="43.84568" lon="6.51872">
        <ele>749</ele>
        <time>2018-05-26T08:34:40Z</time>
      </trkpt>
      <trkpt lat="43.84568" lon="6.51879">
        <ele>744</ele>
        <time>2018-05-26T08:34:41Z</time>
      </trkpt>
      <trkpt lat="43.84569" lon="6.51885">
        <ele>741</ele>
        <time>2018-05-26T08:34:42Z</time>
      </trkpt>
      <trkpt lat="43.84569" lon="6.51891">
        <ele>741</ele>
        <time>2018-05-26T08:34:43Z</time>
      </trkpt>
      <trkpt lat="43.8457" lon="6.51896">
        <ele>741</ele>
        <time>2018-05-26T08:34:44Z</time>
      </trkpt>
      <trkpt lat="43.84572" lon="6.51902">
        <ele>741</ele>
        <time>2018-05-26T08:34:45Z</time>
      </trkpt>
      <trkpt lat="43.84573" lon="6.51907">
        <ele>741</ele>
        <time>2018-05-26T08:34:46Z</time>
      </trkpt>
      <trkpt lat="43.84575" lon="6.51913">
        <ele>741</ele>
        <time>2018-05-26T08:34:47Z</time>
      </trkpt>
      <trkpt lat="43.84576" lon="6.51919">
        <ele>741</ele>
        <time>2018-05-26T08:34:48Z</time>
      </trkpt>
      <trkpt lat="43.84578" lon="6.51925">
        <ele>740</ele>
        <time>2018-05-26T08:34:49Z</time>
      </trkpt>
      <trkpt lat="43.84587" lon="6.52005">
        <ele>735</ele>
        <time>2018-05-26T08:35:01Z</time>
      </trkpt>
      <trkpt lat="43.84576" lon="6.52089">
        <ele>741</ele>
        <time>2018-05-26T08:35:17Z</time>
      </trkpt>
      <trkpt lat="43.84565" lon="6.52145">
        <ele>742</ele>
        <time>2018-05-26T08:35:29Z</time>
      </trkpt>
      <trkpt lat="43.84553" lon="6.52228">
        <ele>740</ele>
        <time>2018-05-26T08:35:43Z</time>
      </trkpt>
      <trkpt lat="43.84549" lon="6.52282">
        <ele>742</ele>
        <time>2018-05-26T08:35:55Z</time>
      </trkpt>
      <trkpt lat="43.84549" lon="6.5229">
        <ele>743</ele>
        <time>2018-05-26T08:35:57Z</time>
      </trkpt>
      <trkpt lat="43.84549" lon="6.52294">
        <ele>743</ele>
        <time>2018-05-26T08:35:58Z</time>
      </trkpt>
      <trkpt lat="43.84549" lon="6.52298">
        <ele>743</ele>
        <time>2018-05-26T08:35:59Z</time>
      </trkpt>
      <trkpt lat="43.84549" lon="6.52304">
        <ele>744</ele>
        <time>2018-05-26T08:36:00Z</time>
      </trkpt>
      <trkpt lat="43.84548" lon="6.52309">
        <ele>744</ele>
        <time>2018-05-26T08:36:01Z</time>
      </trkpt>
      <trkpt lat="43.84548" lon="6.52315">
        <ele>744</ele>
        <time>2018-05-26T08:36:02Z</time>
      </trkpt>
      <trkpt lat="43.84548" lon="6.5232">
        <ele>745</ele>
        <time>2018-05-26T08:36:03Z</time>
      </trkpt>
      <trkpt lat="43.84548" lon="6.52325">
        <ele>745</ele>
        <time>2018-05-26T08:36:04Z</time>
      </trkpt>
      <trkpt lat="43.84548" lon="6.52344">
        <ele>748</ele>
        <time>2018-05-26T08:36:08Z</time>
      </trkpt>
      <trkpt lat="43.84546" lon="6.52348">
        <ele>747</ele>
        <time>2018-05-26T08:36:09Z</time>
      </trkpt>
      <trkpt lat="43.84545" lon="6.52352">
        <ele>747</ele>
        <time>2018-05-26T08:36:10Z</time>
      </trkpt>
      <trkpt lat="43.84544" lon="6.52354">
        <ele>746</ele>
        <time>2018-05-26T08:36:11Z</time>
      </trkpt>
      <trkpt lat="43.84543" lon="6.52356">
        <ele>746</ele>
        <time>2018-05-26T08:36:12Z</time>
      </trkpt>
      <trkpt lat="43.84531" lon="6.52371">
        <ele>742</ele>
        <time>2018-05-26T08:36:19Z</time>
      </trkpt>
      <trkpt lat="43.84531" lon="6.52373">
        <ele>742</ele>
        <time>2018-05-26T08:36:20Z</time>
      </trkpt>
      <trkpt lat="43.84524" lon="6.52419">
        <ele>744</ele>
        <time>2018-05-26T08:36:31Z</time>
      </trkpt>
      <trkpt lat="43.84518" lon="6.52461">
        <ele>745</ele>
        <time>2018-05-26T08:36:42Z</time>
      </trkpt>
      <trkpt lat="43.84513" lon="6.52472">
        <ele>744</ele>
        <time>2018-05-26T08:36:48Z</time>
      </trkpt>
      <trkpt lat="43.84499" lon="6.52487">
        <ele>740</ele>
        <time>2018-05-26T08:36:56Z</time>
      </trkpt>
      <trkpt lat="43.84498" lon="6.52491">
        <ele>740</ele>
        <time>2018-05-26T08:36:57Z</time>
      </trkpt>
      <trkpt lat="43.84497" lon="6.52495">
        <ele>740</ele>
        <time>2018-05-26T08:36:58Z</time>
      </trkpt>
      <trkpt lat="43.84496" lon="6.52498">
        <ele>740</ele>
        <time>2018-05-26T08:36:59Z</time>
      </trkpt>
      <trkpt lat="43.84483" lon="6.52535">
        <ele>738</ele>
        <time>2018-05-26T08:37:10Z</time>
      </trkpt>
      <trkpt lat="43.84479" lon="6.52569">
        <ele>740</ele>
        <time>2018-05-26T08:37:22Z</time>
      </trkpt>
      <trkpt lat="43.84478" lon="6.5257">
        <ele>740</ele>
        <time>2018-05-26T08:37:23Z</time>
      </trkpt>
      <trkpt lat="43.84477" lon="6.52571">
        <ele>740</ele>
        <time>2018-05-26T08:37:24Z</time>
      </trkpt>
      <trkpt lat="43.84472" lon="6.52575">
        <ele>740</ele>
        <time>2018-05-26T08:37:29Z</time>
      </trkpt>
      <trkpt lat="43.84469" lon="6.52586">
        <ele>740</ele>
        <time>2018-05-26T08:37:42Z</time>
      </trkpt>
      <trkpt lat="43.84464" lon="6.52592">
        <ele>739</ele>
        <time>2018-05-26T08:38:01Z</time>
      </trkpt>
      <trkpt lat="43.84459" lon="6.52608">
        <ele>739</ele>
        <time>2018-05-26T08:38:18Z</time>
      </trkpt>
      <trkpt lat="43.84457" lon="6.52617">
        <ele>739</ele>
        <time>2018-05-26T08:38:33Z</time>
      </trkpt>
      <trkpt lat="43.84454" lon="6.52627">
        <ele>738</ele>
        <time>2018-05-26T08:38:47Z</time>
      </trkpt>
      <trkpt lat="43.8445" lon="6.52633">
        <ele>738</ele>
        <time>2018-05-26T08:38:56Z</time>
      </trkpt>
      <trkpt lat="43.84441" lon="6.52649">
        <ele>735</ele>
        <time>2018-05-26T08:39:05Z</time>
      </trkpt>
      <trkpt lat="43.84416" lon="6.52687">
        <ele>734</ele>
        <time>2018-05-26T08:39:19Z</time>
      </trkpt>
      <trkpt lat="43.84411" lon="6.52703">
        <ele>734</ele>
        <time>2018-05-26T08:39:26Z</time>
      </trkpt>
      <trkpt lat="43.84413" lon="6.52734">
        <ele>733</ele>
        <time>2018-05-26T08:39:33Z</time>
      </trkpt>
      <trkpt lat="43.8443" lon="6.52775">
        <ele>733</ele>
        <time>2018-05-26T08:39:44Z</time>
      </trkpt>
      <trkpt lat="43.84431" lon="6.52776">
        <ele>733</ele>
        <time>2018-05-26T08:39:45Z</time>
      </trkpt>
      <trkpt lat="43.84437" lon="6.52794">
        <ele>734</ele>
        <time>2018-05-26T08:39:58Z</time>
      </trkpt>
      <trkpt lat="43.8444" lon="6.52805">
        <ele>735</ele>
        <time>2018-05-26T08:40:13Z</time>
      </trkpt>
      <trkpt lat="43.84438" lon="6.52814">
        <ele>735</ele>
        <time>2018-05-26T08:40:21Z</time>
      </trkpt>
      <trkpt lat="43.84439" lon="6.52818">
        <ele>735</ele>
        <time>2018-05-26T08:40:35Z</time>
      </trkpt>
      <trkpt lat="43.8444" lon="6.52829">
        <ele>736</ele>
        <time>2018-05-26T08:40:41Z</time>
      </trkpt>
      <trkpt lat="43.84444" lon="6.52855">
        <ele>738</ele>
        <time>2018-05-26T08:40:54Z</time>
      </trkpt>
      <trkpt lat="43.84442" lon="6.52858">
        <ele>737</ele>
        <time>2018-05-26T08:41:06Z</time>
      </trkpt>
      <trkpt lat="43.84439" lon="6.52862">
        <ele>737</ele>
        <time>2018-05-26T08:41:44Z</time>
      </trkpt>
      <trkpt lat="43.84447" lon="6.52857">
        <ele>738</ele>
        <time>2018-05-26T08:42:22Z</time>
      </trkpt>
      <trkpt lat="43.84445" lon="6.52855">
        <ele>738</ele>
        <time>2018-05-26T08:42:54Z</time>
      </trkpt>
      <trkpt lat="43.84439" lon="6.52825">
        <ele>736</ele>
        <time>2018-05-26T08:43:05Z</time>
      </trkpt>
      <trkpt lat="43.84441" lon="6.52816">
        <ele>735</ele>
        <time>2018-05-26T08:43:16Z</time>
      </trkpt>
      <trkpt lat="43.84439" lon="6.52807">
        <ele>735</ele>
        <time>2018-05-26T08:43:31Z</time>
      </trkpt>
      <trkpt lat="43.84437" lon="6.52801">
        <ele>735</ele>
        <time>2018-05-26T08:43:41Z</time>
      </trkpt>
      <trkpt lat="43.84436" lon="6.52793">
        <ele>734</ele>
        <time>2018-05-26T08:43:44Z</time>
      </trkpt>
      <trkpt lat="43.84419" lon="6.52761">
        <ele>733</ele>
        <time>2018-05-26T08:43:54Z</time>
      </trkpt>
      <trkpt lat="43.8441" lon="6.5273">
        <ele>733</ele>
        <time>2018-05-26T08:44:01Z</time>
      </trkpt>
      <trkpt lat="43.84411" lon="6.52716">
        <ele>734</ele>
        <time>2018-05-26T08:44:09Z</time>
      </trkpt>
      <trkpt lat="43.84412" lon="6.52705">
        <ele>734</ele>
        <time>2018-05-26T08:44:22Z</time>
      </trkpt>
      <trkpt lat="43.84412" lon="6.52702">
        <ele>734</ele>
        <time>2018-05-26T08:44:29Z</time>
      </trkpt>
      <trkpt lat="43.8442" lon="6.5268">
        <ele>734</ele>
        <time>2018-05-26T08:44:39Z</time>
      </trkpt>
      <trkpt lat="43.84437" lon="6.52652">
        <ele>735</ele>
        <time>2018-05-26T08:44:53Z</time>
      </trkpt>
      <trkpt lat="43.84442" lon="6.52645">
        <ele>736</ele>
        <time>2018-05-26T08:44:57Z</time>
      </trkpt>
      <trkpt lat="43.84448" lon="6.52633">
        <ele>737</ele>
        <time>2018-05-26T08:45:12Z</time>
      </trkpt>
      <trkpt lat="43.84453" lon="6.52613">
        <ele>738</ele>
        <time>2018-05-26T08:45:26Z</time>
      </trkpt>
      <trkpt lat="43.84461" lon="6.52588">
        <ele>739</ele>
        <time>2018-05-26T08:45:39Z</time>
      </trkpt>
      <trkpt lat="43.84465" lon="6.52579">
        <ele>739</ele>
        <time>2018-05-26T08:45:44Z</time>
      </trkpt>
      <trkpt lat="43.84468" lon="6.52577">
        <ele>739</ele>
        <time>2018-05-26T08:45:47Z</time>
      </trkpt>
      <trkpt lat="43.8447" lon="6.52573">
        <ele>739</ele>
        <time>2018-05-26T08:45:50Z</time>
      </trkpt>
      <trkpt lat="43.84471" lon="6.52563">
        <ele>739</ele>
        <time>2018-05-26T08:46:06Z</time>
      </trkpt>
      <trkpt lat="43.84471" lon="6.52561">
        <ele>739</ele>
        <time>2018-05-26T08:46:17Z</time>
      </trkpt>
      <trkpt lat="43.84474" lon="6.52541">
        <ele>738</ele>
        <time>2018-05-26T08:46:25Z</time>
      </trkpt>
      <trkpt lat="43.84478" lon="6.52531">
        <ele>738</ele>
        <time>2018-05-26T08:46:31Z</time>
      </trkpt>
      <trkpt lat="43.84483" lon="6.52516">
        <ele>737</ele>
        <time>2018-05-26T08:46:39Z</time>
      </trkpt>
      <trkpt lat="43.84484" lon="6.52513">
        <ele>737</ele>
        <time>2018-05-26T08:46:41Z</time>
      </trkpt>
      <trkpt lat="43.84491" lon="6.52495">
        <ele>738</ele>
        <time>2018-05-26T08:46:51Z</time>
      </trkpt>
      <trkpt lat="43.84501" lon="6.52483">
        <ele>741</ele>
        <time>2018-05-26T08:46:57Z</time>
      </trkpt>
      <trkpt lat="43.84502" lon="6.52479">
        <ele>741</ele>
        <time>2018-05-26T08:46:58Z</time>
      </trkpt>
      <trkpt lat="43.84503" lon="6.52477">
        <ele>741</ele>
        <time>2018-05-26T08:46:59Z</time>
      </trkpt>
      <trkpt lat="43.84503" lon="6.52474">
        <ele>741</ele>
        <time>2018-05-26T08:47:00Z</time>
      </trkpt>
      <trkpt lat="43.84504" lon="6.5247">
        <ele>741</ele>
        <time>2018-05-26T08:47:01Z</time>
      </trkpt>
      <trkpt lat="43.84505" lon="6.52467">
        <ele>741</ele>
        <time>2018-05-26T08:47:02Z</time>
      </trkpt>
      <trkpt lat="43.84506" lon="6.52463">
        <ele>741</ele>
        <time>2018-05-26T08:47:03Z</time>
      </trkpt>
      <trkpt lat="43.84507" lon="6.52459">
        <ele>742</ele>
        <time>2018-05-26T08:47:04Z</time>
      </trkpt>
      <trkpt lat="43.84508" lon="6.52455">
        <ele>742</ele>
        <time>2018-05-26T08:47:05Z</time>
      </trkpt>
      <trkpt lat="43.84509" lon="6.5245">
        <ele>742</ele>
        <time>2018-05-26T08:47:06Z</time>
      </trkpt>
      <trkpt lat="43.84516" lon="6.5239">
        <ele>740</ele>
        <time>2018-05-26T08:47:20Z</time>
      </trkpt>
      <trkpt lat="43.84523" lon="6.52375">
        <ele>740</ele>
        <time>2018-05-26T08:47:31Z</time>
      </trkpt>
      <trkpt lat="43.84524" lon="6.52375">
        <ele>741</ele>
        <time>2018-05-26T08:47:49Z</time>
      </trkpt>
      <trkpt lat="43.8453" lon="6.52369">
        <ele>742</ele>
        <time>2018-05-26T08:47:53Z</time>
      </trkpt>
      <trkpt lat="43.84532" lon="6.52367">
        <ele>742</ele>
        <time>2018-05-26T08:47:54Z</time>
      </trkpt>
      <trkpt lat="43.84533" lon="6.52363">
        <ele>742</ele>
        <time>2018-05-26T08:47:55Z</time>
      </trkpt>
      <trkpt lat="43.84534" lon="6.52359">
        <ele>741</ele>
        <time>2018-05-26T08:47:56Z</time>
      </trkpt>
      <trkpt lat="43.84535" lon="6.52354">
        <ele>741</ele>
        <time>2018-05-26T08:47:57Z</time>
      </trkpt>
      <trkpt lat="43.84535" lon="6.52349">
        <ele>740</ele>
        <time>2018-05-26T08:47:58Z</time>
      </trkpt>
      <trkpt lat="43.84536" lon="6.52344">
        <ele>740</ele>
        <time>2018-05-26T08:47:59Z</time>
      </trkpt>
      <trkpt lat="43.84537" lon="6.52339">
        <ele>740</ele>
        <time>2018-05-26T08:48:00Z</time>
      </trkpt>
      <trkpt lat="43.84538" lon="6.52317">
        <ele>738</ele>
        <time>2018-05-26T08:48:04Z</time>
      </trkpt>
      <trkpt lat="43.84545" lon="6.52262">
        <ele>739</ele>
        <time>2018-05-26T08:48:13Z</time>
      </trkpt>
      <trkpt lat="43.84545" lon="6.52256">
        <ele>739</ele>
        <time>2018-05-26T08:48:14Z</time>
      </trkpt>
      <trkpt lat="43.84553" lon="6.52193">
        <ele>738</ele>
        <time>2018-05-26T08:48:27Z</time>
      </trkpt>
      <trkpt lat="43.84563" lon="6.52157">
        <ele>741</ele>
        <time>2018-05-26T08:48:41Z</time>
      </trkpt>
      <trkpt lat="43.84562" lon="6.52152">
        <ele>741</ele>
        <time>2018-05-26T08:48:48Z</time>
      </trkpt>
      <trkpt lat="43.84562" lon="6.52149">
        <ele>741</ele>
        <time>2018-05-26T08:48:49Z</time>
      </trkpt>
      <trkpt lat="43.84562" lon="6.52146">
        <ele>741</ele>
        <time>2018-05-26T08:48:50Z</time>
      </trkpt>
      <trkpt lat="43.84563" lon="6.52143">
        <ele>741</ele>
        <time>2018-05-26T08:48:51Z</time>
      </trkpt>
      <trkpt lat="43.84563" lon="6.5214">
        <ele>742</ele>
        <time>2018-05-26T08:48:52Z</time>
      </trkpt>
      <trkpt lat="43.84564" lon="6.52137">
        <ele>742</ele>
        <time>2018-05-26T08:48:53Z</time>
      </trkpt>
      <trkpt lat="43.84565" lon="6.52132">
        <ele>742</ele>
        <time>2018-05-26T08:48:54Z</time>
      </trkpt>
      <trkpt lat="43.84574" lon="6.52084">
        <ele>740</ele>
        <time>2018-05-26T08:49:05Z</time>
      </trkpt>
      <trkpt lat="43.84575" lon="6.52082">
        <ele>740</ele>
        <time>2018-05-26T08:49:06Z</time>
      </trkpt>
      <trkpt lat="43.84576" lon="6.52079">
        <ele>739</ele>
        <time>2018-05-26T08:49:07Z</time>
      </trkpt>
      <trkpt lat="43.84585" lon="6.52014">
        <ele>735</ele>
        <time>2018-05-26T08:49:23Z</time>
      </trkpt>
      <trkpt lat="43.84584" lon="6.51984">
        <ele>736</ele>
        <time>2018-05-26T08:49:29Z</time>
      </trkpt>
      <trkpt lat="43.84579" lon="6.5195">
        <ele>735</ele>
        <time>2018-05-26T08:49:35Z</time>
      </trkpt>
      <trkpt lat="43.84578" lon="6.51944">
        <ele>735</ele>
        <time>2018-05-26T08:49:36Z</time>
      </trkpt>
      <trkpt lat="43.84568" lon="6.51886">
        <ele>741</ele>
        <time>2018-05-26T08:49:49Z</time>
      </trkpt>
      <trkpt lat="43.84567" lon="6.51871">
        <ele>749</ele>
        <time>2018-05-26T08:49:52Z</time>
      </trkpt>
      <trkpt lat="43.8456" lon="6.5184">
        <ele>763</ele>
        <time>2018-05-26T08:49:57Z</time>
      </trkpt>
      <trkpt lat="43.84559" lon="6.51834">
        <ele>765</ele>
        <time>2018-05-26T08:49:58Z</time>
      </trkpt>
      <trkpt lat="43.84555" lon="6.51802">
        <ele>774</ele>
        <time>2018-05-26T08:50:05Z</time>
      </trkpt>
      <trkpt lat="43.84556" lon="6.51796">
        <ele>778</ele>
        <time>2018-05-26T08:50:06Z</time>
      </trkpt>
      <trkpt lat="43.84559" lon="6.51792">
        <ele>785</ele>
        <time>2018-05-26T08:50:07Z</time>
      </trkpt>
      <trkpt lat="43.8456" lon="6.51788">
        <ele>791</ele>
        <time>2018-05-26T08:50:08Z</time>
      </trkpt>
      <trkpt lat="43.84563" lon="6.51784">
        <ele>797</ele>
        <time>2018-05-26T08:50:09Z</time>
      </trkpt>
      <trkpt lat="43.84565" lon="6.5178">
        <ele>803</ele>
        <time>2018-05-26T08:50:10Z</time>
      </trkpt>
      <trkpt lat="43.84567" lon="6.51776">
        <ele>810</ele>
        <time>2018-05-26T08:50:11Z</time>
      </trkpt>
      <trkpt lat="43.84579" lon="6.51724">
        <ele>805</ele>
        <time>2018-05-26T08:50:22Z</time>
      </trkpt>
      <trkpt lat="43.84583" lon="6.51694">
        <ele>779</ele>
        <time>2018-05-26T08:50:33Z</time>
      </trkpt>
      <trkpt lat="43.84582" lon="6.51677">
        <ele>764</ele>
        <time>2018-05-26T08:50:38Z</time>
      </trkpt>
      <trkpt lat="43.84581" lon="6.51674">
        <ele>759</ele>
        <time>2018-05-26T08:50:39Z</time>
      </trkpt>
      <trkpt lat="43.84579" lon="6.51672">
        <ele>756</ele>
        <time>2018-05-26T08:50:40Z</time>
      </trkpt>
      <trkpt lat="43.84576" lon="6.51671">
        <ele>752</ele>
        <time>2018-05-26T08:50:41Z</time>
      </trkpt>
      <trkpt lat="43.84574" lon="6.51671">
        <ele>749</ele>
        <time>2018-05-26T08:50:42Z</time>
      </trkpt>
      <trkpt lat="43.84571" lon="6.51671">
        <ele>746</ele>
        <time>2018-05-26T08:50:43Z</time>
      </trkpt>
      <trkpt lat="43.84569" lon="6.5167">
        <ele>742</ele>
        <time>2018-05-26T08:50:44Z</time>
      </trkpt>
      <trkpt lat="43.84566" lon="6.51668">
        <ele>739</ele>
        <time>2018-05-26T08:50:45Z</time>
      </trkpt>
      <trkpt lat="43.84564" lon="6.51667">
        <ele>735</ele>
        <time>2018-05-26T08:50:46Z</time>
      </trkpt>
      <trkpt lat="43.84562" lon="6.51666">
        <ele>733</ele>
        <time>2018-05-26T08:50:47Z</time>
      </trkpt>
      <trkpt lat="43.84527" lon="6.51653">
        <ele>731</ele>
        <time>2018-05-26T08:50:58Z</time>
      </trkpt>
      <trkpt lat="43.84516" lon="6.51666">
        <ele>732</ele>
        <time>2018-05-26T08:51:04Z</time>
      </trkpt>
      <trkpt lat="43.84516" lon="6.5167">
        <ele>732</ele>
        <time>2018-05-26T08:51:05Z</time>
      </trkpt>
      <trkpt lat="43.84516" lon="6.51674">
        <ele>732</ele>
        <time>2018-05-26T08:51:06Z</time>
      </trkpt>
      <trkpt lat="43.84516" lon="6.51678">
        <ele>732</ele>
        <time>2018-05-26T08:51:07Z</time>
      </trkpt>
      <trkpt lat="43.84516" lon="6.51681">
        <ele>732</ele>
        <time>2018-05-26T08:51:08Z</time>
      </trkpt>
      <trkpt lat="43.84515" lon="6.51685">
        <ele>732</ele>
        <time>2018-05-26T08:51:09Z</time>
      </trkpt>
      <trkpt lat="43.84515" lon="6.51688">
        <ele>733</ele>
        <time>2018-05-26T08:51:10Z</time>
      </trkpt>
      <trkpt lat="43.84514" lon="6.51692">
        <ele>733</ele>
        <time>2018-05-26T08:51:11Z</time>
      </trkpt>
      <trkpt lat="43.84513" lon="6.51695">
        <ele>733</ele>
        <time>2018-05-26T08:51:12Z</time>
      </trkpt>
      <trkpt lat="43.84512" lon="6.517">
        <ele>734</ele>
        <time>2018-05-26T08:51:13Z</time>
      </trkpt>
      <trkpt lat="43.84511" lon="6.51705">
        <ele>734</ele>
        <time>2018-05-26T08:51:14Z</time>
      </trkpt>
      <trkpt lat="43.8451" lon="6.5171">
        <ele>734</ele>
        <time>2018-05-26T08:51:15Z</time>
      </trkpt>
      <trkpt lat="43.84509" lon="6.51716">
        <ele>734</ele>
        <time>2018-05-26T08:51:16Z</time>
      </trkpt>
      <trkpt lat="43.84508" lon="6.51723">
        <ele>735</ele>
        <time>2018-05-26T08:51:17Z</time>
      </trkpt>
      <trkpt lat="43.84506" lon="6.5173">
        <ele>735</ele>
        <time>2018-05-26T08:51:18Z</time>
      </trkpt>
      <trkpt lat="43.84472" lon="6.51835">
        <ele>739</ele>
        <time>2018-05-26T08:51:32Z</time>
      </trkpt>
      <trkpt lat="43.84442" lon="6.51942">
        <ele>742</ele>
        <time>2018-05-26T08:51:45Z</time>
      </trkpt>
      <trkpt lat="43.8444" lon="6.5195">
        <ele>742</ele>
        <time>2018-05-26T08:51:46Z</time>
      </trkpt>
      <trkpt lat="43.8443" lon="6.51981">
        <ele>740</ele>
        <time>2018-05-26T08:51:50Z</time>
      </trkpt>
      <trkpt lat="43.84416" lon="6.52038">
        <ele>740</ele>
        <time>2018-05-26T08:51:58Z</time>
      </trkpt>
      <trkpt lat="43.84409" lon="6.52056">
        <ele>741</ele>
        <time>2018-05-26T08:52:01Z</time>
      </trkpt>
      <trkpt lat="43.84398" lon="6.52078">
        <ele>744</ele>
        <time>2018-05-26T08:52:05Z</time>
      </trkpt>
      <trkpt lat="43.84395" lon="6.52084">
        <ele>744</ele>
        <time>2018-05-26T08:52:06Z</time>
      </trkpt>
      <trkpt lat="43.84392" lon="6.52089">
        <ele>744</ele>
        <time>2018-05-26T08:52:07Z</time>
      </trkpt>
      <trkpt lat="43.84389" lon="6.52094">
        <ele>744</ele>
        <time>2018-05-26T08:52:08Z</time>
      </trkpt>
      <trkpt lat="43.84386" lon="6.52099">
        <ele>744</ele>
        <time>2018-05-26T08:52:09Z</time>
      </trkpt>
      <trkpt lat="43.84381" lon="6.52109">
        <ele>743</ele>
        <time>2018-05-26T08:52:11Z</time>
      </trkpt>
      <trkpt lat="43.84365" lon="6.52133">
        <ele>743</ele>
        <time>2018-05-26T08:52:16Z</time>
      </trkpt>
      <trkpt lat="43.84344" lon="6.52175">
        <ele>745</ele>
        <time>2018-05-26T08:52:24Z</time>
      </trkpt>
      <trkpt lat="43.8432" lon="6.52254">
        <ele>742</ele>
        <time>2018-05-26T08:52:37Z</time>
      </trkpt>
      <trkpt lat="43.84291" lon="6.52355">
        <ele>745</ele>
        <time>2018-05-26T08:52:53Z</time>
      </trkpt>
      <trkpt lat="43.84281" lon="6.52398">
        <ele>744</ele>
        <time>2018-05-26T08:53:00Z</time>
      </trkpt>
      <trkpt lat="43.84265" lon="6.52464">
        <ele>741</ele>
        <time>2018-05-26T08:53:11Z</time>
      </trkpt>
      <trkpt lat="43.84261" lon="6.52478">
        <ele>740</ele>
        <time>2018-05-26T08:53:13Z</time>
      </trkpt>
      <trkpt lat="43.8424" lon="6.52527">
        <ele>742</ele>
        <time>2018-05-26T08:53:21Z</time>
      </trkpt>
      <trkpt lat="43.84231" lon="6.52545">
        <ele>741</ele>
        <time>2018-05-26T08:53:24Z</time>
      </trkpt>
      <trkpt lat="43.84205" lon="6.52623">
        <ele>737</ele>
        <time>2018-05-26T08:53:39Z</time>
      </trkpt>
      <trkpt lat="43.84204" lon="6.5263">
        <ele>737</ele>
        <time>2018-05-26T08:53:49Z</time>
      </trkpt>
      <trkpt lat="43.84206" lon="6.5263">
        <ele>737</ele>
        <time>2018-05-26T08:54:00Z</time>
      </trkpt>
      <trkpt lat="43.8421" lon="6.52631">
        <ele>736</ele>
        <time>2018-05-26T08:54:03Z</time>
      </trkpt>
      <trkpt lat="43.84212" lon="6.52628">
        <ele>736</ele>
        <time>2018-05-26T08:54:04Z</time>
      </trkpt>
      <trkpt lat="43.84213" lon="6.52626">
        <ele>736</ele>
        <time>2018-05-26T08:54:05Z</time>
      </trkpt>
      <trkpt lat="43.84213" lon="6.52623">
        <ele>736</ele>
        <time>2018-05-26T08:54:06Z</time>
      </trkpt>
      <trkpt lat="43.84214" lon="6.5262">
        <ele>736</ele>
        <time>2018-05-26T08:54:07Z</time>
      </trkpt>
      <trkpt lat="43.84214" lon="6.52616">
        <ele>736</ele>
        <time>2018-05-26T08:54:08Z</time>
      </trkpt>
      <trkpt lat="43.84215" lon="6.52614">
        <ele>737</ele>
        <time>2018-05-26T08:54:09Z</time>
      </trkpt>
      <trkpt lat="43.84216" lon="6.52611">
        <ele>737</ele>
        <time>2018-05-26T08:54:10Z</time>
      </trkpt>
      <trkpt lat="43.84217" lon="6.52608">
        <ele>737</ele>
        <time>2018-05-26T08:54:11Z</time>
      </trkpt>
      <trkpt lat="43.84221" lon="6.52602">
        <ele>737</ele>
        <time>2018-05-26T08:54:15Z</time>
      </trkpt>
      <trkpt lat="43.84227" lon="6.52613">
        <ele>736</ele>
        <time>2018-05-26T08:54:24Z</time>
      </trkpt>
      <trkpt lat="43.84228" lon="6.52616">
        <ele>736</ele>
        <time>2018-05-26T08:54:25Z</time>
      </trkpt>
      <trkpt lat="43.84229" lon="6.52619">
        <ele>736</ele>
        <time>2018-05-26T08:54:26Z</time>
      </trkpt>
      <trkpt lat="43.84244" lon="6.52643">
        <ele>736</ele>
        <time>2018-05-26T08:54:37Z</time>
      </trkpt>
      <trkpt lat="43.84254" lon="6.52661">
        <ele>736</ele>
        <time>2018-05-26T08:54:44Z</time>
      </trkpt>
      <trkpt lat="43.84261" lon="6.52669">
        <ele>737</ele>
        <time>2018-05-26T08:54:48Z</time>
      </trkpt>
      <trkpt lat="43.84288" lon="6.52694">
        <ele>739</ele>
        <time>2018-05-26T08:55:03Z</time>
      </trkpt>
      <trkpt lat="43.84312" lon="6.52716">
        <ele>739</ele>
        <time>2018-05-26T08:55:16Z</time>
      </trkpt>
      <trkpt lat="43.84336" lon="6.52734">
        <ele>739</ele>
        <time>2018-05-26T08:55:33Z</time>
      </trkpt>
      <trkpt lat="43.84338" lon="6.5273">
        <ele>739</ele>
        <time>2018-05-26T08:55:48Z</time>
      </trkpt>
      <trkpt lat="43.84342" lon="6.52729">
        <ele>739</ele>
        <time>2018-05-26T08:56:18Z</time>
      </trkpt>
      <trkpt lat="43.84341" lon="6.52728">
        <ele>739</ele>
        <time>2018-05-26T08:56:53Z</time>
      </trkpt>
      <trkpt lat="43.84345" lon="6.52728">
        <ele>739</ele>
        <time>2018-05-26T08:57:28Z</time>
      </trkpt>
      <trkpt lat="43.84341" lon="6.52731">
        <ele>739</ele>
        <time>2018-05-26T08:57:51Z</time>
      </trkpt>
      <trkpt lat="43.84335" lon="6.52774">
        <ele>739</ele>
        <time>2018-05-26T08:58:03Z</time>
      </trkpt>
      <trkpt lat="43.84332" lon="6.52826">
        <ele>739</ele>
        <time>2018-05-26T08:58:17Z</time>
      </trkpt>
      <trkpt lat="43.84339" lon="6.5286">
        <ele>739</ele>
        <time>2018-05-26T08:58:29Z</time>
      </trkpt>
      <trkpt lat="43.84344" lon="6.52868">
        <ele>739</ele>
        <time>2018-05-26T08:58:39Z</time>
      </trkpt>
      <trkpt lat="43.84343" lon="6.52872">
        <ele>739</ele>
        <time>2018-05-26T08:58:53Z</time>
      </trkpt>
      <trkpt lat="43.84342" lon="6.5287">
        <ele>739</ele>
        <time>2018-05-26T08:59:10Z</time>
      </trkpt>
      <trkpt lat="43.8434" lon="6.52872">
        <ele>739</ele>
        <time>2018-05-26T08:59:27Z</time>
      </trkpt>
      <trkpt lat="43.8434" lon="6.52874">
        <ele>739</ele>
        <time>2018-05-26T08:59:36Z</time>
      </trkpt>
      <trkpt lat="43.84338" lon="6.52887">
        <ele>739</ele>
        <time>2018-05-26T08:59:42Z</time>
      </trkpt>
      <trkpt lat="43.84336" lon="6.52926">
        <ele>739</ele>
        <time>2018-05-26T08:59:56Z</time>
      </trkpt>
      <trkpt lat="43.84336" lon="6.52928">
        <ele>739</ele>
        <time>2018-05-26T09:00:18Z</time>
      </trkpt>
      <trkpt lat="43.84338" lon="6.52931">
        <ele>739</ele>
        <time>2018-05-26T09:00:40Z</time>
      </trkpt>
      <trkpt lat="43.84337" lon="6.52933">
        <ele>739</ele>
        <time>2018-05-26T09:01:11Z</time>
      </trkpt>
      <trkpt lat="43.84335" lon="6.52931">
        <ele>739</ele>
        <time>2018-05-26T09:01:40Z</time>
      </trkpt>
      <trkpt lat="43.84334" lon="6.52931">
        <ele>739</ele>
        <time>2018-05-26T09:02:09Z</time>
      </trkpt>
      <trkpt lat="43.84335" lon="6.52933">
        <ele>739</ele>
        <time>2018-05-26T09:02:38Z</time>
      </trkpt>
      <trkpt lat="43.84334" lon="6.52942">
        <ele>739</ele>
        <time>2018-05-26T09:02:59Z</time>
      </trkpt>
      <trkpt lat="43.84332" lon="6.5297">
        <ele>739</ele>
        <time>2018-05-26T09:03:10Z</time>
      </trkpt>
      <trkpt lat="43.84329" lon="6.53013">
        <ele>739</ele>
        <time>2018-05-26T09:03:24Z</time>
      </trkpt>
      <trkpt lat="43.84326" lon="6.53052">
        <ele>739</ele>
        <time>2018-05-26T09:03:38Z</time>
      </trkpt>
      <trkpt lat="43.84326" lon="6.53058">
        <ele>739</ele>
        <time>2018-05-26T09:03:40Z</time>
      </trkpt>
      <trkpt lat="43.84343" lon="6.53073">
        <ele>739</ele>
        <time>2018-05-26T09:03:51Z</time>
      </trkpt>
      <trkpt lat="43.84345" lon="6.53073">
        <ele>739</ele>
        <time>2018-05-26T09:03:52Z</time>
      </trkpt>
      <trkpt lat="43.84352" lon="6.53089">
        <ele>739</ele>
        <time>2018-05-26T09:03:58Z</time>
      </trkpt>
      <trkpt lat="43.84358" lon="6.53126">
        <ele>739</ele>
        <time>2018-05-26T09:04:12Z</time>
      </trkpt>
      <trkpt lat="43.84357" lon="6.53155">
        <ele>740</ele>
        <time>2018-05-26T09:04:23Z</time>
      </trkpt>
      <trkpt lat="43.84358" lon="6.53161">
        <ele>740</ele>
        <time>2018-05-26T09:04:25Z</time>
      </trkpt>
      <trkpt lat="43.84355" lon="6.53172">
        <ele>740</ele>
        <time>2018-05-26T09:04:29Z</time>
      </trkpt>
      <trkpt lat="43.84348" lon="6.53178">
        <ele>740</ele>
        <time>2018-05-26T09:04:34Z</time>
      </trkpt>
      <trkpt lat="43.84341" lon="6.53191">
        <ele>740</ele>
        <time>2018-05-26T09:04:46Z</time>
      </trkpt>
      <trkpt lat="43.84334" lon="6.53201">
        <ele>740</ele>
        <time>2018-05-26T09:05:03Z</time>
      </trkpt>
      <trkpt lat="43.84329" lon="6.53209">
        <ele>740</ele>
        <time>2018-05-26T09:05:15Z</time>
      </trkpt>
      <trkpt lat="43.84336" lon="6.53237">
        <ele>740</ele>
        <time>2018-05-26T09:05:27Z</time>
      </trkpt>
      <trkpt lat="43.8434" lon="6.53266">
        <ele>740</ele>
        <time>2018-05-26T09:05:43Z</time>
      </trkpt>
      <trkpt lat="43.84342" lon="6.53265">
        <ele>740</ele>
        <time>2018-05-26T09:06:04Z</time>
      </trkpt>
      <trkpt lat="43.84344" lon="6.53266">
        <ele>740</ele>
        <time>2018-05-26T09:06:08Z</time>
      </trkpt>
      <trkpt lat="43.84344" lon="6.53268">
        <ele>740</ele>
        <time>2018-05-26T09:06:09Z</time>
      </trkpt>
      <trkpt lat="43.84345" lon="6.5327">
        <ele>740</ele>
        <time>2018-05-26T09:06:10Z</time>
      </trkpt>
      <trkpt lat="43.84346" lon="6.53273">
        <ele>740</ele>
        <time>2018-05-26T09:06:11Z</time>
      </trkpt>
      <trkpt lat="43.84347" lon="6.53277">
        <ele>740</ele>
        <time>2018-05-26T09:06:12Z</time>
      </trkpt>
      <trkpt lat="43.84366" lon="6.53356">
        <ele>740</ele>
        <time>2018-05-26T09:06:25Z</time>
      </trkpt>
      <trkpt lat="43.84375" lon="6.53426">
        <ele>742</ele>
        <time>2018-05-26T09:06:38Z</time>
      </trkpt>
      <trkpt lat="43.84375" lon="6.53435">
        <ele>742</ele>
        <time>2018-05-26T09:06:41Z</time>
      </trkpt>
      <trkpt lat="43.84371" lon="6.53444">
        <ele>743</ele>
        <time>2018-05-26T09:06:52Z</time>
      </trkpt>
      <trkpt lat="43.84371" lon="6.53441">
        <ele>743</ele>
        <time>2018-05-26T09:07:13Z</time>
      </trkpt>
      <trkpt lat="43.84369" lon="6.53442">
        <ele>743</ele>
        <time>2018-05-26T09:07:48Z</time>
      </trkpt>
      <trkpt lat="43.84371" lon="6.5344">
        <ele>743</ele>
        <time>2018-05-26T09:08:01Z</time>
      </trkpt>
      <trkpt lat="43.8437" lon="6.53441">
        <ele>743</ele>
        <time>2018-05-26T09:08:05Z</time>
      </trkpt>
      <trkpt lat="43.84369" lon="6.5344">
        <ele>743</ele>
        <time>2018-05-26T09:08:06Z</time>
      </trkpt>
      <trkpt lat="43.84367" lon="6.5344">
        <ele>743</ele>
        <time>2018-05-26T09:08:07Z</time>
      </trkpt>
      <trkpt lat="43.84365" lon="6.53441">
        <ele>743</ele>
        <time>2018-05-26T09:08:08Z</time>
      </trkpt>
      <trkpt lat="43.84363" lon="6.53443">
        <ele>744</ele>
        <time>2018-05-26T09:08:09Z</time>
      </trkpt>
      <trkpt lat="43.84361" lon="6.53445">
        <ele>744</ele>
        <time>2018-05-26T09:08:10Z</time>
      </trkpt>
      <trkpt lat="43.8436" lon="6.53448">
        <ele>744</ele>
        <time>2018-05-26T09:08:11Z</time>
      </trkpt>
      <trkpt lat="43.84358" lon="6.53451">
        <ele>745</ele>
        <time>2018-05-26T09:08:12Z</time>
      </trkpt>
      <trkpt lat="43.84329" lon="6.5349">
        <ele>748</ele>
        <time>2018-05-26T09:08:29Z</time>
      </trkpt>
      <trkpt lat="43.8431" lon="6.53516">
        <ele>752</ele>
        <time>2018-05-26T09:08:42Z</time>
      </trkpt>
      <trkpt lat="43.8429" lon="6.53545">
        <ele>754</ele>
        <time>2018-05-26T09:08:57Z</time>
      </trkpt>
      <trkpt lat="43.84267" lon="6.53576">
        <ele>754</ele>
        <time>2018-05-26T09:09:13Z</time>
      </trkpt>
      <trkpt lat="43.84252" lon="6.53606">
        <ele>756</ele>
        <time>2018-05-26T09:09:27Z</time>
      </trkpt>
      <trkpt lat="43.84242" lon="6.53642">
        <ele>759</ele>
        <time>2018-05-26T09:09:42Z</time>
      </trkpt>
      <trkpt lat="43.84232" lon="6.53683">
        <ele>764</ele>
        <time>2018-05-26T09:09:58Z</time>
      </trkpt>
      <trkpt lat="43.84224" lon="6.5372">
        <ele>767</ele>
        <time>2018-05-26T09:10:13Z</time>
      </trkpt>
      <trkpt lat="43.84211" lon="6.53767">
        <ele>768</ele>
        <time>2018-05-26T09:10:32Z</time>
      </trkpt>
      <trkpt lat="43.84203" lon="6.5381">
        <ele>770</ele>
        <time>2018-05-26T09:10:48Z</time>
      </trkpt>
      <trkpt lat="43.84204" lon="6.53848">
        <ele>774</ele>
        <time>2018-05-26T09:11:02Z</time>
      </trkpt>
      <trkpt lat="43.84208" lon="6.53888">
        <ele>773</ele>
        <time>2018-05-26T09:11:17Z</time>
      </trkpt>
      <trkpt lat="43.84212" lon="6.53927">
        <ele>769</ele>
        <time>2018-05-26T09:11:32Z</time>
      </trkpt>
      <trkpt lat="43.84228" lon="6.53951">
        <ele>769</ele>
        <time>2018-05-26T09:11:47Z</time>
      </trkpt>
      <trkpt lat="43.84248" lon="6.53935">
        <ele>775</ele>
        <time>2018-05-26T09:12:00Z</time>
      </trkpt>
      <trkpt lat="43.8427" lon="6.53909">
        <ele>780</ele>
        <time>2018-05-26T09:12:16Z</time>
      </trkpt>
      <trkpt lat="43.84272" lon="6.53908">
        <ele>780</ele>
        <time>2018-05-26T09:12:17Z</time>
      </trkpt>
      <trkpt lat="43.84274" lon="6.53907">
        <ele>780</ele>
        <time>2018-05-26T09:12:18Z</time>
      </trkpt>
      <trkpt lat="43.84276" lon="6.53906">
        <ele>780</ele>
        <time>2018-05-26T09:12:19Z</time>
      </trkpt>
      <trkpt lat="43.84277" lon="6.53906">
        <ele>780</ele>
        <time>2018-05-26T09:12:20Z</time>
      </trkpt>
      <trkpt lat="43.84279" lon="6.53905">
        <ele>780</ele>
        <time>2018-05-26T09:12:21Z</time>
      </trkpt>
      <trkpt lat="43.84304" lon="6.53908">
        <ele>781</ele>
        <time>2018-05-26T09:12:35Z</time>
      </trkpt>
      <trkpt lat="43.84333" lon="6.53922">
        <ele>784</ele>
        <time>2018-05-26T09:12:51Z</time>
      </trkpt>
      <trkpt lat="43.84346" lon="6.53929">
        <ele>784</ele>
        <time>2018-05-26T09:12:58Z</time>
      </trkpt>
      <trkpt lat="43.84348" lon="6.5393">
        <ele>785</ele>
        <time>2018-05-26T09:12:59Z</time>
      </trkpt>
      <trkpt lat="43.84381" lon="6.53945">
        <ele>788</ele>
        <time>2018-05-26T09:13:14Z</time>
      </trkpt>
      <trkpt lat="43.84399" lon="6.53946">
        <ele>788</ele>
        <time>2018-05-26T09:13:26Z</time>
      </trkpt>
      <trkpt lat="43.844" lon="6.53947">
        <ele>788</ele>
        <time>2018-05-26T09:13:49Z</time>
      </trkpt>
      <trkpt lat="43.84401" lon="6.53946">
        <ele>788</ele>
        <time>2018-05-26T09:14:13Z</time>
      </trkpt>
      <trkpt lat="43.84401" lon="6.53947">
        <ele>788</ele>
        <time>2018-05-26T09:14:36Z</time>
      </trkpt>
      <trkpt lat="43.84403" lon="6.53947">
        <ele>788</ele>
        <time>2018-05-26T09:15:03Z</time>
      </trkpt>
      <trkpt lat="43.84407" lon="6.5395">
        <ele>788</ele>
        <time>2018-05-26T09:15:06Z</time>
      </trkpt>
      <trkpt lat="43.84409" lon="6.53951">
        <ele>788</ele>
        <time>2018-05-26T09:15:07Z</time>
      </trkpt>
      <trkpt lat="43.84411" lon="6.53952">
        <ele>788</ele>
        <time>2018-05-26T09:15:08Z</time>
      </trkpt>
      <trkpt lat="43.84426" lon="6.53966">
        <ele>790</ele>
        <time>2018-05-26T09:15:17Z</time>
      </trkpt>
      <trkpt lat="43.84428" lon="6.53967">
        <ele>790</ele>
        <time>2018-05-26T09:15:18Z</time>
      </trkpt>
      <trkpt lat="43.84429" lon="6.53969">
        <ele>790</ele>
        <time>2018-05-26T09:15:19Z</time>
      </trkpt>
      <trkpt lat="43.84431" lon="6.53972">
        <ele>790</ele>
        <time>2018-05-26T09:15:20Z</time>
      </trkpt>
      <trkpt lat="43.84432" lon="6.53973">
        <ele>790</ele>
        <time>2018-05-26T09:15:21Z</time>
      </trkpt>
      <trkpt lat="43.84433" lon="6.53976">
        <ele>791</ele>
        <time>2018-05-26T09:15:22Z</time>
      </trkpt>
      <trkpt lat="43.84435" lon="6.53978">
        <ele>791</ele>
        <time>2018-05-26T09:15:23Z</time>
      </trkpt>
      <trkpt lat="43.84436" lon="6.5398">
        <ele>791</ele>
        <time>2018-05-26T09:15:24Z</time>
      </trkpt>
      <trkpt lat="43.84461" lon="6.54007">
        <ele>791</ele>
        <time>2018-05-26T09:15:38Z</time>
      </trkpt>
      <trkpt lat="43.8451" lon="6.54023">
        <ele>794</ele>
        <time>2018-05-26T09:15:57Z</time>
      </trkpt>
      <trkpt lat="43.84546" lon="6.54027">
        <ele>794</ele>
        <time>2018-05-26T09:16:11Z</time>
      </trkpt>
      <trkpt lat="43.84579" lon="6.54047">
        <ele>787</ele>
        <time>2018-05-26T09:16:23Z</time>
      </trkpt>
      <trkpt lat="43.84589" lon="6.54092">
        <ele>803</ele>
        <time>2018-05-26T09:16:36Z</time>
      </trkpt>
      <trkpt lat="43.84598" lon="6.54144">
        <ele>818</ele>
        <time>2018-05-26T09:16:49Z</time>
      </trkpt>
      <trkpt lat="43.8461" lon="6.542">
        <ele>800</ele>
        <time>2018-05-26T09:17:00Z</time>
      </trkpt>
      <trkpt lat="43.84615" lon="6.542">
        <ele>794</ele>
        <time>2018-05-26T09:17:17Z</time>
      </trkpt>
      <trkpt lat="43.84611" lon="6.54204">
        <ele>798</ele>
        <time>2018-05-26T09:17:45Z</time>
      </trkpt>
      <trkpt lat="43.84611" lon="6.54204">
        <ele>798</ele>
        <time>2018-05-26T09:18:11Z</time>
      </trkpt>
      <trkpt lat="43.84612" lon="6.54206">
        <ele>797</ele>
        <time>2018-05-26T09:18:23Z</time>
      </trkpt>
      <trkpt lat="43.84611" lon="6.54208">
        <ele>797</ele>
        <time>2018-05-26T09:18:24Z</time>
      </trkpt>
      <trkpt lat="43.84611" lon="6.5421">
        <ele>798</ele>
        <time>2018-05-26T09:18:25Z</time>
      </trkpt>
      <trkpt lat="43.84611" lon="6.54212">
        <ele>798</ele>
        <time>2018-05-26T09:18:26Z</time>
      </trkpt>
      <trkpt lat="43.8461" lon="6.54214">
        <ele>798</ele>
        <time>2018-05-26T09:18:27Z</time>
      </trkpt>
      <trkpt lat="43.8461" lon="6.54217">
        <ele>798</ele>
        <time>2018-05-26T09:18:28Z</time>
      </trkpt>
      <trkpt lat="43.8461" lon="6.54219">
        <ele>798</ele>
        <time>2018-05-26T09:18:29Z</time>
      </trkpt>
      <trkpt lat="43.84608" lon="6.54227">
        <ele>799</ele>
        <time>2018-05-26T09:18:32Z</time>
      </trkpt>
      <trkpt lat="43.84607" lon="6.5423">
        <ele>800</ele>
        <time>2018-05-26T09:18:33Z</time>
      </trkpt>
      <trkpt lat="43.84607" lon="6.54233">
        <ele>800</ele>
        <time>2018-05-26T09:18:34Z</time>
      </trkpt>
      <trkpt lat="43.84606" lon="6.54236">
        <ele>800</ele>
        <time>2018-05-26T09:18:35Z</time>
      </trkpt>
      <trkpt lat="43.84605" lon="6.54238">
        <ele>801</ele>
        <time>2018-05-26T09:18:36Z</time>
      </trkpt>
      <trkpt lat="43.84607" lon="6.54286">
        <ele>807</ele>
        <time>2018-05-26T09:18:50Z</time>
      </trkpt>
      <trkpt lat="43.84622" lon="6.54341">
        <ele>806</ele>
        <time>2018-05-26T09:19:04Z</time>
      </trkpt>
      <trkpt lat="43.84647" lon="6.5439">
        <ele>798</ele>
        <time>2018-05-26T09:19:18Z</time>
      </trkpt>
      <trkpt lat="43.84667" lon="6.5444">
        <ele>800</ele>
        <time>2018-05-26T09:19:34Z</time>
      </trkpt>
      <trkpt lat="43.84684" lon="6.54475">
        <ele>806</ele>
        <time>2018-05-26T09:19:45Z</time>
      </trkpt>
      <trkpt lat="43.8471" lon="6.54508">
        <ele>805</ele>
        <time>2018-05-26T09:19:58Z</time>
      </trkpt>
      <trkpt lat="43.84737" lon="6.54529">
        <ele>804</ele>
        <time>2018-05-26T09:20:10Z</time>
      </trkpt>
      <trkpt lat="43.84767" lon="6.54547">
        <ele>804</ele>
        <time>2018-05-26T09:20:22Z</time>
      </trkpt>
      <trkpt lat="43.84793" lon="6.54553">
        <ele>813</ele>
        <time>2018-05-26T09:20:34Z</time>
      </trkpt>
      <trkpt lat="43.84879" lon="6.5456">
        <ele>817</ele>
        <time>2018-05-26T09:21:04Z</time>
      </trkpt>
      <trkpt lat="43.84898" lon="6.54596">
        <ele>813</ele>
        <time>2018-05-26T09:21:17Z</time>
      </trkpt>
      <trkpt lat="43.84921" lon="6.54643">
        <ele>819</ele>
        <time>2018-05-26T09:21:31Z</time>
      </trkpt>
      <trkpt lat="43.84958" lon="6.5466">
        <ele>810</ele>
        <time>2018-05-26T09:21:44Z</time>
      </trkpt>
      <trkpt lat="43.84997" lon="6.54684">
        <ele>804</ele>
        <time>2018-05-26T09:21:58Z</time>
      </trkpt>
      <trkpt lat="43.85028" lon="6.54734">
        <ele>803</ele>
        <time>2018-05-26T09:22:13Z</time>
      </trkpt>
      <trkpt lat="43.85072" lon="6.54763">
        <ele>800</ele>
        <time>2018-05-26T09:22:27Z</time>
      </trkpt>
      <trkpt lat="43.85125" lon="6.54813">
        <ele>801</ele>
        <time>2018-05-26T09:22:46Z</time>
      </trkpt>
      <trkpt lat="43.85174" lon="6.54845">
        <ele>799</ele>
        <time>2018-05-26T09:23:01Z</time>
      </trkpt>
      <trkpt lat="43.85228" lon="6.54883">
        <ele>800</ele>
        <time>2018-05-26T09:23:18Z</time>
      </trkpt>
      <trkpt lat="43.85267" lon="6.54914">
        <ele>802</ele>
        <time>2018-05-26T09:23:31Z</time>
      </trkpt>
      <trkpt lat="43.85309" lon="6.54913">
        <ele>799</ele>
        <time>2018-05-26T09:23:42Z</time>
      </trkpt>
      <trkpt lat="43.85313" lon="6.54913">
        <ele>798</ele>
        <time>2018-05-26T09:23:43Z</time>
      </trkpt>
      <trkpt lat="43.85317" lon="6.54913">
        <ele>798</ele>
        <time>2018-05-26T09:23:44Z</time>
      </trkpt>
      <trkpt lat="43.85365" lon="6.54936">
        <ele>796</ele>
        <time>2018-05-26T09:23:59Z</time>
      </trkpt>
      <trkpt lat="43.85374" lon="6.54944">
        <ele>796</ele>
        <time>2018-05-26T09:24:03Z</time>
      </trkpt>
      <trkpt lat="43.85379" lon="6.54943">
        <ele>794</ele>
        <time>2018-05-26T09:24:14Z</time>
      </trkpt>
      <trkpt lat="43.85382" lon="6.54942">
        <ele>794</ele>
        <time>2018-05-26T09:24:33Z</time>
      </trkpt>
      <trkpt lat="43.85377" lon="6.54944">
        <ele>795</ele>
        <time>2018-05-26T09:25:03Z</time>
      </trkpt>
      <trkpt lat="43.85379" lon="6.54944">
        <ele>795</ele>
        <time>2018-05-26T09:25:20Z</time>
      </trkpt>
      <trkpt lat="43.85379" lon="6.54946">
        <ele>795</ele>
        <time>2018-05-26T09:25:21Z</time>
      </trkpt>
      <trkpt lat="43.8538" lon="6.54948">
        <ele>795</ele>
        <time>2018-05-26T09:25:22Z</time>
      </trkpt>
      <trkpt lat="43.8538" lon="6.5495">
        <ele>796</ele>
        <time>2018-05-26T09:25:23Z</time>
      </trkpt>
      <trkpt lat="43.85381" lon="6.54953">
        <ele>796</ele>
        <time>2018-05-26T09:25:24Z</time>
      </trkpt>
      <trkpt lat="43.85381" lon="6.54955">
        <ele>796</ele>
        <time>2018-05-26T09:25:25Z</time>
      </trkpt>
      <trkpt lat="43.85382" lon="6.54958">
        <ele>797</ele>
        <time>2018-05-26T09:25:26Z</time>
      </trkpt>
      <trkpt lat="43.85389" lon="6.54991">
        <ele>803</ele>
        <time>2018-05-26T09:25:40Z</time>
      </trkpt>
      <trkpt lat="43.85408" lon="6.55009">
        <ele>808</ele>
        <time>2018-05-26T09:25:51Z</time>
      </trkpt>
      <trkpt lat="43.85444" lon="6.55002">
        <ele>804</ele>
        <time>2018-05-26T09:26:03Z</time>
      </trkpt>
      <trkpt lat="43.8546" lon="6.54995">
        <ele>802</ele>
        <time>2018-05-26T09:26:08Z</time>
      </trkpt>
      <trkpt lat="43.85463" lon="6.54995">
        <ele>802</ele>
        <time>2018-05-26T09:26:09Z</time>
      </trkpt>
      <trkpt lat="43.85466" lon="6.54996">
        <ele>803</ele>
        <time>2018-05-26T09:26:10Z</time>
      </trkpt>
      <trkpt lat="43.8547" lon="6.54998">
        <ele>803</ele>
        <time>2018-05-26T09:26:11Z</time>
      </trkpt>
      <trkpt lat="43.85474" lon="6.55001">
        <ele>803</ele>
        <time>2018-05-26T09:26:12Z</time>
      </trkpt>
      <trkpt lat="43.85519" lon="6.55053">
        <ele>804</ele>
        <time>2018-05-26T09:26:27Z</time>
      </trkpt>
      <trkpt lat="43.85524" lon="6.55074">
        <ele>808</ele>
        <time>2018-05-26T09:26:31Z</time>
      </trkpt>
      <trkpt lat="43.85526" lon="6.55079">
        <ele>808</ele>
        <time>2018-05-26T09:26:32Z</time>
      </trkpt>
      <trkpt lat="43.85532" lon="6.55093">
        <ele>809</ele>
        <time>2018-05-26T09:26:35Z</time>
      </trkpt>
      <trkpt lat="43.85583" lon="6.55171">
        <ele>808</ele>
        <time>2018-05-26T09:26:54Z</time>
      </trkpt>
      <trkpt lat="43.85586" lon="6.55175">
        <ele>808</ele>
        <time>2018-05-26T09:26:55Z</time>
      </trkpt>
      <trkpt lat="43.85589" lon="6.55178">
        <ele>807</ele>
        <time>2018-05-26T09:26:56Z</time>
      </trkpt>
      <trkpt lat="43.85593" lon="6.55181">
        <ele>805</ele>
        <time>2018-05-26T09:26:57Z</time>
      </trkpt>
      <trkpt lat="43.85597" lon="6.55183">
        <ele>804</ele>
        <time>2018-05-26T09:26:58Z</time>
      </trkpt>
      <trkpt lat="43.85601" lon="6.55185">
        <ele>803</ele>
        <time>2018-05-26T09:26:59Z</time>
      </trkpt>
      <trkpt lat="43.85604" lon="6.55186">
        <ele>802</ele>
        <time>2018-05-26T09:27:00Z</time>
      </trkpt>
      <trkpt lat="43.85608" lon="6.55188">
        <ele>802</ele>
        <time>2018-05-26T09:27:01Z</time>
      </trkpt>
      <trkpt lat="43.85612" lon="6.5519">
        <ele>801</ele>
        <time>2018-05-26T09:27:02Z</time>
      </trkpt>
      <trkpt lat="43.85616" lon="6.55193">
        <ele>800</ele>
        <time>2018-05-26T09:27:03Z</time>
      </trkpt>
      <trkpt lat="43.85662" lon="6.55255">
        <ele>805</ele>
        <time>2018-05-26T09:27:19Z</time>
      </trkpt>
      <trkpt lat="43.85698" lon="6.55323">
        <ele>805</ele>
        <time>2018-05-26T09:27:34Z</time>
      </trkpt>
      <trkpt lat="43.85707" lon="6.55343">
        <ele>807</ele>
        <time>2018-05-26T09:27:38Z</time>
      </trkpt>
      <trkpt lat="43.85712" lon="6.55352">
        <ele>807</ele>
        <time>2018-05-26T09:27:40Z</time>
      </trkpt>
      <trkpt lat="43.85715" lon="6.55357">
        <ele>806</ele>
        <time>2018-05-26T09:27:41Z</time>
      </trkpt>
      <trkpt lat="43.8576" lon="6.55418">
        <ele>803</ele>
        <time>2018-05-26T09:27:57Z</time>
      </trkpt>
      <trkpt lat="43.85771" lon="6.55426">
        <ele>801</ele>
        <time>2018-05-26T09:28:00Z</time>
      </trkpt>
      <trkpt lat="43.85774" lon="6.55429">
        <ele>801</ele>
        <time>2018-05-26T09:28:01Z</time>
      </trkpt>
      <trkpt lat="43.85777" lon="6.55433">
        <ele>801</ele>
        <time>2018-05-26T09:28:02Z</time>
      </trkpt>
      <trkpt lat="43.85779" lon="6.55438">
        <ele>801</ele>
        <time>2018-05-26T09:28:03Z</time>
      </trkpt>
      <trkpt lat="43.85781" lon="6.55443">
        <ele>801</ele>
        <time>2018-05-26T09:28:04Z</time>
      </trkpt>
      <trkpt lat="43.85791" lon="6.5551">
        <ele>805</ele>
        <time>2018-05-26T09:28:19Z</time>
      </trkpt>
      <trkpt lat="43.85804" lon="6.55565">
        <ele>800</ele>
        <time>2018-05-26T09:28:33Z</time>
      </trkpt>
      <trkpt lat="43.85811" lon="6.5557">
        <ele>801</ele>
        <time>2018-05-26T09:28:35Z</time>
      </trkpt>
      <trkpt lat="43.85815" lon="6.55571">
        <ele>802</ele>
        <time>2018-05-26T09:28:36Z</time>
      </trkpt>
      <trkpt lat="43.85823" lon="6.55571">
        <ele>804</ele>
        <time>2018-05-26T09:28:38Z</time>
      </trkpt>
      <trkpt lat="43.85827" lon="6.5557">
        <ele>804</ele>
        <time>2018-05-26T09:28:39Z</time>
      </trkpt>
      <trkpt lat="43.85831" lon="6.55569">
        <ele>805</ele>
        <time>2018-05-26T09:28:40Z</time>
      </trkpt>
      <trkpt lat="43.85893" lon="6.55553">
        <ele>800</ele>
        <time>2018-05-26T09:28:56Z</time>
      </trkpt>
      <trkpt lat="43.85935" lon="6.55568">
        <ele>799</ele>
        <time>2018-05-26T09:29:08Z</time>
      </trkpt>
      <trkpt lat="43.85984" lon="6.55602">
        <ele>796</ele>
        <time>2018-05-26T09:29:23Z</time>
      </trkpt>
      <trkpt lat="43.86012" lon="6.55657">
        <ele>799</ele>
        <time>2018-05-26T09:29:36Z</time>
      </trkpt>
      <trkpt lat="43.86061" lon="6.55696">
        <ele>797</ele>
        <time>2018-05-26T09:29:51Z</time>
      </trkpt>
      <trkpt lat="43.86094" lon="6.55731">
        <ele>797</ele>
        <time>2018-05-26T09:30:03Z</time>
      </trkpt>
      <trkpt lat="43.86112" lon="6.55747">
        <ele>798</ele>
        <time>2018-05-26T09:30:09Z</time>
      </trkpt>
      <trkpt lat="43.86116" lon="6.55748">
        <ele>798</ele>
        <time>2018-05-26T09:30:10Z</time>
      </trkpt>
      <trkpt lat="43.8612" lon="6.55748">
        <ele>798</ele>
        <time>2018-05-26T09:30:11Z</time>
      </trkpt>
      <trkpt lat="43.86124" lon="6.55747">
        <ele>798</ele>
        <time>2018-05-26T09:30:12Z</time>
      </trkpt>
      <trkpt lat="43.86128" lon="6.55745">
        <ele>798</ele>
        <time>2018-05-26T09:30:13Z</time>
      </trkpt>
      <trkpt lat="43.86131" lon="6.55743">
        <ele>798</ele>
        <time>2018-05-26T09:30:14Z</time>
      </trkpt>
      <trkpt lat="43.86185" lon="6.55723">
        <ele>797</ele>
        <time>2018-05-26T09:30:29Z</time>
      </trkpt>
      <trkpt lat="43.86231" lon="6.55732">
        <ele>797</ele>
        <time>2018-05-26T09:30:42Z</time>
      </trkpt>
      <trkpt lat="43.86282" lon="6.55727">
        <ele>796</ele>
        <time>2018-05-26T09:30:57Z</time>
      </trkpt>
      <trkpt lat="43.86317" lon="6.55748">
        <ele>796</ele>
        <time>2018-05-26T09:31:10Z</time>
      </trkpt>
      <trkpt lat="43.86328" lon="6.55782">
        <ele>797</ele>
        <time>2018-05-26T09:31:24Z</time>
      </trkpt>
      <trkpt lat="43.86328" lon="6.55785">
        <ele>797</ele>
        <time>2018-05-26T09:31:25Z</time>
      </trkpt>
      <trkpt lat="43.86328" lon="6.55788">
        <ele>797</ele>
        <time>2018-05-26T09:31:26Z</time>
      </trkpt>
      <trkpt lat="43.86325" lon="6.55814">
        <ele>802</ele>
        <time>2018-05-26T09:31:37Z</time>
      </trkpt>
      <trkpt lat="43.86323" lon="6.55854">
        <ele>809</ele>
        <time>2018-05-26T09:31:55Z</time>
      </trkpt>
      <trkpt lat="43.86323" lon="6.55866">
        <ele>810</ele>
        <time>2018-05-26T09:32:01Z</time>
      </trkpt>
      <trkpt lat="43.86322" lon="6.55869">
        <ele>811</ele>
        <time>2018-05-26T09:32:02Z</time>
      </trkpt>
      <trkpt lat="43.86323" lon="6.55885">
        <ele>811</ele>
        <time>2018-05-26T09:32:10Z</time>
      </trkpt>
      <trkpt lat="43.86323" lon="6.55887">
        <ele>811</ele>
        <time>2018-05-26T09:32:11Z</time>
      </trkpt>
      <trkpt lat="43.86324" lon="6.55902">
        <ele>810</ele>
        <time>2018-05-26T09:32:19Z</time>
      </trkpt>
      <trkpt lat="43.86324" lon="6.55904">
        <ele>810</ele>
        <time>2018-05-26T09:32:20Z</time>
      </trkpt>
      <trkpt lat="43.86324" lon="6.55908">
        <ele>810</ele>
        <time>2018-05-26T09:32:22Z</time>
      </trkpt>
      <trkpt lat="43.86324" lon="6.5591">
        <ele>810</ele>
        <time>2018-05-26T09:32:23Z</time>
      </trkpt>
      <trkpt lat="43.86324" lon="6.55912">
        <ele>810</ele>
        <time>2018-05-26T09:32:24Z</time>
      </trkpt>
      <trkpt lat="43.86326" lon="6.55942">
        <ele>809</ele>
        <time>2018-05-26T09:32:39Z</time>
      </trkpt>
      <trkpt lat="43.86326" lon="6.55944">
        <ele>809</ele>
        <time>2018-05-26T09:32:40Z</time>
      </trkpt>
      <trkpt lat="43.86325" lon="6.55947">
        <ele>809</ele>
        <time>2018-05-26T09:32:42Z</time>
      </trkpt>
      <trkpt lat="43.86325" lon="6.55949">
        <ele>810</ele>
        <time>2018-05-26T09:32:43Z</time>
      </trkpt>
      <trkpt lat="43.86325" lon="6.55951">
        <ele>810</ele>
        <time>2018-05-26T09:32:44Z</time>
      </trkpt>
      <trkpt lat="43.86325" lon="6.55954">
        <ele>810</ele>
        <time>2018-05-26T09:32:45Z</time>
      </trkpt>
      <trkpt lat="43.86325" lon="6.55956">
        <ele>810</ele>
        <time>2018-05-26T09:32:46Z</time>
      </trkpt>
      <trkpt lat="43.86325" lon="6.55958">
        <ele>810</ele>
        <time>2018-05-26T09:32:47Z</time>
      </trkpt>
      <trkpt lat="43.86325" lon="6.5596">
        <ele>810</ele>
        <time>2018-05-26T09:32:48Z</time>
      </trkpt>
      <trkpt lat="43.86325" lon="6.55962">
        <ele>810</ele>
        <time>2018-05-26T09:32:49Z</time>
      </trkpt>
      <trkpt lat="43.86324" lon="6.55964">
        <ele>811</ele>
        <time>2018-05-26T09:32:50Z</time>
      </trkpt>
      <trkpt lat="43.86324" lon="6.55965">
        <ele>811</ele>
        <time>2018-05-26T09:32:51Z</time>
      </trkpt>
      <trkpt lat="43.86324" lon="6.55968">
        <ele>811</ele>
        <time>2018-05-26T09:32:52Z</time>
      </trkpt>
      <trkpt lat="43.86323" lon="6.55969">
        <ele>811</ele>
        <time>2018-05-26T09:32:53Z</time>
      </trkpt>
      <trkpt lat="43.86323" lon="6.55971">
        <ele>812</ele>
        <time>2018-05-26T09:32:54Z</time>
      </trkpt>
      <trkpt lat="43.86323" lon="6.55973">
        <ele>812</ele>
        <time>2018-05-26T09:32:55Z</time>
      </trkpt>
      <trkpt lat="43.86323" lon="6.55975">
        <ele>812</ele>
        <time>2018-05-26T09:32:56Z</time>
      </trkpt>
      <trkpt lat="43.86322" lon="6.55977">
        <ele>812</ele>
        <time>2018-05-26T09:32:57Z</time>
      </trkpt>
      <trkpt lat="43.86323" lon="6.55979">
        <ele>812</ele>
        <time>2018-05-26T09:32:58Z</time>
      </trkpt>
      <trkpt lat="43.86323" lon="6.55981">
        <ele>812</ele>
        <time>2018-05-26T09:32:59Z</time>
      </trkpt>
      <trkpt lat="43.86323" lon="6.55983">
        <ele>812</ele>
        <time>2018-05-26T09:33:00Z</time>
      </trkpt>
      <trkpt lat="43.86322" lon="6.55985">
        <ele>813</ele>
        <time>2018-05-26T09:33:01Z</time>
      </trkpt>
      <trkpt lat="43.86321" lon="6.55986">
        <ele>813</ele>
        <time>2018-05-26T09:33:02Z</time>
      </trkpt>
      <trkpt lat="43.86321" lon="6.55988">
        <ele>813</ele>
        <time>2018-05-26T09:33:03Z</time>
      </trkpt>
      <trkpt lat="43.86321" lon="6.5599">
        <ele>814</ele>
        <time>2018-05-26T09:33:04Z</time>
      </trkpt>
      <trkpt lat="43.8632" lon="6.55992">
        <ele>814</ele>
        <time>2018-05-26T09:33:05Z</time>
      </trkpt>
      <trkpt lat="43.8632" lon="6.55994">
        <ele>814</ele>
        <time>2018-05-26T09:33:06Z</time>
      </trkpt>
      <trkpt lat="43.86316" lon="6.5602">
        <ele>819</ele>
        <time>2018-05-26T09:33:21Z</time>
      </trkpt>
      <trkpt lat="43.86318" lon="6.56049">
        <ele>819</ele>
        <time>2018-05-26T09:33:36Z</time>
      </trkpt>
      <trkpt lat="43.86318" lon="6.56051">
        <ele>819</ele>
        <time>2018-05-26T09:33:37Z</time>
      </trkpt>
      <trkpt lat="43.86318" lon="6.56053">
        <ele>819</ele>
        <time>2018-05-26T09:33:38Z</time>
      </trkpt>
      <trkpt lat="43.86319" lon="6.56055">
        <ele>819</ele>
        <time>2018-05-26T09:33:39Z</time>
      </trkpt>
      <trkpt lat="43.86319" lon="6.56057">
        <ele>819</ele>
        <time>2018-05-26T09:33:40Z</time>
      </trkpt>
      <trkpt lat="43.86319" lon="6.5606">
        <ele>819</ele>
        <time>2018-05-26T09:33:41Z</time>
      </trkpt>
      <trkpt lat="43.8632" lon="6.56062">
        <ele>820</ele>
        <time>2018-05-26T09:33:42Z</time>
      </trkpt>
      <trkpt lat="43.86319" lon="6.56063">
        <ele>820</ele>
        <time>2018-05-26T09:33:43Z</time>
      </trkpt>
      <trkpt lat="43.86319" lon="6.56066">
        <ele>821</ele>
        <time>2018-05-26T09:33:44Z</time>
      </trkpt>
      <trkpt lat="43.86319" lon="6.56068">
        <ele>820</ele>
        <time>2018-05-26T09:33:45Z</time>
      </trkpt>
      <trkpt lat="43.86321" lon="6.56073">
        <ele>820</ele>
        <time>2018-05-26T09:33:48Z</time>
      </trkpt>
      <trkpt lat="43.86321" lon="6.56075">
        <ele>820</ele>
        <time>2018-05-26T09:33:49Z</time>
      </trkpt>
      <trkpt lat="43.86321" lon="6.56077">
        <ele>820</ele>
        <time>2018-05-26T09:33:50Z</time>
      </trkpt>
      <trkpt lat="43.86321" lon="6.56079">
        <ele>820</ele>
        <time>2018-05-26T09:33:51Z</time>
      </trkpt>
      <trkpt lat="43.86321" lon="6.56081">
        <ele>821</ele>
        <time>2018-05-26T09:33:52Z</time>
      </trkpt>
      <trkpt lat="43.86321" lon="6.56083">
        <ele>821</ele>
        <time>2018-05-26T09:33:53Z</time>
      </trkpt>
      <trkpt lat="43.86324" lon="6.56109">
        <ele>823</ele>
        <time>2018-05-26T09:34:07Z</time>
      </trkpt>
      <trkpt lat="43.86329" lon="6.56147">
        <ele>825</ele>
        <time>2018-05-26T09:34:27Z</time>
      </trkpt>
      <trkpt lat="43.8633" lon="6.56158">
        <ele>825</ele>
        <time>2018-05-26T09:34:33Z</time>
      </trkpt>
      <trkpt lat="43.8633" lon="6.5616">
        <ele>826</ele>
        <time>2018-05-26T09:34:34Z</time>
      </trkpt>
      <trkpt lat="43.8633" lon="6.56162">
        <ele>826</ele>
        <time>2018-05-26T09:34:35Z</time>
      </trkpt>
      <trkpt lat="43.8633" lon="6.56165">
        <ele>826</ele>
        <time>2018-05-26T09:34:36Z</time>
      </trkpt>
      <trkpt lat="43.8633" lon="6.56167">
        <ele>826</ele>
        <time>2018-05-26T09:34:37Z</time>
      </trkpt>
      <trkpt lat="43.86333" lon="6.56187">
        <ele>826</ele>
        <time>2018-05-26T09:34:47Z</time>
      </trkpt>
      <trkpt lat="43.86333" lon="6.56189">
        <ele>826</ele>
        <time>2018-05-26T09:34:48Z</time>
      </trkpt>
      <trkpt lat="43.86335" lon="6.56197">
        <ele>825</ele>
        <time>2018-05-26T09:34:52Z</time>
      </trkpt>
      <trkpt lat="43.86335" lon="6.56199">
        <ele>825</ele>
        <time>2018-05-26T09:34:53Z</time>
      </trkpt>
      <trkpt lat="43.86336" lon="6.56201">
        <ele>824</ele>
        <time>2018-05-26T09:34:54Z</time>
      </trkpt>
      <trkpt lat="43.86337" lon="6.56203">
        <ele>824</ele>
        <time>2018-05-26T09:34:55Z</time>
      </trkpt>
      <trkpt lat="43.86337" lon="6.56205">
        <ele>824</ele>
        <time>2018-05-26T09:34:56Z</time>
      </trkpt>
      <trkpt lat="43.86338" lon="6.56207">
        <ele>824</ele>
        <time>2018-05-26T09:34:57Z</time>
      </trkpt>
      <trkpt lat="43.86339" lon="6.56209">
        <ele>823</ele>
        <time>2018-05-26T09:34:58Z</time>
      </trkpt>
      <trkpt lat="43.86339" lon="6.56211">
        <ele>823</ele>
        <time>2018-05-26T09:34:59Z</time>
      </trkpt>
      <trkpt lat="43.8635" lon="6.56238">
        <ele>818</ele>
        <time>2018-05-26T09:35:14Z</time>
      </trkpt>
      <trkpt lat="43.86356" lon="6.56256">
        <ele>816</ele>
        <time>2018-05-26T09:35:22Z</time>
      </trkpt>
      <trkpt lat="43.86363" lon="6.56289">
        <ele>815</ele>
        <time>2018-05-26T09:35:37Z</time>
      </trkpt>
      <trkpt lat="43.86367" lon="6.56316">
        <ele>817</ele>
        <time>2018-05-26T09:35:51Z</time>
      </trkpt>
      <trkpt lat="43.86374" lon="6.56346">
        <ele>819</ele>
        <time>2018-05-26T09:36:06Z</time>
      </trkpt>
      <trkpt lat="43.86366" lon="6.56372">
        <ele>821</ele>
        <time>2018-05-26T09:36:20Z</time>
      </trkpt>
      <trkpt lat="43.8635" lon="6.56393">
        <ele>827</ele>
        <time>2018-05-26T09:36:35Z</time>
      </trkpt>
      <trkpt lat="43.86341" lon="6.56416">
        <ele>833</ele>
        <time>2018-05-26T09:36:48Z</time>
      </trkpt>
      <trkpt lat="43.86336" lon="6.56444">
        <ele>837</ele>
        <time>2018-05-26T09:37:01Z</time>
      </trkpt>
      <trkpt lat="43.86339" lon="6.56474">
        <ele>835</ele>
        <time>2018-05-26T09:37:14Z</time>
      </trkpt>
      <trkpt lat="43.86341" lon="6.56507">
        <ele>834</ele>
        <time>2018-05-26T09:37:27Z</time>
      </trkpt>
      <trkpt lat="43.86339" lon="6.56519">
        <ele>836</ele>
        <time>2018-05-26T09:37:32Z</time>
      </trkpt>
      <trkpt lat="43.86339" lon="6.56522">
        <ele>836</ele>
        <time>2018-05-26T09:37:33Z</time>
      </trkpt>
      <trkpt lat="43.86338" lon="6.56524">
        <ele>836</ele>
        <time>2018-05-26T09:37:34Z</time>
      </trkpt>
      <trkpt lat="43.86338" lon="6.56526">
        <ele>837</ele>
        <time>2018-05-26T09:37:35Z</time>
      </trkpt>
      <trkpt lat="43.86337" lon="6.56528">
        <ele>837</ele>
        <time>2018-05-26T09:37:36Z</time>
      </trkpt>
      <trkpt lat="43.86322" lon="6.56562">
        <ele>843</ele>
        <time>2018-05-26T09:37:52Z</time>
      </trkpt>
      <trkpt lat="43.86316" lon="6.5658">
        <ele>844</ele>
        <time>2018-05-26T09:38:00Z</time>
      </trkpt>
      <trkpt lat="43.86317" lon="6.56582">
        <ele>843</ele>
        <time>2018-05-26T09:38:01Z</time>
      </trkpt>
      <trkpt lat="43.86317" lon="6.56584">
        <ele>843</ele>
        <time>2018-05-26T09:38:02Z</time>
      </trkpt>
      <trkpt lat="43.86318" lon="6.56586">
        <ele>843</ele>
        <time>2018-05-26T09:38:03Z</time>
      </trkpt>
      <trkpt lat="43.8632" lon="6.56588">
        <ele>843</ele>
        <time>2018-05-26T09:38:04Z</time>
      </trkpt>
      <trkpt lat="43.86325" lon="6.56594">
        <ele>842</ele>
        <time>2018-05-26T09:38:09Z</time>
      </trkpt>
      <trkpt lat="43.86326" lon="6.56596">
        <ele>842</ele>
        <time>2018-05-26T09:38:10Z</time>
      </trkpt>
      <trkpt lat="43.86327" lon="6.56597">
        <ele>841</ele>
        <time>2018-05-26T09:38:11Z</time>
      </trkpt>
      <trkpt lat="43.86329" lon="6.56598">
        <ele>841</ele>
        <time>2018-05-26T09:38:12Z</time>
      </trkpt>
      <trkpt lat="43.8633" lon="6.56599">
        <ele>841</ele>
        <time>2018-05-26T09:38:13Z</time>
      </trkpt>
      <trkpt lat="43.86345" lon="6.56615">
        <ele>841</ele>
        <time>2018-05-26T09:38:23Z</time>
      </trkpt>
      <trkpt lat="43.86347" lon="6.56616">
        <ele>841</ele>
        <time>2018-05-26T09:38:24Z</time>
      </trkpt>
      <trkpt lat="43.86349" lon="6.56616">
        <ele>841</ele>
        <time>2018-05-26T09:38:25Z</time>
      </trkpt>
      <trkpt lat="43.86351" lon="6.56617">
        <ele>841</ele>
        <time>2018-05-26T09:38:26Z</time>
      </trkpt>
      <trkpt lat="43.86352" lon="6.56617">
        <ele>842</ele>
        <time>2018-05-26T09:38:27Z</time>
      </trkpt>
      <trkpt lat="43.86354" lon="6.56618">
        <ele>842</ele>
        <time>2018-05-26T09:38:28Z</time>
      </trkpt>
      <trkpt lat="43.86371" lon="6.5662">
        <ele>846</ele>
        <time>2018-05-26T09:38:40Z</time>
      </trkpt>
      <trkpt lat="43.86373" lon="6.5662">
        <ele>846</ele>
        <time>2018-05-26T09:38:42Z</time>
      </trkpt>
      <trkpt lat="43.86375" lon="6.5662">
        <ele>846</ele>
        <time>2018-05-26T09:38:43Z</time>
      </trkpt>
      <trkpt lat="43.86376" lon="6.5662">
        <ele>847</ele>
        <time>2018-05-26T09:38:44Z</time>
      </trkpt>
      <trkpt lat="43.86378" lon="6.56619">
        <ele>847</ele>
        <time>2018-05-26T09:38:45Z</time>
      </trkpt>
      <trkpt lat="43.86379" lon="6.56618">
        <ele>847</ele>
        <time>2018-05-26T09:38:46Z</time>
      </trkpt>
      <trkpt lat="43.8638" lon="6.56617">
        <ele>847</ele>
        <time>2018-05-26T09:38:47Z</time>
      </trkpt>
      <trkpt lat="43.86382" lon="6.56615">
        <ele>847</ele>
        <time>2018-05-26T09:38:48Z</time>
      </trkpt>
      <trkpt lat="43.86383" lon="6.56614">
        <ele>847</ele>
        <time>2018-05-26T09:38:49Z</time>
      </trkpt>
      <trkpt lat="43.86397" lon="6.56588">
        <ele>847</ele>
        <time>2018-05-26T09:39:04Z</time>
      </trkpt>
      <trkpt lat="43.86411" lon="6.56563">
        <ele>848</ele>
        <time>2018-05-26T09:39:19Z</time>
      </trkpt>
      <trkpt lat="43.86425" lon="6.56548">
        <ele>852</ele>
        <time>2018-05-26T09:39:31Z</time>
      </trkpt>
      <trkpt lat="43.86427" lon="6.56546">
        <ele>853</ele>
        <time>2018-05-26T09:39:32Z</time>
      </trkpt>
      <trkpt lat="43.86445" lon="6.56529">
        <ele>860</ele>
        <time>2018-05-26T09:39:47Z</time>
      </trkpt>
      <trkpt lat="43.86447" lon="6.565">
        <ele>860</ele>
        <time>2018-05-26T09:40:01Z</time>
      </trkpt>
      <trkpt lat="43.86447" lon="6.56499">
        <ele>860</ele>
        <time>2018-05-26T09:40:02Z</time>
      </trkpt>
      <trkpt lat="43.86446" lon="6.56497">
        <ele>860</ele>
        <time>2018-05-26T09:40:03Z</time>
      </trkpt>
      <trkpt lat="43.86445" lon="6.56491">
        <ele>858</ele>
        <time>2018-05-26T09:40:06Z</time>
      </trkpt>
      <trkpt lat="43.86445" lon="6.56489">
        <ele>858</ele>
        <time>2018-05-26T09:40:07Z</time>
      </trkpt>
      <trkpt lat="43.86445" lon="6.56487">
        <ele>857</ele>
        <time>2018-05-26T09:40:08Z</time>
      </trkpt>
      <trkpt lat="43.86444" lon="6.56485">
        <ele>857</ele>
        <time>2018-05-26T09:40:09Z</time>
      </trkpt>
      <trkpt lat="43.86444" lon="6.56483">
        <ele>856</ele>
        <time>2018-05-26T09:40:10Z</time>
      </trkpt>
      <trkpt lat="43.8645" lon="6.56452">
        <ele>855</ele>
        <time>2018-05-26T09:40:25Z</time>
      </trkpt>
      <trkpt lat="43.86453" lon="6.56447">
        <ele>857</ele>
        <time>2018-05-26T09:40:28Z</time>
      </trkpt>
      <trkpt lat="43.86474" lon="6.5644">
        <ele>870</ele>
        <time>2018-05-26T09:40:43Z</time>
      </trkpt>
      <trkpt lat="43.86479" lon="6.56437">
        <ele>873</ele>
        <time>2018-05-26T09:40:46Z</time>
      </trkpt>
      <trkpt lat="43.8648" lon="6.56436">
        <ele>873</ele>
        <time>2018-05-26T09:40:47Z</time>
      </trkpt>
      <trkpt lat="43.86481" lon="6.56434">
        <ele>873</ele>
        <time>2018-05-26T09:40:48Z</time>
      </trkpt>
      <trkpt lat="43.86483" lon="6.56413">
        <ele>869</ele>
        <time>2018-05-26T09:40:58Z</time>
      </trkpt>
      <trkpt lat="43.86484" lon="6.56411">
        <ele>869</ele>
        <time>2018-05-26T09:40:59Z</time>
      </trkpt>
      <trkpt lat="43.86485" lon="6.56409">
        <ele>868</ele>
        <time>2018-05-26T09:41:00Z</time>
      </trkpt>
      <trkpt lat="43.86485" lon="6.56407">
        <ele>868</ele>
        <time>2018-05-26T09:41:01Z</time>
      </trkpt>
      <trkpt lat="43.86487" lon="6.56406">
        <ele>869</ele>
        <time>2018-05-26T09:41:02Z</time>
      </trkpt>
      <trkpt lat="43.86489" lon="6.56406">
        <ele>870</ele>
        <time>2018-05-26T09:41:03Z</time>
      </trkpt>
      <trkpt lat="43.8649" lon="6.56404">
        <ele>871</ele>
        <time>2018-05-26T09:41:04Z</time>
      </trkpt>
      <trkpt lat="43.86491" lon="6.56403">
        <ele>871</ele>
        <time>2018-05-26T09:41:05Z</time>
      </trkpt>
      <trkpt lat="43.86492" lon="6.56401">
        <ele>871</ele>
        <time>2018-05-26T09:41:06Z</time>
      </trkpt>
      <trkpt lat="43.86493" lon="6.564">
        <ele>872</ele>
        <time>2018-05-26T09:41:07Z</time>
      </trkpt>
      <trkpt lat="43.86495" lon="6.56399">
        <ele>872</ele>
        <time>2018-05-26T09:41:08Z</time>
      </trkpt>
      <trkpt lat="43.86496" lon="6.56397">
        <ele>872</ele>
        <time>2018-05-26T09:41:09Z</time>
      </trkpt>
      <trkpt lat="43.86497" lon="6.56395">
        <ele>872</ele>
        <time>2018-05-26T09:41:10Z</time>
      </trkpt>
      <trkpt lat="43.86498" lon="6.56394">
        <ele>873</ele>
        <time>2018-05-26T09:41:11Z</time>
      </trkpt>
      <trkpt lat="43.86499" lon="6.56392">
        <ele>873</ele>
        <time>2018-05-26T09:41:12Z</time>
      </trkpt>
      <trkpt lat="43.865" lon="6.5639">
        <ele>873</ele>
        <time>2018-05-26T09:41:13Z</time>
      </trkpt>
      <trkpt lat="43.865" lon="6.56389">
        <ele>874</ele>
        <time>2018-05-26T09:41:14Z</time>
      </trkpt>
      <trkpt lat="43.86501" lon="6.56387">
        <ele>873</ele>
        <time>2018-05-26T09:41:15Z</time>
      </trkpt>
      <trkpt lat="43.86501" lon="6.56385">
        <ele>873</ele>
        <time>2018-05-26T09:41:16Z</time>
      </trkpt>
      <trkpt lat="43.86504" lon="6.56357">
        <ele>871</ele>
        <time>2018-05-26T09:41:30Z</time>
      </trkpt>
      <trkpt lat="43.86505" lon="6.5633">
        <ele>869</ele>
        <time>2018-05-26T09:41:42Z</time>
      </trkpt>
      <trkpt lat="43.86505" lon="6.56328">
        <ele>869</ele>
        <time>2018-05-26T09:41:43Z</time>
      </trkpt>
      <trkpt lat="43.86505" lon="6.56326">
        <ele>869</ele>
        <time>2018-05-26T09:41:44Z</time>
      </trkpt>
      <trkpt lat="43.8651" lon="6.56294">
        <ele>870</ele>
        <time>2018-05-26T09:41:58Z</time>
      </trkpt>
      <trkpt lat="43.8652" lon="6.56266">
        <ele>874</ele>
        <time>2018-05-26T09:42:11Z</time>
      </trkpt>
      <trkpt lat="43.86519" lon="6.56223">
        <ele>873</ele>
        <time>2018-05-26T09:42:28Z</time>
      </trkpt>
      <trkpt lat="43.86519" lon="6.56216">
        <ele>873</ele>
        <time>2018-05-26T09:42:31Z</time>
      </trkpt>
      <trkpt lat="43.86518" lon="6.56214">
        <ele>872</ele>
        <time>2018-05-26T09:42:32Z</time>
      </trkpt>
      <trkpt lat="43.86518" lon="6.56212">
        <ele>872</ele>
        <time>2018-05-26T09:42:33Z</time>
      </trkpt>
      <trkpt lat="43.86518" lon="6.5621">
        <ele>872</ele>
        <time>2018-05-26T09:42:34Z</time>
      </trkpt>
      <trkpt lat="43.86517" lon="6.56207">
        <ele>872</ele>
        <time>2018-05-26T09:42:35Z</time>
      </trkpt>
      <trkpt lat="43.86517" lon="6.56204">
        <ele>872</ele>
        <time>2018-05-26T09:42:36Z</time>
      </trkpt>
      <trkpt lat="43.86517" lon="6.56202">
        <ele>872</ele>
        <time>2018-05-26T09:42:37Z</time>
      </trkpt>
      <trkpt lat="43.86519" lon="6.56189">
        <ele>873</ele>
        <time>2018-05-26T09:42:42Z</time>
      </trkpt>
      <trkpt lat="43.8652" lon="6.56187">
        <ele>873</ele>
        <time>2018-05-26T09:42:43Z</time>
      </trkpt>
      <trkpt lat="43.86521" lon="6.56185">
        <ele>873</ele>
        <time>2018-05-26T09:42:44Z</time>
      </trkpt>
      <trkpt lat="43.86522" lon="6.56182">
        <ele>873</ele>
        <time>2018-05-26T09:42:45Z</time>
      </trkpt>
      <trkpt lat="43.86523" lon="6.5618">
        <ele>873</ele>
        <time>2018-05-26T09:42:46Z</time>
      </trkpt>
      <trkpt lat="43.86524" lon="6.56177">
        <ele>873</ele>
        <time>2018-05-26T09:42:47Z</time>
      </trkpt>
      <trkpt lat="43.86537" lon="6.56154">
        <ele>874</ele>
        <time>2018-05-26T09:43:00Z</time>
      </trkpt>
      <trkpt lat="43.86555" lon="6.56142">
        <ele>876</ele>
        <time>2018-05-26T09:43:13Z</time>
      </trkpt>
      <trkpt lat="43.86557" lon="6.56141">
        <ele>876</ele>
        <time>2018-05-26T09:43:14Z</time>
      </trkpt>
      <trkpt lat="43.86559" lon="6.56141">
        <ele>876</ele>
        <time>2018-05-26T09:43:15Z</time>
      </trkpt>
      <trkpt lat="43.86582" lon="6.56139">
        <ele>877</ele>
        <time>2018-05-26T09:43:29Z</time>
      </trkpt>
      <trkpt lat="43.86606" lon="6.56144">
        <ele>880</ele>
        <time>2018-05-26T09:43:45Z</time>
      </trkpt>
      <trkpt lat="43.86634" lon="6.56154">
        <ele>884</ele>
        <time>2018-05-26T09:44:03Z</time>
      </trkpt>
      <trkpt lat="43.86637" lon="6.56152">
        <ele>884</ele>
        <time>2018-05-26T09:44:05Z</time>
      </trkpt>
      <trkpt lat="43.86638" lon="6.5615">
        <ele>884</ele>
        <time>2018-05-26T09:44:06Z</time>
      </trkpt>
      <trkpt lat="43.86639" lon="6.56148">
        <ele>884</ele>
        <time>2018-05-26T09:44:07Z</time>
      </trkpt>
      <trkpt lat="43.86641" lon="6.56143">
        <ele>884</ele>
        <time>2018-05-26T09:44:10Z</time>
      </trkpt>
      <trkpt lat="43.86642" lon="6.56141">
        <ele>883</ele>
        <time>2018-05-26T09:44:11Z</time>
      </trkpt>
      <trkpt lat="43.86642" lon="6.56139">
        <ele>883</ele>
        <time>2018-05-26T09:44:12Z</time>
      </trkpt>
      <trkpt lat="43.86643" lon="6.56137">
        <ele>883</ele>
        <time>2018-05-26T09:44:13Z</time>
      </trkpt>
      <trkpt lat="43.86643" lon="6.56135">
        <ele>884</ele>
        <time>2018-05-26T09:44:14Z</time>
      </trkpt>
      <trkpt lat="43.86643" lon="6.56132">
        <ele>884</ele>
        <time>2018-05-26T09:44:15Z</time>
      </trkpt>
      <trkpt lat="43.86643" lon="6.5613">
        <ele>884</ele>
        <time>2018-05-26T09:44:16Z</time>
      </trkpt>
      <trkpt lat="43.86643" lon="6.56127">
        <ele>884</ele>
        <time>2018-05-26T09:44:17Z</time>
      </trkpt>
      <trkpt lat="43.86643" lon="6.56125">
        <ele>884</ele>
        <time>2018-05-26T09:44:18Z</time>
      </trkpt>
      <trkpt lat="43.86643" lon="6.56123">
        <ele>884</ele>
        <time>2018-05-26T09:44:19Z</time>
      </trkpt>
      <trkpt lat="43.86643" lon="6.56091">
        <ele>884</ele>
        <time>2018-05-26T09:44:32Z</time>
      </trkpt>
      <trkpt lat="43.86659" lon="6.56067">
        <ele>887</ele>
        <time>2018-05-26T09:44:46Z</time>
      </trkpt>
      <trkpt lat="43.86682" lon="6.56044">
        <ele>890</ele>
        <time>2018-05-26T09:45:03Z</time>
      </trkpt>
      <trkpt lat="43.86708" lon="6.56026">
        <ele>894</ele>
        <time>2018-05-26T09:45:20Z</time>
      </trkpt>
      <trkpt lat="43.86726" lon="6.56021">
        <ele>897</ele>
        <time>2018-05-26T09:45:32Z</time>
      </trkpt>
      <trkpt lat="43.86746" lon="6.56003">
        <ele>898</ele>
        <time>2018-05-26T09:45:45Z</time>
      </trkpt>
      <trkpt lat="43.86757" lon="6.55973">
        <ele>897</ele>
        <time>2018-05-26T09:45:59Z</time>
      </trkpt>
      <trkpt lat="43.86768" lon="6.55937">
        <ele>895</ele>
        <time>2018-05-26T09:46:15Z</time>
      </trkpt>
      <trkpt lat="43.86791" lon="6.55922">
        <ele>898</ele>
        <time>2018-05-26T09:46:31Z</time>
      </trkpt>
      <trkpt lat="43.86816" lon="6.55913">
        <ele>902</ele>
        <time>2018-05-26T09:46:45Z</time>
      </trkpt>
      <trkpt lat="43.86835" lon="6.55888">
        <ele>902</ele>
        <time>2018-05-26T09:47:01Z</time>
      </trkpt>
      <trkpt lat="43.86854" lon="6.55864">
        <ele>902</ele>
        <time>2018-05-26T09:47:17Z</time>
      </trkpt>
      <trkpt lat="43.86882" lon="6.55848">
        <ele>900</ele>
        <time>2018-05-26T09:47:33Z</time>
      </trkpt>
      <trkpt lat="43.86896" lon="6.55849">
        <ele>899</ele>
        <time>2018-05-26T09:47:46Z</time>
      </trkpt>
      <trkpt lat="43.86897" lon="6.55848">
        <ele>898</ele>
        <time>2018-05-26T09:48:00Z</time>
      </trkpt>
      <trkpt lat="43.86897" lon="6.55847">
        <ele>898</ele>
        <time>2018-05-26T09:48:23Z</time>
      </trkpt>
      <trkpt lat="43.86897" lon="6.55849">
        <ele>898</ele>
        <time>2018-05-26T09:48:25Z</time>
      </trkpt>
      <trkpt lat="43.86894" lon="6.55852">
        <ele>900</ele>
        <time>2018-05-26T09:48:45Z</time>
      </trkpt>
      <trkpt lat="43.86894" lon="6.55852">
        <ele>899</ele>
        <time>2018-05-26T09:49:31Z</time>
      </trkpt>
      <trkpt lat="43.86897" lon="6.55854">
        <ele>900</ele>
        <time>2018-05-26T09:50:26Z</time>
      </trkpt>
      <trkpt lat="43.86896" lon="6.55853">
        <ele>899</ele>
        <time>2018-05-26T09:51:05Z</time>
      </trkpt>
      <trkpt lat="43.86894" lon="6.55853">
        <ele>900</ele>
        <time>2018-05-26T09:52:02Z</time>
      </trkpt>
      <trkpt lat="43.86895" lon="6.55852">
        <ele>899</ele>
        <time>2018-05-26T09:52:54Z</time>
      </trkpt>
      <trkpt lat="43.86896" lon="6.55853">
        <ele>900</ele>
        <time>2018-05-26T09:53:40Z</time>
      </trkpt>
      <trkpt lat="43.86897" lon="6.55851">
        <ele>899</ele>
        <time>2018-05-26T09:53:54Z</time>
      </trkpt>
      <trkpt lat="43.86896" lon="6.55849">
        <ele>898</ele>
        <time>2018-05-26T09:54:09Z</time>
      </trkpt>
      <trkpt lat="43.86894" lon="6.55847">
        <ele>898</ele>
        <time>2018-05-26T09:54:33Z</time>
      </trkpt>
      <trkpt lat="43.86893" lon="6.55853">
        <ele>900</ele>
        <time>2018-05-26T09:54:55Z</time>
      </trkpt>
      <trkpt lat="43.86888" lon="6.55862">
        <ele>903</ele>
        <time>2018-05-26T09:55:01Z</time>
      </trkpt>
      <trkpt lat="43.86887" lon="6.55864">
        <ele>903</ele>
        <time>2018-05-26T09:55:02Z</time>
      </trkpt>
      <trkpt lat="43.86886" lon="6.55866">
        <ele>903</ele>
        <time>2018-05-26T09:55:03Z</time>
      </trkpt>
      <trkpt lat="43.86885" lon="6.55867">
        <ele>904</ele>
        <time>2018-05-26T09:55:04Z</time>
      </trkpt>
      <trkpt lat="43.86884" lon="6.55868">
        <ele>904</ele>
        <time>2018-05-26T09:55:05Z</time>
      </trkpt>
      <trkpt lat="43.86883" lon="6.5587">
        <ele>904</ele>
        <time>2018-05-26T09:55:06Z</time>
      </trkpt>
      <trkpt lat="43.86882" lon="6.55871">
        <ele>905</ele>
        <time>2018-05-26T09:55:07Z</time>
      </trkpt>
      <trkpt lat="43.86881" lon="6.55871">
        <ele>905</ele>
        <time>2018-05-26T09:55:08Z</time>
      </trkpt>
      <trkpt lat="43.86879" lon="6.55872">
        <ele>905</ele>
        <time>2018-05-26T09:55:09Z</time>
      </trkpt>
      <trkpt lat="43.86878" lon="6.55873">
        <ele>905</ele>
        <time>2018-05-26T09:55:10Z</time>
      </trkpt>
      <trkpt lat="43.86877" lon="6.55874">
        <ele>906</ele>
        <time>2018-05-26T09:55:11Z</time>
      </trkpt>
      <trkpt lat="43.86875" lon="6.55876">
        <ele>906</ele>
        <time>2018-05-26T09:55:12Z</time>
      </trkpt>
      <trkpt lat="43.86874" lon="6.55878">
        <ele>906</ele>
        <time>2018-05-26T09:55:13Z</time>
      </trkpt>
      <trkpt lat="43.86873" lon="6.55879">
        <ele>906</ele>
        <time>2018-05-26T09:55:14Z</time>
      </trkpt>
      <trkpt lat="43.86872" lon="6.55881">
        <ele>906</ele>
        <time>2018-05-26T09:55:15Z</time>
      </trkpt>
      <trkpt lat="43.86871" lon="6.55883">
        <ele>907</ele>
        <time>2018-05-26T09:55:16Z</time>
      </trkpt>
      <trkpt lat="43.86871" lon="6.55885">
        <ele>907</ele>
        <time>2018-05-26T09:55:17Z</time>
      </trkpt>
      <trkpt lat="43.86859" lon="6.55916">
        <ele>910</ele>
        <time>2018-05-26T09:55:34Z</time>
      </trkpt>
      <trkpt lat="43.86848" lon="6.55949">
        <ele>912</ele>
        <time>2018-05-26T09:55:49Z</time>
      </trkpt>
      <trkpt lat="43.86837" lon="6.55986">
        <ele>916</ele>
        <time>2018-05-26T09:56:07Z</time>
      </trkpt>
      <trkpt lat="43.86831" lon="6.56004">
        <ele>917</ele>
        <time>2018-05-26T09:56:16Z</time>
      </trkpt>
      <trkpt lat="43.8683" lon="6.56008">
        <ele>918</ele>
        <time>2018-05-26T09:56:18Z</time>
      </trkpt>
      <trkpt lat="43.86829" lon="6.5601">
        <ele>918</ele>
        <time>2018-05-26T09:56:19Z</time>
      </trkpt>
      <trkpt lat="43.86828" lon="6.56012">
        <ele>918</ele>
        <time>2018-05-26T09:56:20Z</time>
      </trkpt>
      <trkpt lat="43.86817" lon="6.5605">
        <ele>921</ele>
        <time>2018-05-26T09:56:39Z</time>
      </trkpt>
      <trkpt lat="43.86807" lon="6.5608">
        <ele>923</ele>
        <time>2018-05-26T09:56:55Z</time>
      </trkpt>
      <trkpt lat="43.86792" lon="6.56114">
        <ele>924</ele>
        <time>2018-05-26T09:57:13Z</time>
      </trkpt>
      <trkpt lat="43.86785" lon="6.56144">
        <ele>927</ele>
        <time>2018-05-26T09:57:30Z</time>
      </trkpt>
      <trkpt lat="43.86781" lon="6.56176">
        <ele>929</ele>
        <time>2018-05-26T09:57:47Z</time>
      </trkpt>
      <trkpt lat="43.86782" lon="6.56178">
        <ele>930</ele>
        <time>2018-05-26T09:57:48Z</time>
      </trkpt>
      <trkpt lat="43.86781" lon="6.5618">
        <ele>930</ele>
        <time>2018-05-26T09:57:56Z</time>
      </trkpt>
      <trkpt lat="43.86781" lon="6.56183">
        <ele>930</ele>
        <time>2018-05-26T09:57:58Z</time>
      </trkpt>
      <trkpt lat="43.86781" lon="6.56185">
        <ele>930</ele>
        <time>2018-05-26T09:57:59Z</time>
      </trkpt>
      <trkpt lat="43.86781" lon="6.56187">
        <ele>930</ele>
        <time>2018-05-26T09:58:00Z</time>
      </trkpt>
      <trkpt lat="43.86781" lon="6.56188">
        <ele>931</ele>
        <time>2018-05-26T09:58:01Z</time>
      </trkpt>
      <trkpt lat="43.86781" lon="6.5619">
        <ele>931</ele>
        <time>2018-05-26T09:58:02Z</time>
      </trkpt>
      <trkpt lat="43.86781" lon="6.56192">
        <ele>931</ele>
        <time>2018-05-26T09:58:03Z</time>
      </trkpt>
      <trkpt lat="43.86781" lon="6.56194">
        <ele>931</ele>
        <time>2018-05-26T09:58:04Z</time>
      </trkpt>
      <trkpt lat="43.86783" lon="6.5623">
        <ele>934</ele>
        <time>2018-05-26T09:58:22Z</time>
      </trkpt>
      <trkpt lat="43.86782" lon="6.56257">
        <ele>936</ele>
        <time>2018-05-26T09:58:35Z</time>
      </trkpt>
      <trkpt lat="43.86776" lon="6.56293">
        <ele>937</ele>
        <time>2018-05-26T09:58:51Z</time>
      </trkpt>
      <trkpt lat="43.86771" lon="6.5632">
        <ele>938</ele>
        <time>2018-05-26T09:59:03Z</time>
      </trkpt>
      <trkpt lat="43.8677" lon="6.56322">
        <ele>938</ele>
        <time>2018-05-26T09:59:04Z</time>
      </trkpt>
      <trkpt lat="43.86769" lon="6.56328">
        <ele>938</ele>
        <time>2018-05-26T09:59:07Z</time>
      </trkpt>
      <trkpt lat="43.86769" lon="6.5633">
        <ele>938</ele>
        <time>2018-05-26T09:59:08Z</time>
      </trkpt>
      <trkpt lat="43.86769" lon="6.56332">
        <ele>939</ele>
        <time>2018-05-26T09:59:09Z</time>
      </trkpt>
      <trkpt lat="43.86769" lon="6.56334">
        <ele>939</ele>
        <time>2018-05-26T09:59:10Z</time>
      </trkpt>
      <trkpt lat="43.86768" lon="6.56336">
        <ele>939</ele>
        <time>2018-05-26T09:59:11Z</time>
      </trkpt>
      <trkpt lat="43.86768" lon="6.56338">
        <ele>939</ele>
        <time>2018-05-26T09:59:12Z</time>
      </trkpt>
      <trkpt lat="43.86768" lon="6.5634">
        <ele>939</ele>
        <time>2018-05-26T09:59:13Z</time>
      </trkpt>
      <trkpt lat="43.86769" lon="6.56342">
        <ele>940</ele>
        <time>2018-05-26T09:59:14Z</time>
      </trkpt>
      <trkpt lat="43.86766" lon="6.56361">
        <ele>942</ele>
        <time>2018-05-26T09:59:22Z</time>
      </trkpt>
      <trkpt lat="43.86766" lon="6.56363">
        <ele>942</ele>
        <time>2018-05-26T09:59:23Z</time>
      </trkpt>
      <trkpt lat="43.86766" lon="6.56365">
        <ele>942</ele>
        <time>2018-05-26T09:59:24Z</time>
      </trkpt>
      <trkpt lat="43.86766" lon="6.56368">
        <ele>942</ele>
        <time>2018-05-26T09:59:25Z</time>
      </trkpt>
      <trkpt lat="43.86766" lon="6.5637">
        <ele>943</ele>
        <time>2018-05-26T09:59:26Z</time>
      </trkpt>
      <trkpt lat="43.86765" lon="6.56372">
        <ele>943</ele>
        <time>2018-05-26T09:59:27Z</time>
      </trkpt>
      <trkpt lat="43.86765" lon="6.56375">
        <ele>943</ele>
        <time>2018-05-26T09:59:28Z</time>
      </trkpt>
      <trkpt lat="43.86758" lon="6.56395">
        <ele>945</ele>
        <time>2018-05-26T09:59:38Z</time>
      </trkpt>
      <trkpt lat="43.86757" lon="6.56396">
        <ele>945</ele>
        <time>2018-05-26T09:59:39Z</time>
      </trkpt>
      <trkpt lat="43.86756" lon="6.56398">
        <ele>945</ele>
        <time>2018-05-26T09:59:40Z</time>
      </trkpt>
      <trkpt lat="43.86755" lon="6.564">
        <ele>945</ele>
        <time>2018-05-26T09:59:41Z</time>
      </trkpt>
      <trkpt lat="43.86754" lon="6.56402">
        <ele>945</ele>
        <time>2018-05-26T09:59:42Z</time>
      </trkpt>
      <trkpt lat="43.86753" lon="6.56405">
        <ele>946</ele>
        <time>2018-05-26T09:59:43Z</time>
      </trkpt>
      <trkpt lat="43.86749" lon="6.56414">
        <ele>947</ele>
        <time>2018-05-26T09:59:47Z</time>
      </trkpt>
      <trkpt lat="43.86748" lon="6.56415">
        <ele>947</ele>
        <time>2018-05-26T09:59:48Z</time>
      </trkpt>
      <trkpt lat="43.86746" lon="6.56417">
        <ele>948</ele>
        <time>2018-05-26T09:59:49Z</time>
      </trkpt>
      <trkpt lat="43.86745" lon="6.56418">
        <ele>948</ele>
        <time>2018-05-26T09:59:50Z</time>
      </trkpt>
      <trkpt lat="43.86744" lon="6.56418">
        <ele>948</ele>
        <time>2018-05-26T09:59:51Z</time>
      </trkpt>
      <trkpt lat="43.86721" lon="6.56427">
        <ele>947</ele>
        <time>2018-05-26T10:00:07Z</time>
      </trkpt>
      <trkpt lat="43.86695" lon="6.56438">
        <ele>948</ele>
        <time>2018-05-26T10:00:23Z</time>
      </trkpt>
      <trkpt lat="43.8667" lon="6.56446">
        <ele>949</ele>
        <time>2018-05-26T10:00:38Z</time>
      </trkpt>
      <trkpt lat="43.86639" lon="6.56438">
        <ele>944</ele>
        <time>2018-05-26T10:00:55Z</time>
      </trkpt>
      <trkpt lat="43.86616" lon="6.56443">
        <ele>941</ele>
        <time>2018-05-26T10:01:09Z</time>
      </trkpt>
      <trkpt lat="43.86614" lon="6.56451">
        <ele>942</ele>
        <time>2018-05-26T10:01:12Z</time>
      </trkpt>
      <trkpt lat="43.86614" lon="6.56454">
        <ele>942</ele>
        <time>2018-05-26T10:01:13Z</time>
      </trkpt>
      <trkpt lat="43.86614" lon="6.56456">
        <ele>943</ele>
        <time>2018-05-26T10:01:14Z</time>
      </trkpt>
      <trkpt lat="43.86615" lon="6.56459">
        <ele>944</ele>
        <time>2018-05-26T10:01:15Z</time>
      </trkpt>
      <trkpt lat="43.86617" lon="6.5646">
        <ele>945</ele>
        <time>2018-05-26T10:01:16Z</time>
      </trkpt>
      <trkpt lat="43.86618" lon="6.56462">
        <ele>946</ele>
        <time>2018-05-26T10:01:17Z</time>
      </trkpt>
      <trkpt lat="43.8662" lon="6.56463">
        <ele>946</ele>
        <time>2018-05-26T10:01:18Z</time>
      </trkpt>
      <trkpt lat="43.86622" lon="6.56463">
        <ele>947</ele>
        <time>2018-05-26T10:01:19Z</time>
      </trkpt>
      <trkpt lat="43.86624" lon="6.56463">
        <ele>948</ele>
        <time>2018-05-26T10:01:20Z</time>
      </trkpt>
      <trkpt lat="43.86626" lon="6.56463">
        <ele>949</ele>
        <time>2018-05-26T10:01:21Z</time>
      </trkpt>
      <trkpt lat="43.86627" lon="6.56462">
        <ele>949</ele>
        <time>2018-05-26T10:01:22Z</time>
      </trkpt>
      <trkpt lat="43.86655" lon="6.56466">
        <ele>953</ele>
        <time>2018-05-26T10:01:38Z</time>
      </trkpt>
      <trkpt lat="43.86683" lon="6.56475">
        <ele>958</ele>
        <time>2018-05-26T10:01:55Z</time>
      </trkpt>
      <trkpt lat="43.8671" lon="6.56477">
        <ele>960</ele>
        <time>2018-05-26T10:02:12Z</time>
      </trkpt>
      <trkpt lat="43.86738" lon="6.56487">
        <ele>965</ele>
        <time>2018-05-26T10:02:29Z</time>
      </trkpt>
      <trkpt lat="43.86739" lon="6.56488">
        <ele>965</ele>
        <time>2018-05-26T10:02:30Z</time>
      </trkpt>
      <trkpt lat="43.86741" lon="6.56487">
        <ele>965</ele>
        <time>2018-05-26T10:02:31Z</time>
      </trkpt>
      <trkpt lat="43.86743" lon="6.56488">
        <ele>965</ele>
        <time>2018-05-26T10:02:32Z</time>
      </trkpt>
      <trkpt lat="43.86744" lon="6.56488">
        <ele>965</ele>
        <time>2018-05-26T10:02:33Z</time>
      </trkpt>
      <trkpt lat="43.86746" lon="6.56488">
        <ele>965</ele>
        <time>2018-05-26T10:02:34Z</time>
      </trkpt>
      <trkpt lat="43.86748" lon="6.56487">
        <ele>965</ele>
        <time>2018-05-26T10:02:35Z</time>
      </trkpt>
      <trkpt lat="43.86749" lon="6.56487">
        <ele>966</ele>
        <time>2018-05-26T10:02:36Z</time>
      </trkpt>
      <trkpt lat="43.86751" lon="6.56487">
        <ele>966</ele>
        <time>2018-05-26T10:02:37Z</time>
      </trkpt>
      <trkpt lat="43.86753" lon="6.56486">
        <ele>966</ele>
        <time>2018-05-26T10:02:38Z</time>
      </trkpt>
      <trkpt lat="43.86754" lon="6.56486">
        <ele>966</ele>
        <time>2018-05-26T10:02:39Z</time>
      </trkpt>
      <trkpt lat="43.86778" lon="6.56488">
        <ele>968</ele>
        <time>2018-05-26T10:02:53Z</time>
      </trkpt>
      <trkpt lat="43.86805" lon="6.56496">
        <ele>973</ele>
        <time>2018-05-26T10:03:09Z</time>
      </trkpt>
      <trkpt lat="43.86826" lon="6.56493">
        <ele>977</ele>
        <time>2018-05-26T10:03:24Z</time>
      </trkpt>
      <trkpt lat="43.8684" lon="6.56468">
        <ele>974</ele>
        <time>2018-05-26T10:03:37Z</time>
      </trkpt>
      <trkpt lat="43.86851" lon="6.56436">
        <ele>974</ele>
        <time>2018-05-26T10:03:52Z</time>
      </trkpt>
      <trkpt lat="43.86863" lon="6.56407">
        <ele>975</ele>
        <time>2018-05-26T10:04:07Z</time>
      </trkpt>
      <trkpt lat="43.86864" lon="6.56405">
        <ele>975</ele>
        <time>2018-05-26T10:04:08Z</time>
      </trkpt>
      <trkpt lat="43.86877" lon="6.56392">
        <ele>978</ele>
        <time>2018-05-26T10:04:18Z</time>
      </trkpt>
      <trkpt lat="43.86879" lon="6.56391">
        <ele>979</ele>
        <time>2018-05-26T10:04:19Z</time>
      </trkpt>
      <trkpt lat="43.86893" lon="6.56364">
        <ele>980</ele>
        <time>2018-05-26T10:04:35Z</time>
      </trkpt>
      <trkpt lat="43.86902" lon="6.5633">
        <ele>978</ele>
        <time>2018-05-26T10:04:52Z</time>
      </trkpt>
      <trkpt lat="43.86903" lon="6.56326">
        <ele>978</ele>
        <time>2018-05-26T10:04:54Z</time>
      </trkpt>
      <trkpt lat="43.86904" lon="6.56324">
        <ele>978</ele>
        <time>2018-05-26T10:04:55Z</time>
      </trkpt>
      <trkpt lat="43.86904" lon="6.56322">
        <ele>978</ele>
        <time>2018-05-26T10:04:56Z</time>
      </trkpt>
      <trkpt lat="43.86905" lon="6.56316">
        <ele>978</ele>
        <time>2018-05-26T10:04:59Z</time>
      </trkpt>
      <trkpt lat="43.86906" lon="6.56314">
        <ele>978</ele>
        <time>2018-05-26T10:05:00Z</time>
      </trkpt>
      <trkpt lat="43.86907" lon="6.56313">
        <ele>978</ele>
        <time>2018-05-26T10:05:01Z</time>
      </trkpt>
      <trkpt lat="43.86908" lon="6.56311">
        <ele>978</ele>
        <time>2018-05-26T10:05:02Z</time>
      </trkpt>
      <trkpt lat="43.86909" lon="6.5631">
        <ele>978</ele>
        <time>2018-05-26T10:05:03Z</time>
      </trkpt>
      <trkpt lat="43.86909" lon="6.56308">
        <ele>978</ele>
        <time>2018-05-26T10:05:04Z</time>
      </trkpt>
      <trkpt lat="43.8691" lon="6.56307">
        <ele>978</ele>
        <time>2018-05-26T10:05:05Z</time>
      </trkpt>
      <trkpt lat="43.86911" lon="6.56305">
        <ele>978</ele>
        <time>2018-05-26T10:05:06Z</time>
      </trkpt>
      <trkpt lat="43.86928" lon="6.56284">
        <ele>980</ele>
        <time>2018-05-26T10:05:21Z</time>
      </trkpt>
      <trkpt lat="43.86947" lon="6.56269">
        <ele>983</ele>
        <time>2018-05-26T10:05:36Z</time>
      </trkpt>
      <trkpt lat="43.86963" lon="6.56264">
        <ele>985</ele>
        <time>2018-05-26T10:05:45Z</time>
      </trkpt>
      <trkpt lat="43.86964" lon="6.56264">
        <ele>985</ele>
        <time>2018-05-26T10:05:46Z</time>
      </trkpt>
      <trkpt lat="43.86966" lon="6.56263">
        <ele>985</ele>
        <time>2018-05-26T10:05:47Z</time>
      </trkpt>
      <trkpt lat="43.86996" lon="6.5625">
        <ele>986</ele>
        <time>2018-05-26T10:06:02Z</time>
      </trkpt>
      <trkpt lat="43.87015" lon="6.56235">
        <ele>980</ele>
        <time>2018-05-26T10:06:11Z</time>
      </trkpt>
      <trkpt lat="43.87016" lon="6.56237">
        <ele>980</ele>
        <time>2018-05-26T10:06:12Z</time>
      </trkpt>
      <trkpt lat="43.87017" lon="6.56239">
        <ele>980</ele>
        <time>2018-05-26T10:06:13Z</time>
      </trkpt>
      <trkpt lat="43.87018" lon="6.56242">
        <ele>981</ele>
        <time>2018-05-26T10:06:14Z</time>
      </trkpt>
      <trkpt lat="43.87018" lon="6.56244">
        <ele>982</ele>
        <time>2018-05-26T10:06:15Z</time>
      </trkpt>
      <trkpt lat="43.87018" lon="6.56247">
        <ele>983</ele>
        <time>2018-05-26T10:06:16Z</time>
      </trkpt>
      <trkpt lat="43.87017" lon="6.56249">
        <ele>983</ele>
        <time>2018-05-26T10:06:17Z</time>
      </trkpt>
      <trkpt lat="43.87017" lon="6.56251">
        <ele>984</ele>
        <time>2018-05-26T10:06:18Z</time>
      </trkpt>
      <trkpt lat="43.87015" lon="6.56253">
        <ele>985</ele>
        <time>2018-05-26T10:06:19Z</time>
      </trkpt>
      <trkpt lat="43.87014" lon="6.56255">
        <ele>985</ele>
        <time>2018-05-26T10:06:20Z</time>
      </trkpt>
      <trkpt lat="43.87007" lon="6.56262">
        <ele>988</ele>
        <time>2018-05-26T10:06:25Z</time>
      </trkpt>
      <trkpt lat="43.86985" lon="6.5628">
        <ele>992</ele>
        <time>2018-05-26T10:06:38Z</time>
      </trkpt>
      <trkpt lat="43.86978" lon="6.56289">
        <ele>993</ele>
        <time>2018-05-26T10:06:44Z</time>
      </trkpt>
      <trkpt lat="43.86977" lon="6.5629">
        <ele>993</ele>
        <time>2018-05-26T10:06:45Z</time>
      </trkpt>
      <trkpt lat="43.86976" lon="6.56292">
        <ele>993</ele>
        <time>2018-05-26T10:06:46Z</time>
      </trkpt>
      <trkpt lat="43.86966" lon="6.56303">
        <ele>993</ele>
        <time>2018-05-26T10:07:00Z</time>
      </trkpt>
      <trkpt lat="43.86958" lon="6.5632">
        <ele>994</ele>
        <time>2018-05-26T10:07:11Z</time>
      </trkpt>
      <trkpt lat="43.86956" lon="6.56324">
        <ele>994</ele>
        <time>2018-05-26T10:07:13Z</time>
      </trkpt>
      <trkpt lat="43.86955" lon="6.56326">
        <ele>994</ele>
        <time>2018-05-26T10:07:14Z</time>
      </trkpt>
      <trkpt lat="43.86954" lon="6.56328">
        <ele>994</ele>
        <time>2018-05-26T10:07:15Z</time>
      </trkpt>
      <trkpt lat="43.86953" lon="6.5633">
        <ele>995</ele>
        <time>2018-05-26T10:07:16Z</time>
      </trkpt>
      <trkpt lat="43.86952" lon="6.56332">
        <ele>995</ele>
        <time>2018-05-26T10:07:17Z</time>
      </trkpt>
      <trkpt lat="43.86945" lon="6.56346">
        <ele>995</ele>
        <time>2018-05-26T10:07:24Z</time>
      </trkpt>
      <trkpt lat="43.86944" lon="6.56348">
        <ele>995</ele>
        <time>2018-05-26T10:07:25Z</time>
      </trkpt>
      <trkpt lat="43.86943" lon="6.5635">
        <ele>995</ele>
        <time>2018-05-26T10:07:26Z</time>
      </trkpt>
      <trkpt lat="43.86943" lon="6.56352">
        <ele>996</ele>
        <time>2018-05-26T10:07:27Z</time>
      </trkpt>
      <trkpt lat="43.86942" lon="6.56354">
        <ele>996</ele>
        <time>2018-05-26T10:07:28Z</time>
      </trkpt>
      <trkpt lat="43.86933" lon="6.56386">
        <ele>998</ele>
        <time>2018-05-26T10:07:43Z</time>
      </trkpt>
      <trkpt lat="43.86927" lon="6.56422">
        <ele>1001</ele>
        <time>2018-05-26T10:07:58Z</time>
      </trkpt>
      <trkpt lat="43.86921" lon="6.56461">
        <ele>1002</ele>
        <time>2018-05-26T10:08:14Z</time>
      </trkpt>
      <trkpt lat="43.86922" lon="6.56492">
        <ele>1006</ele>
        <time>2018-05-26T10:08:27Z</time>
      </trkpt>
      <trkpt lat="43.86925" lon="6.56526">
        <ele>1011</ele>
        <time>2018-05-26T10:08:42Z</time>
      </trkpt>
      <trkpt lat="43.86912" lon="6.56555">
        <ele>1014</ele>
        <time>2018-05-26T10:08:57Z</time>
      </trkpt>
      <trkpt lat="43.86892" lon="6.56574">
        <ele>1014</ele>
        <time>2018-05-26T10:09:13Z</time>
      </trkpt>
      <trkpt lat="43.86871" lon="6.56589">
        <ele>1016</ele>
        <time>2018-05-26T10:09:29Z</time>
      </trkpt>
      <trkpt lat="43.86854" lon="6.56599">
        <ele>1016</ele>
        <time>2018-05-26T10:09:41Z</time>
      </trkpt>
      <trkpt lat="43.86852" lon="6.566">
        <ele>1016</ele>
        <time>2018-05-26T10:09:42Z</time>
      </trkpt>
      <trkpt lat="43.86831" lon="6.56614">
        <ele>1017</ele>
        <time>2018-05-26T10:09:57Z</time>
      </trkpt>
      <trkpt lat="43.86823" lon="6.5662">
        <ele>1017</ele>
        <time>2018-05-26T10:10:03Z</time>
      </trkpt>
      <trkpt lat="43.86821" lon="6.56621">
        <ele>1017</ele>
        <time>2018-05-26T10:10:04Z</time>
      </trkpt>
      <trkpt lat="43.8682" lon="6.56622">
        <ele>1017</ele>
        <time>2018-05-26T10:10:05Z</time>
      </trkpt>
      <trkpt lat="43.86819" lon="6.56624">
        <ele>1017</ele>
        <time>2018-05-26T10:10:06Z</time>
      </trkpt>
      <trkpt lat="43.86817" lon="6.56625">
        <ele>1017</ele>
        <time>2018-05-26T10:10:07Z</time>
      </trkpt>
      <trkpt lat="43.86816" lon="6.56626">
        <ele>1017</ele>
        <time>2018-05-26T10:10:08Z</time>
      </trkpt>
      <trkpt lat="43.86814" lon="6.56627">
        <ele>1017</ele>
        <time>2018-05-26T10:10:09Z</time>
      </trkpt>
      <trkpt lat="43.86813" lon="6.56629">
        <ele>1017</ele>
        <time>2018-05-26T10:10:10Z</time>
      </trkpt>
      <trkpt lat="43.86812" lon="6.5663">
        <ele>1017</ele>
        <time>2018-05-26T10:10:11Z</time>
      </trkpt>
      <trkpt lat="43.86791" lon="6.56646">
        <ele>1016</ele>
        <time>2018-05-26T10:10:26Z</time>
      </trkpt>
      <trkpt lat="43.86769" lon="6.56671">
        <ele>1015</ele>
        <time>2018-05-26T10:10:43Z</time>
      </trkpt>
      <trkpt lat="43.86769" lon="6.56702">
        <ele>1018</ele>
        <time>2018-05-26T10:10:58Z</time>
      </trkpt>
      <trkpt lat="43.86766" lon="6.56734">
        <ele>1022</ele>
        <time>2018-05-26T10:11:13Z</time>
      </trkpt>
      <trkpt lat="43.86764" lon="6.56767">
        <ele>1026</ele>
        <time>2018-05-26T10:11:28Z</time>
      </trkpt>
      <trkpt lat="43.86761" lon="6.568">
        <ele>1028</ele>
        <time>2018-05-26T10:11:45Z</time>
      </trkpt>
      <trkpt lat="43.86762" lon="6.56833">
        <ele>1031</ele>
        <time>2018-05-26T10:12:02Z</time>
      </trkpt>
      <trkpt lat="43.86766" lon="6.5687">
        <ele>1034</ele>
        <time>2018-05-26T10:12:18Z</time>
      </trkpt>
      <trkpt lat="43.86767" lon="6.56872">
        <ele>1035</ele>
        <time>2018-05-26T10:12:19Z</time>
      </trkpt>
      <trkpt lat="43.86768" lon="6.56874">
        <ele>1035</ele>
        <time>2018-05-26T10:12:20Z</time>
      </trkpt>
      <trkpt lat="43.86769" lon="6.56876">
        <ele>1035</ele>
        <time>2018-05-26T10:12:21Z</time>
      </trkpt>
      <trkpt lat="43.86773" lon="6.56889">
        <ele>1037</ele>
        <time>2018-05-26T10:12:27Z</time>
      </trkpt>
      <trkpt lat="43.86769" lon="6.56908">
        <ele>1038</ele>
        <time>2018-05-26T10:12:36Z</time>
      </trkpt>
      <trkpt lat="43.86767" lon="6.56908">
        <ele>1037</ele>
        <time>2018-05-26T10:12:37Z</time>
      </trkpt>
      <trkpt lat="43.86765" lon="6.56909">
        <ele>1037</ele>
        <time>2018-05-26T10:12:38Z</time>
      </trkpt>
      <trkpt lat="43.86763" lon="6.5691">
        <ele>1037</ele>
        <time>2018-05-26T10:12:39Z</time>
      </trkpt>
      <trkpt lat="43.86762" lon="6.5691">
        <ele>1036</ele>
        <time>2018-05-26T10:12:40Z</time>
      </trkpt>
      <trkpt lat="43.8676" lon="6.56911">
        <ele>1036</ele>
        <time>2018-05-26T10:12:41Z</time>
      </trkpt>
      <trkpt lat="43.86758" lon="6.56911">
        <ele>1035</ele>
        <time>2018-05-26T10:12:42Z</time>
      </trkpt>
      <trkpt lat="43.86744" lon="6.56941">
        <ele>1034</ele>
        <time>2018-05-26T10:12:55Z</time>
      </trkpt>
      <trkpt lat="43.86751" lon="6.56984">
        <ele>1036</ele>
        <time>2018-05-26T10:13:12Z</time>
      </trkpt>
      <trkpt lat="43.86753" lon="6.56989">
        <ele>1037</ele>
        <time>2018-05-26T10:13:23Z</time>
      </trkpt>
      <trkpt lat="43.86754" lon="6.56991">
        <ele>1038</ele>
        <time>2018-05-26T10:13:51Z</time>
      </trkpt>
      <trkpt lat="43.86756" lon="6.5699">
        <ele>1038</ele>
        <time>2018-05-26T10:14:13Z</time>
      </trkpt>
      <trkpt lat="43.86757" lon="6.56991">
        <ele>1039</ele>
        <time>2018-05-26T10:14:14Z</time>
      </trkpt>
      <trkpt lat="43.86757" lon="6.56993">
        <ele>1039</ele>
        <time>2018-05-26T10:14:15Z</time>
      </trkpt>
      <trkpt lat="43.86758" lon="6.56995">
        <ele>1039</ele>
        <time>2018-05-26T10:14:16Z</time>
      </trkpt>
      <trkpt lat="43.86759" lon="6.56998">
        <ele>1039</ele>
        <time>2018-05-26T10:14:17Z</time>
      </trkpt>
      <trkpt lat="43.86769" lon="6.57036">
        <ele>1043</ele>
        <time>2018-05-26T10:14:33Z</time>
      </trkpt>
      <trkpt lat="43.86777" lon="6.57069">
        <ele>1045</ele>
        <time>2018-05-26T10:14:46Z</time>
      </trkpt>
      <trkpt lat="43.86786" lon="6.57106">
        <ele>1048</ele>
        <time>2018-05-26T10:15:00Z</time>
      </trkpt>
      <trkpt lat="43.86797" lon="6.57148">
        <ele>1049</ele>
        <time>2018-05-26T10:15:17Z</time>
      </trkpt>
      <trkpt lat="43.86807" lon="6.57188">
        <ele>1052</ele>
        <time>2018-05-26T10:15:33Z</time>
      </trkpt>
      <trkpt lat="43.86814" lon="6.57221">
        <ele>1054</ele>
        <time>2018-05-26T10:15:46Z</time>
      </trkpt>
      <trkpt lat="43.86817" lon="6.57243">
        <ele>1056</ele>
        <time>2018-05-26T10:15:55Z</time>
      </trkpt>
      <trkpt lat="43.86816" lon="6.57245">
        <ele>1055</ele>
        <time>2018-05-26T10:15:56Z</time>
      </trkpt>
      <trkpt lat="43.86816" lon="6.57247">
        <ele>1055</ele>
        <time>2018-05-26T10:15:57Z</time>
      </trkpt>
      <trkpt lat="43.86812" lon="6.5727">
        <ele>1054</ele>
        <time>2018-05-26T10:16:07Z</time>
      </trkpt>
      <trkpt lat="43.86814" lon="6.57271">
        <ele>1055</ele>
        <time>2018-05-26T10:16:08Z</time>
      </trkpt>
      <trkpt lat="43.86815" lon="6.57272">
        <ele>1055</ele>
        <time>2018-05-26T10:16:09Z</time>
      </trkpt>
      <trkpt lat="43.86816" lon="6.57273">
        <ele>1055</ele>
        <time>2018-05-26T10:16:10Z</time>
      </trkpt>
      <trkpt lat="43.86818" lon="6.57273">
        <ele>1056</ele>
        <time>2018-05-26T10:16:11Z</time>
      </trkpt>
      <trkpt lat="43.8682" lon="6.57272">
        <ele>1056</ele>
        <time>2018-05-26T10:16:12Z</time>
      </trkpt>
      <trkpt lat="43.86821" lon="6.57271">
        <ele>1057</ele>
        <time>2018-05-26T10:16:13Z</time>
      </trkpt>
      <trkpt lat="43.86822" lon="6.57269">
        <ele>1057</ele>
        <time>2018-05-26T10:16:14Z</time>
      </trkpt>
      <trkpt lat="43.86824" lon="6.57265">
        <ele>1058</ele>
        <time>2018-05-26T10:16:16Z</time>
      </trkpt>
      <trkpt lat="43.86825" lon="6.57263">
        <ele>1059</ele>
        <time>2018-05-26T10:16:17Z</time>
      </trkpt>
      <trkpt lat="43.86825" lon="6.57259">
        <ele>1059</ele>
        <time>2018-05-26T10:16:18Z</time>
      </trkpt>
      <trkpt lat="43.86825" lon="6.57257">
        <ele>1059</ele>
        <time>2018-05-26T10:16:19Z</time>
      </trkpt>
      <trkpt lat="43.86825" lon="6.57254">
        <ele>1059</ele>
        <time>2018-05-26T10:16:20Z</time>
      </trkpt>
      <trkpt lat="43.86825" lon="6.5725">
        <ele>1059</ele>
        <time>2018-05-26T10:16:21Z</time>
      </trkpt>
      <trkpt lat="43.86825" lon="6.57247">
        <ele>1059</ele>
        <time>2018-05-26T10:16:22Z</time>
      </trkpt>
      <trkpt lat="43.86825" lon="6.57243">
        <ele>1059</ele>
        <time>2018-05-26T10:16:23Z</time>
      </trkpt>
      <trkpt lat="43.86824" lon="6.5724">
        <ele>1059</ele>
        <time>2018-05-26T10:16:24Z</time>
      </trkpt>
      <trkpt lat="43.86824" lon="6.57236">
        <ele>1059</ele>
        <time>2018-05-26T10:16:25Z</time>
      </trkpt>
      <trkpt lat="43.86819" lon="6.57179">
        <ele>1059</ele>
        <time>2018-05-26T10:16:41Z</time>
      </trkpt>
      <trkpt lat="43.86815" lon="6.57135">
        <ele>1060</ele>
        <time>2018-05-26T10:16:57Z</time>
      </trkpt>
      <trkpt lat="43.86812" lon="6.57086">
        <ele>1063</ele>
        <time>2018-05-26T10:17:15Z</time>
      </trkpt>
      <trkpt lat="43.86811" lon="6.57054">
        <ele>1062</ele>
        <time>2018-05-26T10:17:27Z</time>
      </trkpt>
      <trkpt lat="43.8682" lon="6.57015">
        <ele>1063</ele>
        <time>2018-05-26T10:17:43Z</time>
      </trkpt>
      <trkpt lat="43.86846" lon="6.56993">
        <ele>1068</ele>
        <time>2018-05-26T10:17:59Z</time>
      </trkpt>
      <trkpt lat="43.86869" lon="6.56979">
        <ele>1072</ele>
        <time>2018-05-26T10:18:13Z</time>
      </trkpt>
      <trkpt lat="43.86879" lon="6.56947">
        <ele>1072</ele>
        <time>2018-05-26T10:18:27Z</time>
      </trkpt>
      <trkpt lat="43.86893" lon="6.56914">
        <ele>1074</ele>
        <time>2018-05-26T10:18:42Z</time>
      </trkpt>
      <trkpt lat="43.86898" lon="6.56892">
        <ele>1074</ele>
        <time>2018-05-26T10:18:51Z</time>
      </trkpt>
      <trkpt lat="43.86902" lon="6.56886">
        <ele>1075</ele>
        <time>2018-05-26T10:18:54Z</time>
      </trkpt>
      <trkpt lat="43.86904" lon="6.56885">
        <ele>1076</ele>
        <time>2018-05-26T10:18:55Z</time>
      </trkpt>
      <trkpt lat="43.86905" lon="6.56886">
        <ele>1076</ele>
        <time>2018-05-26T10:18:56Z</time>
      </trkpt>
      <trkpt lat="43.86907" lon="6.56887">
        <ele>1077</ele>
        <time>2018-05-26T10:18:57Z</time>
      </trkpt>
      <trkpt lat="43.86908" lon="6.56889">
        <ele>1077</ele>
        <time>2018-05-26T10:18:58Z</time>
      </trkpt>
      <trkpt lat="43.86909" lon="6.56891">
        <ele>1078</ele>
        <time>2018-05-26T10:18:59Z</time>
      </trkpt>
      <trkpt lat="43.86909" lon="6.56893">
        <ele>1078</ele>
        <time>2018-05-26T10:19:00Z</time>
      </trkpt>
      <trkpt lat="43.86909" lon="6.56895">
        <ele>1078</ele>
        <time>2018-05-26T10:19:01Z</time>
      </trkpt>
      <trkpt lat="43.86905" lon="6.56913">
        <ele>1078</ele>
        <time>2018-05-26T10:19:08Z</time>
      </trkpt>
      <trkpt lat="43.86905" lon="6.56915">
        <ele>1078</ele>
        <time>2018-05-26T10:19:09Z</time>
      </trkpt>
      <trkpt lat="43.86905" lon="6.56918">
        <ele>1078</ele>
        <time>2018-05-26T10:19:10Z</time>
      </trkpt>
      <trkpt lat="43.86905" lon="6.56921">
        <ele>1078</ele>
        <time>2018-05-26T10:19:11Z</time>
      </trkpt>
      <trkpt lat="43.86904" lon="6.56924">
        <ele>1078</ele>
        <time>2018-05-26T10:19:12Z</time>
      </trkpt>
      <trkpt lat="43.86904" lon="6.56927">
        <ele>1078</ele>
        <time>2018-05-26T10:19:13Z</time>
      </trkpt>
      <trkpt lat="43.869" lon="6.56967">
        <ele>1080</ele>
        <time>2018-05-26T10:19:28Z</time>
      </trkpt>
      <trkpt lat="43.86894" lon="6.57005">
        <ele>1084</ele>
        <time>2018-05-26T10:19:43Z</time>
      </trkpt>
      <trkpt lat="43.8687" lon="6.57029">
        <ele>1080</ele>
        <time>2018-05-26T10:19:58Z</time>
      </trkpt>
      <trkpt lat="43.86861" lon="6.57044">
        <ele>1079</ele>
        <time>2018-05-26T10:20:06Z</time>
      </trkpt>
      <trkpt lat="43.8686" lon="6.57047">
        <ele>1079</ele>
        <time>2018-05-26T10:20:07Z</time>
      </trkpt>
      <trkpt lat="43.86856" lon="6.57092">
        <ele>1083</ele>
        <time>2018-05-26T10:20:24Z</time>
      </trkpt>
      <trkpt lat="43.86864" lon="6.57131">
        <ele>1086</ele>
        <time>2018-05-26T10:20:41Z</time>
      </trkpt>
      <trkpt lat="43.86871" lon="6.5717">
        <ele>1088</ele>
        <time>2018-05-26T10:20:59Z</time>
      </trkpt>
      <trkpt lat="43.86876" lon="6.57201">
        <ele>1090</ele>
        <time>2018-05-26T10:21:14Z</time>
      </trkpt>
      <trkpt lat="43.86882" lon="6.57235">
        <ele>1091</ele>
        <time>2018-05-26T10:21:29Z</time>
      </trkpt>
      <trkpt lat="43.86889" lon="6.57275">
        <ele>1093</ele>
        <time>2018-05-26T10:21:45Z</time>
      </trkpt>
      <trkpt lat="43.86896" lon="6.57317">
        <ele>1093</ele>
        <time>2018-05-26T10:22:03Z</time>
      </trkpt>
      <trkpt lat="43.86904" lon="6.57354">
        <ele>1096</ele>
        <time>2018-05-26T10:22:19Z</time>
      </trkpt>
      <trkpt lat="43.86914" lon="6.57383">
        <ele>1100</ele>
        <time>2018-05-26T10:22:34Z</time>
      </trkpt>
      <trkpt lat="43.8692" lon="6.57413">
        <ele>1103</ele>
        <time>2018-05-26T10:22:50Z</time>
      </trkpt>
      <trkpt lat="43.86922" lon="6.5743">
        <ele>1105</ele>
        <time>2018-05-26T10:22:59Z</time>
      </trkpt>
      <trkpt lat="43.86921" lon="6.57432">
        <ele>1105</ele>
        <time>2018-05-26T10:23:00Z</time>
      </trkpt>
      <trkpt lat="43.86921" lon="6.57434">
        <ele>1105</ele>
        <time>2018-05-26T10:23:01Z</time>
      </trkpt>
      <trkpt lat="43.8692" lon="6.57436">
        <ele>1105</ele>
        <time>2018-05-26T10:23:02Z</time>
      </trkpt>
      <trkpt lat="43.8692" lon="6.57438">
        <ele>1105</ele>
        <time>2018-05-26T10:23:03Z</time>
      </trkpt>
      <trkpt lat="43.8692" lon="6.5744">
        <ele>1105</ele>
        <time>2018-05-26T10:23:04Z</time>
      </trkpt>
      <trkpt lat="43.86919" lon="6.57441">
        <ele>1105</ele>
        <time>2018-05-26T10:23:05Z</time>
      </trkpt>
      <trkpt lat="43.86918" lon="6.57443">
        <ele>1105</ele>
        <time>2018-05-26T10:23:06Z</time>
      </trkpt>
      <trkpt lat="43.86916" lon="6.57447">
        <ele>1105</ele>
        <time>2018-05-26T10:23:08Z</time>
      </trkpt>
      <trkpt lat="43.86915" lon="6.57448">
        <ele>1105</ele>
        <time>2018-05-26T10:23:09Z</time>
      </trkpt>
      <trkpt lat="43.86914" lon="6.5745">
        <ele>1105</ele>
        <time>2018-05-26T10:23:10Z</time>
      </trkpt>
      <trkpt lat="43.86913" lon="6.57451">
        <ele>1105</ele>
        <time>2018-05-26T10:23:11Z</time>
      </trkpt>
      <trkpt lat="43.86912" lon="6.57452">
        <ele>1104</ele>
        <time>2018-05-26T10:23:12Z</time>
      </trkpt>
      <trkpt lat="43.86911" lon="6.57453">
        <ele>1104</ele>
        <time>2018-05-26T10:23:13Z</time>
      </trkpt>
      <trkpt lat="43.86909" lon="6.57454">
        <ele>1104</ele>
        <time>2018-05-26T10:23:14Z</time>
      </trkpt>
      <trkpt lat="43.86908" lon="6.57456">
        <ele>1104</ele>
        <time>2018-05-26T10:23:15Z</time>
      </trkpt>
      <trkpt lat="43.86907" lon="6.57458">
        <ele>1104</ele>
        <time>2018-05-26T10:23:16Z</time>
      </trkpt>
      <trkpt lat="43.86905" lon="6.57461">
        <ele>1104</ele>
        <time>2018-05-26T10:23:18Z</time>
      </trkpt>
      <trkpt lat="43.86904" lon="6.57462">
        <ele>1104</ele>
        <time>2018-05-26T10:23:19Z</time>
      </trkpt>
      <trkpt lat="43.86903" lon="6.57464">
        <ele>1104</ele>
        <time>2018-05-26T10:23:20Z</time>
      </trkpt>
      <trkpt lat="43.86902" lon="6.57482">
        <ele>1108</ele>
        <time>2018-05-26T10:23:32Z</time>
      </trkpt>
      <trkpt lat="43.86904" lon="6.57482">
        <ele>1108</ele>
        <time>2018-05-26T10:23:55Z</time>
      </trkpt>
      <trkpt lat="43.86906" lon="6.57483">
        <ele>1109</ele>
        <time>2018-05-26T10:23:57Z</time>
      </trkpt>
      <trkpt lat="43.86907" lon="6.57484">
        <ele>1109</ele>
        <time>2018-05-26T10:23:58Z</time>
      </trkpt>
      <trkpt lat="43.86908" lon="6.57485">
        <ele>1109</ele>
        <time>2018-05-26T10:23:59Z</time>
      </trkpt>
      <trkpt lat="43.8691" lon="6.57485">
        <ele>1110</ele>
        <time>2018-05-26T10:24:00Z</time>
      </trkpt>
      <trkpt lat="43.86911" lon="6.57484">
        <ele>1110</ele>
        <time>2018-05-26T10:24:01Z</time>
      </trkpt>
      <trkpt lat="43.86912" lon="6.57484">
        <ele>1110</ele>
        <time>2018-05-26T10:24:02Z</time>
      </trkpt>
      <trkpt lat="43.86913" lon="6.57483">
        <ele>1110</ele>
        <time>2018-05-26T10:24:03Z</time>
      </trkpt>
      <trkpt lat="43.86915" lon="6.57482">
        <ele>1110</ele>
        <time>2018-05-26T10:24:04Z</time>
      </trkpt>
      <trkpt lat="43.86916" lon="6.5748">
        <ele>1110</ele>
        <time>2018-05-26T10:24:05Z</time>
      </trkpt>
      <trkpt lat="43.86917" lon="6.57479">
        <ele>1110</ele>
        <time>2018-05-26T10:24:06Z</time>
      </trkpt>
      <trkpt lat="43.86926" lon="6.57464">
        <ele>1109</ele>
        <time>2018-05-26T10:24:16Z</time>
      </trkpt>
      <trkpt lat="43.86927" lon="6.57463">
        <ele>1109</ele>
        <time>2018-05-26T10:24:17Z</time>
      </trkpt>
      <trkpt lat="43.86928" lon="6.57461">
        <ele>1109</ele>
        <time>2018-05-26T10:24:18Z</time>
      </trkpt>
      <trkpt lat="43.86929" lon="6.5746">
        <ele>1109</ele>
        <time>2018-05-26T10:24:19Z</time>
      </trkpt>
      <trkpt lat="43.8693" lon="6.57458">
        <ele>1110</ele>
        <time>2018-05-26T10:24:20Z</time>
      </trkpt>
      <trkpt lat="43.86931" lon="6.57457">
        <ele>1110</ele>
        <time>2018-05-26T10:24:21Z</time>
      </trkpt>
      <trkpt lat="43.86935" lon="6.57454">
        <ele>1111</ele>
        <time>2018-05-26T10:24:24Z</time>
      </trkpt>
      <trkpt lat="43.86936" lon="6.57452">
        <ele>1111</ele>
        <time>2018-05-26T10:24:25Z</time>
      </trkpt>
      <trkpt lat="43.86945" lon="6.57424">
        <ele>1113</ele>
        <time>2018-05-26T10:24:39Z</time>
      </trkpt>
      <trkpt lat="43.86946" lon="6.57408">
        <ele>1113</ele>
        <time>2018-05-26T10:24:46Z</time>
      </trkpt>
      <trkpt lat="43.86945" lon="6.57406">
        <ele>1113</ele>
        <time>2018-05-26T10:24:47Z</time>
      </trkpt>
      <trkpt lat="43.86945" lon="6.57404">
        <ele>1113</ele>
        <time>2018-05-26T10:24:48Z</time>
      </trkpt>
      <trkpt lat="43.86944" lon="6.57402">
        <ele>1113</ele>
        <time>2018-05-26T10:24:49Z</time>
      </trkpt>
      <trkpt lat="43.86944" lon="6.57399">
        <ele>1113</ele>
        <time>2018-05-26T10:24:50Z</time>
      </trkpt>
      <trkpt lat="43.86934" lon="6.57363">
        <ele>1111</ele>
        <time>2018-05-26T10:25:07Z</time>
      </trkpt>
      <trkpt lat="43.86933" lon="6.57361">
        <ele>1111</ele>
        <time>2018-05-26T10:25:08Z</time>
      </trkpt>
      <trkpt lat="43.86931" lon="6.57321">
        <ele>1113</ele>
        <time>2018-05-26T10:25:25Z</time>
      </trkpt>
      <trkpt lat="43.86931" lon="6.57282">
        <ele>1118</ele>
        <time>2018-05-26T10:25:42Z</time>
      </trkpt>
      <trkpt lat="43.86928" lon="6.5725">
        <ele>1117</ele>
        <time>2018-05-26T10:25:55Z</time>
      </trkpt>
      <trkpt lat="43.86931" lon="6.57221">
        <ele>1120</ele>
        <time>2018-05-26T10:26:08Z</time>
      </trkpt>
      <trkpt lat="43.86936" lon="6.57209">
        <ele>1122</ele>
        <time>2018-05-26T10:26:14Z</time>
      </trkpt>
      <trkpt lat="43.86941" lon="6.57179">
        <ele>1122</ele>
        <time>2018-05-26T10:26:28Z</time>
      </trkpt>
      <trkpt lat="43.86944" lon="6.57162">
        <ele>1123</ele>
        <time>2018-05-26T10:26:36Z</time>
      </trkpt>
      <trkpt lat="43.86945" lon="6.5716">
        <ele>1123</ele>
        <time>2018-05-26T10:26:37Z</time>
      </trkpt>
      <trkpt lat="43.86946" lon="6.57159">
        <ele>1124</ele>
        <time>2018-05-26T10:26:38Z</time>
      </trkpt>
      <trkpt lat="43.86961" lon="6.57123">
        <ele>1125</ele>
        <time>2018-05-26T10:26:57Z</time>
      </trkpt>
      <trkpt lat="43.8698" lon="6.57092">
        <ele>1127</ele>
        <time>2018-05-26T10:27:14Z</time>
      </trkpt>
      <trkpt lat="43.86987" lon="6.57082">
        <ele>1128</ele>
        <time>2018-05-26T10:27:25Z</time>
      </trkpt>
      <trkpt lat="43.86987" lon="6.57081">
        <ele>1128</ele>
        <time>2018-05-26T10:27:42Z</time>
      </trkpt>
      <trkpt lat="43.86988" lon="6.57082">
        <ele>1128</ele>
        <time>2018-05-26T10:28:25Z</time>
      </trkpt>
      <trkpt lat="43.8699" lon="6.57082">
        <ele>1129</ele>
        <time>2018-05-26T10:28:55Z</time>
      </trkpt>
      <trkpt lat="43.86987" lon="6.57081">
        <ele>1128</ele>
        <time>2018-05-26T10:29:41Z</time>
      </trkpt>
      <trkpt lat="43.86988" lon="6.57082">
        <ele>1128</ele>
        <time>2018-05-26T10:30:23Z</time>
      </trkpt>
      <trkpt lat="43.86989" lon="6.5708">
        <ele>1128</ele>
        <time>2018-05-26T10:30:57Z</time>
      </trkpt>
      <trkpt lat="43.86987" lon="6.57078">
        <ele>1127</ele>
        <time>2018-05-26T10:31:27Z</time>
      </trkpt>
      <trkpt lat="43.86987" lon="6.57079">
        <ele>1127</ele>
        <time>2018-05-26T10:32:00Z</time>
      </trkpt>
      <trkpt lat="43.86988" lon="6.5708">
        <ele>1128</ele>
        <time>2018-05-26T10:32:35Z</time>
      </trkpt>
      <trkpt lat="43.86987" lon="6.5708">
        <ele>1128</ele>
        <time>2018-05-26T10:33:05Z</time>
      </trkpt>
      <trkpt lat="43.86989" lon="6.57079">
        <ele>1128</ele>
        <time>2018-05-26T10:33:44Z</time>
      </trkpt>
      <trkpt lat="43.86988" lon="6.5708">
        <ele>1128</ele>
        <time>2018-05-26T10:34:20Z</time>
      </trkpt>
      <trkpt lat="43.86989" lon="6.57081">
        <ele>1128</ele>
        <time>2018-05-26T10:34:46Z</time>
      </trkpt>
      <trkpt lat="43.8699" lon="6.57077">
        <ele>1128</ele>
        <time>2018-05-26T10:35:19Z</time>
      </trkpt>
      <trkpt lat="43.86989" lon="6.57078">
        <ele>1128</ele>
        <time>2018-05-26T10:35:49Z</time>
      </trkpt>
      <trkpt lat="43.86988" lon="6.57078">
        <ele>1127</ele>
        <time>2018-05-26T10:36:14Z</time>
      </trkpt>
      <trkpt lat="43.86988" lon="6.5708">
        <ele>1128</ele>
        <time>2018-05-26T10:36:44Z</time>
      </trkpt>
      <trkpt lat="43.86986" lon="6.57078">
        <ele>1127</ele>
        <time>2018-05-26T10:37:18Z</time>
      </trkpt>
      <trkpt lat="43.86987" lon="6.57079">
        <ele>1127</ele>
        <time>2018-05-26T10:37:40Z</time>
      </trkpt>
      <trkpt lat="43.86986" lon="6.57079">
        <ele>1127</ele>
        <time>2018-05-26T10:38:09Z</time>
      </trkpt>
      <trkpt lat="43.86988" lon="6.5708">
        <ele>1128</ele>
        <time>2018-05-26T10:38:29Z</time>
      </trkpt>
      <trkpt lat="43.86987" lon="6.57077">
        <ele>1127</ele>
        <time>2018-05-26T10:39:04Z</time>
      </trkpt>
      <trkpt lat="43.86992" lon="6.57081">
        <ele>1129</ele>
        <time>2018-05-26T10:39:20Z</time>
      </trkpt>
      <trkpt lat="43.86994" lon="6.57079">
        <ele>1130</ele>
        <time>2018-05-26T10:39:23Z</time>
      </trkpt>
      <trkpt lat="43.86995" lon="6.57079">
        <ele>1130</ele>
        <time>2018-05-26T10:39:24Z</time>
      </trkpt>
      <trkpt lat="43.86997" lon="6.57079">
        <ele>1131</ele>
        <time>2018-05-26T10:39:25Z</time>
      </trkpt>
      <trkpt lat="43.86998" lon="6.57079">
        <ele>1131</ele>
        <time>2018-05-26T10:39:26Z</time>
      </trkpt>
      <trkpt lat="43.86999" lon="6.57077">
        <ele>1131</ele>
        <time>2018-05-26T10:39:27Z</time>
      </trkpt>
      <trkpt lat="43.87" lon="6.57076">
        <ele>1131</ele>
        <time>2018-05-26T10:39:28Z</time>
      </trkpt>
      <trkpt lat="43.87003" lon="6.57074">
        <ele>1132</ele>
        <time>2018-05-26T10:39:31Z</time>
      </trkpt>
      <trkpt lat="43.87004" lon="6.57072">
        <ele>1132</ele>
        <time>2018-05-26T10:39:32Z</time>
      </trkpt>
      <trkpt lat="43.87007" lon="6.57066">
        <ele>1132</ele>
        <time>2018-05-26T10:39:37Z</time>
      </trkpt>
      <trkpt lat="43.87008" lon="6.57064">
        <ele>1132</ele>
        <time>2018-05-26T10:39:38Z</time>
      </trkpt>
      <trkpt lat="43.87009" lon="6.57063">
        <ele>1133</ele>
        <time>2018-05-26T10:39:39Z</time>
      </trkpt>
      <trkpt lat="43.8701" lon="6.57062">
        <ele>1133</ele>
        <time>2018-05-26T10:39:40Z</time>
      </trkpt>
      <trkpt lat="43.87011" lon="6.5706">
        <ele>1133</ele>
        <time>2018-05-26T10:39:41Z</time>
      </trkpt>
      <trkpt lat="43.87012" lon="6.57059">
        <ele>1133</ele>
        <time>2018-05-26T10:39:42Z</time>
      </trkpt>
      <trkpt lat="43.87022" lon="6.57036">
        <ele>1134</ele>
        <time>2018-05-26T10:39:58Z</time>
      </trkpt>
      <trkpt lat="43.87023" lon="6.57033">
        <ele>1134</ele>
        <time>2018-05-26T10:40:00Z</time>
      </trkpt>
      <trkpt lat="43.87024" lon="6.57032">
        <ele>1134</ele>
        <time>2018-05-26T10:40:01Z</time>
      </trkpt>
      <trkpt lat="43.87037" lon="6.57011">
        <ele>1138</ele>
        <time>2018-05-26T10:40:19Z</time>
      </trkpt>
      <trkpt lat="43.87044" lon="6.57002">
        <ele>1139</ele>
        <time>2018-05-26T10:40:28Z</time>
      </trkpt>
      <trkpt lat="43.87049" lon="6.5699">
        <ele>1140</ele>
        <time>2018-05-26T10:40:38Z</time>
      </trkpt>
      <trkpt lat="43.87049" lon="6.56988">
        <ele>1140</ele>
        <time>2018-05-26T10:40:39Z</time>
      </trkpt>
      <trkpt lat="43.8705" lon="6.56987">
        <ele>1140</ele>
        <time>2018-05-26T10:40:40Z</time>
      </trkpt>
      <trkpt lat="43.87051" lon="6.56986">
        <ele>1140</ele>
        <time>2018-05-26T10:40:41Z</time>
      </trkpt>
      <trkpt lat="43.87051" lon="6.56985">
        <ele>1140</ele>
        <time>2018-05-26T10:40:42Z</time>
      </trkpt>
      <trkpt lat="43.87051" lon="6.56983">
        <ele>1140</ele>
        <time>2018-05-26T10:40:43Z</time>
      </trkpt>
      <trkpt lat="43.87051" lon="6.56982">
        <ele>1140</ele>
        <time>2018-05-26T10:40:44Z</time>
      </trkpt>
      <trkpt lat="43.87052" lon="6.5698">
        <ele>1140</ele>
        <time>2018-05-26T10:40:45Z</time>
      </trkpt>
      <trkpt lat="43.87053" lon="6.56979">
        <ele>1140</ele>
        <time>2018-05-26T10:40:46Z</time>
      </trkpt>
      <trkpt lat="43.87054" lon="6.56979">
        <ele>1141</ele>
        <time>2018-05-26T10:40:47Z</time>
      </trkpt>
      <trkpt lat="43.87056" lon="6.56977">
        <ele>1141</ele>
        <time>2018-05-26T10:40:49Z</time>
      </trkpt>
      <trkpt lat="43.87061" lon="6.56965">
        <ele>1142</ele>
        <time>2018-05-26T10:40:59Z</time>
      </trkpt>
      <trkpt lat="43.87062" lon="6.56964">
        <ele>1143</ele>
        <time>2018-05-26T10:41:00Z</time>
      </trkpt>
      <trkpt lat="43.87064" lon="6.56964">
        <ele>1143</ele>
        <time>2018-05-26T10:41:01Z</time>
      </trkpt>
      <trkpt lat="43.87065" lon="6.56962">
        <ele>1143</ele>
        <time>2018-05-26T10:41:02Z</time>
      </trkpt>
      <trkpt lat="43.87065" lon="6.56961">
        <ele>1144</ele>
        <time>2018-05-26T10:41:03Z</time>
      </trkpt>
      <trkpt lat="43.87066" lon="6.56959">
        <ele>1143</ele>
        <time>2018-05-26T10:41:04Z</time>
      </trkpt>
      <trkpt lat="43.87066" lon="6.56958">
        <ele>1143</ele>
        <time>2018-05-26T10:41:05Z</time>
      </trkpt>
      <trkpt lat="43.87066" lon="6.56956">
        <ele>1143</ele>
        <time>2018-05-26T10:41:06Z</time>
      </trkpt>
      <trkpt lat="43.87067" lon="6.56954">
        <ele>1143</ele>
        <time>2018-05-26T10:41:07Z</time>
      </trkpt>
      <trkpt lat="43.87067" lon="6.56953">
        <ele>1143</ele>
        <time>2018-05-26T10:41:08Z</time>
      </trkpt>
      <trkpt lat="43.87068" lon="6.56952">
        <ele>1143</ele>
        <time>2018-05-26T10:41:09Z</time>
      </trkpt>
      <trkpt lat="43.87069" lon="6.56951">
        <ele>1144</ele>
        <time>2018-05-26T10:41:10Z</time>
      </trkpt>
      <trkpt lat="43.87069" lon="6.5695">
        <ele>1143</ele>
        <time>2018-05-26T10:41:11Z</time>
      </trkpt>
      <trkpt lat="43.8707" lon="6.56948">
        <ele>1144</ele>
        <time>2018-05-26T10:41:12Z</time>
      </trkpt>
      <trkpt lat="43.8707" lon="6.56947">
        <ele>1144</ele>
        <time>2018-05-26T10:41:13Z</time>
      </trkpt>
      <trkpt lat="43.87071" lon="6.56946">
        <ele>1144</ele>
        <time>2018-05-26T10:41:14Z</time>
      </trkpt>
      <trkpt lat="43.87072" lon="6.56945">
        <ele>1144</ele>
        <time>2018-05-26T10:41:15Z</time>
      </trkpt>
      <trkpt lat="43.87073" lon="6.56944">
        <ele>1144</ele>
        <time>2018-05-26T10:41:16Z</time>
      </trkpt>
      <trkpt lat="43.87074" lon="6.56943">
        <ele>1145</ele>
        <time>2018-05-26T10:41:17Z</time>
      </trkpt>
      <trkpt lat="43.87075" lon="6.56942">
        <ele>1145</ele>
        <time>2018-05-26T10:41:18Z</time>
      </trkpt>
      <trkpt lat="43.87076" lon="6.56941">
        <ele>1145</ele>
        <time>2018-05-26T10:41:19Z</time>
      </trkpt>
      <trkpt lat="43.87076" lon="6.5694">
        <ele>1145</ele>
        <time>2018-05-26T10:41:20Z</time>
      </trkpt>
      <trkpt lat="43.87077" lon="6.56939">
        <ele>1146</ele>
        <time>2018-05-26T10:41:21Z</time>
      </trkpt>
      <trkpt lat="43.87079" lon="6.56935">
        <ele>1146</ele>
        <time>2018-05-26T10:41:24Z</time>
      </trkpt>
      <trkpt lat="43.87079" lon="6.56933">
        <ele>1146</ele>
        <time>2018-05-26T10:41:25Z</time>
      </trkpt>
      <trkpt lat="43.8708" lon="6.56928">
        <ele>1145</ele>
        <time>2018-05-26T10:41:28Z</time>
      </trkpt>
      <trkpt lat="43.87081" lon="6.56927">
        <ele>1145</ele>
        <time>2018-05-26T10:41:29Z</time>
      </trkpt>
      <trkpt lat="43.87093" lon="6.56908">
        <ele>1147</ele>
        <time>2018-05-26T10:41:44Z</time>
      </trkpt>
      <trkpt lat="43.87098" lon="6.56898">
        <ele>1148</ele>
        <time>2018-05-26T10:41:51Z</time>
      </trkpt>
      <trkpt lat="43.87102" lon="6.56894">
        <ele>1148</ele>
        <time>2018-05-26T10:41:55Z</time>
      </trkpt>
      <trkpt lat="43.87102" lon="6.56892">
        <ele>1148</ele>
        <time>2018-05-26T10:41:56Z</time>
      </trkpt>
      <trkpt lat="43.87103" lon="6.56891">
        <ele>1148</ele>
        <time>2018-05-26T10:41:57Z</time>
      </trkpt>
      <trkpt lat="43.87103" lon="6.5689">
        <ele>1148</ele>
        <time>2018-05-26T10:41:58Z</time>
      </trkpt>
      <trkpt lat="43.87104" lon="6.56888">
        <ele>1149</ele>
        <time>2018-05-26T10:41:59Z</time>
      </trkpt>
      <trkpt lat="43.87111" lon="6.56876">
        <ele>1149</ele>
        <time>2018-05-26T10:42:08Z</time>
      </trkpt>
      <trkpt lat="43.87112" lon="6.56875">
        <ele>1149</ele>
        <time>2018-05-26T10:42:09Z</time>
      </trkpt>
      <trkpt lat="43.87126" lon="6.56851">
        <ele>1149</ele>
        <time>2018-05-26T10:42:26Z</time>
      </trkpt>
      <trkpt lat="43.8713" lon="6.56848">
        <ele>1149</ele>
        <time>2018-05-26T10:42:29Z</time>
      </trkpt>
      <trkpt lat="43.87131" lon="6.56848">
        <ele>1149</ele>
        <time>2018-05-26T10:42:30Z</time>
      </trkpt>
      <trkpt lat="43.87132" lon="6.56847">
        <ele>1150</ele>
        <time>2018-05-26T10:42:31Z</time>
      </trkpt>
      <trkpt lat="43.87134" lon="6.56847">
        <ele>1150</ele>
        <time>2018-05-26T10:42:32Z</time>
      </trkpt>
      <trkpt lat="43.87135" lon="6.56846">
        <ele>1150</ele>
        <time>2018-05-26T10:42:33Z</time>
      </trkpt>
      <trkpt lat="43.87137" lon="6.56845">
        <ele>1150</ele>
        <time>2018-05-26T10:42:34Z</time>
      </trkpt>
      <trkpt lat="43.87142" lon="6.56839">
        <ele>1150</ele>
        <time>2018-05-26T10:42:39Z</time>
      </trkpt>
      <trkpt lat="43.87144" lon="6.56839">
        <ele>1150</ele>
        <time>2018-05-26T10:42:40Z</time>
      </trkpt>
      <trkpt lat="43.87145" lon="6.56838">
        <ele>1150</ele>
        <time>2018-05-26T10:42:41Z</time>
      </trkpt>
      <trkpt lat="43.87146" lon="6.56837">
        <ele>1150</ele>
        <time>2018-05-26T10:42:42Z</time>
      </trkpt>
      <trkpt lat="43.87147" lon="6.56836">
        <ele>1150</ele>
        <time>2018-05-26T10:42:43Z</time>
      </trkpt>
      <trkpt lat="43.87149" lon="6.56835">
        <ele>1150</ele>
        <time>2018-05-26T10:42:44Z</time>
      </trkpt>
      <trkpt lat="43.8715" lon="6.56834">
        <ele>1151</ele>
        <time>2018-05-26T10:42:45Z</time>
      </trkpt>
      <trkpt lat="43.8716" lon="6.56829">
        <ele>1151</ele>
        <time>2018-05-26T10:42:53Z</time>
      </trkpt>
      <trkpt lat="43.87184" lon="6.56822">
        <ele>1154</ele>
        <time>2018-05-26T10:43:09Z</time>
      </trkpt>
      <trkpt lat="43.8722" lon="6.56811">
        <ele>1154</ele>
        <time>2018-05-26T10:43:28Z</time>
      </trkpt>
      <trkpt lat="43.87253" lon="6.56788">
        <ele>1145</ele>
        <time>2018-05-26T10:43:42Z</time>
      </trkpt>
      <trkpt lat="43.87293" lon="6.56756">
        <ele>1129</ele>
        <time>2018-05-26T10:43:59Z</time>
      </trkpt>
      <trkpt lat="43.87316" lon="6.5672">
        <ele>1129</ele>
        <time>2018-05-26T10:44:12Z</time>
      </trkpt>
      <trkpt lat="43.87336" lon="6.56672">
        <ele>1145</ele>
        <time>2018-05-26T10:44:27Z</time>
      </trkpt>
      <trkpt lat="43.87341" lon="6.5665">
        <ele>1155</ele>
        <time>2018-05-26T10:44:33Z</time>
      </trkpt>
      <trkpt lat="43.8734" lon="6.56646">
        <ele>1156</ele>
        <time>2018-05-26T10:44:34Z</time>
      </trkpt>
      <trkpt lat="43.8734" lon="6.56642">
        <ele>1158</ele>
        <time>2018-05-26T10:44:35Z</time>
      </trkpt>
      <trkpt lat="43.87331" lon="6.56595">
        <ele>1165</ele>
        <time>2018-05-26T10:44:48Z</time>
      </trkpt>
      <trkpt lat="43.87324" lon="6.56566">
        <ele>1165</ele>
        <time>2018-05-26T10:44:54Z</time>
      </trkpt>
      <trkpt lat="43.87323" lon="6.56561">
        <ele>1166</ele>
        <time>2018-05-26T10:44:55Z</time>
      </trkpt>
      <trkpt lat="43.87323" lon="6.56554">
        <ele>1166</ele>
        <time>2018-05-26T10:44:56Z</time>
      </trkpt>
      <trkpt lat="43.87324" lon="6.56487">
        <ele>1167</ele>
        <time>2018-05-26T10:45:07Z</time>
      </trkpt>
      <trkpt lat="43.87333" lon="6.56433">
        <ele>1165</ele>
        <time>2018-05-26T10:45:16Z</time>
      </trkpt>
      <trkpt lat="43.8734" lon="6.56416">
        <ele>1165</ele>
        <time>2018-05-26T10:45:19Z</time>
      </trkpt>
      <trkpt lat="43.87343" lon="6.56411">
        <ele>1165</ele>
        <time>2018-05-26T10:45:20Z</time>
      </trkpt>
      <trkpt lat="43.87347" lon="6.56406">
        <ele>1165</ele>
        <time>2018-05-26T10:45:21Z</time>
      </trkpt>
      <trkpt lat="43.87413" lon="6.56355">
        <ele>1169</ele>
        <time>2018-05-26T10:45:38Z</time>
      </trkpt>
      <trkpt lat="43.87424" lon="6.56347">
        <ele>1170</ele>
        <time>2018-05-26T10:45:41Z</time>
      </trkpt>
      <trkpt lat="43.87439" lon="6.56335">
        <ele>1172</ele>
        <time>2018-05-26T10:45:45Z</time>
      </trkpt>
      <trkpt lat="43.87443" lon="6.56332">
        <ele>1172</ele>
        <time>2018-05-26T10:45:46Z</time>
      </trkpt>
      <trkpt lat="43.87446" lon="6.56328">
        <ele>1172</ele>
        <time>2018-05-26T10:45:47Z</time>
      </trkpt>
      <trkpt lat="43.87449" lon="6.56324">
        <ele>1172</ele>
        <time>2018-05-26T10:45:48Z</time>
      </trkpt>
      <trkpt lat="43.87452" lon="6.5632">
        <ele>1173</ele>
        <time>2018-05-26T10:45:49Z</time>
      </trkpt>
      <trkpt lat="43.87455" lon="6.56315">
        <ele>1173</ele>
        <time>2018-05-26T10:45:50Z</time>
      </trkpt>
      <trkpt lat="43.87457" lon="6.5631">
        <ele>1173</ele>
        <time>2018-05-26T10:45:51Z</time>
      </trkpt>
      <trkpt lat="43.8746" lon="6.56305">
        <ele>1173</ele>
        <time>2018-05-26T10:45:52Z</time>
      </trkpt>
      <trkpt lat="43.87462" lon="6.56299">
        <ele>1173</ele>
        <time>2018-05-26T10:45:53Z</time>
      </trkpt>
      <trkpt lat="43.87464" lon="6.56293">
        <ele>1173</ele>
        <time>2018-05-26T10:45:54Z</time>
      </trkpt>
      <trkpt lat="43.87465" lon="6.56286">
        <ele>1173</ele>
        <time>2018-05-26T10:45:55Z</time>
      </trkpt>
      <trkpt lat="43.87484" lon="6.56204">
        <ele>1170</ele>
        <time>2018-05-26T10:46:10Z</time>
      </trkpt>
      <trkpt lat="43.87485" lon="6.56198">
        <ele>1169</ele>
        <time>2018-05-26T10:46:11Z</time>
      </trkpt>
      <trkpt lat="43.87507" lon="6.56156">
        <ele>1168</ele>
        <time>2018-05-26T10:46:20Z</time>
      </trkpt>
      <trkpt lat="43.87511" lon="6.56152">
        <ele>1169</ele>
        <time>2018-05-26T10:46:21Z</time>
      </trkpt>
      <trkpt lat="43.8753" lon="6.56134">
        <ele>1171</ele>
        <time>2018-05-26T10:46:26Z</time>
      </trkpt>
      <trkpt lat="43.87533" lon="6.5613">
        <ele>1171</ele>
        <time>2018-05-26T10:46:27Z</time>
      </trkpt>
      <trkpt lat="43.87571" lon="6.56086">
        <ele>1175</ele>
        <time>2018-05-26T10:46:38Z</time>
      </trkpt>
      <trkpt lat="43.87574" lon="6.56079">
        <ele>1174</ele>
        <time>2018-05-26T10:46:39Z</time>
      </trkpt>
      <trkpt lat="43.87576" lon="6.56071">
        <ele>1173</ele>
        <time>2018-05-26T10:46:40Z</time>
      </trkpt>
      <trkpt lat="43.87607" lon="6.55958">
        <ele>1157</ele>
        <time>2018-05-26T10:46:51Z</time>
      </trkpt>
      <trkpt lat="43.87627" lon="6.55888">
        <ele>1151</ele>
        <time>2018-05-26T10:47:01Z</time>
      </trkpt>
      <trkpt lat="43.87628" lon="6.55882">
        <ele>1150</ele>
        <time>2018-05-26T10:47:02Z</time>
      </trkpt>
      <trkpt lat="43.8763" lon="6.55878">
        <ele>1149</ele>
        <time>2018-05-26T10:47:03Z</time>
      </trkpt>
      <trkpt lat="43.87633" lon="6.55873">
        <ele>1149</ele>
        <time>2018-05-26T10:47:04Z</time>
      </trkpt>
      <trkpt lat="43.87634" lon="6.55869">
        <ele>1148</ele>
        <time>2018-05-26T10:47:05Z</time>
      </trkpt>
      <trkpt lat="43.87639" lon="6.55857">
        <ele>1146</ele>
        <time>2018-05-26T10:47:14Z</time>
      </trkpt>
      <trkpt lat="43.87638" lon="6.55855">
        <ele>1146</ele>
        <time>2018-05-26T10:47:41Z</time>
      </trkpt>
      <trkpt lat="43.87637" lon="6.55853">
        <ele>1145</ele>
        <time>2018-05-26T10:48:13Z</time>
      </trkpt>
      <trkpt lat="43.87636" lon="6.55852">
        <ele>1144</ele>
        <time>2018-05-26T10:48:26Z</time>
      </trkpt>
      <trkpt lat="43.87636" lon="6.55852">
        <ele>1144</ele>
        <time>2018-05-26T10:49:10Z</time>
      </trkpt>
      <trkpt lat="43.87635" lon="6.55851">
        <ele>1143</ele>
        <time>2018-05-26T10:49:48Z</time>
      </trkpt>
      <trkpt lat="43.87636" lon="6.55851">
        <ele>1144</ele>
        <time>2018-05-26T10:50:28Z</time>
      </trkpt>
      <trkpt lat="43.87635" lon="6.55852">
        <ele>1144</ele>
        <time>2018-05-26T10:51:07Z</time>
      </trkpt>
      <trkpt lat="43.87636" lon="6.55853">
        <ele>1144</ele>
        <time>2018-05-26T10:51:45Z</time>
      </trkpt>
      <trkpt lat="43.8764" lon="6.55855">
        <ele>1146</ele>
        <time>2018-05-26T10:52:00Z</time>
      </trkpt>
      <trkpt lat="43.87642" lon="6.55856">
        <ele>1146</ele>
        <time>2018-05-26T10:52:01Z</time>
      </trkpt>
      <trkpt lat="43.87643" lon="6.55856">
        <ele>1147</ele>
        <time>2018-05-26T10:52:02Z</time>
      </trkpt>
      <trkpt lat="43.87646" lon="6.55856">
        <ele>1147</ele>
        <time>2018-05-26T10:52:03Z</time>
      </trkpt>
      <trkpt lat="43.87648" lon="6.55857">
        <ele>1147</ele>
        <time>2018-05-26T10:52:04Z</time>
      </trkpt>
      <trkpt lat="43.87651" lon="6.55857">
        <ele>1147</ele>
        <time>2018-05-26T10:52:05Z</time>
      </trkpt>
      <trkpt lat="43.87653" lon="6.55857">
        <ele>1147</ele>
        <time>2018-05-26T10:52:06Z</time>
      </trkpt>
      <trkpt lat="43.87684" lon="6.55849">
        <ele>1146</ele>
        <time>2018-05-26T10:52:16Z</time>
      </trkpt>
      <trkpt lat="43.87694" lon="6.55849">
        <ele>1146</ele>
        <time>2018-05-26T10:52:22Z</time>
      </trkpt>
      <trkpt lat="43.87695" lon="6.55848">
        <ele>1146</ele>
        <time>2018-05-26T10:52:23Z</time>
      </trkpt>
      <trkpt lat="43.87697" lon="6.55847">
        <ele>1146</ele>
        <time>2018-05-26T10:52:36Z</time>
      </trkpt>
      <trkpt lat="43.87697" lon="6.55847">
        <ele>1146</ele>
        <time>2018-05-26T10:53:02Z</time>
      </trkpt>
      <trkpt lat="43.87699" lon="6.55847">
        <ele>1146</ele>
        <time>2018-05-26T10:53:34Z</time>
      </trkpt>
      <trkpt lat="43.87698" lon="6.55845">
        <ele>1146</ele>
        <time>2018-05-26T10:54:00Z</time>
      </trkpt>
      <trkpt lat="43.87698" lon="6.55846">
        <ele>1146</ele>
        <time>2018-05-26T10:54:27Z</time>
      </trkpt>
      <trkpt lat="43.87698" lon="6.55847">
        <ele>1146</ele>
        <time>2018-05-26T10:54:52Z</time>
      </trkpt>
      <trkpt lat="43.87698" lon="6.55846">
        <ele>1146</ele>
        <time>2018-05-26T10:55:21Z</time>
      </trkpt>
      <trkpt lat="43.87698" lon="6.55851">
        <ele>1147</ele>
        <time>2018-05-26T10:55:41Z</time>
      </trkpt>
      <trkpt lat="43.87698" lon="6.55853">
        <ele>1147</ele>
        <time>2018-05-26T10:55:42Z</time>
      </trkpt>
      <trkpt lat="43.87699" lon="6.55855">
        <ele>1148</ele>
        <time>2018-05-26T10:55:43Z</time>
      </trkpt>
      <trkpt lat="43.87699" lon="6.55856">
        <ele>1148</ele>
        <time>2018-05-26T10:55:44Z</time>
      </trkpt>
      <trkpt lat="43.87701" lon="6.55857">
        <ele>1148</ele>
        <time>2018-05-26T10:55:45Z</time>
      </trkpt>
      <trkpt lat="43.87702" lon="6.55858">
        <ele>1149</ele>
        <time>2018-05-26T10:55:46Z</time>
      </trkpt>
      <trkpt lat="43.87703" lon="6.55858">
        <ele>1149</ele>
        <time>2018-05-26T10:55:47Z</time>
      </trkpt>
      <trkpt lat="43.87704" lon="6.55857">
        <ele>1148</ele>
        <time>2018-05-26T10:55:48Z</time>
      </trkpt>
      <trkpt lat="43.87706" lon="6.55857">
        <ele>1148</ele>
        <time>2018-05-26T10:55:49Z</time>
      </trkpt>
      <trkpt lat="43.87707" lon="6.55856">
        <ele>1148</ele>
        <time>2018-05-26T10:55:50Z</time>
      </trkpt>
      <trkpt lat="43.87708" lon="6.55855">
        <ele>1148</ele>
        <time>2018-05-26T10:55:51Z</time>
      </trkpt>
      <trkpt lat="43.87709" lon="6.55855">
        <ele>1148</ele>
        <time>2018-05-26T10:55:52Z</time>
      </trkpt>
      <trkpt lat="43.8772" lon="6.5585">
        <ele>1147</ele>
        <time>2018-05-26T10:56:01Z</time>
      </trkpt>
      <trkpt lat="43.87722" lon="6.55849">
        <ele>1147</ele>
        <time>2018-05-26T10:56:02Z</time>
      </trkpt>
      <trkpt lat="43.87723" lon="6.55848">
        <ele>1147</ele>
        <time>2018-05-26T10:56:03Z</time>
      </trkpt>
      <trkpt lat="43.87727" lon="6.55846">
        <ele>1147</ele>
        <time>2018-05-26T10:56:06Z</time>
      </trkpt>
      <trkpt lat="43.87728" lon="6.55847">
        <ele>1147</ele>
        <time>2018-05-26T10:56:07Z</time>
      </trkpt>
      <trkpt lat="43.87729" lon="6.55847">
        <ele>1147</ele>
        <time>2018-05-26T10:56:08Z</time>
      </trkpt>
      <trkpt lat="43.87731" lon="6.55847">
        <ele>1147</ele>
        <time>2018-05-26T10:56:09Z</time>
      </trkpt>
      <trkpt lat="43.87732" lon="6.55847">
        <ele>1147</ele>
        <time>2018-05-26T10:56:10Z</time>
      </trkpt>
      <trkpt lat="43.87733" lon="6.55848">
        <ele>1148</ele>
        <time>2018-05-26T10:56:11Z</time>
      </trkpt>
      <trkpt lat="43.87733" lon="6.5585">
        <ele>1148</ele>
        <time>2018-05-26T10:56:12Z</time>
      </trkpt>
      <trkpt lat="43.87734" lon="6.55851">
        <ele>1148</ele>
        <time>2018-05-26T10:56:13Z</time>
      </trkpt>
      <trkpt lat="43.87734" lon="6.55853">
        <ele>1149</ele>
        <time>2018-05-26T10:56:14Z</time>
      </trkpt>
      <trkpt lat="43.87734" lon="6.55854">
        <ele>1149</ele>
        <time>2018-05-26T10:56:15Z</time>
      </trkpt>
      <trkpt lat="43.87733" lon="6.55856">
        <ele>1149</ele>
        <time>2018-05-26T10:56:16Z</time>
      </trkpt>
      <trkpt lat="43.87732" lon="6.55857">
        <ele>1149</ele>
        <time>2018-05-26T10:56:17Z</time>
      </trkpt>
      <trkpt lat="43.87731" lon="6.55859">
        <ele>1149</ele>
        <time>2018-05-26T10:56:18Z</time>
      </trkpt>
      <trkpt lat="43.87731" lon="6.5586">
        <ele>1150</ele>
        <time>2018-05-26T10:56:19Z</time>
      </trkpt>
      <trkpt lat="43.8773" lon="6.55862">
        <ele>1150</ele>
        <time>2018-05-26T10:56:20Z</time>
      </trkpt>
      <trkpt lat="43.87729" lon="6.55863">
        <ele>1150</ele>
        <time>2018-05-26T10:56:21Z</time>
      </trkpt>
      <trkpt lat="43.87727" lon="6.55864">
        <ele>1150</ele>
        <time>2018-05-26T10:56:22Z</time>
      </trkpt>
      <trkpt lat="43.87726" lon="6.55865">
        <ele>1150</ele>
        <time>2018-05-26T10:56:23Z</time>
      </trkpt>
      <trkpt lat="43.87724" lon="6.55866">
        <ele>1151</ele>
        <time>2018-05-26T10:56:24Z</time>
      </trkpt>
      <trkpt lat="43.87723" lon="6.55866">
        <ele>1151</ele>
        <time>2018-05-26T10:56:25Z</time>
      </trkpt>
      <trkpt lat="43.87721" lon="6.55867">
        <ele>1151</ele>
        <time>2018-05-26T10:56:26Z</time>
      </trkpt>
      <trkpt lat="43.87704" lon="6.55875">
        <ele>1152</ele>
        <time>2018-05-26T10:56:37Z</time>
      </trkpt>
      <trkpt lat="43.87703" lon="6.55876">
        <ele>1153</ele>
        <time>2018-05-26T10:56:38Z</time>
      </trkpt>
      <trkpt lat="43.87703" lon="6.55878">
        <ele>1153</ele>
        <time>2018-05-26T10:56:39Z</time>
      </trkpt>
      <trkpt lat="43.87702" lon="6.5588">
        <ele>1153</ele>
        <time>2018-05-26T10:56:40Z</time>
      </trkpt>
      <trkpt lat="43.87703" lon="6.55882">
        <ele>1154</ele>
        <time>2018-05-26T10:56:41Z</time>
      </trkpt>
      <trkpt lat="43.87703" lon="6.55883">
        <ele>1154</ele>
        <time>2018-05-26T10:56:42Z</time>
      </trkpt>
      <trkpt lat="43.87706" lon="6.55888">
        <ele>1155</ele>
        <time>2018-05-26T10:56:47Z</time>
      </trkpt>
      <trkpt lat="43.87708" lon="6.55888">
        <ele>1155</ele>
        <time>2018-05-26T10:56:48Z</time>
      </trkpt>
      <trkpt lat="43.87709" lon="6.55888">
        <ele>1155</ele>
        <time>2018-05-26T10:56:49Z</time>
      </trkpt>
      <trkpt lat="43.8771" lon="6.55887">
        <ele>1155</ele>
        <time>2018-05-26T10:56:50Z</time>
      </trkpt>
      <trkpt lat="43.87712" lon="6.55886">
        <ele>1155</ele>
        <time>2018-05-26T10:56:51Z</time>
      </trkpt>
      <trkpt lat="43.87713" lon="6.55886">
        <ele>1155</ele>
        <time>2018-05-26T10:56:52Z</time>
      </trkpt>
      <trkpt lat="43.87715" lon="6.55885">
        <ele>1154</ele>
        <time>2018-05-26T10:56:53Z</time>
      </trkpt>
      <trkpt lat="43.87716" lon="6.55885">
        <ele>1154</ele>
        <time>2018-05-26T10:56:54Z</time>
      </trkpt>
      <trkpt lat="43.87736" lon="6.55888">
        <ele>1156</ele>
        <time>2018-05-26T10:57:06Z</time>
      </trkpt>
      <trkpt lat="43.87738" lon="6.5589">
        <ele>1156</ele>
        <time>2018-05-26T10:57:07Z</time>
      </trkpt>
      <trkpt lat="43.87738" lon="6.55892">
        <ele>1157</ele>
        <time>2018-05-26T10:57:08Z</time>
      </trkpt>
      <trkpt lat="43.87739" lon="6.55894">
        <ele>1157</ele>
        <time>2018-05-26T10:57:09Z</time>
      </trkpt>
      <trkpt lat="43.87738" lon="6.55896">
        <ele>1158</ele>
        <time>2018-05-26T10:57:10Z</time>
      </trkpt>
      <trkpt lat="43.87737" lon="6.55897">
        <ele>1158</ele>
        <time>2018-05-26T10:57:11Z</time>
      </trkpt>
      <trkpt lat="43.87736" lon="6.55899">
        <ele>1158</ele>
        <time>2018-05-26T10:57:12Z</time>
      </trkpt>
      <trkpt lat="43.87735" lon="6.559">
        <ele>1158</ele>
        <time>2018-05-26T10:57:13Z</time>
      </trkpt>
      <trkpt lat="43.87734" lon="6.55901">
        <ele>1158</ele>
        <time>2018-05-26T10:57:14Z</time>
      </trkpt>
      <trkpt lat="43.87732" lon="6.55902">
        <ele>1158</ele>
        <time>2018-05-26T10:57:15Z</time>
      </trkpt>
      <trkpt lat="43.87731" lon="6.55904">
        <ele>1158</ele>
        <time>2018-05-26T10:57:16Z</time>
      </trkpt>
      <trkpt lat="43.8773" lon="6.55906">
        <ele>1159</ele>
        <time>2018-05-26T10:57:17Z</time>
      </trkpt>
      <trkpt lat="43.87729" lon="6.55907">
        <ele>1159</ele>
        <time>2018-05-26T10:57:18Z</time>
      </trkpt>
      <trkpt lat="43.87728" lon="6.55907">
        <ele>1159</ele>
        <time>2018-05-26T10:57:19Z</time>
      </trkpt>
      <trkpt lat="43.87726" lon="6.55907">
        <ele>1159</ele>
        <time>2018-05-26T10:57:20Z</time>
      </trkpt>
      <trkpt lat="43.87725" lon="6.55907">
        <ele>1159</ele>
        <time>2018-05-26T10:57:21Z</time>
      </trkpt>
      <trkpt lat="43.87723" lon="6.55908">
        <ele>1159</ele>
        <time>2018-05-26T10:57:22Z</time>
      </trkpt>
      <trkpt lat="43.87722" lon="6.55909">
        <ele>1159</ele>
        <time>2018-05-26T10:57:23Z</time>
      </trkpt>
      <trkpt lat="43.87719" lon="6.55912">
        <ele>1160</ele>
        <time>2018-05-26T10:57:26Z</time>
      </trkpt>
      <trkpt lat="43.87719" lon="6.55914">
        <ele>1161</ele>
        <time>2018-05-26T10:57:27Z</time>
      </trkpt>
      <trkpt lat="43.87718" lon="6.55915">
        <ele>1161</ele>
        <time>2018-05-26T10:57:28Z</time>
      </trkpt>
      <trkpt lat="43.87717" lon="6.55917">
        <ele>1162</ele>
        <time>2018-05-26T10:57:29Z</time>
      </trkpt>
      <trkpt lat="43.87717" lon="6.55919">
        <ele>1162</ele>
        <time>2018-05-26T10:57:30Z</time>
      </trkpt>
      <trkpt lat="43.87717" lon="6.5592">
        <ele>1163</ele>
        <time>2018-05-26T10:57:31Z</time>
      </trkpt>
      <trkpt lat="43.87717" lon="6.55922">
        <ele>1163</ele>
        <time>2018-05-26T10:57:32Z</time>
      </trkpt>
      <trkpt lat="43.87718" lon="6.55923">
        <ele>1164</ele>
        <time>2018-05-26T10:57:33Z</time>
      </trkpt>
      <trkpt lat="43.87719" lon="6.55924">
        <ele>1164</ele>
        <time>2018-05-26T10:57:34Z</time>
      </trkpt>
      <trkpt lat="43.8772" lon="6.55925">
        <ele>1164</ele>
        <time>2018-05-26T10:57:35Z</time>
      </trkpt>
      <trkpt lat="43.8772" lon="6.55927">
        <ele>1164</ele>
        <time>2018-05-26T10:57:36Z</time>
      </trkpt>
      <trkpt lat="43.87721" lon="6.55928">
        <ele>1165</ele>
        <time>2018-05-26T10:57:37Z</time>
      </trkpt>
      <trkpt lat="43.87722" lon="6.55928">
        <ele>1165</ele>
        <time>2018-05-26T10:57:38Z</time>
      </trkpt>
      <trkpt lat="43.87725" lon="6.55929">
        <ele>1165</ele>
        <time>2018-05-26T10:57:41Z</time>
      </trkpt>
      <trkpt lat="43.87726" lon="6.55929">
        <ele>1165</ele>
        <time>2018-05-26T10:57:42Z</time>
      </trkpt>
      <trkpt lat="43.87727" lon="6.55929">
        <ele>1165</ele>
        <time>2018-05-26T10:57:43Z</time>
      </trkpt>
      <trkpt lat="43.87729" lon="6.55929">
        <ele>1165</ele>
        <time>2018-05-26T10:57:44Z</time>
      </trkpt>
      <trkpt lat="43.8773" lon="6.55929">
        <ele>1165</ele>
        <time>2018-05-26T10:57:45Z</time>
      </trkpt>
      <trkpt lat="43.87731" lon="6.55929">
        <ele>1165</ele>
        <time>2018-05-26T10:57:46Z</time>
      </trkpt>
      <trkpt lat="43.87733" lon="6.55929">
        <ele>1165</ele>
        <time>2018-05-26T10:57:47Z</time>
      </trkpt>
      <trkpt lat="43.87734" lon="6.55929">
        <ele>1165</ele>
        <time>2018-05-26T10:57:48Z</time>
      </trkpt>
      <trkpt lat="43.87735" lon="6.5593">
        <ele>1166</ele>
        <time>2018-05-26T10:57:49Z</time>
      </trkpt>
      <trkpt lat="43.87736" lon="6.5593">
        <ele>1166</ele>
        <time>2018-05-26T10:57:50Z</time>
      </trkpt>
      <trkpt lat="43.87738" lon="6.5593">
        <ele>1166</ele>
        <time>2018-05-26T10:57:51Z</time>
      </trkpt>
      <trkpt lat="43.87739" lon="6.55931">
        <ele>1166</ele>
        <time>2018-05-26T10:57:52Z</time>
      </trkpt>
      <trkpt lat="43.8774" lon="6.55932">
        <ele>1166</ele>
        <time>2018-05-26T10:57:53Z</time>
      </trkpt>
      <trkpt lat="43.87741" lon="6.55932">
        <ele>1167</ele>
        <time>2018-05-26T10:57:54Z</time>
      </trkpt>
      <trkpt lat="43.87743" lon="6.55932">
        <ele>1167</ele>
        <time>2018-05-26T10:57:55Z</time>
      </trkpt>
      <trkpt lat="43.87744" lon="6.55933">
        <ele>1167</ele>
        <time>2018-05-26T10:57:56Z</time>
      </trkpt>
      <trkpt lat="43.87745" lon="6.55933">
        <ele>1167</ele>
        <time>2018-05-26T10:57:57Z</time>
      </trkpt>
      <trkpt lat="43.87746" lon="6.55933">
        <ele>1167</ele>
        <time>2018-05-26T10:57:58Z</time>
      </trkpt>
      <trkpt lat="43.87754" lon="6.55934">
        <ele>1168</ele>
        <time>2018-05-26T10:58:05Z</time>
      </trkpt>
      <trkpt lat="43.87755" lon="6.55934">
        <ele>1169</ele>
        <time>2018-05-26T10:58:06Z</time>
      </trkpt>
      <trkpt lat="43.87762" lon="6.5594">
        <ele>1170</ele>
        <time>2018-05-26T10:58:12Z</time>
      </trkpt>
      <trkpt lat="43.87762" lon="6.55943">
        <ele>1171</ele>
        <time>2018-05-26T10:58:14Z</time>
      </trkpt>
      <trkpt lat="43.87764" lon="6.55953">
        <ele>1174</ele>
        <time>2018-05-26T10:58:20Z</time>
      </trkpt>
      <trkpt lat="43.87764" lon="6.55955">
        <ele>1174</ele>
        <time>2018-05-26T10:58:21Z</time>
      </trkpt>
      <trkpt lat="43.87763" lon="6.55956">
        <ele>1174</ele>
        <time>2018-05-26T10:58:22Z</time>
      </trkpt>
      <trkpt lat="43.87762" lon="6.55957">
        <ele>1175</ele>
        <time>2018-05-26T10:58:23Z</time>
      </trkpt>
      <trkpt lat="43.87757" lon="6.55964">
        <ele>1176</ele>
        <time>2018-05-26T10:58:35Z</time>
      </trkpt>
      <trkpt lat="43.87748" lon="6.5597">
        <ele>1177</ele>
        <time>2018-05-26T10:58:51Z</time>
      </trkpt>
      <trkpt lat="43.87739" lon="6.55972">
        <ele>1177</ele>
        <time>2018-05-26T10:59:04Z</time>
      </trkpt>
      <trkpt lat="43.87724" lon="6.55972">
        <ele>1177</ele>
        <time>2018-05-26T10:59:21Z</time>
      </trkpt>
      <trkpt lat="43.87715" lon="6.55974">
        <ele>1179</ele>
        <time>2018-05-26T10:59:34Z</time>
      </trkpt>
      <trkpt lat="43.87707" lon="6.55975">
        <ele>1180</ele>
        <time>2018-05-26T10:59:55Z</time>
      </trkpt>
      <trkpt lat="43.87695" lon="6.55978">
        <ele>1182</ele>
        <time>2018-05-26T11:00:11Z</time>
      </trkpt>
      <trkpt lat="43.87679" lon="6.55987">
        <ele>1185</ele>
        <time>2018-05-26T11:00:28Z</time>
      </trkpt>
      <trkpt lat="43.87664" lon="6.55996">
        <ele>1185</ele>
        <time>2018-05-26T11:00:46Z</time>
      </trkpt>
      <trkpt lat="43.87649" lon="6.56013">
        <ele>1187</ele>
        <time>2018-05-26T11:01:04Z</time>
      </trkpt>
      <trkpt lat="43.87638" lon="6.56032">
        <ele>1189</ele>
        <time>2018-05-26T11:01:22Z</time>
      </trkpt>
      <trkpt lat="43.87639" lon="6.56034">
        <ele>1190</ele>
        <time>2018-05-26T11:01:24Z</time>
      </trkpt>
      <trkpt lat="43.87652" lon="6.56042">
        <ele>1194</ele>
        <time>2018-05-26T11:01:41Z</time>
      </trkpt>
      <trkpt lat="43.87669" lon="6.56035">
        <ele>1196</ele>
        <time>2018-05-26T11:01:59Z</time>
      </trkpt>
      <trkpt lat="43.87691" lon="6.56039">
        <ele>1199</ele>
        <time>2018-05-26T11:02:22Z</time>
      </trkpt>
      <trkpt lat="43.87709" lon="6.56043">
        <ele>1202</ele>
        <time>2018-05-26T11:02:42Z</time>
      </trkpt>
      <trkpt lat="43.87729" lon="6.56048">
        <ele>1204</ele>
        <time>2018-05-26T11:03:02Z</time>
      </trkpt>
      <trkpt lat="43.87747" lon="6.56055">
        <ele>1207</ele>
        <time>2018-05-26T11:03:22Z</time>
      </trkpt>
      <trkpt lat="43.87758" lon="6.56058">
        <ele>1208</ele>
        <time>2018-05-26T11:03:38Z</time>
      </trkpt>
      <trkpt lat="43.87771" lon="6.5606">
        <ele>1209</ele>
        <time>2018-05-26T11:03:51Z</time>
      </trkpt>
      <trkpt lat="43.87779" lon="6.56061">
        <ele>1211</ele>
        <time>2018-05-26T11:03:59Z</time>
      </trkpt>
      <trkpt lat="43.8778" lon="6.56062">
        <ele>1211</ele>
        <time>2018-05-26T11:04:00Z</time>
      </trkpt>
      <trkpt lat="43.87798" lon="6.56065">
        <ele>1214</ele>
        <time>2018-05-26T11:04:18Z</time>
      </trkpt>
      <trkpt lat="43.87815" lon="6.56064">
        <ele>1216</ele>
        <time>2018-05-26T11:04:34Z</time>
      </trkpt>
      <trkpt lat="43.87816" lon="6.56063">
        <ele>1216</ele>
        <time>2018-05-26T11:04:35Z</time>
      </trkpt>
      <trkpt lat="43.87817" lon="6.56063">
        <ele>1216</ele>
        <time>2018-05-26T11:04:36Z</time>
      </trkpt>
      <trkpt lat="43.87824" lon="6.56062">
        <ele>1217</ele>
        <time>2018-05-26T11:04:47Z</time>
      </trkpt>
      <trkpt lat="43.87839" lon="6.56058">
        <ele>1218</ele>
        <time>2018-05-26T11:05:03Z</time>
      </trkpt>
      <trkpt lat="43.87859" lon="6.56052">
        <ele>1220</ele>
        <time>2018-05-26T11:05:22Z</time>
      </trkpt>
      <trkpt lat="43.87879" lon="6.56055">
        <ele>1221</ele>
        <time>2018-05-26T11:05:40Z</time>
      </trkpt>
      <trkpt lat="43.87881" lon="6.56059">
        <ele>1221</ele>
        <time>2018-05-26T11:05:51Z</time>
      </trkpt>
      <trkpt lat="43.87882" lon="6.5606">
        <ele>1222</ele>
        <time>2018-05-26T11:05:52Z</time>
      </trkpt>
      <trkpt lat="43.87882" lon="6.56062">
        <ele>1222</ele>
        <time>2018-05-26T11:05:53Z</time>
      </trkpt>
      <trkpt lat="43.87875" lon="6.56083">
        <ele>1223</ele>
        <time>2018-05-26T11:06:05Z</time>
      </trkpt>
      <trkpt lat="43.87855" lon="6.56097">
        <ele>1225</ele>
        <time>2018-05-26T11:06:22Z</time>
      </trkpt>
      <trkpt lat="43.87837" lon="6.56112">
        <ele>1226</ele>
        <time>2018-05-26T11:06:38Z</time>
      </trkpt>
      <trkpt lat="43.87832" lon="6.56115">
        <ele>1226</ele>
        <time>2018-05-26T11:06:42Z</time>
      </trkpt>
      <trkpt lat="43.87831" lon="6.56116">
        <ele>1227</ele>
        <time>2018-05-26T11:06:43Z</time>
      </trkpt>
      <trkpt lat="43.87808" lon="6.56131">
        <ele>1228</ele>
        <time>2018-05-26T11:07:02Z</time>
      </trkpt>
      <trkpt lat="43.87791" lon="6.56142">
        <ele>1230</ele>
        <time>2018-05-26T11:07:17Z</time>
      </trkpt>
      <trkpt lat="43.87769" lon="6.56156">
        <ele>1233</ele>
        <time>2018-05-26T11:07:35Z</time>
      </trkpt>
      <trkpt lat="43.87763" lon="6.56164">
        <ele>1236</ele>
        <time>2018-05-26T11:07:41Z</time>
      </trkpt>
      <trkpt lat="43.87763" lon="6.56166">
        <ele>1236</ele>
        <time>2018-05-26T11:07:42Z</time>
      </trkpt>
      <trkpt lat="43.87769" lon="6.56192">
        <ele>1239</ele>
        <time>2018-05-26T11:07:56Z</time>
      </trkpt>
      <trkpt lat="43.87768" lon="6.56195">
        <ele>1240</ele>
        <time>2018-05-26T11:08:00Z</time>
      </trkpt>
      <trkpt lat="43.87754" lon="6.56191">
        <ele>1240</ele>
        <time>2018-05-26T11:08:15Z</time>
      </trkpt>
      <trkpt lat="43.87753" lon="6.56193">
        <ele>1240</ele>
        <time>2018-05-26T11:08:31Z</time>
      </trkpt>
      <trkpt lat="43.87751" lon="6.56196">
        <ele>1241</ele>
        <time>2018-05-26T11:08:59Z</time>
      </trkpt>
      <trkpt lat="43.8775" lon="6.56191">
        <ele>1240</ele>
        <time>2018-05-26T11:09:42Z</time>
      </trkpt>
      <trkpt lat="43.87751" lon="6.5619">
        <ele>1240</ele>
        <time>2018-05-26T11:10:17Z</time>
      </trkpt>
      <trkpt lat="43.87754" lon="6.56191">
        <ele>1240</ele>
        <time>2018-05-26T11:10:54Z</time>
      </trkpt>
      <trkpt lat="43.87751" lon="6.5619">
        <ele>1240</ele>
        <time>2018-05-26T11:11:25Z</time>
      </trkpt>
      <trkpt lat="43.8775" lon="6.56189">
        <ele>1240</ele>
        <time>2018-05-26T11:12:09Z</time>
      </trkpt>
      <trkpt lat="43.8775" lon="6.56189">
        <ele>1240</ele>
        <time>2018-05-26T11:12:49Z</time>
      </trkpt>
      <trkpt lat="43.87752" lon="6.56191">
        <ele>1240</ele>
        <time>2018-05-26T11:13:31Z</time>
      </trkpt>
      <trkpt lat="43.87756" lon="6.56192">
        <ele>1240</ele>
        <time>2018-05-26T11:14:15Z</time>
      </trkpt>
      <trkpt lat="43.87754" lon="6.56191">
        <ele>1240</ele>
        <time>2018-05-26T11:14:54Z</time>
      </trkpt>
      <trkpt lat="43.87751" lon="6.56189">
        <ele>1240</ele>
        <time>2018-05-26T11:15:34Z</time>
      </trkpt>
      <trkpt lat="43.87752" lon="6.56193">
        <ele>1240</ele>
        <time>2018-05-26T11:16:17Z</time>
      </trkpt>
      <trkpt lat="43.87751" lon="6.56191">
        <ele>1240</ele>
        <time>2018-05-26T11:16:56Z</time>
      </trkpt>
      <trkpt lat="43.87749" lon="6.56189">
        <ele>1240</ele>
        <time>2018-05-26T11:17:31Z</time>
      </trkpt>
      <trkpt lat="43.87754" lon="6.5619">
        <ele>1240</ele>
        <time>2018-05-26T11:18:08Z</time>
      </trkpt>
      <trkpt lat="43.87752" lon="6.5619">
        <ele>1240</ele>
        <time>2018-05-26T11:18:52Z</time>
      </trkpt>
      <trkpt lat="43.87751" lon="6.56191">
        <ele>1240</ele>
        <time>2018-05-26T11:19:32Z</time>
      </trkpt>
      <trkpt lat="43.87752" lon="6.5619">
        <ele>1240</ele>
        <time>2018-05-26T11:20:12Z</time>
      </trkpt>
      <trkpt lat="43.87751" lon="6.5619">
        <ele>1240</ele>
        <time>2018-05-26T11:20:58Z</time>
      </trkpt>
      <trkpt lat="43.8775" lon="6.56191">
        <ele>1240</ele>
        <time>2018-05-26T11:21:40Z</time>
      </trkpt>
      <trkpt lat="43.87753" lon="6.56192">
        <ele>1240</ele>
        <time>2018-05-26T11:22:21Z</time>
      </trkpt>
      <trkpt lat="43.87752" lon="6.56191">
        <ele>1240</ele>
        <time>2018-05-26T11:23:11Z</time>
      </trkpt>
      <trkpt lat="43.8775" lon="6.5619">
        <ele>1240</ele>
        <time>2018-05-26T11:23:52Z</time>
      </trkpt>
      <trkpt lat="43.8775" lon="6.5619">
        <ele>1240</ele>
        <time>2018-05-26T11:24:24Z</time>
      </trkpt>
      <trkpt lat="43.87754" lon="6.56192">
        <ele>1240</ele>
        <time>2018-05-26T11:25:12Z</time>
      </trkpt>
      <trkpt lat="43.87753" lon="6.56192">
        <ele>1240</ele>
        <time>2018-05-26T11:25:40Z</time>
      </trkpt>
      <trkpt lat="43.87752" lon="6.56191">
        <ele>1240</ele>
        <time>2018-05-26T11:26:20Z</time>
      </trkpt>
      <trkpt lat="43.87753" lon="6.5619">
        <ele>1240</ele>
        <time>2018-05-26T11:26:55Z</time>
      </trkpt>
      <trkpt lat="43.87753" lon="6.56194">
        <ele>1241</ele>
        <time>2018-05-26T11:27:33Z</time>
      </trkpt>
      <trkpt lat="43.87752" lon="6.56191">
        <ele>1240</ele>
        <time>2018-05-26T11:28:18Z</time>
      </trkpt>
      <trkpt lat="43.87751" lon="6.56192">
        <ele>1240</ele>
        <time>2018-05-26T11:29:04Z</time>
      </trkpt>
      <trkpt lat="43.87753" lon="6.56191">
        <ele>1240</ele>
        <time>2018-05-26T11:29:56Z</time>
      </trkpt>
      <trkpt lat="43.87752" lon="6.56192">
        <ele>1240</ele>
        <time>2018-05-26T11:30:47Z</time>
      </trkpt>
      <trkpt lat="43.87755" lon="6.56193">
        <ele>1240</ele>
        <time>2018-05-26T11:31:23Z</time>
      </trkpt>
      <trkpt lat="43.87755" lon="6.56191">
        <ele>1240</ele>
        <time>2018-05-26T11:32:12Z</time>
      </trkpt>
      <trkpt lat="43.87753" lon="6.56196">
        <ele>1241</ele>
        <time>2018-05-26T11:32:55Z</time>
      </trkpt>
      <trkpt lat="43.87751" lon="6.56195">
        <ele>1241</ele>
        <time>2018-05-26T11:33:40Z</time>
      </trkpt>
      <trkpt lat="43.8775" lon="6.56191">
        <ele>1240</ele>
        <time>2018-05-26T11:34:16Z</time>
      </trkpt>
      <trkpt lat="43.87756" lon="6.56197">
        <ele>1241</ele>
        <time>2018-05-26T11:34:59Z</time>
      </trkpt>
      <trkpt lat="43.87755" lon="6.56195">
        <ele>1241</ele>
        <time>2018-05-26T11:35:42Z</time>
      </trkpt>
      <trkpt lat="43.87753" lon="6.56195">
        <ele>1241</ele>
        <time>2018-05-26T11:36:30Z</time>
      </trkpt>
      <trkpt lat="43.87757" lon="6.56194">
        <ele>1241</ele>
        <time>2018-05-26T11:37:13Z</time>
      </trkpt>
      <trkpt lat="43.87756" lon="6.56192">
        <ele>1240</ele>
        <time>2018-05-26T11:37:53Z</time>
      </trkpt>
      <trkpt lat="43.87754" lon="6.56191">
        <ele>1240</ele>
        <time>2018-05-26T11:38:41Z</time>
      </trkpt>
      <trkpt lat="43.87757" lon="6.5619">
        <ele>1240</ele>
        <time>2018-05-26T11:39:29Z</time>
      </trkpt>
      <trkpt lat="43.87757" lon="6.56192">
        <ele>1240</ele>
        <time>2018-05-26T11:40:15Z</time>
      </trkpt>
      <trkpt lat="43.87752" lon="6.56196">
        <ele>1241</ele>
        <time>2018-05-26T11:40:57Z</time>
      </trkpt>
      <trkpt lat="43.87754" lon="6.56195">
        <ele>1241</ele>
        <time>2018-05-26T11:41:46Z</time>
      </trkpt>
      <trkpt lat="43.87752" lon="6.56197">
        <ele>1241</ele>
        <time>2018-05-26T11:42:27Z</time>
      </trkpt>
      <trkpt lat="43.87755" lon="6.56194">
        <ele>1241</ele>
        <time>2018-05-26T11:43:11Z</time>
      </trkpt>
      <trkpt lat="43.87752" lon="6.56195">
        <ele>1241</ele>
        <time>2018-05-26T11:44:00Z</time>
      </trkpt>
      <trkpt lat="43.87753" lon="6.56196">
        <ele>1241</ele>
        <time>2018-05-26T11:44:51Z</time>
      </trkpt>
      <trkpt lat="43.87752" lon="6.56196">
        <ele>1241</ele>
        <time>2018-05-26T11:45:35Z</time>
      </trkpt>
      <trkpt lat="43.87752" lon="6.56192">
        <ele>1240</ele>
        <time>2018-05-26T11:46:21Z</time>
      </trkpt>
      <trkpt lat="43.87754" lon="6.56193">
        <ele>1240</ele>
        <time>2018-05-26T11:46:57Z</time>
      </trkpt>
      <trkpt lat="43.87753" lon="6.56193">
        <ele>1240</ele>
        <time>2018-05-26T11:47:35Z</time>
      </trkpt>
      <trkpt lat="43.87753" lon="6.5619">
        <ele>1240</ele>
        <time>2018-05-26T11:48:15Z</time>
      </trkpt>
      <trkpt lat="43.87753" lon="6.56191">
        <ele>1240</ele>
        <time>2018-05-26T11:48:52Z</time>
      </trkpt>
      <trkpt lat="43.87753" lon="6.56191">
        <ele>1240</ele>
        <time>2018-05-26T11:49:25Z</time>
      </trkpt>
      <trkpt lat="43.87754" lon="6.56191">
        <ele>1240</ele>
        <time>2018-05-26T11:50:05Z</time>
      </trkpt>
      <trkpt lat="43.8775" lon="6.56194">
        <ele>1241</ele>
        <time>2018-05-26T11:50:46Z</time>
      </trkpt>
      <trkpt lat="43.87752" lon="6.56193">
        <ele>1240</ele>
        <time>2018-05-26T11:51:23Z</time>
      </trkpt>
      <trkpt lat="43.87755" lon="6.56194">
        <ele>1241</ele>
        <time>2018-05-26T11:52:02Z</time>
      </trkpt>
      <trkpt lat="43.87753" lon="6.56191">
        <ele>1240</ele>
        <time>2018-05-26T11:52:39Z</time>
      </trkpt>
      <trkpt lat="43.87755" lon="6.5619">
        <ele>1240</ele>
        <time>2018-05-26T11:53:29Z</time>
      </trkpt>
      <trkpt lat="43.87756" lon="6.56192">
        <ele>1240</ele>
        <time>2018-05-26T11:54:10Z</time>
      </trkpt>
      <trkpt lat="43.87752" lon="6.56194">
        <ele>1241</ele>
        <time>2018-05-26T11:55:06Z</time>
      </trkpt>
      <trkpt lat="43.87753" lon="6.56195">
        <ele>1241</ele>
        <time>2018-05-26T11:56:04Z</time>
      </trkpt>
      <trkpt lat="43.87754" lon="6.56192">
        <ele>1240</ele>
        <time>2018-05-26T11:56:56Z</time>
      </trkpt>
      <trkpt lat="43.87753" lon="6.56194">
        <ele>1240</ele>
        <time>2018-05-26T11:57:43Z</time>
      </trkpt>
      <trkpt lat="43.87752" lon="6.56195">
        <ele>1241</ele>
        <time>2018-05-26T11:58:22Z</time>
      </trkpt>
      <trkpt lat="43.87755" lon="6.56192">
        <ele>1240</ele>
        <time>2018-05-26T11:58:57Z</time>
      </trkpt>
      <trkpt lat="43.87756" lon="6.56193">
        <ele>1240</ele>
        <time>2018-05-26T11:59:36Z</time>
      </trkpt>
      <trkpt lat="43.87752" lon="6.56195">
        <ele>1241</ele>
        <time>2018-05-26T12:00:20Z</time>
      </trkpt>
      <trkpt lat="43.87752" lon="6.56195">
        <ele>1241</ele>
        <time>2018-05-26T12:01:03Z</time>
      </trkpt>
      <trkpt lat="43.87754" lon="6.56195">
        <ele>1241</ele>
        <time>2018-05-26T12:01:39Z</time>
      </trkpt>
      <trkpt lat="43.87753" lon="6.56194">
        <ele>1241</ele>
        <time>2018-05-26T12:02:15Z</time>
      </trkpt>
      <trkpt lat="43.87752" lon="6.56192">
        <ele>1240</ele>
        <time>2018-05-26T12:02:53Z</time>
      </trkpt>
      <trkpt lat="43.87753" lon="6.56193">
        <ele>1240</ele>
        <time>2018-05-26T12:03:33Z</time>
      </trkpt>
      <trkpt lat="43.87754" lon="6.56193">
        <ele>1240</ele>
        <time>2018-05-26T12:04:20Z</time>
      </trkpt>
      <trkpt lat="43.87754" lon="6.56193">
        <ele>1240</ele>
        <time>2018-05-26T12:05:14Z</time>
      </trkpt>
      <trkpt lat="43.87749" lon="6.56191">
        <ele>1240</ele>
        <time>2018-05-26T12:06:01Z</time>
      </trkpt>
      <trkpt lat="43.8775" lon="6.56193">
        <ele>1240</ele>
        <time>2018-05-26T12:06:50Z</time>
      </trkpt>
      <trkpt lat="43.87754" lon="6.56198">
        <ele>1241</ele>
        <time>2018-05-26T12:07:39Z</time>
      </trkpt>
      <trkpt lat="43.87754" lon="6.56193">
        <ele>1240</ele>
        <time>2018-05-26T12:08:27Z</time>
      </trkpt>
      <trkpt lat="43.87753" lon="6.56194">
        <ele>1240</ele>
        <time>2018-05-26T12:09:12Z</time>
      </trkpt>
      <trkpt lat="43.87754" lon="6.56195">
        <ele>1241</ele>
        <time>2018-05-26T12:09:51Z</time>
      </trkpt>
      <trkpt lat="43.87753" lon="6.56196">
        <ele>1241</ele>
        <time>2018-05-26T12:10:31Z</time>
      </trkpt>
      <trkpt lat="43.87754" lon="6.56195">
        <ele>1241</ele>
        <time>2018-05-26T12:11:11Z</time>
      </trkpt>
      <trkpt lat="43.87753" lon="6.56193">
        <ele>1240</ele>
        <time>2018-05-26T12:11:51Z</time>
      </trkpt>
      <trkpt lat="43.87755" lon="6.56192">
        <ele>1240</ele>
        <time>2018-05-26T12:12:31Z</time>
      </trkpt>
      <trkpt lat="43.87753" lon="6.56198">
        <ele>1241</ele>
        <time>2018-05-26T12:13:14Z</time>
      </trkpt>
      <trkpt lat="43.87753" lon="6.56195">
        <ele>1241</ele>
        <time>2018-05-26T12:14:01Z</time>
      </trkpt>
      <trkpt lat="43.87748" lon="6.56194">
        <ele>1241</ele>
        <time>2018-05-26T12:14:46Z</time>
      </trkpt>
      <trkpt lat="43.87753" lon="6.56189">
        <ele>1240</ele>
        <time>2018-05-26T12:15:35Z</time>
      </trkpt>
      <trkpt lat="43.87755" lon="6.5619">
        <ele>1240</ele>
        <time>2018-05-26T12:16:23Z</time>
      </trkpt>
      <trkpt lat="43.87753" lon="6.56192">
        <ele>1240</ele>
        <time>2018-05-26T12:17:03Z</time>
      </trkpt>
      <trkpt lat="43.87754" lon="6.56189">
        <ele>1240</ele>
        <time>2018-05-26T12:17:39Z</time>
      </trkpt>
      <trkpt lat="43.87754" lon="6.56186">
        <ele>1239</ele>
        <time>2018-05-26T12:18:18Z</time>
      </trkpt>
      <trkpt lat="43.87753" lon="6.56191">
        <ele>1240</ele>
        <time>2018-05-26T12:18:57Z</time>
      </trkpt>
      <trkpt lat="43.87754" lon="6.56193">
        <ele>1240</ele>
        <time>2018-05-26T12:19:38Z</time>
      </trkpt>
      <trkpt lat="43.87755" lon="6.56191">
        <ele>1240</ele>
        <time>2018-05-26T12:20:20Z</time>
      </trkpt>
      <trkpt lat="43.87753" lon="6.56193">
        <ele>1240</ele>
        <time>2018-05-26T12:20:59Z</time>
      </trkpt>
      <trkpt lat="43.87753" lon="6.56193">
        <ele>1240</ele>
        <time>2018-05-26T12:21:30Z</time>
      </trkpt>
      <trkpt lat="43.87757" lon="6.56191">
        <ele>1240</ele>
        <time>2018-05-26T12:21:45Z</time>
      </trkpt>
      <trkpt lat="43.87759" lon="6.56193">
        <ele>1240</ele>
        <time>2018-05-26T12:21:53Z</time>
      </trkpt>
      <trkpt lat="43.8776" lon="6.56193">
        <ele>1240</ele>
        <time>2018-05-26T12:21:54Z</time>
      </trkpt>
      <trkpt lat="43.87761" lon="6.56194">
        <ele>1240</ele>
        <time>2018-05-26T12:21:55Z</time>
      </trkpt>
      <trkpt lat="43.87762" lon="6.56195">
        <ele>1240</ele>
        <time>2018-05-26T12:21:56Z</time>
      </trkpt>
      <trkpt lat="43.87763" lon="6.56196">
        <ele>1241</ele>
        <time>2018-05-26T12:21:57Z</time>
      </trkpt>
      <trkpt lat="43.87766" lon="6.56196">
        <ele>1240</ele>
        <time>2018-05-26T12:22:00Z</time>
      </trkpt>
      <trkpt lat="43.87773" lon="6.562">
        <ele>1240</ele>
        <time>2018-05-26T12:22:11Z</time>
      </trkpt>
      <trkpt lat="43.87774" lon="6.56202">
        <ele>1240</ele>
        <time>2018-05-26T12:22:12Z</time>
      </trkpt>
      <trkpt lat="43.87774" lon="6.56204">
        <ele>1240</ele>
        <time>2018-05-26T12:22:13Z</time>
      </trkpt>
      <trkpt lat="43.87775" lon="6.56207">
        <ele>1240</ele>
        <time>2018-05-26T12:22:14Z</time>
      </trkpt>
      <trkpt lat="43.87776" lon="6.56209">
        <ele>1240</ele>
        <time>2018-05-26T12:22:15Z</time>
      </trkpt>
      <trkpt lat="43.87777" lon="6.56211">
        <ele>1240</ele>
        <time>2018-05-26T12:22:16Z</time>
      </trkpt>
      <trkpt lat="43.87778" lon="6.56213">
        <ele>1241</ele>
        <time>2018-05-26T12:22:17Z</time>
      </trkpt>
      <trkpt lat="43.87794" lon="6.5625">
        <ele>1242</ele>
        <time>2018-05-26T12:22:36Z</time>
      </trkpt>
      <trkpt lat="43.87797" lon="6.56259">
        <ele>1242</ele>
        <time>2018-05-26T12:22:41Z</time>
      </trkpt>
      <trkpt lat="43.87798" lon="6.56261">
        <ele>1242</ele>
        <time>2018-05-26T12:22:42Z</time>
      </trkpt>
      <trkpt lat="43.87798" lon="6.56262">
        <ele>1242</ele>
        <time>2018-05-26T12:22:43Z</time>
      </trkpt>
      <trkpt lat="43.878" lon="6.56263">
        <ele>1242</ele>
        <time>2018-05-26T12:22:58Z</time>
      </trkpt>
      <trkpt lat="43.878" lon="6.56262">
        <ele>1242</ele>
        <time>2018-05-26T12:23:21Z</time>
      </trkpt>
      <trkpt lat="43.87799" lon="6.56263">
        <ele>1242</ele>
        <time>2018-05-26T12:23:58Z</time>
      </trkpt>
      <trkpt lat="43.878" lon="6.56261">
        <ele>1242</ele>
        <time>2018-05-26T12:24:18Z</time>
      </trkpt>
      <trkpt lat="43.87801" lon="6.56262">
        <ele>1242</ele>
        <time>2018-05-26T12:24:40Z</time>
      </trkpt>
      <trkpt lat="43.87801" lon="6.56261">
        <ele>1242</ele>
        <time>2018-05-26T12:25:01Z</time>
      </trkpt>
      <trkpt lat="43.878" lon="6.56264">
        <ele>1242</ele>
        <time>2018-05-26T12:25:23Z</time>
      </trkpt>
      <trkpt lat="43.87801" lon="6.56263">
        <ele>1242</ele>
        <time>2018-05-26T12:25:50Z</time>
      </trkpt>
      <trkpt lat="43.87801" lon="6.56263">
        <ele>1242</ele>
        <time>2018-05-26T12:26:21Z</time>
      </trkpt>
      <trkpt lat="43.87802" lon="6.56262">
        <ele>1241</ele>
        <time>2018-05-26T12:26:45Z</time>
      </trkpt>
      <trkpt lat="43.878" lon="6.56264">
        <ele>1242</ele>
        <time>2018-05-26T12:27:10Z</time>
      </trkpt>
      <trkpt lat="43.878" lon="6.56262">
        <ele>1242</ele>
        <time>2018-05-26T12:27:30Z</time>
      </trkpt>
      <trkpt lat="43.87803" lon="6.56267">
        <ele>1242</ele>
        <time>2018-05-26T12:27:52Z</time>
      </trkpt>
      <trkpt lat="43.87803" lon="6.56269">
        <ele>1242</ele>
        <time>2018-05-26T12:27:53Z</time>
      </trkpt>
      <trkpt lat="43.87803" lon="6.5627">
        <ele>1242</ele>
        <time>2018-05-26T12:27:54Z</time>
      </trkpt>
      <trkpt lat="43.87804" lon="6.56272">
        <ele>1242</ele>
        <time>2018-05-26T12:27:55Z</time>
      </trkpt>
      <trkpt lat="43.87805" lon="6.56274">
        <ele>1242</ele>
        <time>2018-05-26T12:27:56Z</time>
      </trkpt>
      <trkpt lat="43.87806" lon="6.56275">
        <ele>1242</ele>
        <time>2018-05-26T12:27:57Z</time>
      </trkpt>
      <trkpt lat="43.87806" lon="6.56277">
        <ele>1243</ele>
        <time>2018-05-26T12:27:58Z</time>
      </trkpt>
      <trkpt lat="43.87807" lon="6.56279">
        <ele>1243</ele>
        <time>2018-05-26T12:27:59Z</time>
      </trkpt>
      <trkpt lat="43.87808" lon="6.56281">
        <ele>1243</ele>
        <time>2018-05-26T12:28:00Z</time>
      </trkpt>
      <trkpt lat="43.87808" lon="6.56283">
        <ele>1243</ele>
        <time>2018-05-26T12:28:01Z</time>
      </trkpt>
      <trkpt lat="43.87809" lon="6.56285">
        <ele>1243</ele>
        <time>2018-05-26T12:28:02Z</time>
      </trkpt>
      <trkpt lat="43.8781" lon="6.56287">
        <ele>1243</ele>
        <time>2018-05-26T12:28:03Z</time>
      </trkpt>
      <trkpt lat="43.87812" lon="6.56301">
        <ele>1245</ele>
        <time>2018-05-26T12:28:09Z</time>
      </trkpt>
      <trkpt lat="43.87812" lon="6.56303">
        <ele>1245</ele>
        <time>2018-05-26T12:28:10Z</time>
      </trkpt>
      <trkpt lat="43.87812" lon="6.56305">
        <ele>1245</ele>
        <time>2018-05-26T12:28:11Z</time>
      </trkpt>
      <trkpt lat="43.87813" lon="6.56308">
        <ele>1246</ele>
        <time>2018-05-26T12:28:12Z</time>
      </trkpt>
      <trkpt lat="43.87813" lon="6.5631">
        <ele>1246</ele>
        <time>2018-05-26T12:28:13Z</time>
      </trkpt>
      <trkpt lat="43.87813" lon="6.56312">
        <ele>1246</ele>
        <time>2018-05-26T12:28:14Z</time>
      </trkpt>
      <trkpt lat="43.87813" lon="6.56314">
        <ele>1246</ele>
        <time>2018-05-26T12:28:15Z</time>
      </trkpt>
      <trkpt lat="43.87813" lon="6.56316">
        <ele>1246</ele>
        <time>2018-05-26T12:28:16Z</time>
      </trkpt>
      <trkpt lat="43.87811" lon="6.56347">
        <ele>1250</ele>
        <time>2018-05-26T12:28:34Z</time>
      </trkpt>
      <trkpt lat="43.87811" lon="6.56348">
        <ele>1250</ele>
        <time>2018-05-26T12:28:35Z</time>
      </trkpt>
      <trkpt lat="43.878" lon="6.56359">
        <ele>1252</ele>
        <time>2018-05-26T12:28:46Z</time>
      </trkpt>
      <trkpt lat="43.87798" lon="6.5636">
        <ele>1252</ele>
        <time>2018-05-26T12:28:48Z</time>
      </trkpt>
      <trkpt lat="43.8778" lon="6.56364">
        <ele>1255</ele>
        <time>2018-05-26T12:29:04Z</time>
      </trkpt>
      <trkpt lat="43.87779" lon="6.56366">
        <ele>1255</ele>
        <time>2018-05-26T12:29:28Z</time>
      </trkpt>
      <trkpt lat="43.87782" lon="6.56368">
        <ele>1255</ele>
        <time>2018-05-26T12:29:56Z</time>
      </trkpt>
      <trkpt lat="43.87777" lon="6.56368">
        <ele>1255</ele>
        <time>2018-05-26T12:30:24Z</time>
      </trkpt>
      <trkpt lat="43.8778" lon="6.56366">
        <ele>1255</ele>
        <time>2018-05-26T12:30:50Z</time>
      </trkpt>
      <trkpt lat="43.87779" lon="6.56369">
        <ele>1255</ele>
        <time>2018-05-26T12:31:18Z</time>
      </trkpt>
      <trkpt lat="43.87778" lon="6.56369">
        <ele>1255</ele>
        <time>2018-05-26T12:31:19Z</time>
      </trkpt>
      <trkpt lat="43.87777" lon="6.5637">
        <ele>1256</ele>
        <time>2018-05-26T12:31:20Z</time>
      </trkpt>
      <trkpt lat="43.87775" lon="6.56371">
        <ele>1256</ele>
        <time>2018-05-26T12:31:21Z</time>
      </trkpt>
      <trkpt lat="43.87774" lon="6.56372">
        <ele>1256</ele>
        <time>2018-05-26T12:31:22Z</time>
      </trkpt>
      <trkpt lat="43.87766" lon="6.56396">
        <ele>1259</ele>
        <time>2018-05-26T12:31:37Z</time>
      </trkpt>
      <trkpt lat="43.87777" lon="6.5642">
        <ele>1260</ele>
        <time>2018-05-26T12:31:52Z</time>
      </trkpt>
      <trkpt lat="43.87787" lon="6.56453">
        <ele>1262</ele>
        <time>2018-05-26T12:32:09Z</time>
      </trkpt>
      <trkpt lat="43.87789" lon="6.56477">
        <ele>1264</ele>
        <time>2018-05-26T12:32:21Z</time>
      </trkpt>
      <trkpt lat="43.87789" lon="6.56479">
        <ele>1264</ele>
        <time>2018-05-26T12:32:22Z</time>
      </trkpt>
      <trkpt lat="43.87788" lon="6.56481">
        <ele>1264</ele>
        <time>2018-05-26T12:32:23Z</time>
      </trkpt>
      <trkpt lat="43.87794" lon="6.56506">
        <ele>1265</ele>
        <time>2018-05-26T12:32:38Z</time>
      </trkpt>
      <trkpt lat="43.87804" lon="6.5652">
        <ele>1266</ele>
        <time>2018-05-26T12:32:48Z</time>
      </trkpt>
      <trkpt lat="43.87827" lon="6.56519">
        <ele>1268</ele>
        <time>2018-05-26T12:33:04Z</time>
      </trkpt>
      <trkpt lat="43.87842" lon="6.56537">
        <ele>1272</ele>
        <time>2018-05-26T12:33:19Z</time>
      </trkpt>
      <trkpt lat="43.87843" lon="6.56548">
        <ele>1274</ele>
        <time>2018-05-26T12:33:25Z</time>
      </trkpt>
      <trkpt lat="43.87842" lon="6.56549">
        <ele>1274</ele>
        <time>2018-05-26T12:33:26Z</time>
      </trkpt>
      <trkpt lat="43.87842" lon="6.56551">
        <ele>1274</ele>
        <time>2018-05-26T12:33:27Z</time>
      </trkpt>
      <trkpt lat="43.87842" lon="6.56553">
        <ele>1274</ele>
        <time>2018-05-26T12:33:28Z</time>
      </trkpt>
      <trkpt lat="43.87843" lon="6.56555">
        <ele>1274</ele>
        <time>2018-05-26T12:33:29Z</time>
      </trkpt>
      <trkpt lat="43.87845" lon="6.56577">
        <ele>1278</ele>
        <time>2018-05-26T12:33:42Z</time>
      </trkpt>
      <trkpt lat="43.87845" lon="6.56579">
        <ele>1278</ele>
        <time>2018-05-26T12:33:43Z</time>
      </trkpt>
      <trkpt lat="43.87851" lon="6.56604">
        <ele>1282</ele>
        <time>2018-05-26T12:33:59Z</time>
      </trkpt>
      <trkpt lat="43.87851" lon="6.56606">
        <ele>1282</ele>
        <time>2018-05-26T12:34:00Z</time>
      </trkpt>
      <trkpt lat="43.87855" lon="6.56614">
        <ele>1284</ele>
        <time>2018-05-26T12:34:05Z</time>
      </trkpt>
      <trkpt lat="43.87865" lon="6.56641">
        <ele>1287</ele>
        <time>2018-05-26T12:34:21Z</time>
      </trkpt>
      <trkpt lat="43.87872" lon="6.56654">
        <ele>1289</ele>
        <time>2018-05-26T12:34:31Z</time>
      </trkpt>
      <trkpt lat="43.87873" lon="6.56655">
        <ele>1290</ele>
        <time>2018-05-26T12:34:32Z</time>
      </trkpt>
      <trkpt lat="43.87873" lon="6.56656">
        <ele>1290</ele>
        <time>2018-05-26T12:34:33Z</time>
      </trkpt>
      <trkpt lat="43.87874" lon="6.56657">
        <ele>1290</ele>
        <time>2018-05-26T12:34:34Z</time>
      </trkpt>
      <trkpt lat="43.87875" lon="6.56657">
        <ele>1290</ele>
        <time>2018-05-26T12:34:35Z</time>
      </trkpt>
      <trkpt lat="43.87876" lon="6.56657">
        <ele>1291</ele>
        <time>2018-05-26T12:34:36Z</time>
      </trkpt>
      <trkpt lat="43.87877" lon="6.56656">
        <ele>1291</ele>
        <time>2018-05-26T12:34:37Z</time>
      </trkpt>
      <trkpt lat="43.87878" lon="6.56656">
        <ele>1291</ele>
        <time>2018-05-26T12:34:38Z</time>
      </trkpt>
      <trkpt lat="43.87879" lon="6.56655">
        <ele>1291</ele>
        <time>2018-05-26T12:34:39Z</time>
      </trkpt>
      <trkpt lat="43.8788" lon="6.56654">
        <ele>1291</ele>
        <time>2018-05-26T12:34:40Z</time>
      </trkpt>
      <trkpt lat="43.87891" lon="6.56649">
        <ele>1293</ele>
        <time>2018-05-26T12:34:49Z</time>
      </trkpt>
      <trkpt lat="43.87892" lon="6.56649">
        <ele>1293</ele>
        <time>2018-05-26T12:34:50Z</time>
      </trkpt>
      <trkpt lat="43.87894" lon="6.56649">
        <ele>1293</ele>
        <time>2018-05-26T12:34:51Z</time>
      </trkpt>
      <trkpt lat="43.87895" lon="6.56649">
        <ele>1293</ele>
        <time>2018-05-26T12:34:52Z</time>
      </trkpt>
      <trkpt lat="43.87897" lon="6.56648">
        <ele>1294</ele>
        <time>2018-05-26T12:34:53Z</time>
      </trkpt>
      <trkpt lat="43.87898" lon="6.56648">
        <ele>1294</ele>
        <time>2018-05-26T12:34:54Z</time>
      </trkpt>
      <trkpt lat="43.87899" lon="6.56647">
        <ele>1294</ele>
        <time>2018-05-26T12:34:55Z</time>
      </trkpt>
      <trkpt lat="43.8792" lon="6.56642">
        <ele>1296</ele>
        <time>2018-05-26T12:35:11Z</time>
      </trkpt>
      <trkpt lat="43.87923" lon="6.56641">
        <ele>1296</ele>
        <time>2018-05-26T12:35:13Z</time>
      </trkpt>
      <trkpt lat="43.87924" lon="6.56641">
        <ele>1297</ele>
        <time>2018-05-26T12:35:14Z</time>
      </trkpt>
      <trkpt lat="43.87925" lon="6.56641">
        <ele>1297</ele>
        <time>2018-05-26T12:35:15Z</time>
      </trkpt>
      <trkpt lat="43.87927" lon="6.56641">
        <ele>1297</ele>
        <time>2018-05-26T12:35:16Z</time>
      </trkpt>
      <trkpt lat="43.87928" lon="6.56641">
        <ele>1297</ele>
        <time>2018-05-26T12:35:17Z</time>
      </trkpt>
      <trkpt lat="43.8793" lon="6.56641">
        <ele>1297</ele>
        <time>2018-05-26T12:35:18Z</time>
      </trkpt>
      <trkpt lat="43.87931" lon="6.5664">
        <ele>1297</ele>
        <time>2018-05-26T12:35:19Z</time>
      </trkpt>
      <trkpt lat="43.87932" lon="6.5664">
        <ele>1297</ele>
        <time>2018-05-26T12:35:20Z</time>
      </trkpt>
      <trkpt lat="43.87935" lon="6.56641">
        <ele>1297</ele>
        <time>2018-05-26T12:35:22Z</time>
      </trkpt>
      <trkpt lat="43.87936" lon="6.56641">
        <ele>1297</ele>
        <time>2018-05-26T12:35:23Z</time>
      </trkpt>
      <trkpt lat="43.87937" lon="6.56642">
        <ele>1297</ele>
        <time>2018-05-26T12:35:24Z</time>
      </trkpt>
      <trkpt lat="43.87952" lon="6.56643">
        <ele>1298</ele>
        <time>2018-05-26T12:35:35Z</time>
      </trkpt>
      <trkpt lat="43.87954" lon="6.56643">
        <ele>1298</ele>
        <time>2018-05-26T12:35:36Z</time>
      </trkpt>
      <trkpt lat="43.87955" lon="6.56643">
        <ele>1298</ele>
        <time>2018-05-26T12:35:37Z</time>
      </trkpt>
      <trkpt lat="43.87957" lon="6.56644">
        <ele>1298</ele>
        <time>2018-05-26T12:35:38Z</time>
      </trkpt>
      <trkpt lat="43.87958" lon="6.56644">
        <ele>1298</ele>
        <time>2018-05-26T12:35:39Z</time>
      </trkpt>
      <trkpt lat="43.87959" lon="6.56644">
        <ele>1298</ele>
        <time>2018-05-26T12:35:40Z</time>
      </trkpt>
      <trkpt lat="43.87976" lon="6.56647">
        <ele>1300</ele>
        <time>2018-05-26T12:35:52Z</time>
      </trkpt>
      <trkpt lat="43.87977" lon="6.56648">
        <ele>1300</ele>
        <time>2018-05-26T12:35:53Z</time>
      </trkpt>
      <trkpt lat="43.87978" lon="6.56649">
        <ele>1300</ele>
        <time>2018-05-26T12:35:54Z</time>
      </trkpt>
      <trkpt lat="43.87979" lon="6.56651">
        <ele>1301</ele>
        <time>2018-05-26T12:35:55Z</time>
      </trkpt>
      <trkpt lat="43.8798" lon="6.56653">
        <ele>1301</ele>
        <time>2018-05-26T12:35:56Z</time>
      </trkpt>
      <trkpt lat="43.8798" lon="6.56655">
        <ele>1301</ele>
        <time>2018-05-26T12:35:57Z</time>
      </trkpt>
      <trkpt lat="43.8798" lon="6.56657">
        <ele>1302</ele>
        <time>2018-05-26T12:35:58Z</time>
      </trkpt>
      <trkpt lat="43.8798" lon="6.56658">
        <ele>1302</ele>
        <time>2018-05-26T12:35:59Z</time>
      </trkpt>
      <trkpt lat="43.8798" lon="6.5666">
        <ele>1302</ele>
        <time>2018-05-26T12:36:00Z</time>
      </trkpt>
      <trkpt lat="43.87979" lon="6.56661">
        <ele>1303</ele>
        <time>2018-05-26T12:36:01Z</time>
      </trkpt>
      <trkpt lat="43.87979" lon="6.56663">
        <ele>1303</ele>
        <time>2018-05-26T12:36:02Z</time>
      </trkpt>
      <trkpt lat="43.87979" lon="6.56665">
        <ele>1303</ele>
        <time>2018-05-26T12:36:03Z</time>
      </trkpt>
      <trkpt lat="43.87978" lon="6.56666">
        <ele>1303</ele>
        <time>2018-05-26T12:36:04Z</time>
      </trkpt>
      <trkpt lat="43.87977" lon="6.56667">
        <ele>1303</ele>
        <time>2018-05-26T12:36:05Z</time>
      </trkpt>
      <trkpt lat="43.87976" lon="6.56668">
        <ele>1303</ele>
        <time>2018-05-26T12:36:06Z</time>
      </trkpt>
      <trkpt lat="43.87975" lon="6.56668">
        <ele>1303</ele>
        <time>2018-05-26T12:36:07Z</time>
      </trkpt>
      <trkpt lat="43.87964" lon="6.56673">
        <ele>1304</ele>
        <time>2018-05-26T12:36:15Z</time>
      </trkpt>
      <trkpt lat="43.87963" lon="6.56675">
        <ele>1304</ele>
        <time>2018-05-26T12:36:16Z</time>
      </trkpt>
      <trkpt lat="43.87962" lon="6.56676">
        <ele>1304</ele>
        <time>2018-05-26T12:36:17Z</time>
      </trkpt>
      <trkpt lat="43.87962" lon="6.56678">
        <ele>1304</ele>
        <time>2018-05-26T12:36:18Z</time>
      </trkpt>
      <trkpt lat="43.87961" lon="6.56679">
        <ele>1304</ele>
        <time>2018-05-26T12:36:19Z</time>
      </trkpt>
      <trkpt lat="43.87961" lon="6.56681">
        <ele>1304</ele>
        <time>2018-05-26T12:36:20Z</time>
      </trkpt>
      <trkpt lat="43.87961" lon="6.56686">
        <ele>1305</ele>
        <time>2018-05-26T12:36:23Z</time>
      </trkpt>
      <trkpt lat="43.87962" lon="6.56688">
        <ele>1305</ele>
        <time>2018-05-26T12:36:24Z</time>
      </trkpt>
      <trkpt lat="43.87962" lon="6.56689">
        <ele>1305</ele>
        <time>2018-05-26T12:36:25Z</time>
      </trkpt>
      <trkpt lat="43.87963" lon="6.5669">
        <ele>1305</ele>
        <time>2018-05-26T12:36:26Z</time>
      </trkpt>
      <trkpt lat="43.87964" lon="6.56691">
        <ele>1305</ele>
        <time>2018-05-26T12:36:27Z</time>
      </trkpt>
      <trkpt lat="43.87965" lon="6.56691">
        <ele>1306</ele>
        <time>2018-05-26T12:36:28Z</time>
      </trkpt>
      <trkpt lat="43.87966" lon="6.56692">
        <ele>1306</ele>
        <time>2018-05-26T12:36:29Z</time>
      </trkpt>
      <trkpt lat="43.87967" lon="6.56692">
        <ele>1306</ele>
        <time>2018-05-26T12:36:30Z</time>
      </trkpt>
      <trkpt lat="43.87969" lon="6.56692">
        <ele>1306</ele>
        <time>2018-05-26T12:36:31Z</time>
      </trkpt>
      <trkpt lat="43.8797" lon="6.56692">
        <ele>1306</ele>
        <time>2018-05-26T12:36:32Z</time>
      </trkpt>
      <trkpt lat="43.87972" lon="6.56693">
        <ele>1306</ele>
        <time>2018-05-26T12:36:33Z</time>
      </trkpt>
      <trkpt lat="43.87973" lon="6.56693">
        <ele>1307</ele>
        <time>2018-05-26T12:36:34Z</time>
      </trkpt>
      <trkpt lat="43.87974" lon="6.56692">
        <ele>1307</ele>
        <time>2018-05-26T12:36:35Z</time>
      </trkpt>
      <trkpt lat="43.87975" lon="6.56692">
        <ele>1307</ele>
        <time>2018-05-26T12:36:36Z</time>
      </trkpt>
      <trkpt lat="43.87977" lon="6.56693">
        <ele>1307</ele>
        <time>2018-05-26T12:36:38Z</time>
      </trkpt>
      <trkpt lat="43.8798" lon="6.56695">
        <ele>1307</ele>
        <time>2018-05-26T12:36:40Z</time>
      </trkpt>
      <trkpt lat="43.87981" lon="6.56696">
        <ele>1308</ele>
        <time>2018-05-26T12:36:41Z</time>
      </trkpt>
      <trkpt lat="43.87986" lon="6.56704">
        <ele>1309</ele>
        <time>2018-05-26T12:36:51Z</time>
      </trkpt>
      <trkpt lat="43.87992" lon="6.56704">
        <ele>1310</ele>
        <time>2018-05-26T12:37:04Z</time>
      </trkpt>
      <trkpt lat="43.87992" lon="6.56703">
        <ele>1310</ele>
        <time>2018-05-26T12:37:16Z</time>
      </trkpt>
      <trkpt lat="43.87994" lon="6.56707">
        <ele>1310</ele>
        <time>2018-05-26T12:37:48Z</time>
      </trkpt>
      <trkpt lat="43.87996" lon="6.56709">
        <ele>1311</ele>
        <time>2018-05-26T12:38:20Z</time>
      </trkpt>
      <trkpt lat="43.87994" lon="6.56707">
        <ele>1310</ele>
        <time>2018-05-26T12:38:33Z</time>
      </trkpt>
      <trkpt lat="43.87995" lon="6.56705">
        <ele>1310</ele>
        <time>2018-05-26T12:38:39Z</time>
      </trkpt>
      <trkpt lat="43.87996" lon="6.56704">
        <ele>1310</ele>
        <time>2018-05-26T12:38:40Z</time>
      </trkpt>
      <trkpt lat="43.87998" lon="6.56702">
        <ele>1310</ele>
        <time>2018-05-26T12:38:41Z</time>
      </trkpt>
      <trkpt lat="43.88" lon="6.56701">
        <ele>1310</ele>
        <time>2018-05-26T12:38:42Z</time>
      </trkpt>
      <trkpt lat="43.88003" lon="6.567">
        <ele>1310</ele>
        <time>2018-05-26T12:38:43Z</time>
      </trkpt>
      <trkpt lat="43.88005" lon="6.56699">
        <ele>1310</ele>
        <time>2018-05-26T12:38:44Z</time>
      </trkpt>
      <trkpt lat="43.88008" lon="6.56698">
        <ele>1310</ele>
        <time>2018-05-26T12:38:45Z</time>
      </trkpt>
      <trkpt lat="43.88034" lon="6.56679">
        <ele>1312</ele>
        <time>2018-05-26T12:38:55Z</time>
      </trkpt>
      <trkpt lat="43.88056" lon="6.56657">
        <ele>1311</ele>
        <time>2018-05-26T12:39:06Z</time>
      </trkpt>
      <trkpt lat="43.88074" lon="6.56648">
        <ele>1312</ele>
        <time>2018-05-26T12:39:19Z</time>
      </trkpt>
      <trkpt lat="43.88094" lon="6.56641">
        <ele>1311</ele>
        <time>2018-05-26T12:39:29Z</time>
      </trkpt>
      <trkpt lat="43.88117" lon="6.5664">
        <ele>1313</ele>
        <time>2018-05-26T12:39:40Z</time>
      </trkpt>
      <trkpt lat="43.8814" lon="6.56631">
        <ele>1313</ele>
        <time>2018-05-26T12:39:50Z</time>
      </trkpt>
      <trkpt lat="43.88161" lon="6.56621">
        <ele>1310</ele>
        <time>2018-05-26T12:40:01Z</time>
      </trkpt>
      <trkpt lat="43.88178" lon="6.56621">
        <ele>1310</ele>
        <time>2018-05-26T12:40:11Z</time>
      </trkpt>
      <trkpt lat="43.88191" lon="6.56623">
        <ele>1310</ele>
        <time>2018-05-26T12:40:26Z</time>
      </trkpt>
      <trkpt lat="43.88194" lon="6.56622">
        <ele>1310</ele>
        <time>2018-05-26T12:40:36Z</time>
      </trkpt>
      <trkpt lat="43.88195" lon="6.56622">
        <ele>1310</ele>
        <time>2018-05-26T12:40:37Z</time>
      </trkpt>
      <trkpt lat="43.88197" lon="6.56621">
        <ele>1310</ele>
        <time>2018-05-26T12:40:38Z</time>
      </trkpt>
      <trkpt lat="43.88199" lon="6.56621">
        <ele>1309</ele>
        <time>2018-05-26T12:40:39Z</time>
      </trkpt>
      <trkpt lat="43.88202" lon="6.56621">
        <ele>1309</ele>
        <time>2018-05-26T12:40:40Z</time>
      </trkpt>
      <trkpt lat="43.88204" lon="6.56622">
        <ele>1309</ele>
        <time>2018-05-26T12:40:41Z</time>
      </trkpt>
      <trkpt lat="43.88223" lon="6.56632">
        <ele>1309</ele>
        <time>2018-05-26T12:40:53Z</time>
      </trkpt>
      <trkpt lat="43.8824" lon="6.56641">
        <ele>1311</ele>
        <time>2018-05-26T12:41:02Z</time>
      </trkpt>
      <trkpt lat="43.88245" lon="6.56644">
        <ele>1312</ele>
        <time>2018-05-26T12:41:11Z</time>
      </trkpt>
      <trkpt lat="43.88246" lon="6.56644">
        <ele>1312</ele>
        <time>2018-05-26T12:41:28Z</time>
      </trkpt>
      <trkpt lat="43.88249" lon="6.56648">
        <ele>1314</ele>
        <time>2018-05-26T12:41:43Z</time>
      </trkpt>
      <trkpt lat="43.88266" lon="6.56655">
        <ele>1315</ele>
        <time>2018-05-26T12:41:59Z</time>
      </trkpt>
      <trkpt lat="43.88283" lon="6.56656">
        <ele>1314</ele>
        <time>2018-05-26T12:42:13Z</time>
      </trkpt>
      <trkpt lat="43.88297" lon="6.56661">
        <ele>1318</ele>
        <time>2018-05-26T12:42:27Z</time>
      </trkpt>
      <trkpt lat="43.88311" lon="6.56662">
        <ele>1319</ele>
        <time>2018-05-26T12:42:43Z</time>
      </trkpt>
      <trkpt lat="43.88333" lon="6.56663">
        <ele>1322</ele>
        <time>2018-05-26T12:42:54Z</time>
      </trkpt>
      <trkpt lat="43.88362" lon="6.5666">
        <ele>1322</ele>
        <time>2018-05-26T12:43:04Z</time>
      </trkpt>
      <trkpt lat="43.88367" lon="6.56658">
        <ele>1321</ele>
        <time>2018-05-26T12:43:13Z</time>
      </trkpt>
      <trkpt lat="43.88368" lon="6.56657">
        <ele>1321</ele>
        <time>2018-05-26T12:43:14Z</time>
      </trkpt>
      <trkpt lat="43.88369" lon="6.56656">
        <ele>1320</ele>
        <time>2018-05-26T12:43:15Z</time>
      </trkpt>
      <trkpt lat="43.8837" lon="6.56655">
        <ele>1320</ele>
        <time>2018-05-26T12:43:16Z</time>
      </trkpt>
      <trkpt lat="43.88375" lon="6.56652">
        <ele>1319</ele>
        <time>2018-05-26T12:43:27Z</time>
      </trkpt>
      <trkpt lat="43.8838" lon="6.5665">
        <ele>1319</ele>
        <time>2018-05-26T12:43:40Z</time>
      </trkpt>
      <trkpt lat="43.88386" lon="6.56648">
        <ele>1320</ele>
        <time>2018-05-26T12:43:52Z</time>
      </trkpt>
      <trkpt lat="43.88386" lon="6.56645">
        <ele>1319</ele>
        <time>2018-05-26T12:43:54Z</time>
      </trkpt>
      <trkpt lat="43.88389" lon="6.56631">
        <ele>1319</ele>
        <time>2018-05-26T12:44:07Z</time>
      </trkpt>
      <trkpt lat="43.8839" lon="6.56607">
        <ele>1321</ele>
        <time>2018-05-26T12:44:22Z</time>
      </trkpt>
      <trkpt lat="43.88389" lon="6.5659">
        <ele>1322</ele>
        <time>2018-05-26T12:44:35Z</time>
      </trkpt>
      <trkpt lat="43.88402" lon="6.56557">
        <ele>1322</ele>
        <time>2018-05-26T12:44:47Z</time>
      </trkpt>
      <trkpt lat="43.88422" lon="6.56526">
        <ele>1322</ele>
        <time>2018-05-26T12:44:59Z</time>
      </trkpt>
      <trkpt lat="43.88448" lon="6.56507">
        <ele>1324</ele>
        <time>2018-05-26T12:45:13Z</time>
      </trkpt>
      <trkpt lat="43.8847" lon="6.56496">
        <ele>1326</ele>
        <time>2018-05-26T12:45:26Z</time>
      </trkpt>
      <trkpt lat="43.88472" lon="6.56495">
        <ele>1327</ele>
        <time>2018-05-26T12:45:27Z</time>
      </trkpt>
      <trkpt lat="43.88474" lon="6.56493">
        <ele>1327</ele>
        <time>2018-05-26T12:45:28Z</time>
      </trkpt>
      <trkpt lat="43.88476" lon="6.56492">
        <ele>1327</ele>
        <time>2018-05-26T12:45:29Z</time>
      </trkpt>
      <trkpt lat="43.88478" lon="6.56491">
        <ele>1328</ele>
        <time>2018-05-26T12:45:30Z</time>
      </trkpt>
      <trkpt lat="43.8848" lon="6.5649">
        <ele>1328</ele>
        <time>2018-05-26T12:45:31Z</time>
      </trkpt>
      <trkpt lat="43.88482" lon="6.56489">
        <ele>1329</ele>
        <time>2018-05-26T12:45:32Z</time>
      </trkpt>
      <trkpt lat="43.88488" lon="6.56485">
        <ele>1329</ele>
        <time>2018-05-26T12:45:40Z</time>
      </trkpt>
      <trkpt lat="43.88488" lon="6.56483">
        <ele>1329</ele>
        <time>2018-05-26T12:45:41Z</time>
      </trkpt>
      <trkpt lat="43.88489" lon="6.56482">
        <ele>1329</ele>
        <time>2018-05-26T12:45:42Z</time>
      </trkpt>
      <trkpt lat="43.88489" lon="6.56471">
        <ele>1327</ele>
        <time>2018-05-26T12:45:53Z</time>
      </trkpt>
      <trkpt lat="43.88495" lon="6.56456">
        <ele>1326</ele>
        <time>2018-05-26T12:46:01Z</time>
      </trkpt>
      <trkpt lat="43.88495" lon="6.56453">
        <ele>1326</ele>
        <time>2018-05-26T12:46:02Z</time>
      </trkpt>
      <trkpt lat="43.88496" lon="6.5645">
        <ele>1326</ele>
        <time>2018-05-26T12:46:03Z</time>
      </trkpt>
      <trkpt lat="43.88497" lon="6.56447">
        <ele>1326</ele>
        <time>2018-05-26T12:46:04Z</time>
      </trkpt>
      <trkpt lat="43.88498" lon="6.56445">
        <ele>1326</ele>
        <time>2018-05-26T12:46:05Z</time>
      </trkpt>
      <trkpt lat="43.885" lon="6.56444">
        <ele>1326</ele>
        <time>2018-05-26T12:46:06Z</time>
      </trkpt>
      <trkpt lat="43.88502" lon="6.56439">
        <ele>1327</ele>
        <time>2018-05-26T12:46:09Z</time>
      </trkpt>
      <trkpt lat="43.88503" lon="6.56436">
        <ele>1326</ele>
        <time>2018-05-26T12:46:10Z</time>
      </trkpt>
      <trkpt lat="43.88503" lon="6.56434">
        <ele>1326</ele>
        <time>2018-05-26T12:46:11Z</time>
      </trkpt>
      <trkpt lat="43.88505" lon="6.56431">
        <ele>1326</ele>
        <time>2018-05-26T12:46:12Z</time>
      </trkpt>
      <trkpt lat="43.88506" lon="6.56428">
        <ele>1326</ele>
        <time>2018-05-26T12:46:13Z</time>
      </trkpt>
      <trkpt lat="43.88507" lon="6.56426">
        <ele>1326</ele>
        <time>2018-05-26T12:46:14Z</time>
      </trkpt>
      <trkpt lat="43.88508" lon="6.56423">
        <ele>1326</ele>
        <time>2018-05-26T12:46:15Z</time>
      </trkpt>
      <trkpt lat="43.88509" lon="6.56421">
        <ele>1326</ele>
        <time>2018-05-26T12:46:16Z</time>
      </trkpt>
      <trkpt lat="43.88514" lon="6.56408">
        <ele>1326</ele>
        <time>2018-05-26T12:46:20Z</time>
      </trkpt>
      <trkpt lat="43.88514" lon="6.56405">
        <ele>1326</ele>
        <time>2018-05-26T12:46:21Z</time>
      </trkpt>
      <trkpt lat="43.88513" lon="6.56402">
        <ele>1325</ele>
        <time>2018-05-26T12:46:22Z</time>
      </trkpt>
      <trkpt lat="43.88513" lon="6.56399">
        <ele>1325</ele>
        <time>2018-05-26T12:46:23Z</time>
      </trkpt>
      <trkpt lat="43.88513" lon="6.56396">
        <ele>1326</ele>
        <time>2018-05-26T12:46:24Z</time>
      </trkpt>
      <trkpt lat="43.88514" lon="6.56392">
        <ele>1326</ele>
        <time>2018-05-26T12:46:25Z</time>
      </trkpt>
      <trkpt lat="43.88515" lon="6.56389">
        <ele>1326</ele>
        <time>2018-05-26T12:46:26Z</time>
      </trkpt>
      <trkpt lat="43.88516" lon="6.56386">
        <ele>1327</ele>
        <time>2018-05-26T12:46:27Z</time>
      </trkpt>
      <trkpt lat="43.88517" lon="6.56383">
        <ele>1327</ele>
        <time>2018-05-26T12:46:28Z</time>
      </trkpt>
      <trkpt lat="43.88516" lon="6.5638">
        <ele>1327</ele>
        <time>2018-05-26T12:46:29Z</time>
      </trkpt>
      <trkpt lat="43.88514" lon="6.56377">
        <ele>1326</ele>
        <time>2018-05-26T12:46:30Z</time>
      </trkpt>
      <trkpt lat="43.88512" lon="6.56375">
        <ele>1326</ele>
        <time>2018-05-26T12:46:31Z</time>
      </trkpt>
      <trkpt lat="43.8851" lon="6.56372">
        <ele>1325</ele>
        <time>2018-05-26T12:46:32Z</time>
      </trkpt>
      <trkpt lat="43.88508" lon="6.56369">
        <ele>1325</ele>
        <time>2018-05-26T12:46:33Z</time>
      </trkpt>
      <trkpt lat="43.88508" lon="6.56366">
        <ele>1325</ele>
        <time>2018-05-26T12:46:34Z</time>
      </trkpt>
      <trkpt lat="43.88507" lon="6.56364">
        <ele>1325</ele>
        <time>2018-05-26T12:46:35Z</time>
      </trkpt>
      <trkpt lat="43.88504" lon="6.56353">
        <ele>1324</ele>
        <time>2018-05-26T12:46:45Z</time>
      </trkpt>
      <trkpt lat="43.88502" lon="6.56336">
        <ele>1324</ele>
        <time>2018-05-26T12:46:55Z</time>
      </trkpt>
      <trkpt lat="43.88506" lon="6.56317">
        <ele>1324</ele>
        <time>2018-05-26T12:47:05Z</time>
      </trkpt>
      <trkpt lat="43.88506" lon="6.56303">
        <ele>1324</ele>
        <time>2018-05-26T12:47:13Z</time>
      </trkpt>
      <trkpt lat="43.88515" lon="6.56288">
        <ele>1325</ele>
        <time>2018-05-26T12:47:28Z</time>
      </trkpt>
      <trkpt lat="43.88523" lon="6.56276">
        <ele>1327</ele>
        <time>2018-05-26T12:47:39Z</time>
      </trkpt>
      <trkpt lat="43.88552" lon="6.56245">
        <ele>1331</ele>
        <time>2018-05-26T12:47:52Z</time>
      </trkpt>
      <trkpt lat="43.88562" lon="6.56234">
        <ele>1332</ele>
        <time>2018-05-26T12:48:03Z</time>
      </trkpt>
      <trkpt lat="43.88568" lon="6.56228">
        <ele>1332</ele>
        <time>2018-05-26T12:48:13Z</time>
      </trkpt>
      <trkpt lat="43.88569" lon="6.56226">
        <ele>1332</ele>
        <time>2018-05-26T12:48:14Z</time>
      </trkpt>
      <trkpt lat="43.8857" lon="6.56225">
        <ele>1332</ele>
        <time>2018-05-26T12:48:15Z</time>
      </trkpt>
      <trkpt lat="43.88571" lon="6.56224">
        <ele>1332</ele>
        <time>2018-05-26T12:48:16Z</time>
      </trkpt>
      <trkpt lat="43.88572" lon="6.56224">
        <ele>1332</ele>
        <time>2018-05-26T12:48:17Z</time>
      </trkpt>
      <trkpt lat="43.88573" lon="6.56223">
        <ele>1333</ele>
        <time>2018-05-26T12:48:18Z</time>
      </trkpt>
      <trkpt lat="43.8858" lon="6.56217">
        <ele>1333</ele>
        <time>2018-05-26T12:48:26Z</time>
      </trkpt>
      <trkpt lat="43.88581" lon="6.56216">
        <ele>1333</ele>
        <time>2018-05-26T12:48:27Z</time>
      </trkpt>
      <trkpt lat="43.88582" lon="6.56214">
        <ele>1333</ele>
        <time>2018-05-26T12:48:28Z</time>
      </trkpt>
      <trkpt lat="43.88583" lon="6.56213">
        <ele>1333</ele>
        <time>2018-05-26T12:48:29Z</time>
      </trkpt>
      <trkpt lat="43.88584" lon="6.56212">
        <ele>1333</ele>
        <time>2018-05-26T12:48:30Z</time>
      </trkpt>
      <trkpt lat="43.88589" lon="6.56208">
        <ele>1334</ele>
        <time>2018-05-26T12:48:35Z</time>
      </trkpt>
      <trkpt lat="43.8859" lon="6.56206">
        <ele>1334</ele>
        <time>2018-05-26T12:48:36Z</time>
      </trkpt>
      <trkpt lat="43.88595" lon="6.56188">
        <ele>1332</ele>
        <time>2018-05-26T12:48:51Z</time>
      </trkpt>
      <trkpt lat="43.88595" lon="6.56189">
        <ele>1332</ele>
        <time>2018-05-26T12:49:12Z</time>
      </trkpt>
      <trkpt lat="43.88596" lon="6.5619">
        <ele>1332</ele>
        <time>2018-05-26T12:49:40Z</time>
      </trkpt>
      <trkpt lat="43.88596" lon="6.5619">
        <ele>1332</ele>
        <time>2018-05-26T12:50:00Z</time>
      </trkpt>
      <trkpt lat="43.88594" lon="6.56188">
        <ele>1332</ele>
        <time>2018-05-26T12:50:24Z</time>
      </trkpt>
      <trkpt lat="43.88595" lon="6.56188">
        <ele>1332</ele>
        <time>2018-05-26T12:51:01Z</time>
      </trkpt>
      <trkpt lat="43.88599" lon="6.56184">
        <ele>1332</ele>
        <time>2018-05-26T12:51:11Z</time>
      </trkpt>
      <trkpt lat="43.886" lon="6.56183">
        <ele>1332</ele>
        <time>2018-05-26T12:51:12Z</time>
      </trkpt>
      <trkpt lat="43.88602" lon="6.56182">
        <ele>1332</ele>
        <time>2018-05-26T12:51:13Z</time>
      </trkpt>
      <trkpt lat="43.88603" lon="6.56182">
        <ele>1332</ele>
        <time>2018-05-26T12:51:14Z</time>
      </trkpt>
      <trkpt lat="43.88625" lon="6.56175">
        <ele>1336</ele>
        <time>2018-05-26T12:51:25Z</time>
      </trkpt>
      <trkpt lat="43.88635" lon="6.56167">
        <ele>1337</ele>
        <time>2018-05-26T12:51:28Z</time>
      </trkpt>
      <trkpt lat="43.88638" lon="6.56163">
        <ele>1337</ele>
        <time>2018-05-26T12:51:29Z</time>
      </trkpt>
      <trkpt lat="43.88641" lon="6.5616">
        <ele>1336</ele>
        <time>2018-05-26T12:51:30Z</time>
      </trkpt>
      <trkpt lat="43.88643" lon="6.56157">
        <ele>1336</ele>
        <time>2018-05-26T12:51:31Z</time>
      </trkpt>
      <trkpt lat="43.88645" lon="6.56154">
        <ele>1336</ele>
        <time>2018-05-26T12:51:32Z</time>
      </trkpt>
      <trkpt lat="43.88646" lon="6.56153">
        <ele>1336</ele>
        <time>2018-05-26T12:51:33Z</time>
      </trkpt>
      <trkpt lat="43.88648" lon="6.56152">
        <ele>1336</ele>
        <time>2018-05-26T12:51:34Z</time>
      </trkpt>
      <trkpt lat="43.8865" lon="6.56151">
        <ele>1336</ele>
        <time>2018-05-26T12:51:35Z</time>
      </trkpt>
      <trkpt lat="43.88652" lon="6.56149">
        <ele>1336</ele>
        <time>2018-05-26T12:51:36Z</time>
      </trkpt>
      <trkpt lat="43.88654" lon="6.56147">
        <ele>1336</ele>
        <time>2018-05-26T12:51:37Z</time>
      </trkpt>
      <trkpt lat="43.88655" lon="6.56145">
        <ele>1335</ele>
        <time>2018-05-26T12:51:38Z</time>
      </trkpt>
      <trkpt lat="43.88656" lon="6.56143">
        <ele>1335</ele>
        <time>2018-05-26T12:51:39Z</time>
      </trkpt>
      <trkpt lat="43.88657" lon="6.5614">
        <ele>1334</ele>
        <time>2018-05-26T12:51:40Z</time>
      </trkpt>
      <trkpt lat="43.88659" lon="6.56137">
        <ele>1334</ele>
        <time>2018-05-26T12:51:41Z</time>
      </trkpt>
      <trkpt lat="43.8866" lon="6.56133">
        <ele>1333</ele>
        <time>2018-05-26T12:51:42Z</time>
      </trkpt>
      <trkpt lat="43.88663" lon="6.56128">
        <ele>1332</ele>
        <time>2018-05-26T12:51:44Z</time>
      </trkpt>
      <trkpt lat="43.88666" lon="6.56126">
        <ele>1332</ele>
        <time>2018-05-26T12:51:45Z</time>
      </trkpt>
      <trkpt lat="43.887" lon="6.56116">
        <ele>1335</ele>
        <time>2018-05-26T12:51:56Z</time>
      </trkpt>
      <trkpt lat="43.88715" lon="6.56105">
        <ele>1335</ele>
        <time>2018-05-26T12:52:07Z</time>
      </trkpt>
      <trkpt lat="43.8873" lon="6.56094">
        <ele>1336</ele>
        <time>2018-05-26T12:52:22Z</time>
      </trkpt>
      <trkpt lat="43.88738" lon="6.56083">
        <ele>1336</ele>
        <time>2018-05-26T12:52:37Z</time>
      </trkpt>
      <trkpt lat="43.88748" lon="6.56069">
        <ele>1334</ele>
        <time>2018-05-26T12:52:51Z</time>
      </trkpt>
      <trkpt lat="43.88748" lon="6.56068">
        <ele>1334</ele>
        <time>2018-05-26T12:52:52Z</time>
      </trkpt>
      <trkpt lat="43.88749" lon="6.56065">
        <ele>1333</ele>
        <time>2018-05-26T12:52:53Z</time>
      </trkpt>
      <trkpt lat="43.88749" lon="6.56063">
        <ele>1332</ele>
        <time>2018-05-26T12:52:54Z</time>
      </trkpt>
      <trkpt lat="43.8875" lon="6.5606">
        <ele>1332</ele>
        <time>2018-05-26T12:52:55Z</time>
      </trkpt>
      <trkpt lat="43.88751" lon="6.56057">
        <ele>1331</ele>
        <time>2018-05-26T12:52:56Z</time>
      </trkpt>
      <trkpt lat="43.88752" lon="6.56054">
        <ele>1330</ele>
        <time>2018-05-26T12:52:57Z</time>
      </trkpt>
      <trkpt lat="43.88753" lon="6.5605">
        <ele>1329</ele>
        <time>2018-05-26T12:52:58Z</time>
      </trkpt>
      <trkpt lat="43.88755" lon="6.56048">
        <ele>1329</ele>
        <time>2018-05-26T12:52:59Z</time>
      </trkpt>
      <trkpt lat="43.88757" lon="6.56046">
        <ele>1329</ele>
        <time>2018-05-26T12:53:00Z</time>
      </trkpt>
      <trkpt lat="43.8876" lon="6.56044">
        <ele>1329</ele>
        <time>2018-05-26T12:53:01Z</time>
      </trkpt>
      <trkpt lat="43.88763" lon="6.56043">
        <ele>1329</ele>
        <time>2018-05-26T12:53:02Z</time>
      </trkpt>
      <trkpt lat="43.88766" lon="6.56042">
        <ele>1329</ele>
        <time>2018-05-26T12:53:03Z</time>
      </trkpt>
      <trkpt lat="43.88769" lon="6.56041">
        <ele>1329</ele>
        <time>2018-05-26T12:53:04Z</time>
      </trkpt>
      <trkpt lat="43.888" lon="6.56031">
        <ele>1327</ele>
        <time>2018-05-26T12:53:15Z</time>
      </trkpt>
      <trkpt lat="43.88809" lon="6.56028">
        <ele>1327</ele>
        <time>2018-05-26T12:53:19Z</time>
      </trkpt>
      <trkpt lat="43.88812" lon="6.56028">
        <ele>1326</ele>
        <time>2018-05-26T12:53:20Z</time>
      </trkpt>
      <trkpt lat="43.88837" lon="6.56024">
        <ele>1325</ele>
        <time>2018-05-26T12:53:29Z</time>
      </trkpt>
      <trkpt lat="43.88839" lon="6.56023">
        <ele>1325</ele>
        <time>2018-05-26T12:53:30Z</time>
      </trkpt>
      <trkpt lat="43.88841" lon="6.56021">
        <ele>1325</ele>
        <time>2018-05-26T12:53:31Z</time>
      </trkpt>
      <trkpt lat="43.88842" lon="6.5602">
        <ele>1324</ele>
        <time>2018-05-26T12:53:32Z</time>
      </trkpt>
      <trkpt lat="43.88845" lon="6.56017">
        <ele>1323</ele>
        <time>2018-05-26T12:53:33Z</time>
      </trkpt>
      <trkpt lat="43.88848" lon="6.56015">
        <ele>1323</ele>
        <time>2018-05-26T12:53:34Z</time>
      </trkpt>
      <trkpt lat="43.88851" lon="6.56014">
        <ele>1323</ele>
        <time>2018-05-26T12:53:35Z</time>
      </trkpt>
      <trkpt lat="43.88855" lon="6.56013">
        <ele>1323</ele>
        <time>2018-05-26T12:53:36Z</time>
      </trkpt>
      <trkpt lat="43.88858" lon="6.56011">
        <ele>1323</ele>
        <time>2018-05-26T12:53:37Z</time>
      </trkpt>
      <trkpt lat="43.88861" lon="6.5601">
        <ele>1323</ele>
        <time>2018-05-26T12:53:38Z</time>
      </trkpt>
      <trkpt lat="43.88863" lon="6.5601">
        <ele>1323</ele>
        <time>2018-05-26T12:53:39Z</time>
      </trkpt>
      <trkpt lat="43.88875" lon="6.56009">
        <ele>1325</ele>
        <time>2018-05-26T12:53:49Z</time>
      </trkpt>
      <trkpt lat="43.88882" lon="6.56">
        <ele>1324</ele>
        <time>2018-05-26T12:53:58Z</time>
      </trkpt>
      <trkpt lat="43.88882" lon="6.55999">
        <ele>1324</ele>
        <time>2018-05-26T12:53:59Z</time>
      </trkpt>
      <trkpt lat="43.88883" lon="6.55997">
        <ele>1324</ele>
        <time>2018-05-26T12:54:00Z</time>
      </trkpt>
      <trkpt lat="43.88892" lon="6.55982">
        <ele>1324</ele>
        <time>2018-05-26T12:54:14Z</time>
      </trkpt>
      <trkpt lat="43.88895" lon="6.55973">
        <ele>1324</ele>
        <time>2018-05-26T12:54:20Z</time>
      </trkpt>
      <trkpt lat="43.88896" lon="6.55971">
        <ele>1323</ele>
        <time>2018-05-26T12:54:21Z</time>
      </trkpt>
      <trkpt lat="43.88906" lon="6.5595">
        <ele>1325</ele>
        <time>2018-05-26T12:54:37Z</time>
      </trkpt>
      <trkpt lat="43.88915" lon="6.55932">
        <ele>1327</ele>
        <time>2018-05-26T12:54:52Z</time>
      </trkpt>
      <trkpt lat="43.88916" lon="6.55931">
        <ele>1327</ele>
        <time>2018-05-26T12:54:53Z</time>
      </trkpt>
      <trkpt lat="43.88916" lon="6.55929">
        <ele>1327</ele>
        <time>2018-05-26T12:54:54Z</time>
      </trkpt>
      <trkpt lat="43.88917" lon="6.55928">
        <ele>1327</ele>
        <time>2018-05-26T12:54:55Z</time>
      </trkpt>
      <trkpt lat="43.88918" lon="6.55927">
        <ele>1327</ele>
        <time>2018-05-26T12:54:56Z</time>
      </trkpt>
      <trkpt lat="43.88919" lon="6.55925">
        <ele>1327</ele>
        <time>2018-05-26T12:54:57Z</time>
      </trkpt>
      <trkpt lat="43.8892" lon="6.55924">
        <ele>1327</ele>
        <time>2018-05-26T12:54:58Z</time>
      </trkpt>
      <trkpt lat="43.88921" lon="6.55923">
        <ele>1327</ele>
        <time>2018-05-26T12:54:59Z</time>
      </trkpt>
      <trkpt lat="43.8893" lon="6.55903">
        <ele>1327</ele>
        <time>2018-05-26T12:55:16Z</time>
      </trkpt>
      <trkpt lat="43.88935" lon="6.55896">
        <ele>1328</ele>
        <time>2018-05-26T12:55:31Z</time>
      </trkpt>
      <trkpt lat="43.88937" lon="6.55894">
        <ele>1328</ele>
        <time>2018-05-26T12:55:35Z</time>
      </trkpt>
      <trkpt lat="43.88938" lon="6.55893">
        <ele>1328</ele>
        <time>2018-05-26T12:55:36Z</time>
      </trkpt>
      <trkpt lat="43.8894" lon="6.55892">
        <ele>1329</ele>
        <time>2018-05-26T12:55:38Z</time>
      </trkpt>
      <trkpt lat="43.88957" lon="6.5588">
        <ele>1333</ele>
        <time>2018-05-26T12:55:57Z</time>
      </trkpt>
      <trkpt lat="43.88974" lon="6.55868">
        <ele>1335</ele>
        <time>2018-05-26T12:56:14Z</time>
      </trkpt>
      <trkpt lat="43.88983" lon="6.55859">
        <ele>1336</ele>
        <time>2018-05-26T12:56:26Z</time>
      </trkpt>
      <trkpt lat="43.88995" lon="6.5585">
        <ele>1336</ele>
        <time>2018-05-26T12:56:37Z</time>
      </trkpt>
      <trkpt lat="43.89012" lon="6.55843">
        <ele>1337</ele>
        <time>2018-05-26T12:56:54Z</time>
      </trkpt>
      <trkpt lat="43.8903" lon="6.55836">
        <ele>1338</ele>
        <time>2018-05-26T12:57:10Z</time>
      </trkpt>
      <trkpt lat="43.89039" lon="6.55833">
        <ele>1338</ele>
        <time>2018-05-26T12:57:21Z</time>
      </trkpt>
      <trkpt lat="43.89041" lon="6.55832">
        <ele>1338</ele>
        <time>2018-05-26T12:57:22Z</time>
      </trkpt>
      <trkpt lat="43.89043" lon="6.55831">
        <ele>1338</ele>
        <time>2018-05-26T12:57:23Z</time>
      </trkpt>
      <trkpt lat="43.89045" lon="6.5583">
        <ele>1337</ele>
        <time>2018-05-26T12:57:24Z</time>
      </trkpt>
      <trkpt lat="43.89047" lon="6.55829">
        <ele>1337</ele>
        <time>2018-05-26T12:57:25Z</time>
      </trkpt>
      <trkpt lat="43.89081" lon="6.55815">
        <ele>1337</ele>
        <time>2018-05-26T12:57:35Z</time>
      </trkpt>
      <trkpt lat="43.8909" lon="6.55814">
        <ele>1338</ele>
        <time>2018-05-26T12:57:38Z</time>
      </trkpt>
      <trkpt lat="43.89092" lon="6.55812">
        <ele>1338</ele>
        <time>2018-05-26T12:57:39Z</time>
      </trkpt>
      <trkpt lat="43.89094" lon="6.55811">
        <ele>1338</ele>
        <time>2018-05-26T12:57:40Z</time>
      </trkpt>
      <trkpt lat="43.89096" lon="6.5581">
        <ele>1338</ele>
        <time>2018-05-26T12:57:41Z</time>
      </trkpt>
      <trkpt lat="43.89098" lon="6.55809">
        <ele>1338</ele>
        <time>2018-05-26T12:57:42Z</time>
      </trkpt>
      <trkpt lat="43.891" lon="6.55809">
        <ele>1338</ele>
        <time>2018-05-26T12:57:43Z</time>
      </trkpt>
      <trkpt lat="43.89102" lon="6.55809">
        <ele>1338</ele>
        <time>2018-05-26T12:57:44Z</time>
      </trkpt>
      <trkpt lat="43.89104" lon="6.55808">
        <ele>1338</ele>
        <time>2018-05-26T12:57:45Z</time>
      </trkpt>
      <trkpt lat="43.89106" lon="6.55807">
        <ele>1339</ele>
        <time>2018-05-26T12:57:46Z</time>
      </trkpt>
      <trkpt lat="43.89107" lon="6.55807">
        <ele>1339</ele>
        <time>2018-05-26T12:57:47Z</time>
      </trkpt>
      <trkpt lat="43.89109" lon="6.55806">
        <ele>1339</ele>
        <time>2018-05-26T12:57:48Z</time>
      </trkpt>
      <trkpt lat="43.89115" lon="6.55803">
        <ele>1339</ele>
        <time>2018-05-26T12:57:51Z</time>
      </trkpt>
      <trkpt lat="43.89117" lon="6.55802">
        <ele>1339</ele>
        <time>2018-05-26T12:57:52Z</time>
      </trkpt>
      <trkpt lat="43.89134" lon="6.55788">
        <ele>1339</ele>
        <time>2018-05-26T12:58:04Z</time>
      </trkpt>
      <trkpt lat="43.89137" lon="6.55787">
        <ele>1338</ele>
        <time>2018-05-26T12:58:24Z</time>
      </trkpt>
      <trkpt lat="43.89137" lon="6.55789">
        <ele>1338</ele>
        <time>2018-05-26T12:58:53Z</time>
      </trkpt>
      <trkpt lat="43.89136" lon="6.55789">
        <ele>1338</ele>
        <time>2018-05-26T12:59:27Z</time>
      </trkpt>
      <trkpt lat="43.89135" lon="6.55788">
        <ele>1339</ele>
        <time>2018-05-26T13:00:02Z</time>
      </trkpt>
      <trkpt lat="43.89138" lon="6.55789">
        <ele>1338</ele>
        <time>2018-05-26T13:00:32Z</time>
      </trkpt>
      <trkpt lat="43.89138" lon="6.55785">
        <ele>1338</ele>
        <time>2018-05-26T13:01:03Z</time>
      </trkpt>
      <trkpt lat="43.89141" lon="6.55786">
        <ele>1338</ele>
        <time>2018-05-26T13:01:36Z</time>
      </trkpt>
      <trkpt lat="43.89138" lon="6.55786">
        <ele>1338</ele>
        <time>2018-05-26T13:02:06Z</time>
      </trkpt>
      <trkpt lat="43.89141" lon="6.55785">
        <ele>1338</ele>
        <time>2018-05-26T13:02:40Z</time>
      </trkpt>
      <trkpt lat="43.89138" lon="6.55785">
        <ele>1338</ele>
        <time>2018-05-26T13:03:16Z</time>
      </trkpt>
      <trkpt lat="43.89139" lon="6.55788">
        <ele>1338</ele>
        <time>2018-05-26T13:03:39Z</time>
      </trkpt>
      <trkpt lat="43.8914" lon="6.55789">
        <ele>1338</ele>
        <time>2018-05-26T13:03:40Z</time>
      </trkpt>
      <trkpt lat="43.89141" lon="6.5579">
        <ele>1338</ele>
        <time>2018-05-26T13:03:41Z</time>
      </trkpt>
      <trkpt lat="43.89142" lon="6.55791">
        <ele>1338</ele>
        <time>2018-05-26T13:03:42Z</time>
      </trkpt>
      <trkpt lat="43.89143" lon="6.55793">
        <ele>1338</ele>
        <time>2018-05-26T13:03:43Z</time>
      </trkpt>
      <trkpt lat="43.89143" lon="6.55796">
        <ele>1338</ele>
        <time>2018-05-26T13:03:44Z</time>
      </trkpt>
      <trkpt lat="43.89144" lon="6.55798">
        <ele>1338</ele>
        <time>2018-05-26T13:03:45Z</time>
      </trkpt>
      <trkpt lat="43.89144" lon="6.55801">
        <ele>1338</ele>
        <time>2018-05-26T13:03:46Z</time>
      </trkpt>
      <trkpt lat="43.89145" lon="6.55803">
        <ele>1338</ele>
        <time>2018-05-26T13:03:47Z</time>
      </trkpt>
      <trkpt lat="43.89146" lon="6.55805">
        <ele>1338</ele>
        <time>2018-05-26T13:03:48Z</time>
      </trkpt>
      <trkpt lat="43.89146" lon="6.55807">
        <ele>1338</ele>
        <time>2018-05-26T13:03:49Z</time>
      </trkpt>
      <trkpt lat="43.89147" lon="6.55809">
        <ele>1338</ele>
        <time>2018-05-26T13:04:01Z</time>
      </trkpt>
      <trkpt lat="43.89153" lon="6.55808">
        <ele>1337</ele>
        <time>2018-05-26T13:04:34Z</time>
      </trkpt>
      <trkpt lat="43.8915" lon="6.55807">
        <ele>1338</ele>
        <time>2018-05-26T13:04:58Z</time>
      </trkpt>
      <trkpt lat="43.8915" lon="6.55806">
        <ele>1338</ele>
        <time>2018-05-26T13:05:03Z</time>
      </trkpt>
      <trkpt lat="43.89152" lon="6.55806">
        <ele>1337</ele>
        <time>2018-05-26T13:05:04Z</time>
      </trkpt>
      <trkpt lat="43.89153" lon="6.55805">
        <ele>1337</ele>
        <time>2018-05-26T13:05:05Z</time>
      </trkpt>
      <trkpt lat="43.89159" lon="6.55805">
        <ele>1336</ele>
        <time>2018-05-26T13:05:09Z</time>
      </trkpt>
      <trkpt lat="43.89161" lon="6.55805">
        <ele>1336</ele>
        <time>2018-05-26T13:05:10Z</time>
      </trkpt>
      <trkpt lat="43.89173" lon="6.55802">
        <ele>1334</ele>
        <time>2018-05-26T13:05:20Z</time>
      </trkpt>
      <trkpt lat="43.89175" lon="6.558">
        <ele>1333</ele>
        <time>2018-05-26T13:05:25Z</time>
      </trkpt>
      <trkpt lat="43.89181" lon="6.55791">
        <ele>1331</ele>
        <time>2018-05-26T13:05:32Z</time>
      </trkpt>
      <trkpt lat="43.89186" lon="6.55786">
        <ele>1329</ele>
        <time>2018-05-26T13:05:37Z</time>
      </trkpt>
      <trkpt lat="43.89191" lon="6.55777">
        <ele>1327</ele>
        <time>2018-05-26T13:05:54Z</time>
      </trkpt>
      <trkpt lat="43.89191" lon="6.55775">
        <ele>1326</ele>
        <time>2018-05-26T13:06:15Z</time>
      </trkpt>
      <trkpt lat="43.89198" lon="6.55765">
        <ele>1324</ele>
        <time>2018-05-26T13:06:28Z</time>
      </trkpt>
      <trkpt lat="43.89204" lon="6.55758">
        <ele>1323</ele>
        <time>2018-05-26T13:06:32Z</time>
      </trkpt>
      <trkpt lat="43.89211" lon="6.55749">
        <ele>1321</ele>
        <time>2018-05-26T13:06:43Z</time>
      </trkpt>
      <trkpt lat="43.89217" lon="6.55744">
        <ele>1319</ele>
        <time>2018-05-26T13:06:57Z</time>
      </trkpt>
      <trkpt lat="43.89226" lon="6.55736">
        <ele>1317</ele>
        <time>2018-05-26T13:07:11Z</time>
      </trkpt>
      <trkpt lat="43.89236" lon="6.55727">
        <ele>1313</ele>
        <time>2018-05-26T13:07:25Z</time>
      </trkpt>
      <trkpt lat="43.89242" lon="6.5573">
        <ele>1310</ele>
        <time>2018-05-26T13:07:40Z</time>
      </trkpt>
      <trkpt lat="43.89248" lon="6.55718">
        <ele>1307</ele>
        <time>2018-05-26T13:07:54Z</time>
      </trkpt>
      <trkpt lat="43.89256" lon="6.5572">
        <ele>1304</ele>
        <time>2018-05-26T13:08:10Z</time>
      </trkpt>
      <trkpt lat="43.89258" lon="6.55723">
        <ele>1303</ele>
        <time>2018-05-26T13:08:27Z</time>
      </trkpt>
      <trkpt lat="43.89258" lon="6.55728">
        <ele>1303</ele>
        <time>2018-05-26T13:09:04Z</time>
      </trkpt>
      <trkpt lat="43.89253" lon="6.55727">
        <ele>1305</ele>
        <time>2018-05-26T13:09:29Z</time>
      </trkpt>
      <trkpt lat="43.89259" lon="6.55726">
        <ele>1303</ele>
        <time>2018-05-26T13:09:48Z</time>
      </trkpt>
      <trkpt lat="43.89267" lon="6.55708">
        <ele>1298</ele>
        <time>2018-05-26T13:09:59Z</time>
      </trkpt>
      <trkpt lat="43.89275" lon="6.557">
        <ele>1295</ele>
        <time>2018-05-26T13:10:10Z</time>
      </trkpt>
      <trkpt lat="43.89275" lon="6.55702">
        <ele>1295</ele>
        <time>2018-05-26T13:10:16Z</time>
      </trkpt>
      <trkpt lat="43.89277" lon="6.55702">
        <ele>1294</ele>
        <time>2018-05-26T13:10:18Z</time>
      </trkpt>
      <trkpt lat="43.89279" lon="6.55695">
        <ele>1294</ele>
        <time>2018-05-26T13:10:22Z</time>
      </trkpt>
      <trkpt lat="43.89281" lon="6.55691">
        <ele>1293</ele>
        <time>2018-05-26T13:10:25Z</time>
      </trkpt>
      <trkpt lat="43.8929" lon="6.55683">
        <ele>1289</ele>
        <time>2018-05-26T13:10:38Z</time>
      </trkpt>
      <trkpt lat="43.89299" lon="6.55661">
        <ele>1286</ele>
        <time>2018-05-26T13:10:48Z</time>
      </trkpt>
      <trkpt lat="43.893" lon="6.55658">
        <ele>1285</ele>
        <time>2018-05-26T13:10:49Z</time>
      </trkpt>
      <trkpt lat="43.89304" lon="6.55644">
        <ele>1283</ele>
        <time>2018-05-26T13:11:00Z</time>
      </trkpt>
      <trkpt lat="43.89303" lon="6.55631">
        <ele>1283</ele>
        <time>2018-05-26T13:11:08Z</time>
      </trkpt>
      <trkpt lat="43.89308" lon="6.5561">
        <ele>1278</ele>
        <time>2018-05-26T13:11:23Z</time>
      </trkpt>
      <trkpt lat="43.89317" lon="6.55591">
        <ele>1271</ele>
        <time>2018-05-26T13:11:34Z</time>
      </trkpt>
      <trkpt lat="43.89324" lon="6.55584">
        <ele>1268</ele>
        <time>2018-05-26T13:11:44Z</time>
      </trkpt>
      <trkpt lat="43.89329" lon="6.55561">
        <ele>1266</ele>
        <time>2018-05-26T13:11:57Z</time>
      </trkpt>
      <trkpt lat="43.8933" lon="6.55563">
        <ele>1265</ele>
        <time>2018-05-26T13:11:59Z</time>
      </trkpt>
      <trkpt lat="43.89335" lon="6.55571">
        <ele>1262</ele>
        <time>2018-05-26T13:12:08Z</time>
      </trkpt>
      <trkpt lat="43.89338" lon="6.55578">
        <ele>1260</ele>
        <time>2018-05-26T13:12:16Z</time>
      </trkpt>
      <trkpt lat="43.89337" lon="6.55605">
        <ele>1263</ele>
        <time>2018-05-26T13:12:24Z</time>
      </trkpt>
      <trkpt lat="43.89343" lon="6.55647">
        <ele>1268</ele>
        <time>2018-05-26T13:12:34Z</time>
      </trkpt>
      <trkpt lat="43.89349" lon="6.55664">
        <ele>1269</ele>
        <time>2018-05-26T13:12:46Z</time>
      </trkpt>
      <trkpt lat="43.8935" lon="6.55663">
        <ele>1269</ele>
        <time>2018-05-26T13:12:48Z</time>
      </trkpt>
      <trkpt lat="43.89353" lon="6.55663">
        <ele>1268</ele>
        <time>2018-05-26T13:12:50Z</time>
      </trkpt>
      <trkpt lat="43.89353" lon="6.55652">
        <ele>1265</ele>
        <time>2018-05-26T13:13:01Z</time>
      </trkpt>
      <trkpt lat="43.89368" lon="6.55629">
        <ele>1257</ele>
        <time>2018-05-26T13:13:12Z</time>
      </trkpt>
      <trkpt lat="43.89374" lon="6.55622">
        <ele>1255</ele>
        <time>2018-05-26T13:13:16Z</time>
      </trkpt>
      <trkpt lat="43.89384" lon="6.5561">
        <ele>1251</ele>
        <time>2018-05-26T13:13:26Z</time>
      </trkpt>
      <trkpt lat="43.89388" lon="6.55604">
        <ele>1249</ele>
        <time>2018-05-26T13:13:35Z</time>
      </trkpt>
      <trkpt lat="43.89393" lon="6.55604">
        <ele>1249</ele>
        <time>2018-05-26T13:13:40Z</time>
      </trkpt>
      <trkpt lat="43.89401" lon="6.556">
        <ele>1247</ele>
        <time>2018-05-26T13:13:46Z</time>
      </trkpt>
      <trkpt lat="43.89406" lon="6.55592">
        <ele>1244</ele>
        <time>2018-05-26T13:13:56Z</time>
      </trkpt>
      <trkpt lat="43.89423" lon="6.55581">
        <ele>1240</ele>
        <time>2018-05-26T13:14:05Z</time>
      </trkpt>
      <trkpt lat="43.8943" lon="6.55578">
        <ele>1239</ele>
        <time>2018-05-26T13:14:08Z</time>
      </trkpt>
      <trkpt lat="43.8944" lon="6.55576">
        <ele>1238</ele>
        <time>2018-05-26T13:14:12Z</time>
      </trkpt>
      <trkpt lat="43.8946" lon="6.55569">
        <ele>1235</ele>
        <time>2018-05-26T13:14:20Z</time>
      </trkpt>
      <trkpt lat="43.8949" lon="6.55541">
        <ele>1227</ele>
        <time>2018-05-26T13:14:32Z</time>
      </trkpt>
      <trkpt lat="43.895" lon="6.55533">
        <ele>1225</ele>
        <time>2018-05-26T13:14:37Z</time>
      </trkpt>
      <trkpt lat="43.89509" lon="6.55521">
        <ele>1222</ele>
        <time>2018-05-26T13:14:42Z</time>
      </trkpt>
      <trkpt lat="43.89513" lon="6.55517">
        <ele>1221</ele>
        <time>2018-05-26T13:14:56Z</time>
      </trkpt>
      <trkpt lat="43.89515" lon="6.55515">
        <ele>1220</ele>
        <time>2018-05-26T13:15:19Z</time>
      </trkpt>
      <trkpt lat="43.89524" lon="6.55502">
        <ele>1217</ele>
        <time>2018-05-26T13:15:31Z</time>
      </trkpt>
      <trkpt lat="43.89544" lon="6.5548">
        <ele>1212</ele>
        <time>2018-05-26T13:15:41Z</time>
      </trkpt>
      <trkpt lat="43.89559" lon="6.55482">
        <ele>1210</ele>
        <time>2018-05-26T13:15:47Z</time>
      </trkpt>
      <trkpt lat="43.89575" lon="6.55494">
        <ele>1212</ele>
        <time>2018-05-26T13:15:53Z</time>
      </trkpt>
      <trkpt lat="43.89581" lon="6.55496">
        <ele>1211</ele>
        <time>2018-05-26T13:15:55Z</time>
      </trkpt>
      <trkpt lat="43.89605" lon="6.55507">
        <ele>1209</ele>
        <time>2018-05-26T13:16:04Z</time>
      </trkpt>
      <trkpt lat="43.89619" lon="6.55523">
        <ele>1209</ele>
        <time>2018-05-26T13:16:11Z</time>
      </trkpt>
      <trkpt lat="43.89633" lon="6.55523">
        <ele>1205</ele>
        <time>2018-05-26T13:16:21Z</time>
      </trkpt>
      <trkpt lat="43.89634" lon="6.55524">
        <ele>1205</ele>
        <time>2018-05-26T13:16:24Z</time>
      </trkpt>
      <trkpt lat="43.89649" lon="6.55523">
        <ele>1209</ele>
        <time>2018-05-26T13:16:33Z</time>
      </trkpt>
      <trkpt lat="43.8965" lon="6.55521">
        <ele>1209</ele>
        <time>2018-05-26T13:16:34Z</time>
      </trkpt>
      <trkpt lat="43.89652" lon="6.55516">
        <ele>1208</ele>
        <time>2018-05-26T13:16:40Z</time>
      </trkpt>
      <trkpt lat="43.89652" lon="6.55508">
        <ele>1205</ele>
        <time>2018-05-26T13:16:44Z</time>
      </trkpt>
      <trkpt lat="43.89665" lon="6.55476">
        <ele>1200</ele>
        <time>2018-05-26T13:16:56Z</time>
      </trkpt>
      <trkpt lat="43.89673" lon="6.55457">
        <ele>1196</ele>
        <time>2018-05-26T13:17:06Z</time>
      </trkpt>
      <trkpt lat="43.89678" lon="6.55443">
        <ele>1193</ele>
        <time>2018-05-26T13:17:19Z</time>
      </trkpt>
      <trkpt lat="43.89689" lon="6.55418">
        <ele>1188</ele>
        <time>2018-05-26T13:17:31Z</time>
      </trkpt>
      <trkpt lat="43.8969" lon="6.55416">
        <ele>1188</ele>
        <time>2018-05-26T13:17:33Z</time>
      </trkpt>
      <trkpt lat="43.89697" lon="6.55408">
        <ele>1188</ele>
        <time>2018-05-26T13:17:38Z</time>
      </trkpt>
      <trkpt lat="43.89711" lon="6.55388">
        <ele>1185</ele>
        <time>2018-05-26T13:17:49Z</time>
      </trkpt>
      <trkpt lat="43.89714" lon="6.55376">
        <ele>1182</ele>
        <time>2018-05-26T13:17:59Z</time>
      </trkpt>
      <trkpt lat="43.89716" lon="6.55367">
        <ele>1181</ele>
        <time>2018-05-26T13:18:11Z</time>
      </trkpt>
      <trkpt lat="43.89712" lon="6.55361">
        <ele>1178</ele>
        <time>2018-05-26T13:18:19Z</time>
      </trkpt>
      <trkpt lat="43.89716" lon="6.55349">
        <ele>1177</ele>
        <time>2018-05-26T13:18:35Z</time>
      </trkpt>
      <trkpt lat="43.89724" lon="6.55336">
        <ele>1177</ele>
        <time>2018-05-26T13:18:50Z</time>
      </trkpt>
      <trkpt lat="43.89726" lon="6.55334">
        <ele>1176</ele>
        <time>2018-05-26T13:18:52Z</time>
      </trkpt>
      <trkpt lat="43.89729" lon="6.55319">
        <ele>1174</ele>
        <time>2018-05-26T13:19:04Z</time>
      </trkpt>
      <trkpt lat="43.89731" lon="6.55312">
        <ele>1173</ele>
        <time>2018-05-26T13:19:08Z</time>
      </trkpt>
      <trkpt lat="43.89733" lon="6.55305">
        <ele>1172</ele>
        <time>2018-05-26T13:19:12Z</time>
      </trkpt>
      <trkpt lat="43.89729" lon="6.55291">
        <ele>1168</ele>
        <time>2018-05-26T13:19:25Z</time>
      </trkpt>
      <trkpt lat="43.89731" lon="6.55264">
        <ele>1163</ele>
        <time>2018-05-26T13:19:34Z</time>
      </trkpt>
      <trkpt lat="43.89732" lon="6.55237">
        <ele>1157</ele>
        <time>2018-05-26T13:19:43Z</time>
      </trkpt>
      <trkpt lat="43.89732" lon="6.55232">
        <ele>1156</ele>
        <time>2018-05-26T13:19:44Z</time>
      </trkpt>
      <trkpt lat="43.8974" lon="6.55183">
        <ele>1147</ele>
        <time>2018-05-26T13:19:58Z</time>
      </trkpt>
      <trkpt lat="43.89743" lon="6.55175">
        <ele>1146</ele>
        <time>2018-05-26T13:20:00Z</time>
      </trkpt>
      <trkpt lat="43.89772" lon="6.55132">
        <ele>1144</ele>
        <time>2018-05-26T13:20:12Z</time>
      </trkpt>
      <trkpt lat="43.89778" lon="6.55125">
        <ele>1145</ele>
        <time>2018-05-26T13:20:14Z</time>
      </trkpt>
      <trkpt lat="43.89795" lon="6.55106">
        <ele>1147</ele>
        <time>2018-05-26T13:20:23Z</time>
      </trkpt>
      <trkpt lat="43.89799" lon="6.55101">
        <ele>1148</ele>
        <time>2018-05-26T13:20:27Z</time>
      </trkpt>
      <trkpt lat="43.89804" lon="6.55088">
        <ele>1148</ele>
        <time>2018-05-26T13:20:35Z</time>
      </trkpt>
      <trkpt lat="43.89803" lon="6.5508">
        <ele>1146</ele>
        <time>2018-05-26T13:20:39Z</time>
      </trkpt>
      <trkpt lat="43.89796" lon="6.55066">
        <ele>1142</ele>
        <time>2018-05-26T13:20:48Z</time>
      </trkpt>
      <trkpt lat="43.89797" lon="6.55064">
        <ele>1141</ele>
        <time>2018-05-26T13:20:49Z</time>
      </trkpt>
      <trkpt lat="43.89803" lon="6.55044">
        <ele>1140</ele>
        <time>2018-05-26T13:20:59Z</time>
      </trkpt>
      <trkpt lat="43.89803" lon="6.55042">
        <ele>1139</ele>
        <time>2018-05-26T13:21:00Z</time>
      </trkpt>
      <trkpt lat="43.89802" lon="6.55039">
        <ele>1138</ele>
        <time>2018-05-26T13:21:01Z</time>
      </trkpt>
      <trkpt lat="43.898" lon="6.55033">
        <ele>1137</ele>
        <time>2018-05-26T13:21:03Z</time>
      </trkpt>
      <trkpt lat="43.89801" lon="6.55029">
        <ele>1136</ele>
        <time>2018-05-26T13:21:04Z</time>
      </trkpt>
      <trkpt lat="43.89802" lon="6.55025">
        <ele>1136</ele>
        <time>2018-05-26T13:21:05Z</time>
      </trkpt>
      <trkpt lat="43.89804" lon="6.55021">
        <ele>1136</ele>
        <time>2018-05-26T13:21:06Z</time>
      </trkpt>
      <trkpt lat="43.89806" lon="6.55017">
        <ele>1136</ele>
        <time>2018-05-26T13:21:07Z</time>
      </trkpt>
      <trkpt lat="43.89808" lon="6.55012">
        <ele>1135</ele>
        <time>2018-05-26T13:21:08Z</time>
      </trkpt>
      <trkpt lat="43.89811" lon="6.55008">
        <ele>1136</ele>
        <time>2018-05-26T13:21:09Z</time>
      </trkpt>
      <trkpt lat="43.89813" lon="6.55006">
        <ele>1136</ele>
        <time>2018-05-26T13:21:10Z</time>
      </trkpt>
      <trkpt lat="43.89814" lon="6.55004">
        <ele>1136</ele>
        <time>2018-05-26T13:21:11Z</time>
      </trkpt>
      <trkpt lat="43.89814" lon="6.55001">
        <ele>1136</ele>
        <time>2018-05-26T13:21:12Z</time>
      </trkpt>
      <trkpt lat="43.89814" lon="6.54998">
        <ele>1135</ele>
        <time>2018-05-26T13:21:13Z</time>
      </trkpt>
      <trkpt lat="43.89815" lon="6.54994">
        <ele>1134</ele>
        <time>2018-05-26T13:21:14Z</time>
      </trkpt>
      <trkpt lat="43.89816" lon="6.54989">
        <ele>1134</ele>
        <time>2018-05-26T13:21:15Z</time>
      </trkpt>
      <trkpt lat="43.89817" lon="6.54984">
        <ele>1133</ele>
        <time>2018-05-26T13:21:16Z</time>
      </trkpt>
      <trkpt lat="43.8982" lon="6.54979">
        <ele>1133</ele>
        <time>2018-05-26T13:21:17Z</time>
      </trkpt>
      <trkpt lat="43.89822" lon="6.54974">
        <ele>1133</ele>
        <time>2018-05-26T13:21:18Z</time>
      </trkpt>
      <trkpt lat="43.89824" lon="6.5497">
        <ele>1133</ele>
        <time>2018-05-26T13:21:19Z</time>
      </trkpt>
      <trkpt lat="43.89826" lon="6.54965">
        <ele>1133</ele>
        <time>2018-05-26T13:21:20Z</time>
      </trkpt>
      <trkpt lat="43.89828" lon="6.5496">
        <ele>1133</ele>
        <time>2018-05-26T13:21:21Z</time>
      </trkpt>
      <trkpt lat="43.8983" lon="6.54957">
        <ele>1133</ele>
        <time>2018-05-26T13:21:22Z</time>
      </trkpt>
      <trkpt lat="43.89832" lon="6.54954">
        <ele>1133</ele>
        <time>2018-05-26T13:21:23Z</time>
      </trkpt>
      <trkpt lat="43.89834" lon="6.5495">
        <ele>1133</ele>
        <time>2018-05-26T13:21:24Z</time>
      </trkpt>
      <trkpt lat="43.89835" lon="6.54946">
        <ele>1133</ele>
        <time>2018-05-26T13:21:25Z</time>
      </trkpt>
      <trkpt lat="43.89856" lon="6.54891">
        <ele>1128</ele>
        <time>2018-05-26T13:21:37Z</time>
      </trkpt>
      <trkpt lat="43.8987" lon="6.54845">
        <ele>1123</ele>
        <time>2018-05-26T13:21:48Z</time>
      </trkpt>
      <trkpt lat="43.89884" lon="6.54814">
        <ele>1121</ele>
        <time>2018-05-26T13:21:58Z</time>
      </trkpt>
      <trkpt lat="43.89886" lon="6.54807">
        <ele>1121</ele>
        <time>2018-05-26T13:22:09Z</time>
      </trkpt>
      <trkpt lat="43.89886" lon="6.54806">
        <ele>1121</ele>
        <time>2018-05-26T13:22:10Z</time>
      </trkpt>
      <trkpt lat="43.89886" lon="6.54798">
        <ele>1118</ele>
        <time>2018-05-26T13:22:17Z</time>
      </trkpt>
      <trkpt lat="43.89886" lon="6.54795">
        <ele>1118</ele>
        <time>2018-05-26T13:22:18Z</time>
      </trkpt>
      <trkpt lat="43.89887" lon="6.54793">
        <ele>1118</ele>
        <time>2018-05-26T13:22:19Z</time>
      </trkpt>
      <trkpt lat="43.89888" lon="6.5479">
        <ele>1117</ele>
        <time>2018-05-26T13:22:20Z</time>
      </trkpt>
      <trkpt lat="43.89889" lon="6.54787">
        <ele>1117</ele>
        <time>2018-05-26T13:22:21Z</time>
      </trkpt>
      <trkpt lat="43.8989" lon="6.54777">
        <ele>1115</ele>
        <time>2018-05-26T13:22:25Z</time>
      </trkpt>
      <trkpt lat="43.89891" lon="6.54773">
        <ele>1115</ele>
        <time>2018-05-26T13:22:26Z</time>
      </trkpt>
      <trkpt lat="43.89893" lon="6.54769">
        <ele>1114</ele>
        <time>2018-05-26T13:22:27Z</time>
      </trkpt>
      <trkpt lat="43.89914" lon="6.5473">
        <ele>1115</ele>
        <time>2018-05-26T13:22:38Z</time>
      </trkpt>
      <trkpt lat="43.89927" lon="6.54695">
        <ele>1112</ele>
        <time>2018-05-26T13:22:49Z</time>
      </trkpt>
      <trkpt lat="43.89928" lon="6.54686">
        <ele>1110</ele>
        <time>2018-05-26T13:22:55Z</time>
      </trkpt>
      <trkpt lat="43.89929" lon="6.54683">
        <ele>1110</ele>
        <time>2018-05-26T13:22:57Z</time>
      </trkpt>
      <trkpt lat="43.89929" lon="6.54681">
        <ele>1109</ele>
        <time>2018-05-26T13:22:58Z</time>
      </trkpt>
      <trkpt lat="43.89929" lon="6.5467">
        <ele>1106</ele>
        <time>2018-05-26T13:23:09Z</time>
      </trkpt>
      <trkpt lat="43.89929" lon="6.54663">
        <ele>1104</ele>
        <time>2018-05-26T13:23:18Z</time>
      </trkpt>
      <trkpt lat="43.8993" lon="6.54655">
        <ele>1103</ele>
        <time>2018-05-26T13:23:25Z</time>
      </trkpt>
      <trkpt lat="43.89943" lon="6.54621">
        <ele>1096</ele>
        <time>2018-05-26T13:23:34Z</time>
      </trkpt>
      <trkpt lat="43.89944" lon="6.54619">
        <ele>1096</ele>
        <time>2018-05-26T13:23:45Z</time>
      </trkpt>
      <trkpt lat="43.89944" lon="6.54619">
        <ele>1096</ele>
        <time>2018-05-26T13:24:13Z</time>
      </trkpt>
      <trkpt lat="43.89946" lon="6.54616">
        <ele>1095</ele>
        <time>2018-05-26T13:24:35Z</time>
      </trkpt>
      <trkpt lat="43.89946" lon="6.54614">
        <ele>1095</ele>
        <time>2018-05-26T13:24:36Z</time>
      </trkpt>
      <trkpt lat="43.89947" lon="6.54612">
        <ele>1094</ele>
        <time>2018-05-26T13:24:37Z</time>
      </trkpt>
      <trkpt lat="43.89948" lon="6.5461">
        <ele>1093</ele>
        <time>2018-05-26T13:24:38Z</time>
      </trkpt>
      <trkpt lat="43.8995" lon="6.54608">
        <ele>1093</ele>
        <time>2018-05-26T13:24:39Z</time>
      </trkpt>
      <trkpt lat="43.89952" lon="6.54607">
        <ele>1092</ele>
        <time>2018-05-26T13:24:40Z</time>
      </trkpt>
      <trkpt lat="43.89954" lon="6.54607">
        <ele>1092</ele>
        <time>2018-05-26T13:24:41Z</time>
      </trkpt>
      <trkpt lat="43.89956" lon="6.54606">
        <ele>1091</ele>
        <time>2018-05-26T13:24:42Z</time>
      </trkpt>
      <trkpt lat="43.89963" lon="6.54605">
        <ele>1090</ele>
        <time>2018-05-26T13:24:53Z</time>
      </trkpt>
      <trkpt lat="43.89962" lon="6.54606">
        <ele>1090</ele>
        <time>2018-05-26T13:25:16Z</time>
      </trkpt>
      <trkpt lat="43.89963" lon="6.54603">
        <ele>1090</ele>
        <time>2018-05-26T13:25:41Z</time>
      </trkpt>
      <trkpt lat="43.89964" lon="6.54605">
        <ele>1090</ele>
        <time>2018-05-26T13:26:01Z</time>
      </trkpt>
      <trkpt lat="43.89965" lon="6.54605">
        <ele>1090</ele>
        <time>2018-05-26T13:26:24Z</time>
      </trkpt>
      <trkpt lat="43.89966" lon="6.54607">
        <ele>1090</ele>
        <time>2018-05-26T13:26:25Z</time>
      </trkpt>
      <trkpt lat="43.89982" lon="6.54637">
        <ele>1095</ele>
        <time>2018-05-26T13:26:38Z</time>
      </trkpt>
      <trkpt lat="43.90013" lon="6.54665">
        <ele>1096</ele>
        <time>2018-05-26T13:26:50Z</time>
      </trkpt>
      <trkpt lat="43.90026" lon="6.54679">
        <ele>1097</ele>
        <time>2018-05-26T13:26:54Z</time>
      </trkpt>
      <trkpt lat="43.9003" lon="6.54683">
        <ele>1097</ele>
        <time>2018-05-26T13:26:55Z</time>
      </trkpt>
      <trkpt lat="43.9007" lon="6.54726">
        <ele>1089</ele>
        <time>2018-05-26T13:27:08Z</time>
      </trkpt>
      <trkpt lat="43.90114" lon="6.54781">
        <ele>1082</ele>
        <time>2018-05-26T13:27:21Z</time>
      </trkpt>
      <trkpt lat="43.90136" lon="6.54826">
        <ele>1084</ele>
        <time>2018-05-26T13:27:28Z</time>
      </trkpt>
      <trkpt lat="43.90153" lon="6.54854">
        <ele>1082</ele>
        <time>2018-05-26T13:27:33Z</time>
      </trkpt>
      <trkpt lat="43.90156" lon="6.5486">
        <ele>1082</ele>
        <time>2018-05-26T13:27:34Z</time>
      </trkpt>
      <trkpt lat="43.9016" lon="6.54866">
        <ele>1082</ele>
        <time>2018-05-26T13:27:35Z</time>
      </trkpt>
      <trkpt lat="43.90164" lon="6.5487">
        <ele>1082</ele>
        <time>2018-05-26T13:27:36Z</time>
      </trkpt>
      <trkpt lat="43.90168" lon="6.54872">
        <ele>1081</ele>
        <time>2018-05-26T13:27:37Z</time>
      </trkpt>
      <trkpt lat="43.90172" lon="6.54873">
        <ele>1081</ele>
        <time>2018-05-26T13:27:38Z</time>
      </trkpt>
      <trkpt lat="43.90176" lon="6.54873">
        <ele>1080</ele>
        <time>2018-05-26T13:27:39Z</time>
      </trkpt>
      <trkpt lat="43.90181" lon="6.54874">
        <ele>1080</ele>
        <time>2018-05-26T13:27:40Z</time>
      </trkpt>
      <trkpt lat="43.90186" lon="6.54875">
        <ele>1079</ele>
        <time>2018-05-26T13:27:41Z</time>
      </trkpt>
      <trkpt lat="43.90191" lon="6.54875">
        <ele>1078</ele>
        <time>2018-05-26T13:27:42Z</time>
      </trkpt>
      <trkpt lat="43.90197" lon="6.54876">
        <ele>1077</ele>
        <time>2018-05-26T13:27:43Z</time>
      </trkpt>
      <trkpt lat="43.90202" lon="6.54876">
        <ele>1077</ele>
        <time>2018-05-26T13:27:44Z</time>
      </trkpt>
      <trkpt lat="43.90208" lon="6.54874">
        <ele>1076</ele>
        <time>2018-05-26T13:27:45Z</time>
      </trkpt>
      <trkpt lat="43.90213" lon="6.54871">
        <ele>1075</ele>
        <time>2018-05-26T13:27:46Z</time>
      </trkpt>
      <trkpt lat="43.90235" lon="6.54858">
        <ele>1071</ele>
        <time>2018-05-26T13:27:50Z</time>
      </trkpt>
      <trkpt lat="43.9024" lon="6.54853">
        <ele>1070</ele>
        <time>2018-05-26T13:27:51Z</time>
      </trkpt>
      <trkpt lat="43.90274" lon="6.54824">
        <ele>1064</ele>
        <time>2018-05-26T13:27:59Z</time>
      </trkpt>
      <trkpt lat="43.90279" lon="6.54823">
        <ele>1064</ele>
        <time>2018-05-26T13:28:00Z</time>
      </trkpt>
      <trkpt lat="43.90283" lon="6.54823">
        <ele>1064</ele>
        <time>2018-05-26T13:28:01Z</time>
      </trkpt>
      <trkpt lat="43.90287" lon="6.54824">
        <ele>1064</ele>
        <time>2018-05-26T13:28:02Z</time>
      </trkpt>
      <trkpt lat="43.9029" lon="6.54826">
        <ele>1064</ele>
        <time>2018-05-26T13:28:03Z</time>
      </trkpt>
      <trkpt lat="43.90293" lon="6.5483">
        <ele>1065</ele>
        <time>2018-05-26T13:28:04Z</time>
      </trkpt>
      <trkpt lat="43.90297" lon="6.54834">
        <ele>1066</ele>
        <time>2018-05-26T13:28:05Z</time>
      </trkpt>
      <trkpt lat="43.903" lon="6.5484">
        <ele>1067</ele>
        <time>2018-05-26T13:28:06Z</time>
      </trkpt>
      <trkpt lat="43.90304" lon="6.54844">
        <ele>1068</ele>
        <time>2018-05-26T13:28:07Z</time>
      </trkpt>
      <trkpt lat="43.90309" lon="6.54846">
        <ele>1068</ele>
        <time>2018-05-26T13:28:08Z</time>
      </trkpt>
      <trkpt lat="43.90313" lon="6.54845">
        <ele>1068</ele>
        <time>2018-05-26T13:28:09Z</time>
      </trkpt>
      <trkpt lat="43.90316" lon="6.54841">
        <ele>1067</ele>
        <time>2018-05-26T13:28:10Z</time>
      </trkpt>
      <trkpt lat="43.90319" lon="6.54836">
        <ele>1066</ele>
        <time>2018-05-26T13:28:11Z</time>
      </trkpt>
      <trkpt lat="43.90321" lon="6.54831">
        <ele>1066</ele>
        <time>2018-05-26T13:28:12Z</time>
      </trkpt>
      <trkpt lat="43.90322" lon="6.54825">
        <ele>1065</ele>
        <time>2018-05-26T13:28:13Z</time>
      </trkpt>
      <trkpt lat="43.90323" lon="6.54819">
        <ele>1064</ele>
        <time>2018-05-26T13:28:14Z</time>
      </trkpt>
      <trkpt lat="43.90323" lon="6.54813">
        <ele>1063</ele>
        <time>2018-05-26T13:28:15Z</time>
      </trkpt>
      <trkpt lat="43.90324" lon="6.54808">
        <ele>1062</ele>
        <time>2018-05-26T13:28:16Z</time>
      </trkpt>
      <trkpt lat="43.90337" lon="6.54775">
        <ele>1059</ele>
        <time>2018-05-26T13:28:24Z</time>
      </trkpt>
      <trkpt lat="43.90341" lon="6.54774">
        <ele>1058</ele>
        <time>2018-05-26T13:28:25Z</time>
      </trkpt>
      <trkpt lat="43.90344" lon="6.54776">
        <ele>1058</ele>
        <time>2018-05-26T13:28:26Z</time>
      </trkpt>
      <trkpt lat="43.90347" lon="6.54779">
        <ele>1058</ele>
        <time>2018-05-26T13:28:27Z</time>
      </trkpt>
      <trkpt lat="43.90349" lon="6.54784">
        <ele>1059</ele>
        <time>2018-05-26T13:28:28Z</time>
      </trkpt>
      <trkpt lat="43.90351" lon="6.54789">
        <ele>1059</ele>
        <time>2018-05-26T13:28:29Z</time>
      </trkpt>
      <trkpt lat="43.90353" lon="6.54794">
        <ele>1060</ele>
        <time>2018-05-26T13:28:30Z</time>
      </trkpt>
      <trkpt lat="43.90355" lon="6.548">
        <ele>1060</ele>
        <time>2018-05-26T13:28:31Z</time>
      </trkpt>
      <trkpt lat="43.90361" lon="6.5481">
        <ele>1060</ele>
        <time>2018-05-26T13:28:33Z</time>
      </trkpt>
      <trkpt lat="43.90364" lon="6.54815">
        <ele>1060</ele>
        <time>2018-05-26T13:28:34Z</time>
      </trkpt>
      <trkpt lat="43.90377" lon="6.54833">
        <ele>1061</ele>
        <time>2018-05-26T13:28:38Z</time>
      </trkpt>
      <trkpt lat="43.90381" lon="6.54836">
        <ele>1061</ele>
        <time>2018-05-26T13:28:39Z</time>
      </trkpt>
      <trkpt lat="43.90385" lon="6.54839">
        <ele>1061</ele>
        <time>2018-05-26T13:28:40Z</time>
      </trkpt>
      <trkpt lat="43.9039" lon="6.54842">
        <ele>1060</ele>
        <time>2018-05-26T13:28:41Z</time>
      </trkpt>
      <trkpt lat="43.90396" lon="6.54843">
        <ele>1060</ele>
        <time>2018-05-26T13:28:42Z</time>
      </trkpt>
      <trkpt lat="43.90401" lon="6.54845">
        <ele>1060</ele>
        <time>2018-05-26T13:28:43Z</time>
      </trkpt>
      <trkpt lat="43.9044" lon="6.54843">
        <ele>1056</ele>
        <time>2018-05-26T13:28:50Z</time>
      </trkpt>
      <trkpt lat="43.90464" lon="6.54833">
        <ele>1052</ele>
        <time>2018-05-26T13:28:55Z</time>
      </trkpt>
      <trkpt lat="43.90468" lon="6.54834">
        <ele>1052</ele>
        <time>2018-05-26T13:28:56Z</time>
      </trkpt>
      <trkpt lat="43.90472" lon="6.54837">
        <ele>1052</ele>
        <time>2018-05-26T13:28:57Z</time>
      </trkpt>
      <trkpt lat="43.90476" lon="6.54841">
        <ele>1053</ele>
        <time>2018-05-26T13:28:58Z</time>
      </trkpt>
      <trkpt lat="43.90479" lon="6.54846">
        <ele>1054</ele>
        <time>2018-05-26T13:28:59Z</time>
      </trkpt>
      <trkpt lat="43.90483" lon="6.54851">
        <ele>1055</ele>
        <time>2018-05-26T13:29:00Z</time>
      </trkpt>
      <trkpt lat="43.90488" lon="6.54856">
        <ele>1057</ele>
        <time>2018-05-26T13:29:01Z</time>
      </trkpt>
      <trkpt lat="43.90492" lon="6.5486">
        <ele>1058</ele>
        <time>2018-05-26T13:29:02Z</time>
      </trkpt>
      <trkpt lat="43.90501" lon="6.54866">
        <ele>1060</ele>
        <time>2018-05-26T13:29:04Z</time>
      </trkpt>
      <trkpt lat="43.90505" lon="6.54867">
        <ele>1060</ele>
        <time>2018-05-26T13:29:05Z</time>
      </trkpt>
      <trkpt lat="43.90509" lon="6.54867">
        <ele>1060</ele>
        <time>2018-05-26T13:29:06Z</time>
      </trkpt>
      <trkpt lat="43.90515" lon="6.54866">
        <ele>1060</ele>
        <time>2018-05-26T13:29:07Z</time>
      </trkpt>
      <trkpt lat="43.90519" lon="6.54865">
        <ele>1059</ele>
        <time>2018-05-26T13:29:08Z</time>
      </trkpt>
      <trkpt lat="43.90557" lon="6.54858">
        <ele>1054</ele>
        <time>2018-05-26T13:29:15Z</time>
      </trkpt>
      <trkpt lat="43.90594" lon="6.54847">
        <ele>1047</ele>
        <time>2018-05-26T13:29:23Z</time>
      </trkpt>
      <trkpt lat="43.90599" lon="6.54846">
        <ele>1046</ele>
        <time>2018-05-26T13:29:24Z</time>
      </trkpt>
      <trkpt lat="43.90614" lon="6.54847">
        <ele>1045</ele>
        <time>2018-05-26T13:29:27Z</time>
      </trkpt>
      <trkpt lat="43.90619" lon="6.54848">
        <ele>1044</ele>
        <time>2018-05-26T13:29:28Z</time>
      </trkpt>
      <trkpt lat="43.90623" lon="6.5485">
        <ele>1044</ele>
        <time>2018-05-26T13:29:29Z</time>
      </trkpt>
      <trkpt lat="43.90627" lon="6.54853">
        <ele>1044</ele>
        <time>2018-05-26T13:29:30Z</time>
      </trkpt>
      <trkpt lat="43.90632" lon="6.54856">
        <ele>1044</ele>
        <time>2018-05-26T13:29:31Z</time>
      </trkpt>
      <trkpt lat="43.90647" lon="6.54869">
        <ele>1044</ele>
        <time>2018-05-26T13:29:35Z</time>
      </trkpt>
      <trkpt lat="43.90666" lon="6.54886">
        <ele>1046</ele>
        <time>2018-05-26T13:29:41Z</time>
      </trkpt>
      <trkpt lat="43.90669" lon="6.54883">
        <ele>1045</ele>
        <time>2018-05-26T13:29:42Z</time>
      </trkpt>
      <trkpt lat="43.9067" lon="6.54881">
        <ele>1045</ele>
        <time>2018-05-26T13:29:43Z</time>
      </trkpt>
      <trkpt lat="43.9067" lon="6.54878">
        <ele>1044</ele>
        <time>2018-05-26T13:29:44Z</time>
      </trkpt>
      <trkpt lat="43.90669" lon="6.54874">
        <ele>1043</ele>
        <time>2018-05-26T13:29:45Z</time>
      </trkpt>
      <trkpt lat="43.90664" lon="6.54869">
        <ele>1043</ele>
        <time>2018-05-26T13:29:54Z</time>
      </trkpt>
      <trkpt lat="43.90663" lon="6.54869">
        <ele>1043</ele>
        <time>2018-05-26T13:30:15Z</time>
      </trkpt>
      <trkpt lat="43.90658" lon="6.5486">
        <ele>1041</ele>
        <time>2018-05-26T13:30:20Z</time>
      </trkpt>
      <trkpt lat="43.90633" lon="6.54821">
        <ele>1035</ele>
        <time>2018-05-26T13:30:32Z</time>
      </trkpt>
      <trkpt lat="43.9061" lon="6.54783">
        <ele>1029</ele>
        <time>2018-05-26T13:30:42Z</time>
      </trkpt>
      <trkpt lat="43.90587" lon="6.54777">
        <ele>1030</ele>
        <time>2018-05-26T13:30:48Z</time>
      </trkpt>
      <trkpt lat="43.90543" lon="6.54774">
        <ele>1032</ele>
        <time>2018-05-26T13:31:00Z</time>
      </trkpt>
      <trkpt lat="43.90536" lon="6.5477">
        <ele>1032</ele>
        <time>2018-05-26T13:31:02Z</time>
      </trkpt>
      <trkpt lat="43.90529" lon="6.54764">
        <ele>1031</ele>
        <time>2018-05-26T13:31:04Z</time>
      </trkpt>
      <trkpt lat="43.90501" lon="6.54731">
        <ele>1030</ele>
        <time>2018-05-26T13:31:11Z</time>
      </trkpt>
      <trkpt lat="43.9049" lon="6.54696">
        <ele>1026</ele>
        <time>2018-05-26T13:31:16Z</time>
      </trkpt>
      <trkpt lat="43.90485" lon="6.54672">
        <ele>1022</ele>
        <time>2018-05-26T13:31:25Z</time>
      </trkpt>
      <trkpt lat="43.90485" lon="6.54674">
        <ele>1022</ele>
        <time>2018-05-26T13:31:45Z</time>
      </trkpt>
      <trkpt lat="43.90483" lon="6.54672">
        <ele>1022</ele>
        <time>2018-05-26T13:32:07Z</time>
      </trkpt>
      <trkpt lat="43.90483" lon="6.54672">
        <ele>1022</ele>
        <time>2018-05-26T13:32:08Z</time>
      </trkpt>
      <trkpt lat="43.90464" lon="6.54662">
        <ele>1023</ele>
        <time>2018-05-26T13:32:14Z</time>
      </trkpt>
      <trkpt lat="43.90439" lon="6.54647">
        <ele>1025</ele>
        <time>2018-05-26T13:32:19Z</time>
      </trkpt>
      <trkpt lat="43.90415" lon="6.54638">
        <ele>1026</ele>
        <time>2018-05-26T13:32:25Z</time>
      </trkpt>
      <trkpt lat="43.90419" lon="6.54624">
        <ele>1023</ele>
        <time>2018-05-26T13:32:29Z</time>
      </trkpt>
      <trkpt lat="43.90431" lon="6.54617">
        <ele>1020</ele>
        <time>2018-05-26T13:32:32Z</time>
      </trkpt>
      <trkpt lat="43.90439" lon="6.54609">
        <ele>1018</ele>
        <time>2018-05-26T13:32:34Z</time>
      </trkpt>
      <trkpt lat="43.90464" lon="6.54594">
        <ele>1011</ele>
        <time>2018-05-26T13:32:40Z</time>
      </trkpt>
      <trkpt lat="43.90473" lon="6.54592">
        <ele>1010</ele>
        <time>2018-05-26T13:32:42Z</time>
      </trkpt>
      <trkpt lat="43.90515" lon="6.546">
        <ele>1005</ele>
        <time>2018-05-26T13:32:52Z</time>
      </trkpt>
      <trkpt lat="43.90549" lon="6.5462">
        <ele>1002</ele>
        <time>2018-05-26T13:33:00Z</time>
      </trkpt>
      <trkpt lat="43.90574" lon="6.54621">
        <ele>998</ele>
        <time>2018-05-26T13:33:05Z</time>
      </trkpt>
      <trkpt lat="43.90595" lon="6.54617">
        <ele>994</ele>
        <time>2018-05-26T13:33:14Z</time>
      </trkpt>
      <trkpt lat="43.90613" lon="6.54622">
        <ele>993</ele>
        <time>2018-05-26T13:33:21Z</time>
      </trkpt>
      <trkpt lat="43.9063" lon="6.54614">
        <ele>989</ele>
        <time>2018-05-26T13:33:25Z</time>
      </trkpt>
      <trkpt lat="43.9068" lon="6.54608">
        <ele>982</ele>
        <time>2018-05-26T13:33:38Z</time>
      </trkpt>
      <trkpt lat="43.90682" lon="6.54607">
        <ele>982</ele>
        <time>2018-05-26T13:33:45Z</time>
      </trkpt>
      <trkpt lat="43.90685" lon="6.54595">
        <ele>979</ele>
        <time>2018-05-26T13:33:57Z</time>
      </trkpt>
      <trkpt lat="43.90685" lon="6.54592">
        <ele>978</ele>
        <time>2018-05-26T13:34:15Z</time>
      </trkpt>
      <trkpt lat="43.90682" lon="6.5459">
        <ele>978</ele>
        <time>2018-05-26T13:34:41Z</time>
      </trkpt>
      <trkpt lat="43.90682" lon="6.54589">
        <ele>978</ele>
        <time>2018-05-26T13:34:42Z</time>
      </trkpt>
      <trkpt lat="43.90673" lon="6.54589">
        <ele>979</ele>
        <time>2018-05-26T13:34:47Z</time>
      </trkpt>
      <trkpt lat="43.90668" lon="6.54585">
        <ele>978</ele>
        <time>2018-05-26T13:34:49Z</time>
      </trkpt>
      <trkpt lat="43.90678" lon="6.54559">
        <ele>971</ele>
        <time>2018-05-26T13:34:55Z</time>
      </trkpt>
      <trkpt lat="43.90694" lon="6.54548">
        <ele>966</ele>
        <time>2018-05-26T13:34:59Z</time>
      </trkpt>
      <trkpt lat="43.9072" lon="6.54548">
        <ele>962</ele>
        <time>2018-05-26T13:35:05Z</time>
      </trkpt>
      <trkpt lat="43.90735" lon="6.54552">
        <ele>961</ele>
        <time>2018-05-26T13:35:08Z</time>
      </trkpt>
      <trkpt lat="43.90769" lon="6.54564">
        <ele>958</ele>
        <time>2018-05-26T13:35:15Z</time>
      </trkpt>
      <trkpt lat="43.90782" lon="6.54543">
        <ele>951</ele>
        <time>2018-05-26T13:35:22Z</time>
      </trkpt>
      <trkpt lat="43.9077" lon="6.54515">
        <ele>947</ele>
        <time>2018-05-26T13:35:30Z</time>
      </trkpt>
      <trkpt lat="43.90782" lon="6.54522">
        <ele>947</ele>
        <time>2018-05-26T13:35:34Z</time>
      </trkpt>
      <trkpt lat="43.90806" lon="6.54554">
        <ele>949</ele>
        <time>2018-05-26T13:35:41Z</time>
      </trkpt>
      <trkpt lat="43.90824" lon="6.54565">
        <ele>947</ele>
        <time>2018-05-26T13:35:45Z</time>
      </trkpt>
      <trkpt lat="43.90856" lon="6.54562">
        <ele>938</ele>
        <time>2018-05-26T13:35:53Z</time>
      </trkpt>
      <trkpt lat="43.90862" lon="6.54553">
        <ele>934</ele>
        <time>2018-05-26T13:36:01Z</time>
      </trkpt>
      <trkpt lat="43.90858" lon="6.54549">
        <ele>935</ele>
        <time>2018-05-26T13:36:15Z</time>
      </trkpt>
      <trkpt lat="43.90858" lon="6.54549">
        <ele>936</ele>
        <time>2018-05-26T13:36:52Z</time>
      </trkpt>
      <trkpt lat="43.90856" lon="6.54548">
        <ele>936</ele>
        <time>2018-05-26T13:37:34Z</time>
      </trkpt>
      <trkpt lat="43.90858" lon="6.5455">
        <ele>936</ele>
        <time>2018-05-26T13:38:19Z</time>
      </trkpt>
      <trkpt lat="43.90857" lon="6.54551">
        <ele>936</ele>
        <time>2018-05-26T13:38:57Z</time>
      </trkpt>
      <trkpt lat="43.90853" lon="6.5455">
        <ele>938</ele>
        <time>2018-05-26T13:39:48Z</time>
      </trkpt>
      <trkpt lat="43.90855" lon="6.54547">
        <ele>937</ele>
        <time>2018-05-26T13:40:33Z</time>
      </trkpt>
      <trkpt lat="43.90854" lon="6.54549">
        <ele>937</ele>
        <time>2018-05-26T13:41:15Z</time>
      </trkpt>
      <trkpt lat="43.90856" lon="6.54548">
        <ele>936</ele>
        <time>2018-05-26T13:41:58Z</time>
      </trkpt>
      <trkpt lat="43.90856" lon="6.54549">
        <ele>936</ele>
        <time>2018-05-26T13:42:37Z</time>
      </trkpt>
      <trkpt lat="43.90856" lon="6.54548">
        <ele>936</ele>
        <time>2018-05-26T13:43:19Z</time>
      </trkpt>
      <trkpt lat="43.90855" lon="6.54548">
        <ele>936</ele>
        <time>2018-05-26T13:44:02Z</time>
      </trkpt>
      <trkpt lat="43.90856" lon="6.54549">
        <ele>936</ele>
        <time>2018-05-26T13:44:45Z</time>
      </trkpt>
      <trkpt lat="43.90857" lon="6.54547">
        <ele>936</ele>
        <time>2018-05-26T13:45:25Z</time>
      </trkpt>
      <trkpt lat="43.90857" lon="6.54548">
        <ele>936</ele>
        <time>2018-05-26T13:46:06Z</time>
      </trkpt>
      <trkpt lat="43.90858" lon="6.54549">
        <ele>935</ele>
        <time>2018-05-26T13:46:41Z</time>
      </trkpt>
      <trkpt lat="43.90858" lon="6.54551">
        <ele>935</ele>
        <time>2018-05-26T13:47:13Z</time>
      </trkpt>
      <trkpt lat="43.90858" lon="6.54547">
        <ele>935</ele>
        <time>2018-05-26T13:47:56Z</time>
      </trkpt>
      <trkpt lat="43.90856" lon="6.5455">
        <ele>936</ele>
        <time>2018-05-26T13:48:22Z</time>
      </trkpt>
      <trkpt lat="43.90856" lon="6.54548">
        <ele>936</ele>
        <time>2018-05-26T13:49:11Z</time>
      </trkpt>
      <trkpt lat="43.90858" lon="6.54547">
        <ele>935</ele>
        <time>2018-05-26T13:49:51Z</time>
      </trkpt>
      <trkpt lat="43.90858" lon="6.5455">
        <ele>935</ele>
        <time>2018-05-26T13:50:27Z</time>
      </trkpt>
      <trkpt lat="43.90858" lon="6.54549">
        <ele>936</ele>
        <time>2018-05-26T13:51:06Z</time>
      </trkpt>
      <trkpt lat="43.9086" lon="6.5455">
        <ele>935</ele>
        <time>2018-05-26T13:51:48Z</time>
      </trkpt>
      <trkpt lat="43.90862" lon="6.54551">
        <ele>934</ele>
        <time>2018-05-26T13:52:21Z</time>
      </trkpt>
      <trkpt lat="43.90857" lon="6.54551">
        <ele>936</ele>
        <time>2018-05-26T13:53:00Z</time>
      </trkpt>
      <trkpt lat="43.9086" lon="6.54549">
        <ele>935</ele>
        <time>2018-05-26T13:53:30Z</time>
      </trkpt>
      <trkpt lat="43.90858" lon="6.54549">
        <ele>935</ele>
        <time>2018-05-26T13:53:54Z</time>
      </trkpt>
      <trkpt lat="43.90857" lon="6.54548">
        <ele>936</ele>
        <time>2018-05-26T13:54:34Z</time>
      </trkpt>
      <trkpt lat="43.9086" lon="6.5455">
        <ele>935</ele>
        <time>2018-05-26T13:54:56Z</time>
      </trkpt>
      <trkpt lat="43.90863" lon="6.54553">
        <ele>934</ele>
        <time>2018-05-26T13:55:07Z</time>
      </trkpt>
      <trkpt lat="43.90863" lon="6.54552">
        <ele>934</ele>
        <time>2018-05-26T13:55:27Z</time>
      </trkpt>
      <trkpt lat="43.90863" lon="6.54549">
        <ele>934</ele>
        <time>2018-05-26T13:55:46Z</time>
      </trkpt>
      <trkpt lat="43.90864" lon="6.54547">
        <ele>933</ele>
        <time>2018-05-26T13:56:06Z</time>
      </trkpt>
      <trkpt lat="43.90865" lon="6.54547">
        <ele>932</ele>
        <time>2018-05-26T13:56:30Z</time>
      </trkpt>
      <trkpt lat="43.90863" lon="6.54545">
        <ele>933</ele>
        <time>2018-05-26T13:56:55Z</time>
      </trkpt>
      <trkpt lat="43.90863" lon="6.54545">
        <ele>933</ele>
        <time>2018-05-26T13:57:18Z</time>
      </trkpt>
      <trkpt lat="43.90865" lon="6.54549">
        <ele>933</ele>
        <time>2018-05-26T13:57:39Z</time>
      </trkpt>
      <trkpt lat="43.90865" lon="6.54546">
        <ele>932</ele>
        <time>2018-05-26T13:57:56Z</time>
      </trkpt>
      <trkpt lat="43.90863" lon="6.54534">
        <ele>932</ele>
        <time>2018-05-26T13:58:03Z</time>
      </trkpt>
      <trkpt lat="43.90861" lon="6.54532">
        <ele>932</ele>
        <time>2018-05-26T13:58:04Z</time>
      </trkpt>
      <trkpt lat="43.9086" lon="6.54531">
        <ele>933</ele>
        <time>2018-05-26T13:58:05Z</time>
      </trkpt>
      <trkpt lat="43.90859" lon="6.54529">
        <ele>933</ele>
        <time>2018-05-26T13:58:06Z</time>
      </trkpt>
      <trkpt lat="43.90858" lon="6.54526">
        <ele>933</ele>
        <time>2018-05-26T13:58:07Z</time>
      </trkpt>
      <trkpt lat="43.90857" lon="6.54524">
        <ele>933</ele>
        <time>2018-05-26T13:58:08Z</time>
      </trkpt>
      <trkpt lat="43.90857" lon="6.54518">
        <ele>933</ele>
        <time>2018-05-26T13:58:17Z</time>
      </trkpt>
      <trkpt lat="43.90856" lon="6.54516">
        <ele>934</ele>
        <time>2018-05-26T13:58:18Z</time>
      </trkpt>
      <trkpt lat="43.90846" lon="6.54509">
        <ele>938</ele>
        <time>2018-05-26T13:58:27Z</time>
      </trkpt>
      <trkpt lat="43.90836" lon="6.54499">
        <ele>939</ele>
        <time>2018-05-26T13:58:30Z</time>
      </trkpt>
      <trkpt lat="43.90832" lon="6.54496">
        <ele>939</ele>
        <time>2018-05-26T13:58:31Z</time>
      </trkpt>
      <trkpt lat="43.90824" lon="6.54491">
        <ele>938</ele>
        <time>2018-05-26T13:58:33Z</time>
      </trkpt>
      <trkpt lat="43.90822" lon="6.54486">
        <ele>938</ele>
        <time>2018-05-26T13:58:34Z</time>
      </trkpt>
      <trkpt lat="43.90827" lon="6.54468">
        <ele>936</ele>
        <time>2018-05-26T13:58:38Z</time>
      </trkpt>
      <trkpt lat="43.9083" lon="6.54465">
        <ele>936</ele>
        <time>2018-05-26T13:58:39Z</time>
      </trkpt>
      <trkpt lat="43.90834" lon="6.54466">
        <ele>936</ele>
        <time>2018-05-26T13:58:40Z</time>
      </trkpt>
      <trkpt lat="43.90837" lon="6.54468">
        <ele>937</ele>
        <time>2018-05-26T13:58:41Z</time>
      </trkpt>
      <trkpt lat="43.9084" lon="6.5447">
        <ele>937</ele>
        <time>2018-05-26T13:58:42Z</time>
      </trkpt>
      <trkpt lat="43.90853" lon="6.54482">
        <ele>935</ele>
        <time>2018-05-26T13:58:46Z</time>
      </trkpt>
      <trkpt lat="43.90861" lon="6.54495">
        <ele>932</ele>
        <time>2018-05-26T13:58:49Z</time>
      </trkpt>
      <trkpt lat="43.90864" lon="6.545">
        <ele>930</ele>
        <time>2018-05-26T13:58:50Z</time>
      </trkpt>
      <trkpt lat="43.9087" lon="6.54509">
        <ele>928</ele>
        <time>2018-05-26T13:58:52Z</time>
      </trkpt>
      <trkpt lat="43.90914" lon="6.5461">
        <ele>919</ele>
        <time>2018-05-26T13:59:08Z</time>
      </trkpt>
      <trkpt lat="43.9092" lon="6.54624">
        <ele>919</ele>
        <time>2018-05-26T13:59:10Z</time>
      </trkpt>
      <trkpt lat="43.90961" lon="6.54708">
        <ele>919</ele>
        <time>2018-05-26T13:59:21Z</time>
      </trkpt>
      <trkpt lat="43.90977" lon="6.54728">
        <ele>916</ele>
        <time>2018-05-26T13:59:24Z</time>
      </trkpt>
      <trkpt lat="43.90982" lon="6.54734">
        <ele>915</ele>
        <time>2018-05-26T13:59:25Z</time>
      </trkpt>
      <trkpt lat="43.90992" lon="6.54749">
        <ele>913</ele>
        <time>2018-05-26T13:59:27Z</time>
      </trkpt>
      <trkpt lat="43.91" lon="6.54766">
        <ele>913</ele>
        <time>2018-05-26T13:59:29Z</time>
      </trkpt>
      <trkpt lat="43.91006" lon="6.54783">
        <ele>914</ele>
        <time>2018-05-26T13:59:31Z</time>
      </trkpt>
      <trkpt lat="43.91008" lon="6.54793">
        <ele>913</ele>
        <time>2018-05-26T13:59:32Z</time>
      </trkpt>
      <trkpt lat="43.91018" lon="6.54851">
        <ele>909</ele>
        <time>2018-05-26T13:59:38Z</time>
      </trkpt>
      <trkpt lat="43.91022" lon="6.5486">
        <ele>909</ele>
        <time>2018-05-26T13:59:39Z</time>
      </trkpt>
      <trkpt lat="43.91026" lon="6.54868">
        <ele>909</ele>
        <time>2018-05-26T13:59:40Z</time>
      </trkpt>
      <trkpt lat="43.91052" lon="6.54908">
        <ele>908</ele>
        <time>2018-05-26T13:59:45Z</time>
      </trkpt>
      <trkpt lat="43.91056" lon="6.54918">
        <ele>906</ele>
        <time>2018-05-26T13:59:46Z</time>
      </trkpt>
      <trkpt lat="43.9106" lon="6.54928">
        <ele>904</ele>
        <time>2018-05-26T13:59:47Z</time>
      </trkpt>
      <trkpt lat="43.91062" lon="6.54939">
        <ele>903</ele>
        <time>2018-05-26T13:59:48Z</time>
      </trkpt>
      <trkpt lat="43.91062" lon="6.54951">
        <ele>903</ele>
        <time>2018-05-26T13:59:49Z</time>
      </trkpt>
      <trkpt lat="43.9106" lon="6.54962">
        <ele>904</ele>
        <time>2018-05-26T13:59:50Z</time>
      </trkpt>
      <trkpt lat="43.91058" lon="6.54973">
        <ele>905</ele>
        <time>2018-05-26T13:59:51Z</time>
      </trkpt>
      <trkpt lat="43.91053" lon="6.55007">
        <ele>910</ele>
        <time>2018-05-26T13:59:54Z</time>
      </trkpt>
      <trkpt lat="43.91053" lon="6.55018">
        <ele>910</ele>
        <time>2018-05-26T13:59:55Z</time>
      </trkpt>
      <trkpt lat="43.91054" lon="6.55029">
        <ele>910</ele>
        <time>2018-05-26T13:59:56Z</time>
      </trkpt>
      <trkpt lat="43.91058" lon="6.55039">
        <ele>910</ele>
        <time>2018-05-26T13:59:57Z</time>
      </trkpt>
      <trkpt lat="43.91063" lon="6.55047">
        <ele>911</ele>
        <time>2018-05-26T13:59:58Z</time>
      </trkpt>
      <trkpt lat="43.91069" lon="6.55055">
        <ele>910</ele>
        <time>2018-05-26T13:59:59Z</time>
      </trkpt>
      <trkpt lat="43.91077" lon="6.5506">
        <ele>909</ele>
        <time>2018-05-26T14:00:00Z</time>
      </trkpt>
      <trkpt lat="43.91084" lon="6.55065">
        <ele>908</ele>
        <time>2018-05-26T14:00:01Z</time>
      </trkpt>
      <trkpt lat="43.91099" lon="6.55076">
        <ele>906</ele>
        <time>2018-05-26T14:00:03Z</time>
      </trkpt>
      <trkpt lat="43.91107" lon="6.55083">
        <ele>907</ele>
        <time>2018-05-26T14:00:04Z</time>
      </trkpt>
      <trkpt lat="43.91194" lon="6.55145">
        <ele>904</ele>
        <time>2018-05-26T14:00:15Z</time>
      </trkpt>
      <trkpt lat="43.91201" lon="6.55152">
        <ele>903</ele>
        <time>2018-05-26T14:00:16Z</time>
      </trkpt>
      <trkpt lat="43.91207" lon="6.55159">
        <ele>902</ele>
        <time>2018-05-26T14:00:17Z</time>
      </trkpt>
      <trkpt lat="43.91264" lon="6.55242">
        <ele>899</ele>
        <time>2018-05-26T14:00:28Z</time>
      </trkpt>
      <trkpt lat="43.9127" lon="6.55247">
        <ele>900</ele>
        <time>2018-05-26T14:00:29Z</time>
      </trkpt>
      <trkpt lat="43.91276" lon="6.55249">
        <ele>903</ele>
        <time>2018-05-26T14:00:30Z</time>
      </trkpt>
      <trkpt lat="43.91284" lon="6.55248">
        <ele>904</ele>
        <time>2018-05-26T14:00:31Z</time>
      </trkpt>
      <trkpt lat="43.9129" lon="6.55245">
        <ele>905</ele>
        <time>2018-05-26T14:00:32Z</time>
      </trkpt>
      <trkpt lat="43.91294" lon="6.55238">
        <ele>906</ele>
        <time>2018-05-26T14:00:33Z</time>
      </trkpt>
      <trkpt lat="43.91298" lon="6.5523">
        <ele>905</ele>
        <time>2018-05-26T14:00:34Z</time>
      </trkpt>
      <trkpt lat="43.913" lon="6.55222">
        <ele>905</ele>
        <time>2018-05-26T14:00:35Z</time>
      </trkpt>
      <trkpt lat="43.91302" lon="6.55212">
        <ele>904</ele>
        <time>2018-05-26T14:00:36Z</time>
      </trkpt>
      <trkpt lat="43.91313" lon="6.55128">
        <ele>906</ele>
        <time>2018-05-26T14:00:48Z</time>
      </trkpt>
      <trkpt lat="43.91311" lon="6.55077">
        <ele>911</ele>
        <time>2018-05-26T14:01:02Z</time>
      </trkpt>
      <trkpt lat="43.91287" lon="6.55038">
        <ele>908</ele>
        <time>2018-05-26T14:01:18Z</time>
      </trkpt>
      <trkpt lat="43.91254" lon="6.55016">
        <ele>901</ele>
        <time>2018-05-26T14:01:34Z</time>
      </trkpt>
      <trkpt lat="43.91245" lon="6.54974">
        <ele>905</ele>
        <time>2018-05-26T14:01:49Z</time>
      </trkpt>
      <trkpt lat="43.91254" lon="6.54924">
        <ele>912</ele>
        <time>2018-05-26T14:02:08Z</time>
      </trkpt>
      <trkpt lat="43.91263" lon="6.54879">
        <ele>911</ele>
        <time>2018-05-26T14:02:24Z</time>
      </trkpt>
      <trkpt lat="43.91281" lon="6.54847">
        <ele>915</ele>
        <time>2018-05-26T14:02:38Z</time>
      </trkpt>
      <trkpt lat="43.91305" lon="6.54816">
        <ele>920</ele>
        <time>2018-05-26T14:02:53Z</time>
      </trkpt>
      <trkpt lat="43.91313" lon="6.54776">
        <ele>920</ele>
        <time>2018-05-26T14:03:06Z</time>
      </trkpt>
      <trkpt lat="43.91312" lon="6.54732">
        <ele>915</ele>
        <time>2018-05-26T14:03:20Z</time>
      </trkpt>
      <trkpt lat="43.91325" lon="6.54693">
        <ele>918</ele>
        <time>2018-05-26T14:03:33Z</time>
      </trkpt>
      <trkpt lat="43.91343" lon="6.54653">
        <ele>922</ele>
        <time>2018-05-26T14:03:49Z</time>
      </trkpt>
      <trkpt lat="43.91349" lon="6.54609">
        <ele>921</ele>
        <time>2018-05-26T14:04:03Z</time>
      </trkpt>
      <trkpt lat="43.91357" lon="6.54553">
        <ele>923</ele>
        <time>2018-05-26T14:04:22Z</time>
      </trkpt>
      <trkpt lat="43.91369" lon="6.5451">
        <ele>924</ele>
        <time>2018-05-26T14:04:36Z</time>
      </trkpt>
      <trkpt lat="43.91389" lon="6.545">
        <ele>928</ele>
        <time>2018-05-26T14:04:47Z</time>
      </trkpt>
      <trkpt lat="43.91388" lon="6.54496">
        <ele>927</ele>
        <time>2018-05-26T14:05:00Z</time>
      </trkpt>
      <trkpt lat="43.91388" lon="6.54497">
        <ele>927</ele>
        <time>2018-05-26T14:05:16Z</time>
      </trkpt>
      <trkpt lat="43.91395" lon="6.54499">
        <ele>929</ele>
        <time>2018-05-26T14:05:24Z</time>
      </trkpt>
      <trkpt lat="43.91396" lon="6.54498">
        <ele>929</ele>
        <time>2018-05-26T14:05:25Z</time>
      </trkpt>
      <trkpt lat="43.91397" lon="6.54497">
        <ele>929</ele>
        <time>2018-05-26T14:05:26Z</time>
      </trkpt>
      <trkpt lat="43.91398" lon="6.54496">
        <ele>929</ele>
        <time>2018-05-26T14:05:27Z</time>
      </trkpt>
      <trkpt lat="43.914" lon="6.54496">
        <ele>929</ele>
        <time>2018-05-26T14:05:28Z</time>
      </trkpt>
      <trkpt lat="43.91401" lon="6.54495">
        <ele>929</ele>
        <time>2018-05-26T14:05:29Z</time>
      </trkpt>
      <trkpt lat="43.914" lon="6.54494">
        <ele>929</ele>
        <time>2018-05-26T14:05:41Z</time>
      </trkpt>
      <trkpt lat="43.914" lon="6.54494">
        <ele>929</ele>
        <time>2018-05-26T14:06:04Z</time>
      </trkpt>
      <trkpt lat="43.914" lon="6.54495">
        <ele>929</ele>
        <time>2018-05-26T14:06:32Z</time>
      </trkpt>
      <trkpt lat="43.91399" lon="6.54492">
        <ele>928</ele>
        <time>2018-05-26T14:06:33Z</time>
      </trkpt>
      <trkpt lat="43.91398" lon="6.5449">
        <ele>928</ele>
        <time>2018-05-26T14:06:34Z</time>
      </trkpt>
      <trkpt lat="43.91397" lon="6.54488">
        <ele>927</ele>
        <time>2018-05-26T14:06:35Z</time>
      </trkpt>
      <trkpt lat="43.91395" lon="6.54487">
        <ele>927</ele>
        <time>2018-05-26T14:06:36Z</time>
      </trkpt>
      <trkpt lat="43.91393" lon="6.54487">
        <ele>927</ele>
        <time>2018-05-26T14:06:37Z</time>
      </trkpt>
      <trkpt lat="43.91389" lon="6.54489">
        <ele>926</ele>
        <time>2018-05-26T14:06:41Z</time>
      </trkpt>
      <trkpt lat="43.91388" lon="6.5449">
        <ele>926</ele>
        <time>2018-05-26T14:06:42Z</time>
      </trkpt>
      <trkpt lat="43.91387" lon="6.5449">
        <ele>926</ele>
        <time>2018-05-26T14:06:43Z</time>
      </trkpt>
      <trkpt lat="43.91386" lon="6.54491">
        <ele>926</ele>
        <time>2018-05-26T14:06:44Z</time>
      </trkpt>
      <trkpt lat="43.91382" lon="6.5449">
        <ele>925</ele>
        <time>2018-05-26T14:06:57Z</time>
      </trkpt>
      <trkpt lat="43.91382" lon="6.54492">
        <ele>925</ele>
        <time>2018-05-26T14:07:20Z</time>
      </trkpt>
      <trkpt lat="43.91381" lon="6.54491">
        <ele>925</ele>
        <time>2018-05-26T14:07:46Z</time>
      </trkpt>
      <trkpt lat="43.91383" lon="6.54492">
        <ele>926</ele>
        <time>2018-05-26T14:07:56Z</time>
      </trkpt>
      <trkpt lat="43.91383" lon="6.54494">
        <ele>926</ele>
        <time>2018-05-26T14:07:57Z</time>
      </trkpt>
      <trkpt lat="43.91385" lon="6.54496">
        <ele>927</ele>
        <time>2018-05-26T14:07:58Z</time>
      </trkpt>
      <trkpt lat="43.91387" lon="6.54497">
        <ele>927</ele>
        <time>2018-05-26T14:07:59Z</time>
      </trkpt>
      <trkpt lat="43.91389" lon="6.54497">
        <ele>927</ele>
        <time>2018-05-26T14:08:00Z</time>
      </trkpt>
      <trkpt lat="43.91391" lon="6.54497">
        <ele>928</ele>
        <time>2018-05-26T14:08:01Z</time>
      </trkpt>
      <trkpt lat="43.91398" lon="6.54493">
        <ele>928</ele>
        <time>2018-05-26T14:08:04Z</time>
      </trkpt>
      <trkpt lat="43.91401" lon="6.54489">
        <ele>928</ele>
        <time>2018-05-26T14:08:05Z</time>
      </trkpt>
      <trkpt lat="43.91403" lon="6.54486">
        <ele>928</ele>
        <time>2018-05-26T14:08:06Z</time>
      </trkpt>
      <trkpt lat="43.91405" lon="6.54485">
        <ele>928</ele>
        <time>2018-05-26T14:08:15Z</time>
      </trkpt>
      <trkpt lat="43.91405" lon="6.54482">
        <ele>928</ele>
        <time>2018-05-26T14:08:33Z</time>
      </trkpt>
      <trkpt lat="43.91404" lon="6.54484">
        <ele>928</ele>
        <time>2018-05-26T14:08:50Z</time>
      </trkpt>
      <trkpt lat="43.91405" lon="6.5448">
        <ele>927</ele>
        <time>2018-05-26T14:09:14Z</time>
      </trkpt>
      <trkpt lat="43.91405" lon="6.54478">
        <ele>927</ele>
        <time>2018-05-26T14:09:15Z</time>
      </trkpt>
      <trkpt lat="43.91421" lon="6.54452">
        <ele>925</ele>
        <time>2018-05-26T14:09:22Z</time>
      </trkpt>
      <trkpt lat="43.91461" lon="6.5439">
        <ele>923</ele>
        <time>2018-05-26T14:09:34Z</time>
      </trkpt>
      <trkpt lat="43.91484" lon="6.54351">
        <ele>921</ele>
        <time>2018-05-26T14:09:40Z</time>
      </trkpt>
      <trkpt lat="43.91487" lon="6.54344">
        <ele>921</ele>
        <time>2018-05-26T14:09:41Z</time>
      </trkpt>
      <trkpt lat="43.9149" lon="6.54336">
        <ele>920</ele>
        <time>2018-05-26T14:09:42Z</time>
      </trkpt>
      <trkpt lat="43.91492" lon="6.54328">
        <ele>919</ele>
        <time>2018-05-26T14:09:43Z</time>
      </trkpt>
      <trkpt lat="43.91494" lon="6.5432">
        <ele>918</ele>
        <time>2018-05-26T14:09:44Z</time>
      </trkpt>
      <trkpt lat="43.91495" lon="6.54312">
        <ele>917</ele>
        <time>2018-05-26T14:09:45Z</time>
      </trkpt>
      <trkpt lat="43.91504" lon="6.54266">
        <ele>915</ele>
        <time>2018-05-26T14:09:51Z</time>
      </trkpt>
      <trkpt lat="43.91506" lon="6.54244">
        <ele>914</ele>
        <time>2018-05-26T14:09:54Z</time>
      </trkpt>
      <trkpt lat="43.91507" lon="6.54236">
        <ele>914</ele>
        <time>2018-05-26T14:09:55Z</time>
      </trkpt>
      <trkpt lat="43.91507" lon="6.54228">
        <ele>913</ele>
        <time>2018-05-26T14:09:56Z</time>
      </trkpt>
      <trkpt lat="43.91513" lon="6.54181">
        <ele>913</ele>
        <time>2018-05-26T14:10:03Z</time>
      </trkpt>
      <trkpt lat="43.91512" lon="6.54175">
        <ele>913</ele>
        <time>2018-05-26T14:10:04Z</time>
      </trkpt>
      <trkpt lat="43.9151" lon="6.5417">
        <ele>913</ele>
        <time>2018-05-26T14:10:05Z</time>
      </trkpt>
      <trkpt lat="43.91506" lon="6.54168">
        <ele>913</ele>
        <time>2018-05-26T14:10:06Z</time>
      </trkpt>
      <trkpt lat="43.91503" lon="6.54167">
        <ele>913</ele>
        <time>2018-05-26T14:10:07Z</time>
      </trkpt>
      <trkpt lat="43.91499" lon="6.54167">
        <ele>913</ele>
        <time>2018-05-26T14:10:08Z</time>
      </trkpt>
      <trkpt lat="43.91495" lon="6.54168">
        <ele>913</ele>
        <time>2018-05-26T14:10:09Z</time>
      </trkpt>
      <trkpt lat="43.91491" lon="6.5417">
        <ele>913</ele>
        <time>2018-05-26T14:10:10Z</time>
      </trkpt>
      <trkpt lat="43.91473" lon="6.5418">
        <ele>913</ele>
        <time>2018-05-26T14:10:15Z</time>
      </trkpt>
      <trkpt lat="43.9147" lon="6.54177">
        <ele>913</ele>
        <time>2018-05-26T14:10:16Z</time>
      </trkpt>
      <trkpt lat="43.91468" lon="6.54174">
        <ele>914</ele>
        <time>2018-05-26T14:10:17Z</time>
      </trkpt>
      <trkpt lat="43.91466" lon="6.5417">
        <ele>914</ele>
        <time>2018-05-26T14:10:18Z</time>
      </trkpt>
      <trkpt lat="43.91465" lon="6.54166">
        <ele>914</ele>
        <time>2018-05-26T14:10:19Z</time>
      </trkpt>
      <trkpt lat="43.91464" lon="6.54162">
        <ele>915</ele>
        <time>2018-05-26T14:10:20Z</time>
      </trkpt>
      <trkpt lat="43.91464" lon="6.54158">
        <ele>915</ele>
        <time>2018-05-26T14:10:21Z</time>
      </trkpt>
      <trkpt lat="43.91462" lon="6.54132">
        <ele>917</ele>
        <time>2018-05-26T14:10:30Z</time>
      </trkpt>
      <trkpt lat="43.91465" lon="6.54121">
        <ele>917</ele>
        <time>2018-05-26T14:10:34Z</time>
      </trkpt>
      <trkpt lat="43.91464" lon="6.54119">
        <ele>917</ele>
        <time>2018-05-26T14:10:35Z</time>
      </trkpt>
      <trkpt lat="43.91462" lon="6.54119">
        <ele>918</ele>
        <time>2018-05-26T14:10:36Z</time>
      </trkpt>
      <trkpt lat="43.91461" lon="6.54121">
        <ele>918</ele>
        <time>2018-05-26T14:10:37Z</time>
      </trkpt>
      <trkpt lat="43.91461" lon="6.54124">
        <ele>917</ele>
        <time>2018-05-26T14:10:38Z</time>
      </trkpt>
      <trkpt lat="43.91461" lon="6.54129">
        <ele>917</ele>
        <time>2018-05-26T14:10:39Z</time>
      </trkpt>
      <trkpt lat="43.91466" lon="6.54159">
        <ele>915</ele>
        <time>2018-05-26T14:10:45Z</time>
      </trkpt>
      <trkpt lat="43.91468" lon="6.54165">
        <ele>914</ele>
        <time>2018-05-26T14:10:46Z</time>
      </trkpt>
      <trkpt lat="43.91469" lon="6.5417">
        <ele>914</ele>
        <time>2018-05-26T14:10:47Z</time>
      </trkpt>
      <trkpt lat="43.91468" lon="6.54175">
        <ele>914</ele>
        <time>2018-05-26T14:10:48Z</time>
      </trkpt>
      <trkpt lat="43.91466" lon="6.54179">
        <ele>913</ele>
        <time>2018-05-26T14:10:49Z</time>
      </trkpt>
      <trkpt lat="43.91462" lon="6.54182">
        <ele>913</ele>
        <time>2018-05-26T14:10:50Z</time>
      </trkpt>
      <trkpt lat="43.91459" lon="6.54184">
        <ele>913</ele>
        <time>2018-05-26T14:10:51Z</time>
      </trkpt>
      <trkpt lat="43.91455" lon="6.54186">
        <ele>913</ele>
        <time>2018-05-26T14:10:52Z</time>
      </trkpt>
      <trkpt lat="43.91451" lon="6.54187">
        <ele>913</ele>
        <time>2018-05-26T14:10:53Z</time>
      </trkpt>
      <trkpt lat="43.9142" lon="6.54186">
        <ele>913</ele>
        <time>2018-05-26T14:11:03Z</time>
      </trkpt>
      <trkpt lat="43.91415" lon="6.54177">
        <ele>914</ele>
        <time>2018-05-26T14:11:06Z</time>
      </trkpt>
      <trkpt lat="43.91414" lon="6.54174">
        <ele>914</ele>
        <time>2018-05-26T14:11:15Z</time>
      </trkpt>
      <trkpt lat="43.91413" lon="6.54173">
        <ele>914</ele>
        <time>2018-05-26T14:11:49Z</time>
      </trkpt>
      <trkpt lat="43.91413" lon="6.54172">
        <ele>914</ele>
        <time>2018-05-26T14:12:28Z</time>
      </trkpt>
      <trkpt lat="43.91413" lon="6.54172">
        <ele>914</ele>
        <time>2018-05-26T14:13:04Z</time>
      </trkpt>
      <trkpt lat="43.91414" lon="6.54172">
        <ele>915</ele>
        <time>2018-05-26T14:13:43Z</time>
      </trkpt>
      <trkpt lat="43.91413" lon="6.54171">
        <ele>915</ele>
        <time>2018-05-26T14:14:28Z</time>
      </trkpt>
      <trkpt lat="43.91411" lon="6.54172">
        <ele>914</ele>
        <time>2018-05-26T14:15:16Z</time>
      </trkpt>
      <trkpt lat="43.91412" lon="6.5417">
        <ele>915</ele>
        <time>2018-05-26T14:15:57Z</time>
      </trkpt>
      <trkpt lat="43.91413" lon="6.54172">
        <ele>915</ele>
        <time>2018-05-26T14:16:38Z</time>
      </trkpt>
      <trkpt lat="43.91412" lon="6.54171">
        <ele>915</ele>
        <time>2018-05-26T14:17:17Z</time>
      </trkpt>
      <trkpt lat="43.91414" lon="6.54173">
        <ele>914</ele>
        <time>2018-05-26T14:17:56Z</time>
      </trkpt>
      <trkpt lat="43.91414" lon="6.54174">
        <ele>914</ele>
        <time>2018-05-26T14:18:32Z</time>
      </trkpt>
      <trkpt lat="43.91414" lon="6.54176">
        <ele>914</ele>
        <time>2018-05-26T14:18:50Z</time>
      </trkpt>
      <trkpt lat="43.91413" lon="6.54179">
        <ele>914</ele>
        <time>2018-05-26T14:19:13Z</time>
      </trkpt>
      <trkpt lat="43.91415" lon="6.54181">
        <ele>913</ele>
        <time>2018-05-26T14:19:14Z</time>
      </trkpt>
      <trkpt lat="43.91416" lon="6.54183">
        <ele>913</ele>
        <time>2018-05-26T14:19:15Z</time>
      </trkpt>
      <trkpt lat="43.91418" lon="6.54185">
        <ele>913</ele>
        <time>2018-05-26T14:19:16Z</time>
      </trkpt>
      <trkpt lat="43.9142" lon="6.54186">
        <ele>913</ele>
        <time>2018-05-26T14:19:17Z</time>
      </trkpt>
      <trkpt lat="43.91422" lon="6.54186">
        <ele>913</ele>
        <time>2018-05-26T14:19:18Z</time>
      </trkpt>
      <trkpt lat="43.91424" lon="6.54187">
        <ele>913</ele>
        <time>2018-05-26T14:19:19Z</time>
      </trkpt>
      <trkpt lat="43.91456" lon="6.54185">
        <ele>913</ele>
        <time>2018-05-26T14:19:28Z</time>
      </trkpt>
      <trkpt lat="43.91477" lon="6.54214">
        <ele>912</ele>
        <time>2018-05-26T14:19:37Z</time>
      </trkpt>
      <trkpt lat="43.91498" lon="6.5424">
        <ele>913</ele>
        <time>2018-05-26T14:19:46Z</time>
      </trkpt>
      <trkpt lat="43.91502" lon="6.54247">
        <ele>914</ele>
        <time>2018-05-26T14:19:50Z</time>
      </trkpt>
      <trkpt lat="43.91503" lon="6.5425">
        <ele>914</ele>
        <time>2018-05-26T14:19:51Z</time>
      </trkpt>
      <trkpt lat="43.91502" lon="6.54253">
        <ele>914</ele>
        <time>2018-05-26T14:19:52Z</time>
      </trkpt>
      <trkpt lat="43.91502" lon="6.54256">
        <ele>914</ele>
        <time>2018-05-26T14:19:53Z</time>
      </trkpt>
      <trkpt lat="43.91501" lon="6.5426">
        <ele>914</ele>
        <time>2018-05-26T14:19:54Z</time>
      </trkpt>
      <trkpt lat="43.91501" lon="6.54263">
        <ele>914</ele>
        <time>2018-05-26T14:19:55Z</time>
      </trkpt>
      <trkpt lat="43.91501" lon="6.54266">
        <ele>914</ele>
        <time>2018-05-26T14:19:56Z</time>
      </trkpt>
      <trkpt lat="43.91492" lon="6.54313">
        <ele>917</ele>
        <time>2018-05-26T14:20:09Z</time>
      </trkpt>
      <trkpt lat="43.91478" lon="6.54354">
        <ele>921</ele>
        <time>2018-05-26T14:20:22Z</time>
      </trkpt>
      <trkpt lat="43.91456" lon="6.54392">
        <ele>923</ele>
        <time>2018-05-26T14:20:37Z</time>
      </trkpt>
      <trkpt lat="43.91434" lon="6.54425">
        <ele>923</ele>
        <time>2018-05-26T14:20:52Z</time>
      </trkpt>
      <trkpt lat="43.91412" lon="6.54459">
        <ele>925</ele>
        <time>2018-05-26T14:21:07Z</time>
      </trkpt>
      <trkpt lat="43.91388" lon="6.54488">
        <ele>926</ele>
        <time>2018-05-26T14:21:22Z</time>
      </trkpt>
      <trkpt lat="43.91363" lon="6.54516">
        <ele>923</ele>
        <time>2018-05-26T14:21:34Z</time>
      </trkpt>
      <trkpt lat="43.91357" lon="6.54543">
        <ele>923</ele>
        <time>2018-05-26T14:21:38Z</time>
      </trkpt>
      <trkpt lat="43.91344" lon="6.54635">
        <ele>920</ele>
        <time>2018-05-26T14:21:48Z</time>
      </trkpt>
      <trkpt lat="43.91341" lon="6.54645">
        <ele>920</ele>
        <time>2018-05-26T14:21:49Z</time>
      </trkpt>
      <trkpt lat="43.91338" lon="6.54655">
        <ele>920</ele>
        <time>2018-05-26T14:21:50Z</time>
      </trkpt>
      <trkpt lat="43.91334" lon="6.54664">
        <ele>919</ele>
        <time>2018-05-26T14:21:51Z</time>
      </trkpt>
      <trkpt lat="43.91329" lon="6.54674">
        <ele>918</ele>
        <time>2018-05-26T14:21:52Z</time>
      </trkpt>
      <trkpt lat="43.91324" lon="6.54683">
        <ele>916</ele>
        <time>2018-05-26T14:21:53Z</time>
      </trkpt>
      <trkpt lat="43.91316" lon="6.54701">
        <ele>914</ele>
        <time>2018-05-26T14:21:55Z</time>
      </trkpt>
      <trkpt lat="43.9131" lon="6.5472">
        <ele>912</ele>
        <time>2018-05-26T14:21:57Z</time>
      </trkpt>
      <trkpt lat="43.91307" lon="6.5473">
        <ele>912</ele>
        <time>2018-05-26T14:21:58Z</time>
      </trkpt>
      <trkpt lat="43.91305" lon="6.54741">
        <ele>912</ele>
        <time>2018-05-26T14:21:59Z</time>
      </trkpt>
      <trkpt lat="43.91305" lon="6.54752">
        <ele>913</ele>
        <time>2018-05-26T14:22:00Z</time>
      </trkpt>
      <trkpt lat="43.91306" lon="6.54763">
        <ele>914</ele>
        <time>2018-05-26T14:22:01Z</time>
      </trkpt>
      <trkpt lat="43.91308" lon="6.54775">
        <ele>916</ele>
        <time>2018-05-26T14:22:02Z</time>
      </trkpt>
      <trkpt lat="43.91308" lon="6.54786">
        <ele>918</ele>
        <time>2018-05-26T14:22:03Z</time>
      </trkpt>
      <trkpt lat="43.91308" lon="6.54797">
        <ele>918</ele>
        <time>2018-05-26T14:22:04Z</time>
      </trkpt>
      <trkpt lat="43.91305" lon="6.54807">
        <ele>917</ele>
        <time>2018-05-26T14:22:05Z</time>
      </trkpt>
      <trkpt lat="43.913" lon="6.54817">
        <ele>917</ele>
        <time>2018-05-26T14:22:06Z</time>
      </trkpt>
      <trkpt lat="43.91294" lon="6.54825">
        <ele>916</ele>
        <time>2018-05-26T14:22:07Z</time>
      </trkpt>
      <trkpt lat="43.91288" lon="6.54834">
        <ele>914</ele>
        <time>2018-05-26T14:22:08Z</time>
      </trkpt>
      <trkpt lat="43.91281" lon="6.54841">
        <ele>913</ele>
        <time>2018-05-26T14:22:09Z</time>
      </trkpt>
      <trkpt lat="43.91264" lon="6.54868">
        <ele>910</ele>
        <time>2018-05-26T14:22:12Z</time>
      </trkpt>
      <trkpt lat="43.9126" lon="6.54879">
        <ele>909</ele>
        <time>2018-05-26T14:22:13Z</time>
      </trkpt>
      <trkpt lat="43.91256" lon="6.54891">
        <ele>909</ele>
        <time>2018-05-26T14:22:14Z</time>
      </trkpt>
      <trkpt lat="43.91254" lon="6.54903">
        <ele>909</ele>
        <time>2018-05-26T14:22:15Z</time>
      </trkpt>
      <trkpt lat="43.91251" lon="6.54916">
        <ele>909</ele>
        <time>2018-05-26T14:22:16Z</time>
      </trkpt>
      <trkpt lat="43.91242" lon="6.54978">
        <ele>903</ele>
        <time>2018-05-26T14:22:21Z</time>
      </trkpt>
      <trkpt lat="43.91242" lon="6.5499">
        <ele>902</ele>
        <time>2018-05-26T14:22:22Z</time>
      </trkpt>
      <trkpt lat="43.91243" lon="6.55001">
        <ele>900</ele>
        <time>2018-05-26T14:22:23Z</time>
      </trkpt>
      <trkpt lat="43.91246" lon="6.55011">
        <ele>899</ele>
        <time>2018-05-26T14:22:24Z</time>
      </trkpt>
      <trkpt lat="43.91252" lon="6.5502">
        <ele>899</ele>
        <time>2018-05-26T14:22:25Z</time>
      </trkpt>
      <trkpt lat="43.91258" lon="6.55027">
        <ele>900</ele>
        <time>2018-05-26T14:22:26Z</time>
      </trkpt>
      <trkpt lat="43.91266" lon="6.55032">
        <ele>901</ele>
        <time>2018-05-26T14:22:27Z</time>
      </trkpt>
      <trkpt lat="43.91274" lon="6.55036">
        <ele>903</ele>
        <time>2018-05-26T14:22:28Z</time>
      </trkpt>
      <trkpt lat="43.9129" lon="6.55047">
        <ele>906</ele>
        <time>2018-05-26T14:22:30Z</time>
      </trkpt>
      <trkpt lat="43.91297" lon="6.55055">
        <ele>907</ele>
        <time>2018-05-26T14:22:31Z</time>
      </trkpt>
      <trkpt lat="43.91303" lon="6.55065">
        <ele>908</ele>
        <time>2018-05-26T14:22:32Z</time>
      </trkpt>
      <trkpt lat="43.91308" lon="6.55075">
        <ele>910</ele>
        <time>2018-05-26T14:22:33Z</time>
      </trkpt>
      <trkpt lat="43.91312" lon="6.55087">
        <ele>910</ele>
        <time>2018-05-26T14:22:34Z</time>
      </trkpt>
      <trkpt lat="43.91313" lon="6.55099">
        <ele>909</ele>
        <time>2018-05-26T14:22:35Z</time>
      </trkpt>
      <trkpt lat="43.91312" lon="6.55112">
        <ele>907</ele>
        <time>2018-05-26T14:22:36Z</time>
      </trkpt>
      <trkpt lat="43.91311" lon="6.55124">
        <ele>905</ele>
        <time>2018-05-26T14:22:37Z</time>
      </trkpt>
      <trkpt lat="43.91296" lon="6.55224">
        <ele>904</ele>
        <time>2018-05-26T14:22:45Z</time>
      </trkpt>
      <trkpt lat="43.91291" lon="6.55234">
        <ele>904</ele>
        <time>2018-05-26T14:22:46Z</time>
      </trkpt>
      <trkpt lat="43.91285" lon="6.5524">
        <ele>903</ele>
        <time>2018-05-26T14:22:47Z</time>
      </trkpt>
      <trkpt lat="43.91277" lon="6.55242">
        <ele>901</ele>
        <time>2018-05-26T14:22:48Z</time>
      </trkpt>
      <trkpt lat="43.91269" lon="6.55239">
        <ele>898</ele>
        <time>2018-05-26T14:22:49Z</time>
      </trkpt>
      <trkpt lat="43.91262" lon="6.55234">
        <ele>898</ele>
        <time>2018-05-26T14:22:50Z</time>
      </trkpt>
      <trkpt lat="43.91257" lon="6.55227">
        <ele>899</ele>
        <time>2018-05-26T14:22:51Z</time>
      </trkpt>
      <trkpt lat="43.91252" lon="6.55219">
        <ele>899</ele>
        <time>2018-05-26T14:22:52Z</time>
      </trkpt>
      <trkpt lat="43.912" lon="6.55144">
        <ele>901</ele>
        <time>2018-05-26T14:23:05Z</time>
      </trkpt>
      <trkpt lat="43.91196" lon="6.55141">
        <ele>901</ele>
        <time>2018-05-26T14:23:06Z</time>
      </trkpt>
      <trkpt lat="43.91192" lon="6.55138">
        <ele>902</ele>
        <time>2018-05-26T14:23:07Z</time>
      </trkpt>
      <trkpt lat="43.91134" lon="6.55103">
        <ele>905</ele>
        <time>2018-05-26T14:23:23Z</time>
      </trkpt>
      <trkpt lat="43.91087" lon="6.55061">
        <ele>905</ele>
        <time>2018-05-26T14:23:41Z</time>
      </trkpt>
      <trkpt lat="43.91059" lon="6.55033">
        <ele>908</ele>
        <time>2018-05-26T14:23:54Z</time>
      </trkpt>
      <trkpt lat="43.91058" lon="6.54983">
        <ele>906</ele>
        <time>2018-05-26T14:24:08Z</time>
      </trkpt>
      <trkpt lat="43.91062" lon="6.54927">
        <ele>902</ele>
        <time>2018-05-26T14:24:24Z</time>
      </trkpt>
      <trkpt lat="43.91038" lon="6.54878">
        <ele>906</ele>
        <time>2018-05-26T14:24:40Z</time>
      </trkpt>
      <trkpt lat="43.91015" lon="6.54824">
        <ele>908</ele>
        <time>2018-05-26T14:24:56Z</time>
      </trkpt>
      <trkpt lat="43.91004" lon="6.54766">
        <ele>910</ele>
        <time>2018-05-26T14:25:12Z</time>
      </trkpt>
      <trkpt lat="43.90981" lon="6.54725">
        <ele>913</ele>
        <time>2018-05-26T14:25:26Z</time>
      </trkpt>
      <trkpt lat="43.90953" lon="6.54684">
        <ele>918</ele>
        <time>2018-05-26T14:25:40Z</time>
      </trkpt>
      <trkpt lat="43.90931" lon="6.54641">
        <ele>918</ele>
        <time>2018-05-26T14:25:54Z</time>
      </trkpt>
      <trkpt lat="43.90905" lon="6.54587">
        <ele>918</ele>
        <time>2018-05-26T14:26:11Z</time>
      </trkpt>
      <trkpt lat="43.90885" lon="6.5454">
        <ele>923</ele>
        <time>2018-05-26T14:26:24Z</time>
      </trkpt>
      <trkpt lat="43.90859" lon="6.54485">
        <ele>932</ele>
        <time>2018-05-26T14:26:40Z</time>
      </trkpt>
      <trkpt lat="43.90819" lon="6.54451">
        <ele>933</ele>
        <time>2018-05-26T14:26:56Z</time>
      </trkpt>
      <trkpt lat="43.90804" lon="6.54448">
        <ele>930</ele>
        <time>2018-05-26T14:27:00Z</time>
      </trkpt>
      <trkpt lat="43.90799" lon="6.54448">
        <ele>930</ele>
        <time>2018-05-26T14:27:01Z</time>
      </trkpt>
      <trkpt lat="43.90795" lon="6.54448">
        <ele>930</ele>
        <time>2018-05-26T14:27:02Z</time>
      </trkpt>
      <trkpt lat="43.90767" lon="6.54445">
        <ele>930</ele>
        <time>2018-05-26T14:27:08Z</time>
      </trkpt>
      <trkpt lat="43.90762" lon="6.54443">
        <ele>930</ele>
        <time>2018-05-26T14:27:09Z</time>
      </trkpt>
      <trkpt lat="43.90758" lon="6.5444">
        <ele>929</ele>
        <time>2018-05-26T14:27:10Z</time>
      </trkpt>
      <trkpt lat="43.90749" lon="6.54434">
        <ele>929</ele>
        <time>2018-05-26T14:27:12Z</time>
      </trkpt>
      <trkpt lat="43.90744" lon="6.5443">
        <ele>929</ele>
        <time>2018-05-26T14:27:13Z</time>
      </trkpt>
      <trkpt lat="43.9074" lon="6.54425">
        <ele>929</ele>
        <time>2018-05-26T14:27:14Z</time>
      </trkpt>
      <trkpt lat="43.90736" lon="6.54421">
        <ele>929</ele>
        <time>2018-05-26T14:27:15Z</time>
      </trkpt>
      <trkpt lat="43.90732" lon="6.54415">
        <ele>929</ele>
        <time>2018-05-26T14:27:16Z</time>
      </trkpt>
      <trkpt lat="43.90664" lon="6.54348">
        <ele>930</ele>
        <time>2018-05-26T14:27:31Z</time>
      </trkpt>
      <trkpt lat="43.90613" lon="6.54298">
        <ele>933</ele>
        <time>2018-05-26T14:27:42Z</time>
      </trkpt>
      <trkpt lat="43.90586" lon="6.54257">
        <ele>929</ele>
        <time>2018-05-26T14:27:49Z</time>
      </trkpt>
      <trkpt lat="43.90581" lon="6.54253">
        <ele>928</ele>
        <time>2018-05-26T14:27:50Z</time>
      </trkpt>
      <trkpt lat="43.90575" lon="6.5425">
        <ele>926</ele>
        <time>2018-05-26T14:27:51Z</time>
      </trkpt>
      <trkpt lat="43.9057" lon="6.54248">
        <ele>925</ele>
        <time>2018-05-26T14:27:52Z</time>
      </trkpt>
      <trkpt lat="43.90564" lon="6.54247">
        <ele>924</ele>
        <time>2018-05-26T14:27:53Z</time>
      </trkpt>
      <trkpt lat="43.90558" lon="6.54248">
        <ele>924</ele>
        <time>2018-05-26T14:27:54Z</time>
      </trkpt>
      <trkpt lat="43.90552" lon="6.5425">
        <ele>924</ele>
        <time>2018-05-26T14:27:55Z</time>
      </trkpt>
      <trkpt lat="43.90546" lon="6.54252">
        <ele>925</ele>
        <time>2018-05-26T14:27:56Z</time>
      </trkpt>
      <trkpt lat="43.90541" lon="6.54256">
        <ele>926</ele>
        <time>2018-05-26T14:27:57Z</time>
      </trkpt>
      <trkpt lat="43.90535" lon="6.54259">
        <ele>927</ele>
        <time>2018-05-26T14:27:58Z</time>
      </trkpt>
      <trkpt lat="43.90518" lon="6.54268">
        <ele>929</ele>
        <time>2018-05-26T14:28:01Z</time>
      </trkpt>
      <trkpt lat="43.90512" lon="6.54269">
        <ele>928</ele>
        <time>2018-05-26T14:28:02Z</time>
      </trkpt>
      <trkpt lat="43.90506" lon="6.54268">
        <ele>927</ele>
        <time>2018-05-26T14:28:03Z</time>
      </trkpt>
      <trkpt lat="43.905" lon="6.54265">
        <ele>925</ele>
        <time>2018-05-26T14:28:04Z</time>
      </trkpt>
      <trkpt lat="43.90494" lon="6.54261">
        <ele>922</ele>
        <time>2018-05-26T14:28:05Z</time>
      </trkpt>
      <trkpt lat="43.90488" lon="6.54256">
        <ele>921</ele>
        <time>2018-05-26T14:28:06Z</time>
      </trkpt>
      <trkpt lat="43.90483" lon="6.5425">
        <ele>920</ele>
        <time>2018-05-26T14:28:07Z</time>
      </trkpt>
      <trkpt lat="43.90479" lon="6.54243">
        <ele>918</ele>
        <time>2018-05-26T14:28:08Z</time>
      </trkpt>
      <trkpt lat="43.90475" lon="6.54236">
        <ele>917</ele>
        <time>2018-05-26T14:28:09Z</time>
      </trkpt>
      <trkpt lat="43.90449" lon="6.54201">
        <ele>912</ele>
        <time>2018-05-26T14:28:15Z</time>
      </trkpt>
      <trkpt lat="43.90443" lon="6.54197">
        <ele>912</ele>
        <time>2018-05-26T14:28:16Z</time>
      </trkpt>
      <trkpt lat="43.90437" lon="6.54194">
        <ele>913</ele>
        <time>2018-05-26T14:28:17Z</time>
      </trkpt>
      <trkpt lat="43.90406" lon="6.54182">
        <ele>915</ele>
        <time>2018-05-26T14:28:22Z</time>
      </trkpt>
      <trkpt lat="43.904" lon="6.54179">
        <ele>916</ele>
        <time>2018-05-26T14:28:23Z</time>
      </trkpt>
      <trkpt lat="43.90395" lon="6.54174">
        <ele>916</ele>
        <time>2018-05-26T14:28:24Z</time>
      </trkpt>
      <trkpt lat="43.9039" lon="6.54169">
        <ele>917</ele>
        <time>2018-05-26T14:28:25Z</time>
      </trkpt>
      <trkpt lat="43.90385" lon="6.54163">
        <ele>917</ele>
        <time>2018-05-26T14:28:26Z</time>
      </trkpt>
      <trkpt lat="43.90381" lon="6.54156">
        <ele>918</ele>
        <time>2018-05-26T14:28:27Z</time>
      </trkpt>
      <trkpt lat="43.90371" lon="6.54146">
        <ele>919</ele>
        <time>2018-05-26T14:28:29Z</time>
      </trkpt>
      <trkpt lat="43.90366" lon="6.54142">
        <ele>920</ele>
        <time>2018-05-26T14:28:30Z</time>
      </trkpt>
      <trkpt lat="43.90355" lon="6.54135">
        <ele>919</ele>
        <time>2018-05-26T14:28:32Z</time>
      </trkpt>
      <trkpt lat="43.90349" lon="6.54133">
        <ele>918</ele>
        <time>2018-05-26T14:28:33Z</time>
      </trkpt>
      <trkpt lat="43.90343" lon="6.54132">
        <ele>917</ele>
        <time>2018-05-26T14:28:34Z</time>
      </trkpt>
      <trkpt lat="43.90337" lon="6.54132">
        <ele>916</ele>
        <time>2018-05-26T14:28:35Z</time>
      </trkpt>
      <trkpt lat="43.90331" lon="6.54133">
        <ele>916</ele>
        <time>2018-05-26T14:28:36Z</time>
      </trkpt>
      <trkpt lat="43.90325" lon="6.54133">
        <ele>916</ele>
        <time>2018-05-26T14:28:37Z</time>
      </trkpt>
      <trkpt lat="43.90288" lon="6.54144">
        <ele>912</ele>
        <time>2018-05-26T14:28:43Z</time>
      </trkpt>
      <trkpt lat="43.90283" lon="6.54147">
        <ele>912</ele>
        <time>2018-05-26T14:28:44Z</time>
      </trkpt>
      <trkpt lat="43.90278" lon="6.54151">
        <ele>912</ele>
        <time>2018-05-26T14:28:45Z</time>
      </trkpt>
      <trkpt lat="43.90273" lon="6.54157">
        <ele>913</ele>
        <time>2018-05-26T14:28:46Z</time>
      </trkpt>
      <trkpt lat="43.90268" lon="6.54163">
        <ele>913</ele>
        <time>2018-05-26T14:28:47Z</time>
      </trkpt>
      <trkpt lat="43.90264" lon="6.5417">
        <ele>912</ele>
        <time>2018-05-26T14:28:48Z</time>
      </trkpt>
      <trkpt lat="43.90261" lon="6.54177">
        <ele>912</ele>
        <time>2018-05-26T14:28:49Z</time>
      </trkpt>
      <trkpt lat="43.90257" lon="6.54185">
        <ele>911</ele>
        <time>2018-05-26T14:28:50Z</time>
      </trkpt>
      <trkpt lat="43.90255" lon="6.54194">
        <ele>912</ele>
        <time>2018-05-26T14:28:51Z</time>
      </trkpt>
      <trkpt lat="43.90253" lon="6.54202">
        <ele>913</ele>
        <time>2018-05-26T14:28:52Z</time>
      </trkpt>
      <trkpt lat="43.90252" lon="6.54211">
        <ele>914</ele>
        <time>2018-05-26T14:28:53Z</time>
      </trkpt>
      <trkpt lat="43.90246" lon="6.54245">
        <ele>919</ele>
        <time>2018-05-26T14:28:57Z</time>
      </trkpt>
      <trkpt lat="43.90244" lon="6.54253">
        <ele>920</ele>
        <time>2018-05-26T14:28:58Z</time>
      </trkpt>
      <trkpt lat="43.9024" lon="6.5426">
        <ele>920</ele>
        <time>2018-05-26T14:28:59Z</time>
      </trkpt>
      <trkpt lat="43.90236" lon="6.54266">
        <ele>919</ele>
        <time>2018-05-26T14:29:00Z</time>
      </trkpt>
      <trkpt lat="43.9023" lon="6.5427">
        <ele>917</ele>
        <time>2018-05-26T14:29:01Z</time>
      </trkpt>
      <trkpt lat="43.90224" lon="6.54273">
        <ele>915</ele>
        <time>2018-05-26T14:29:02Z</time>
      </trkpt>
      <trkpt lat="43.90217" lon="6.54274">
        <ele>915</ele>
        <time>2018-05-26T14:29:03Z</time>
      </trkpt>
      <trkpt lat="43.9021" lon="6.54272">
        <ele>917</ele>
        <time>2018-05-26T14:29:04Z</time>
      </trkpt>
      <trkpt lat="43.90203" lon="6.54268">
        <ele>917</ele>
        <time>2018-05-26T14:29:05Z</time>
      </trkpt>
      <trkpt lat="43.90198" lon="6.54264">
        <ele>917</ele>
        <time>2018-05-26T14:29:06Z</time>
      </trkpt>
      <trkpt lat="43.90192" lon="6.54258">
        <ele>917</ele>
        <time>2018-05-26T14:29:07Z</time>
      </trkpt>
      <trkpt lat="43.90172" lon="6.54236">
        <ele>918</ele>
        <time>2018-05-26T14:29:11Z</time>
      </trkpt>
      <trkpt lat="43.90167" lon="6.54229">
        <ele>918</ele>
        <time>2018-05-26T14:29:12Z</time>
      </trkpt>
      <trkpt lat="43.90163" lon="6.54223">
        <ele>918</ele>
        <time>2018-05-26T14:29:13Z</time>
      </trkpt>
      <trkpt lat="43.90159" lon="6.54215">
        <ele>918</ele>
        <time>2018-05-26T14:29:14Z</time>
      </trkpt>
      <trkpt lat="43.90156" lon="6.54207">
        <ele>918</ele>
        <time>2018-05-26T14:29:15Z</time>
      </trkpt>
      <trkpt lat="43.90154" lon="6.54198">
        <ele>917</ele>
        <time>2018-05-26T14:29:16Z</time>
      </trkpt>
      <trkpt lat="43.90123" lon="6.54085">
        <ele>912</ele>
        <time>2018-05-26T14:29:29Z</time>
      </trkpt>
      <trkpt lat="43.90114" lon="6.54065">
        <ele>912</ele>
        <time>2018-05-26T14:29:32Z</time>
      </trkpt>
      <trkpt lat="43.9011" lon="6.5406">
        <ele>912</ele>
        <time>2018-05-26T14:29:33Z</time>
      </trkpt>
      <trkpt lat="43.90105" lon="6.54057">
        <ele>913</ele>
        <time>2018-05-26T14:29:34Z</time>
      </trkpt>
      <trkpt lat="43.901" lon="6.54053">
        <ele>913</ele>
        <time>2018-05-26T14:29:35Z</time>
      </trkpt>
      <trkpt lat="43.90095" lon="6.54051">
        <ele>914</ele>
        <time>2018-05-26T14:29:36Z</time>
      </trkpt>
      <trkpt lat="43.90089" lon="6.5405">
        <ele>913</ele>
        <time>2018-05-26T14:29:37Z</time>
      </trkpt>
      <trkpt lat="43.90083" lon="6.54051">
        <ele>913</ele>
        <time>2018-05-26T14:29:38Z</time>
      </trkpt>
      <trkpt lat="43.90078" lon="6.54052">
        <ele>913</ele>
        <time>2018-05-26T14:29:39Z</time>
      </trkpt>
      <trkpt lat="43.90072" lon="6.54054">
        <ele>913</ele>
        <time>2018-05-26T14:29:40Z</time>
      </trkpt>
      <trkpt lat="43.90036" lon="6.54071">
        <ele>922</ele>
        <time>2018-05-26T14:29:46Z</time>
      </trkpt>
      <trkpt lat="43.9003" lon="6.54072">
        <ele>923</ele>
        <time>2018-05-26T14:29:47Z</time>
      </trkpt>
      <trkpt lat="43.90017" lon="6.54071">
        <ele>922</ele>
        <time>2018-05-26T14:29:49Z</time>
      </trkpt>
      <trkpt lat="43.90011" lon="6.54068">
        <ele>920</ele>
        <time>2018-05-26T14:29:50Z</time>
      </trkpt>
      <trkpt lat="43.90006" lon="6.54063">
        <ele>918</ele>
        <time>2018-05-26T14:29:51Z</time>
      </trkpt>
      <trkpt lat="43.90001" lon="6.54057">
        <ele>917</ele>
        <time>2018-05-26T14:29:52Z</time>
      </trkpt>
      <trkpt lat="43.89996" lon="6.54051">
        <ele>916</ele>
        <time>2018-05-26T14:29:53Z</time>
      </trkpt>
      <trkpt lat="43.89948" lon="6.5396">
        <ele>905</ele>
        <time>2018-05-26T14:30:05Z</time>
      </trkpt>
      <trkpt lat="43.89943" lon="6.53954">
        <ele>906</ele>
        <time>2018-05-26T14:30:06Z</time>
      </trkpt>
      <trkpt lat="43.89933" lon="6.53943">
        <ele>908</ele>
        <time>2018-05-26T14:30:08Z</time>
      </trkpt>
      <trkpt lat="43.89927" lon="6.53939">
        <ele>909</ele>
        <time>2018-05-26T14:30:09Z</time>
      </trkpt>
      <trkpt lat="43.89922" lon="6.53936">
        <ele>910</ele>
        <time>2018-05-26T14:30:10Z</time>
      </trkpt>
      <trkpt lat="43.89885" lon="6.53919">
        <ele>908</ele>
        <time>2018-05-26T14:30:16Z</time>
      </trkpt>
      <trkpt lat="43.89879" lon="6.53914">
        <ele>907</ele>
        <time>2018-05-26T14:30:17Z</time>
      </trkpt>
      <trkpt lat="43.89874" lon="6.53909">
        <ele>906</ele>
        <time>2018-05-26T14:30:18Z</time>
      </trkpt>
      <trkpt lat="43.89863" lon="6.53899">
        <ele>906</ele>
        <time>2018-05-26T14:30:20Z</time>
      </trkpt>
      <trkpt lat="43.89858" lon="6.53895">
        <ele>906</ele>
        <time>2018-05-26T14:30:21Z</time>
      </trkpt>
      <trkpt lat="43.89852" lon="6.53892">
        <ele>906</ele>
        <time>2018-05-26T14:30:22Z</time>
      </trkpt>
      <trkpt lat="43.89846" lon="6.53889">
        <ele>907</ele>
        <time>2018-05-26T14:30:23Z</time>
      </trkpt>
      <trkpt lat="43.8984" lon="6.53888">
        <ele>909</ele>
        <time>2018-05-26T14:30:24Z</time>
      </trkpt>
      <trkpt lat="43.89834" lon="6.53888">
        <ele>911</ele>
        <time>2018-05-26T14:30:25Z</time>
      </trkpt>
      <trkpt lat="43.89828" lon="6.53888">
        <ele>912</ele>
        <time>2018-05-26T14:30:26Z</time>
      </trkpt>
      <trkpt lat="43.89822" lon="6.53888">
        <ele>913</ele>
        <time>2018-05-26T14:30:27Z</time>
      </trkpt>
      <trkpt lat="43.89816" lon="6.53887">
        <ele>913</ele>
        <time>2018-05-26T14:30:28Z</time>
      </trkpt>
      <trkpt lat="43.8981" lon="6.53885">
        <ele>913</ele>
        <time>2018-05-26T14:30:29Z</time>
      </trkpt>
      <trkpt lat="43.89805" lon="6.53882">
        <ele>912</ele>
        <time>2018-05-26T14:30:30Z</time>
      </trkpt>
      <trkpt lat="43.89799" lon="6.53879">
        <ele>911</ele>
        <time>2018-05-26T14:30:31Z</time>
      </trkpt>
      <trkpt lat="43.89732" lon="6.53838">
        <ele>902</ele>
        <time>2018-05-26T14:30:42Z</time>
      </trkpt>
      <trkpt lat="43.89727" lon="6.53833">
        <ele>901</ele>
        <time>2018-05-26T14:30:43Z</time>
      </trkpt>
      <trkpt lat="43.89721" lon="6.53828">
        <ele>900</ele>
        <time>2018-05-26T14:30:44Z</time>
      </trkpt>
      <trkpt lat="43.89716" lon="6.53823">
        <ele>899</ele>
        <time>2018-05-26T14:30:45Z</time>
      </trkpt>
      <trkpt lat="43.8971" lon="6.5382">
        <ele>900</ele>
        <time>2018-05-26T14:30:46Z</time>
      </trkpt>
      <trkpt lat="43.89704" lon="6.53817">
        <ele>901</ele>
        <time>2018-05-26T14:30:47Z</time>
      </trkpt>
      <trkpt lat="43.89696" lon="6.53816">
        <ele>901</ele>
        <time>2018-05-26T14:30:48Z</time>
      </trkpt>
      <trkpt lat="43.8969" lon="6.53817">
        <ele>901</ele>
        <time>2018-05-26T14:30:49Z</time>
      </trkpt>
      <trkpt lat="43.89683" lon="6.5382">
        <ele>902</ele>
        <time>2018-05-26T14:30:50Z</time>
      </trkpt>
      <trkpt lat="43.89677" lon="6.53824">
        <ele>902</ele>
        <time>2018-05-26T14:30:51Z</time>
      </trkpt>
      <trkpt lat="43.89658" lon="6.53835">
        <ele>904</ele>
        <time>2018-05-26T14:30:54Z</time>
      </trkpt>
      <trkpt lat="43.8965" lon="6.53837">
        <ele>904</ele>
        <time>2018-05-26T14:30:55Z</time>
      </trkpt>
      <trkpt lat="43.89643" lon="6.53837">
        <ele>905</ele>
        <time>2018-05-26T14:30:56Z</time>
      </trkpt>
      <trkpt lat="43.89636" lon="6.53833">
        <ele>904</ele>
        <time>2018-05-26T14:30:57Z</time>
      </trkpt>
      <trkpt lat="43.89629" lon="6.53827">
        <ele>903</ele>
        <time>2018-05-26T14:30:58Z</time>
      </trkpt>
      <trkpt lat="43.89623" lon="6.53821">
        <ele>901</ele>
        <time>2018-05-26T14:30:59Z</time>
      </trkpt>
      <trkpt lat="43.89619" lon="6.53813">
        <ele>898</ele>
        <time>2018-05-26T14:31:00Z</time>
      </trkpt>
      <trkpt lat="43.89614" lon="6.53804">
        <ele>896</ele>
        <time>2018-05-26T14:31:01Z</time>
      </trkpt>
      <trkpt lat="43.89605" lon="6.53787">
        <ele>891</ele>
        <time>2018-05-26T14:31:03Z</time>
      </trkpt>
      <trkpt lat="43.89599" lon="6.53781">
        <ele>889</ele>
        <time>2018-05-26T14:31:04Z</time>
      </trkpt>
      <trkpt lat="43.89592" lon="6.53778">
        <ele>889</ele>
        <time>2018-05-26T14:31:05Z</time>
      </trkpt>
      <trkpt lat="43.89585" lon="6.53777">
        <ele>888</ele>
        <time>2018-05-26T14:31:06Z</time>
      </trkpt>
      <trkpt lat="43.89577" lon="6.53779">
        <ele>889</ele>
        <time>2018-05-26T14:31:07Z</time>
      </trkpt>
      <trkpt lat="43.8957" lon="6.53784">
        <ele>890</ele>
        <time>2018-05-26T14:31:08Z</time>
      </trkpt>
      <trkpt lat="43.89565" lon="6.53791">
        <ele>890</ele>
        <time>2018-05-26T14:31:09Z</time>
      </trkpt>
      <trkpt lat="43.89561" lon="6.538">
        <ele>891</ele>
        <time>2018-05-26T14:31:10Z</time>
      </trkpt>
      <trkpt lat="43.89558" lon="6.5381">
        <ele>891</ele>
        <time>2018-05-26T14:31:11Z</time>
      </trkpt>
      <trkpt lat="43.89558" lon="6.53822">
        <ele>891</ele>
        <time>2018-05-26T14:31:12Z</time>
      </trkpt>
      <trkpt lat="43.89558" lon="6.53833">
        <ele>892</ele>
        <time>2018-05-26T14:31:13Z</time>
      </trkpt>
      <trkpt lat="43.8956" lon="6.53843">
        <ele>893</ele>
        <time>2018-05-26T14:31:14Z</time>
      </trkpt>
      <trkpt lat="43.89562" lon="6.53854">
        <ele>894</ele>
        <time>2018-05-26T14:31:15Z</time>
      </trkpt>
      <trkpt lat="43.89588" lon="6.54016">
        <ele>907</ele>
        <time>2018-05-26T14:31:30Z</time>
      </trkpt>
      <trkpt lat="43.89587" lon="6.54027">
        <ele>907</ele>
        <time>2018-05-26T14:31:31Z</time>
      </trkpt>
      <trkpt lat="43.89583" lon="6.54036">
        <ele>907</ele>
        <time>2018-05-26T14:31:32Z</time>
      </trkpt>
      <trkpt lat="43.89578" lon="6.54044">
        <ele>906</ele>
        <time>2018-05-26T14:31:33Z</time>
      </trkpt>
      <trkpt lat="43.89572" lon="6.5405">
        <ele>906</ele>
        <time>2018-05-26T14:31:34Z</time>
      </trkpt>
      <trkpt lat="43.89564" lon="6.54053">
        <ele>906</ele>
        <time>2018-05-26T14:31:35Z</time>
      </trkpt>
      <trkpt lat="43.89557" lon="6.54052">
        <ele>906</ele>
        <time>2018-05-26T14:31:36Z</time>
      </trkpt>
      <trkpt lat="43.89549" lon="6.54049">
        <ele>906</ele>
        <time>2018-05-26T14:31:37Z</time>
      </trkpt>
      <trkpt lat="43.89543" lon="6.54044">
        <ele>907</ele>
        <time>2018-05-26T14:31:38Z</time>
      </trkpt>
      <trkpt lat="43.89537" lon="6.54038">
        <ele>906</ele>
        <time>2018-05-26T14:31:39Z</time>
      </trkpt>
      <trkpt lat="43.89532" lon="6.54031">
        <ele>906</ele>
        <time>2018-05-26T14:31:40Z</time>
      </trkpt>
      <trkpt lat="43.89527" lon="6.54024">
        <ele>904</ele>
        <time>2018-05-26T14:31:41Z</time>
      </trkpt>
      <trkpt lat="43.89523" lon="6.54016">
        <ele>903</ele>
        <time>2018-05-26T14:31:42Z</time>
      </trkpt>
      <trkpt lat="43.89471" lon="6.53911">
        <ele>891</ele>
        <time>2018-05-26T14:31:56Z</time>
      </trkpt>
      <trkpt lat="43.89404" lon="6.53824">
        <ele>900</ele>
        <time>2018-05-26T14:32:13Z</time>
      </trkpt>
      <trkpt lat="43.89389" lon="6.53802">
        <ele>899</ele>
        <time>2018-05-26T14:32:17Z</time>
      </trkpt>
      <trkpt lat="43.89386" lon="6.53796">
        <ele>898</ele>
        <time>2018-05-26T14:32:18Z</time>
      </trkpt>
      <trkpt lat="43.89375" lon="6.53772">
        <ele>897</ele>
        <time>2018-05-26T14:32:22Z</time>
      </trkpt>
      <trkpt lat="43.89373" lon="6.5377">
        <ele>898</ele>
        <time>2018-05-26T14:32:23Z</time>
      </trkpt>
      <trkpt lat="43.89371" lon="6.53768">
        <ele>900</ele>
        <time>2018-05-26T14:32:24Z</time>
      </trkpt>
      <trkpt lat="43.89369" lon="6.53767">
        <ele>901</ele>
        <time>2018-05-26T14:32:25Z</time>
      </trkpt>
      <trkpt lat="43.89367" lon="6.53767">
        <ele>902</ele>
        <time>2018-05-26T14:32:34Z</time>
      </trkpt>
      <trkpt lat="43.89367" lon="6.53767">
        <ele>903</ele>
        <time>2018-05-26T14:32:51Z</time>
      </trkpt>
      <trkpt lat="43.89366" lon="6.53765">
        <ele>903</ele>
        <time>2018-05-26T14:33:04Z</time>
      </trkpt>
      <trkpt lat="43.89366" lon="6.53763">
        <ele>902</ele>
        <time>2018-05-26T14:33:05Z</time>
      </trkpt>
      <trkpt lat="43.89367" lon="6.53758">
        <ele>899</ele>
        <time>2018-05-26T14:33:07Z</time>
      </trkpt>
      <trkpt lat="43.89366" lon="6.53755">
        <ele>898</ele>
        <time>2018-05-26T14:33:08Z</time>
      </trkpt>
      <trkpt lat="43.89365" lon="6.53751">
        <ele>898</ele>
        <time>2018-05-26T14:33:09Z</time>
      </trkpt>
      <trkpt lat="43.89364" lon="6.53748">
        <ele>897</ele>
        <time>2018-05-26T14:33:10Z</time>
      </trkpt>
      <trkpt lat="43.89363" lon="6.53744">
        <ele>897</ele>
        <time>2018-05-26T14:33:11Z</time>
      </trkpt>
      <trkpt lat="43.89361" lon="6.53739">
        <ele>897</ele>
        <time>2018-05-26T14:33:12Z</time>
      </trkpt>
      <trkpt lat="43.8936" lon="6.53734">
        <ele>897</ele>
        <time>2018-05-26T14:33:13Z</time>
      </trkpt>
      <trkpt lat="43.89358" lon="6.53729">
        <ele>896</ele>
        <time>2018-05-26T14:33:14Z</time>
      </trkpt>
      <trkpt lat="43.89356" lon="6.53724">
        <ele>896</ele>
        <time>2018-05-26T14:33:15Z</time>
      </trkpt>
      <trkpt lat="43.89352" lon="6.53707">
        <ele>896</ele>
        <time>2018-05-26T14:33:18Z</time>
      </trkpt>
      <trkpt lat="43.89342" lon="6.53672">
        <ele>891</ele>
        <time>2018-05-26T14:33:24Z</time>
      </trkpt>
      <trkpt lat="43.8934" lon="6.53667">
        <ele>891</ele>
        <time>2018-05-26T14:33:25Z</time>
      </trkpt>
      <trkpt lat="43.89337" lon="6.53662">
        <ele>891</ele>
        <time>2018-05-26T14:33:26Z</time>
      </trkpt>
      <trkpt lat="43.89334" lon="6.53657">
        <ele>891</ele>
        <time>2018-05-26T14:33:27Z</time>
      </trkpt>
      <trkpt lat="43.89331" lon="6.53652">
        <ele>892</ele>
        <time>2018-05-26T14:33:28Z</time>
      </trkpt>
      <trkpt lat="43.89302" lon="6.53609">
        <ele>891</ele>
        <time>2018-05-26T14:33:37Z</time>
      </trkpt>
      <trkpt lat="43.89237" lon="6.5356">
        <ele>905</ele>
        <time>2018-05-26T14:33:53Z</time>
      </trkpt>
      <trkpt lat="43.89231" lon="6.53559">
        <ele>909</ele>
        <time>2018-05-26T14:34:03Z</time>
      </trkpt>
      <trkpt lat="43.89196" lon="6.53558">
        <ele>932</ele>
        <time>2018-05-26T14:34:13Z</time>
      </trkpt>
      <trkpt lat="43.89114" lon="6.5359">
        <ele>901</ele>
        <time>2018-05-26T14:34:25Z</time>
      </trkpt>
      <trkpt lat="43.8911" lon="6.53595">
        <ele>900</ele>
        <time>2018-05-26T14:34:26Z</time>
      </trkpt>
      <trkpt lat="43.89064" lon="6.53684">
        <ele>894</ele>
        <time>2018-05-26T14:34:40Z</time>
      </trkpt>
      <trkpt lat="43.89062" lon="6.53691">
        <ele>895</ele>
        <time>2018-05-26T14:34:41Z</time>
      </trkpt>
      <trkpt lat="43.8906" lon="6.53699">
        <ele>895</ele>
        <time>2018-05-26T14:34:42Z</time>
      </trkpt>
      <trkpt lat="43.89052" lon="6.53738">
        <ele>898</ele>
        <time>2018-05-26T14:34:47Z</time>
      </trkpt>
      <trkpt lat="43.89049" lon="6.53746">
        <ele>898</ele>
        <time>2018-05-26T14:34:48Z</time>
      </trkpt>
      <trkpt lat="43.89038" lon="6.53773">
        <ele>898</ele>
        <time>2018-05-26T14:34:52Z</time>
      </trkpt>
      <trkpt lat="43.89026" lon="6.53791">
        <ele>898</ele>
        <time>2018-05-26T14:34:55Z</time>
      </trkpt>
      <trkpt lat="43.8902" lon="6.53795">
        <ele>899</ele>
        <time>2018-05-26T14:34:56Z</time>
      </trkpt>
      <trkpt lat="43.89014" lon="6.53798">
        <ele>899</ele>
        <time>2018-05-26T14:34:57Z</time>
      </trkpt>
      <trkpt lat="43.89008" lon="6.538">
        <ele>899</ele>
        <time>2018-05-26T14:34:58Z</time>
      </trkpt>
      <trkpt lat="43.89002" lon="6.53801">
        <ele>899</ele>
        <time>2018-05-26T14:34:59Z</time>
      </trkpt>
      <trkpt lat="43.88996" lon="6.53801">
        <ele>898</ele>
        <time>2018-05-26T14:35:00Z</time>
      </trkpt>
      <trkpt lat="43.8899" lon="6.538">
        <ele>897</ele>
        <time>2018-05-26T14:35:01Z</time>
      </trkpt>
      <trkpt lat="43.88985" lon="6.53798">
        <ele>896</ele>
        <time>2018-05-26T14:35:02Z</time>
      </trkpt>
      <trkpt lat="43.88895" lon="6.53802">
        <ele>892</ele>
        <time>2018-05-26T14:35:17Z</time>
      </trkpt>
      <trkpt lat="43.88855" lon="6.53807">
        <ele>889</ele>
        <time>2018-05-26T14:35:24Z</time>
      </trkpt>
      <trkpt lat="43.88849" lon="6.5381">
        <ele>889</ele>
        <time>2018-05-26T14:35:25Z</time>
      </trkpt>
      <trkpt lat="43.88845" lon="6.53814">
        <ele>889</ele>
        <time>2018-05-26T14:35:26Z</time>
      </trkpt>
      <trkpt lat="43.8884" lon="6.53819">
        <ele>891</ele>
        <time>2018-05-26T14:35:27Z</time>
      </trkpt>
      <trkpt lat="43.88836" lon="6.53825">
        <ele>892</ele>
        <time>2018-05-26T14:35:28Z</time>
      </trkpt>
      <trkpt lat="43.88827" lon="6.53836">
        <ele>895</ele>
        <time>2018-05-26T14:35:30Z</time>
      </trkpt>
      <trkpt lat="43.88821" lon="6.53841">
        <ele>897</ele>
        <time>2018-05-26T14:35:31Z</time>
      </trkpt>
      <trkpt lat="43.88815" lon="6.53844">
        <ele>897</ele>
        <time>2018-05-26T14:35:32Z</time>
      </trkpt>
      <trkpt lat="43.88809" lon="6.53845">
        <ele>897</ele>
        <time>2018-05-26T14:35:33Z</time>
      </trkpt>
      <trkpt lat="43.88803" lon="6.53844">
        <ele>897</ele>
        <time>2018-05-26T14:35:34Z</time>
      </trkpt>
      <trkpt lat="43.88797" lon="6.53841">
        <ele>896</ele>
        <time>2018-05-26T14:35:35Z</time>
      </trkpt>
      <trkpt lat="43.88792" lon="6.53835">
        <ele>898</ele>
        <time>2018-05-26T14:35:36Z</time>
      </trkpt>
      <trkpt lat="43.88788" lon="6.53828">
        <ele>899</ele>
        <time>2018-05-26T14:35:37Z</time>
      </trkpt>
      <trkpt lat="43.88785" lon="6.5382">
        <ele>898</ele>
        <time>2018-05-26T14:35:38Z</time>
      </trkpt>
      <trkpt lat="43.88783" lon="6.53811">
        <ele>898</ele>
        <time>2018-05-26T14:35:39Z</time>
      </trkpt>
      <trkpt lat="43.88781" lon="6.53803">
        <ele>897</ele>
        <time>2018-05-26T14:35:40Z</time>
      </trkpt>
      <trkpt lat="43.88759" lon="6.53722">
        <ele>890</ele>
        <time>2018-05-26T14:35:50Z</time>
      </trkpt>
      <trkpt lat="43.88756" lon="6.53715">
        <ele>889</ele>
        <time>2018-05-26T14:35:51Z</time>
      </trkpt>
      <trkpt lat="43.88753" lon="6.53709">
        <ele>888</ele>
        <time>2018-05-26T14:35:52Z</time>
      </trkpt>
      <trkpt lat="43.8875" lon="6.53703">
        <ele>887</ele>
        <time>2018-05-26T14:35:53Z</time>
      </trkpt>
      <trkpt lat="43.88745" lon="6.53699">
        <ele>887</ele>
        <time>2018-05-26T14:35:54Z</time>
      </trkpt>
      <trkpt lat="43.88741" lon="6.53695">
        <ele>886</ele>
        <time>2018-05-26T14:35:55Z</time>
      </trkpt>
      <trkpt lat="43.88736" lon="6.53693">
        <ele>886</ele>
        <time>2018-05-26T14:35:56Z</time>
      </trkpt>
      <trkpt lat="43.88731" lon="6.53692">
        <ele>887</ele>
        <time>2018-05-26T14:35:57Z</time>
      </trkpt>
      <trkpt lat="43.88726" lon="6.53691">
        <ele>888</ele>
        <time>2018-05-26T14:35:58Z</time>
      </trkpt>
      <trkpt lat="43.88721" lon="6.53691">
        <ele>889</ele>
        <time>2018-05-26T14:35:59Z</time>
      </trkpt>
      <trkpt lat="43.88716" lon="6.53692">
        <ele>890</ele>
        <time>2018-05-26T14:36:00Z</time>
      </trkpt>
      <trkpt lat="43.88711" lon="6.53693">
        <ele>891</ele>
        <time>2018-05-26T14:36:01Z</time>
      </trkpt>
      <trkpt lat="43.88707" lon="6.53694">
        <ele>891</ele>
        <time>2018-05-26T14:36:02Z</time>
      </trkpt>
      <trkpt lat="43.88633" lon="6.5372">
        <ele>895</ele>
        <time>2018-05-26T14:36:17Z</time>
      </trkpt>
      <trkpt lat="43.88586" lon="6.53729">
        <ele>887</ele>
        <time>2018-05-26T14:36:26Z</time>
      </trkpt>
      <trkpt lat="43.88582" lon="6.53732">
        <ele>886</ele>
        <time>2018-05-26T14:36:27Z</time>
      </trkpt>
      <trkpt lat="43.88533" lon="6.53784">
        <ele>893</ele>
        <time>2018-05-26T14:36:40Z</time>
      </trkpt>
      <trkpt lat="43.88528" lon="6.53788">
        <ele>893</ele>
        <time>2018-05-26T14:36:41Z</time>
      </trkpt>
      <trkpt lat="43.88478" lon="6.53866">
        <ele>897</ele>
        <time>2018-05-26T14:36:55Z</time>
      </trkpt>
      <trkpt lat="43.88462" lon="6.53898">
        <ele>898</ele>
        <time>2018-05-26T14:37:00Z</time>
      </trkpt>
      <trkpt lat="43.88444" lon="6.53952">
        <ele>902</ele>
        <time>2018-05-26T14:37:07Z</time>
      </trkpt>
      <trkpt lat="43.88441" lon="6.53958">
        <ele>901</ele>
        <time>2018-05-26T14:37:08Z</time>
      </trkpt>
      <trkpt lat="43.88436" lon="6.53965">
        <ele>899</ele>
        <time>2018-05-26T14:37:09Z</time>
      </trkpt>
      <trkpt lat="43.88428" lon="6.53975">
        <ele>899</ele>
        <time>2018-05-26T14:37:11Z</time>
      </trkpt>
      <trkpt lat="43.88422" lon="6.5398">
        <ele>899</ele>
        <time>2018-05-26T14:37:12Z</time>
      </trkpt>
      <trkpt lat="43.88416" lon="6.53982">
        <ele>899</ele>
        <time>2018-05-26T14:37:13Z</time>
      </trkpt>
      <trkpt lat="43.8841" lon="6.53984">
        <ele>897</ele>
        <time>2018-05-26T14:37:14Z</time>
      </trkpt>
      <trkpt lat="43.88404" lon="6.53985">
        <ele>895</ele>
        <time>2018-05-26T14:37:15Z</time>
      </trkpt>
      <trkpt lat="43.88387" lon="6.53988">
        <ele>890</ele>
        <time>2018-05-26T14:37:18Z</time>
      </trkpt>
      <trkpt lat="43.88381" lon="6.53991">
        <ele>889</ele>
        <time>2018-05-26T14:37:19Z</time>
      </trkpt>
      <trkpt lat="43.88377" lon="6.53995">
        <ele>889</ele>
        <time>2018-05-26T14:37:20Z</time>
      </trkpt>
      <trkpt lat="43.88373" lon="6.54">
        <ele>890</ele>
        <time>2018-05-26T14:37:21Z</time>
      </trkpt>
      <trkpt lat="43.8837" lon="6.54007">
        <ele>890</ele>
        <time>2018-05-26T14:37:22Z</time>
      </trkpt>
      <trkpt lat="43.88368" lon="6.54013">
        <ele>891</ele>
        <time>2018-05-26T14:37:23Z</time>
      </trkpt>
      <trkpt lat="43.88361" lon="6.54032">
        <ele>892</ele>
        <time>2018-05-26T14:37:26Z</time>
      </trkpt>
      <trkpt lat="43.88358" lon="6.54038">
        <ele>893</ele>
        <time>2018-05-26T14:37:27Z</time>
      </trkpt>
      <trkpt lat="43.88355" lon="6.54043">
        <ele>893</ele>
        <time>2018-05-26T14:37:28Z</time>
      </trkpt>
      <trkpt lat="43.88351" lon="6.54048">
        <ele>892</ele>
        <time>2018-05-26T14:37:29Z</time>
      </trkpt>
      <trkpt lat="43.88347" lon="6.54051">
        <ele>892</ele>
        <time>2018-05-26T14:37:30Z</time>
      </trkpt>
      <trkpt lat="43.88342" lon="6.54054">
        <ele>890</ele>
        <time>2018-05-26T14:37:31Z</time>
      </trkpt>
      <trkpt lat="43.88338" lon="6.54055">
        <ele>890</ele>
        <time>2018-05-26T14:37:32Z</time>
      </trkpt>
      <trkpt lat="43.88334" lon="6.54055">
        <ele>890</ele>
        <time>2018-05-26T14:37:33Z</time>
      </trkpt>
      <trkpt lat="43.8833" lon="6.54054">
        <ele>891</ele>
        <time>2018-05-26T14:37:34Z</time>
      </trkpt>
      <trkpt lat="43.88327" lon="6.54053">
        <ele>891</ele>
        <time>2018-05-26T14:37:35Z</time>
      </trkpt>
      <trkpt lat="43.883" lon="6.54042">
        <ele>891</ele>
        <time>2018-05-26T14:37:46Z</time>
      </trkpt>
      <trkpt lat="43.88293" lon="6.54038">
        <ele>891</ele>
        <time>2018-05-26T14:37:48Z</time>
      </trkpt>
      <trkpt lat="43.88289" lon="6.54036">
        <ele>891</ele>
        <time>2018-05-26T14:37:49Z</time>
      </trkpt>
      <trkpt lat="43.88259" lon="6.54027">
        <ele>890</ele>
        <time>2018-05-26T14:37:56Z</time>
      </trkpt>
      <trkpt lat="43.88254" lon="6.54028">
        <ele>891</ele>
        <time>2018-05-26T14:37:57Z</time>
      </trkpt>
      <trkpt lat="43.88246" lon="6.54032">
        <ele>891</ele>
        <time>2018-05-26T14:37:59Z</time>
      </trkpt>
      <trkpt lat="43.88241" lon="6.54035">
        <ele>891</ele>
        <time>2018-05-26T14:38:00Z</time>
      </trkpt>
      <trkpt lat="43.88237" lon="6.54038">
        <ele>891</ele>
        <time>2018-05-26T14:38:01Z</time>
      </trkpt>
      <trkpt lat="43.88233" lon="6.54042">
        <ele>891</ele>
        <time>2018-05-26T14:38:02Z</time>
      </trkpt>
      <trkpt lat="43.88229" lon="6.54047">
        <ele>891</ele>
        <time>2018-05-26T14:38:03Z</time>
      </trkpt>
      <trkpt lat="43.88163" lon="6.5411">
        <ele>888</ele>
        <time>2018-05-26T14:38:18Z</time>
      </trkpt>
      <trkpt lat="43.88159" lon="6.54115">
        <ele>888</ele>
        <time>2018-05-26T14:38:19Z</time>
      </trkpt>
      <trkpt lat="43.88156" lon="6.5412">
        <ele>888</ele>
        <time>2018-05-26T14:38:20Z</time>
      </trkpt>
      <trkpt lat="43.88097" lon="6.54217">
        <ele>891</ele>
        <time>2018-05-26T14:38:36Z</time>
      </trkpt>
      <trkpt lat="43.88092" lon="6.54221">
        <ele>891</ele>
        <time>2018-05-26T14:38:37Z</time>
      </trkpt>
      <trkpt lat="43.88087" lon="6.54224">
        <ele>892</ele>
        <time>2018-05-26T14:38:38Z</time>
      </trkpt>
      <trkpt lat="43.88081" lon="6.54225">
        <ele>892</ele>
        <time>2018-05-26T14:38:39Z</time>
      </trkpt>
      <trkpt lat="43.88075" lon="6.54224">
        <ele>891</ele>
        <time>2018-05-26T14:38:40Z</time>
      </trkpt>
      <trkpt lat="43.8807" lon="6.5422">
        <ele>890</ele>
        <time>2018-05-26T14:38:41Z</time>
      </trkpt>
      <trkpt lat="43.88065" lon="6.54215">
        <ele>888</ele>
        <time>2018-05-26T14:38:42Z</time>
      </trkpt>
      <trkpt lat="43.88062" lon="6.54208">
        <ele>887</ele>
        <time>2018-05-26T14:38:43Z</time>
      </trkpt>
      <trkpt lat="43.8806" lon="6.542">
        <ele>886</ele>
        <time>2018-05-26T14:38:44Z</time>
      </trkpt>
      <trkpt lat="43.88059" lon="6.54193">
        <ele>885</ele>
        <time>2018-05-26T14:38:45Z</time>
      </trkpt>
      <trkpt lat="43.88057" lon="6.54186">
        <ele>885</ele>
        <time>2018-05-26T14:38:46Z</time>
      </trkpt>
      <trkpt lat="43.88056" lon="6.54178">
        <ele>885</ele>
        <time>2018-05-26T14:38:47Z</time>
      </trkpt>
      <trkpt lat="43.88052" lon="6.54131">
        <ele>883</ele>
        <time>2018-05-26T14:38:53Z</time>
      </trkpt>
      <trkpt lat="43.88046" lon="6.54109">
        <ele>882</ele>
        <time>2018-05-26T14:38:56Z</time>
      </trkpt>
      <trkpt lat="43.88043" lon="6.54102">
        <ele>882</ele>
        <time>2018-05-26T14:38:57Z</time>
      </trkpt>
      <trkpt lat="43.88039" lon="6.54096">
        <ele>883</ele>
        <time>2018-05-26T14:38:58Z</time>
      </trkpt>
      <trkpt lat="43.88035" lon="6.5409">
        <ele>883</ele>
        <time>2018-05-26T14:38:59Z</time>
      </trkpt>
      <trkpt lat="43.8803" lon="6.54085">
        <ele>883</ele>
        <time>2018-05-26T14:39:00Z</time>
      </trkpt>
      <trkpt lat="43.88026" lon="6.5408">
        <ele>883</ele>
        <time>2018-05-26T14:39:01Z</time>
      </trkpt>
      <trkpt lat="43.88021" lon="6.54076">
        <ele>883</ele>
        <time>2018-05-26T14:39:02Z</time>
      </trkpt>
      <trkpt lat="43.88015" lon="6.54073">
        <ele>883</ele>
        <time>2018-05-26T14:39:03Z</time>
      </trkpt>
      <trkpt lat="43.8801" lon="6.54071">
        <ele>883</ele>
        <time>2018-05-26T14:39:04Z</time>
      </trkpt>
      <trkpt lat="43.88005" lon="6.54069">
        <ele>883</ele>
        <time>2018-05-26T14:39:05Z</time>
      </trkpt>
      <trkpt lat="43.87999" lon="6.54069">
        <ele>884</ele>
        <time>2018-05-26T14:39:06Z</time>
      </trkpt>
      <trkpt lat="43.87994" lon="6.54068">
        <ele>884</ele>
        <time>2018-05-26T14:39:07Z</time>
      </trkpt>
      <trkpt lat="43.87989" lon="6.54069">
        <ele>884</ele>
        <time>2018-05-26T14:39:08Z</time>
      </trkpt>
      <trkpt lat="43.87985" lon="6.54069">
        <ele>884</ele>
        <time>2018-05-26T14:39:09Z</time>
      </trkpt>
      <trkpt lat="43.8798" lon="6.54071">
        <ele>884</ele>
        <time>2018-05-26T14:39:10Z</time>
      </trkpt>
      <trkpt lat="43.87975" lon="6.54073">
        <ele>884</ele>
        <time>2018-05-26T14:39:11Z</time>
      </trkpt>
      <trkpt lat="43.8797" lon="6.54076">
        <ele>884</ele>
        <time>2018-05-26T14:39:12Z</time>
      </trkpt>
      <trkpt lat="43.8791" lon="6.54143">
        <ele>885</ele>
        <time>2018-05-26T14:39:26Z</time>
      </trkpt>
      <trkpt lat="43.87901" lon="6.54152">
        <ele>885</ele>
        <time>2018-05-26T14:39:28Z</time>
      </trkpt>
      <trkpt lat="43.87862" lon="6.54206">
        <ele>888</ele>
        <time>2018-05-26T14:39:38Z</time>
      </trkpt>
      <trkpt lat="43.87857" lon="6.5421">
        <ele>888</ele>
        <time>2018-05-26T14:39:39Z</time>
      </trkpt>
      <trkpt lat="43.87851" lon="6.54213">
        <ele>887</ele>
        <time>2018-05-26T14:39:40Z</time>
      </trkpt>
      <trkpt lat="43.87845" lon="6.54214">
        <ele>886</ele>
        <time>2018-05-26T14:39:41Z</time>
      </trkpt>
      <trkpt lat="43.87839" lon="6.54212">
        <ele>885</ele>
        <time>2018-05-26T14:39:42Z</time>
      </trkpt>
      <trkpt lat="43.87834" lon="6.54208">
        <ele>887</ele>
        <time>2018-05-26T14:39:43Z</time>
      </trkpt>
      <trkpt lat="43.8783" lon="6.54201">
        <ele>889</ele>
        <time>2018-05-26T14:39:44Z</time>
      </trkpt>
      <trkpt lat="43.87828" lon="6.54193">
        <ele>890</ele>
        <time>2018-05-26T14:39:45Z</time>
      </trkpt>
      <trkpt lat="43.87828" lon="6.54185">
        <ele>889</ele>
        <time>2018-05-26T14:39:46Z</time>
      </trkpt>
      <trkpt lat="43.87828" lon="6.54176">
        <ele>888</ele>
        <time>2018-05-26T14:39:47Z</time>
      </trkpt>
      <trkpt lat="43.8783" lon="6.54168">
        <ele>887</ele>
        <time>2018-05-26T14:39:48Z</time>
      </trkpt>
      <trkpt lat="43.87832" lon="6.5416">
        <ele>886</ele>
        <time>2018-05-26T14:39:49Z</time>
      </trkpt>
      <trkpt lat="43.87852" lon="6.54072">
        <ele>885</ele>
        <time>2018-05-26T14:39:59Z</time>
      </trkpt>
      <trkpt lat="43.87855" lon="6.53979">
        <ele>885</ele>
        <time>2018-05-26T14:40:10Z</time>
      </trkpt>
      <trkpt lat="43.87853" lon="6.53971">
        <ele>885</ele>
        <time>2018-05-26T14:40:11Z</time>
      </trkpt>
      <trkpt lat="43.87851" lon="6.53965">
        <ele>885</ele>
        <time>2018-05-26T14:40:12Z</time>
      </trkpt>
      <trkpt lat="43.87848" lon="6.53958">
        <ele>885</ele>
        <time>2018-05-26T14:40:13Z</time>
      </trkpt>
      <trkpt lat="43.87845" lon="6.53952">
        <ele>885</ele>
        <time>2018-05-26T14:40:14Z</time>
      </trkpt>
      <trkpt lat="43.87843" lon="6.53946">
        <ele>885</ele>
        <time>2018-05-26T14:40:15Z</time>
      </trkpt>
      <trkpt lat="43.87841" lon="6.5394">
        <ele>885</ele>
        <time>2018-05-26T14:40:16Z</time>
      </trkpt>
      <trkpt lat="43.87839" lon="6.53935">
        <ele>885</ele>
        <time>2018-05-26T14:40:17Z</time>
      </trkpt>
      <trkpt lat="43.87837" lon="6.5393">
        <ele>885</ele>
        <time>2018-05-26T14:40:18Z</time>
      </trkpt>
      <trkpt lat="43.8783" lon="6.53916">
        <ele>886</ele>
        <time>2018-05-26T14:40:21Z</time>
      </trkpt>
      <trkpt lat="43.87808" lon="6.53865">
        <ele>886</ele>
        <time>2018-05-26T14:40:34Z</time>
      </trkpt>
      <trkpt lat="43.87812" lon="6.53834">
        <ele>869</ele>
        <time>2018-05-26T14:40:42Z</time>
      </trkpt>
      <trkpt lat="43.87843" lon="6.53795">
        <ele>862</ele>
        <time>2018-05-26T14:40:53Z</time>
      </trkpt>
      <trkpt lat="43.87845" lon="6.5379">
        <ele>862</ele>
        <time>2018-05-26T14:40:54Z</time>
      </trkpt>
      <trkpt lat="43.87851" lon="6.53751">
        <ele>856</ele>
        <time>2018-05-26T14:41:01Z</time>
      </trkpt>
      <trkpt lat="43.8785" lon="6.53739">
        <ele>853</ele>
        <time>2018-05-26T14:41:03Z</time>
      </trkpt>
      <trkpt lat="43.87849" lon="6.53733">
        <ele>854</ele>
        <time>2018-05-26T14:41:04Z</time>
      </trkpt>
      <trkpt lat="43.87848" lon="6.53727">
        <ele>855</ele>
        <time>2018-05-26T14:41:05Z</time>
      </trkpt>
      <trkpt lat="43.87846" lon="6.53722">
        <ele>856</ele>
        <time>2018-05-26T14:41:06Z</time>
      </trkpt>
      <trkpt lat="43.87844" lon="6.53717">
        <ele>857</ele>
        <time>2018-05-26T14:41:07Z</time>
      </trkpt>
      <trkpt lat="43.87842" lon="6.53712">
        <ele>858</ele>
        <time>2018-05-26T14:41:08Z</time>
      </trkpt>
      <trkpt lat="43.8784" lon="6.53706">
        <ele>859</ele>
        <time>2018-05-26T14:41:09Z</time>
      </trkpt>
      <trkpt lat="43.87838" lon="6.53702">
        <ele>861</ele>
        <time>2018-05-26T14:41:10Z</time>
      </trkpt>
      <trkpt lat="43.87835" lon="6.53698">
        <ele>861</ele>
        <time>2018-05-26T14:41:11Z</time>
      </trkpt>
      <trkpt lat="43.87831" lon="6.53694">
        <ele>863</ele>
        <time>2018-05-26T14:41:12Z</time>
      </trkpt>
      <trkpt lat="43.87828" lon="6.5369">
        <ele>864</ele>
        <time>2018-05-26T14:41:13Z</time>
      </trkpt>
      <trkpt lat="43.8782" lon="6.53683">
        <ele>866</ele>
        <time>2018-05-26T14:41:15Z</time>
      </trkpt>
      <trkpt lat="43.87816" lon="6.53681">
        <ele>867</ele>
        <time>2018-05-26T14:41:16Z</time>
      </trkpt>
      <trkpt lat="43.87813" lon="6.53679">
        <ele>868</ele>
        <time>2018-05-26T14:41:17Z</time>
      </trkpt>
      <trkpt lat="43.87809" lon="6.53677">
        <ele>870</ele>
        <time>2018-05-26T14:41:18Z</time>
      </trkpt>
      <trkpt lat="43.87805" lon="6.53676">
        <ele>872</ele>
        <time>2018-05-26T14:41:19Z</time>
      </trkpt>
      <trkpt lat="43.878" lon="6.53675">
        <ele>874</ele>
        <time>2018-05-26T14:41:20Z</time>
      </trkpt>
      <trkpt lat="43.87796" lon="6.53675">
        <ele>876</ele>
        <time>2018-05-26T14:41:21Z</time>
      </trkpt>
      <trkpt lat="43.87792" lon="6.53675">
        <ele>877</ele>
        <time>2018-05-26T14:41:22Z</time>
      </trkpt>
      <trkpt lat="43.87787" lon="6.53675">
        <ele>878</ele>
        <time>2018-05-26T14:41:23Z</time>
      </trkpt>
      <trkpt lat="43.87783" lon="6.53676">
        <ele>878</ele>
        <time>2018-05-26T14:41:24Z</time>
      </trkpt>
      <trkpt lat="43.87779" lon="6.53677">
        <ele>878</ele>
        <time>2018-05-26T14:41:25Z</time>
      </trkpt>
      <trkpt lat="43.87774" lon="6.53679">
        <ele>877</ele>
        <time>2018-05-26T14:41:27Z</time>
      </trkpt>
      <trkpt lat="43.87773" lon="6.53684">
        <ele>873</ele>
        <time>2018-05-26T14:41:36Z</time>
      </trkpt>
      <trkpt lat="43.87774" lon="6.53688">
        <ele>868</ele>
        <time>2018-05-26T14:41:46Z</time>
      </trkpt>
      <trkpt lat="43.87776" lon="6.53688">
        <ele>868</ele>
        <time>2018-05-26T14:42:03Z</time>
      </trkpt>
      <trkpt lat="43.87778" lon="6.53688">
        <ele>868</ele>
        <time>2018-05-26T14:42:34Z</time>
      </trkpt>
      <trkpt lat="43.87778" lon="6.53687">
        <ele>869</ele>
        <time>2018-05-26T14:42:57Z</time>
      </trkpt>
      <trkpt lat="43.87777" lon="6.53687">
        <ele>869</ele>
        <time>2018-05-26T14:43:15Z</time>
      </trkpt>
      <trkpt lat="43.87778" lon="6.53687">
        <ele>869</ele>
        <time>2018-05-26T14:43:43Z</time>
      </trkpt>
      <trkpt lat="43.87779" lon="6.53686">
        <ele>869</ele>
        <time>2018-05-26T14:44:07Z</time>
      </trkpt>
      <trkpt lat="43.87779" lon="6.53686">
        <ele>870</ele>
        <time>2018-05-26T14:44:33Z</time>
      </trkpt>
      <trkpt lat="43.87778" lon="6.53686">
        <ele>870</ele>
        <time>2018-05-26T14:45:06Z</time>
      </trkpt>
      <trkpt lat="43.8778" lon="6.53685">
        <ele>870</ele>
        <time>2018-05-26T14:45:25Z</time>
      </trkpt>
      <trkpt lat="43.8778" lon="6.53686">
        <ele>869</ele>
        <time>2018-05-26T14:45:52Z</time>
      </trkpt>
      <trkpt lat="43.87779" lon="6.53686">
        <ele>869</ele>
        <time>2018-05-26T14:46:23Z</time>
      </trkpt>
      <trkpt lat="43.87779" lon="6.53686">
        <ele>869</ele>
        <time>2018-05-26T14:46:47Z</time>
      </trkpt>
      <trkpt lat="43.87778" lon="6.53688">
        <ele>868</ele>
        <time>2018-05-26T14:47:26Z</time>
      </trkpt>
      <trkpt lat="43.87777" lon="6.53688">
        <ele>868</ele>
        <time>2018-05-26T14:47:54Z</time>
      </trkpt>
      <trkpt lat="43.87777" lon="6.53689">
        <ele>867</ele>
        <time>2018-05-26T14:48:28Z</time>
      </trkpt>
      <trkpt lat="43.87777" lon="6.53689">
        <ele>866</ele>
        <time>2018-05-26T14:48:53Z</time>
      </trkpt>
      <trkpt lat="43.87775" lon="6.53688">
        <ele>868</ele>
        <time>2018-05-26T14:49:23Z</time>
      </trkpt>
      <trkpt lat="43.87775" lon="6.53687">
        <ele>869</ele>
        <time>2018-05-26T14:49:54Z</time>
      </trkpt>
      <trkpt lat="43.87774" lon="6.53687">
        <ele>869</ele>
        <time>2018-05-26T14:50:27Z</time>
      </trkpt>
      <trkpt lat="43.87774" lon="6.53687">
        <ele>869</ele>
        <time>2018-05-26T14:51:04Z</time>
      </trkpt>
      <trkpt lat="43.87777" lon="6.53687">
        <ele>868</ele>
        <time>2018-05-26T14:51:29Z</time>
      </trkpt>
      <trkpt lat="43.87779" lon="6.53685">
        <ele>870</ele>
        <time>2018-05-26T14:51:55Z</time>
      </trkpt>
      <trkpt lat="43.87779" lon="6.53686">
        <ele>870</ele>
        <time>2018-05-26T14:52:24Z</time>
      </trkpt>
      <trkpt lat="43.87776" lon="6.53687">
        <ele>869</ele>
        <time>2018-05-26T14:52:45Z</time>
      </trkpt>
      <trkpt lat="43.87776" lon="6.53685">
        <ele>871</ele>
        <time>2018-05-26T14:53:11Z</time>
      </trkpt>
      <trkpt lat="43.87777" lon="6.53686">
        <ele>870</ele>
        <time>2018-05-26T14:53:44Z</time>
      </trkpt>
      <trkpt lat="43.87777" lon="6.53685">
        <ele>871</ele>
        <time>2018-05-26T14:54:10Z</time>
      </trkpt>
      <trkpt lat="43.87776" lon="6.53685">
        <ele>870</ele>
        <time>2018-05-26T14:54:42Z</time>
      </trkpt>
      <trkpt lat="43.87774" lon="6.53686">
        <ele>870</ele>
        <time>2018-05-26T14:55:25Z</time>
      </trkpt>
      <trkpt lat="43.87776" lon="6.53685">
        <ele>871</ele>
        <time>2018-05-26T14:55:50Z</time>
      </trkpt>
      <trkpt lat="43.87777" lon="6.53685">
        <ele>871</ele>
        <time>2018-05-26T14:56:20Z</time>
      </trkpt>
      <trkpt lat="43.87777" lon="6.53684">
        <ele>871</ele>
        <time>2018-05-26T14:56:54Z</time>
      </trkpt>
      <trkpt lat="43.87777" lon="6.53682">
        <ele>874</ele>
        <time>2018-05-26T14:57:08Z</time>
      </trkpt>
      <trkpt lat="43.87773" lon="6.53679">
        <ele>877</ele>
        <time>2018-05-26T14:57:16Z</time>
      </trkpt>
      <trkpt lat="43.87773" lon="6.53677">
        <ele>879</ele>
        <time>2018-05-26T14:57:17Z</time>
      </trkpt>
      <trkpt lat="43.87773" lon="6.53674">
        <ele>882</ele>
        <time>2018-05-26T14:57:18Z</time>
      </trkpt>
      <trkpt lat="43.87773" lon="6.53671">
        <ele>884</ele>
        <time>2018-05-26T14:57:19Z</time>
      </trkpt>
      <trkpt lat="43.87773" lon="6.53668">
        <ele>883</ele>
        <time>2018-05-26T14:57:20Z</time>
      </trkpt>
      <trkpt lat="43.87772" lon="6.53664">
        <ele>883</ele>
        <time>2018-05-26T14:57:21Z</time>
      </trkpt>
      <trkpt lat="43.87771" lon="6.5366">
        <ele>883</ele>
        <time>2018-05-26T14:57:22Z</time>
      </trkpt>
      <trkpt lat="43.8777" lon="6.53656">
        <ele>883</ele>
        <time>2018-05-26T14:57:23Z</time>
      </trkpt>
      <trkpt lat="43.87749" lon="6.53621">
        <ele>886</ele>
        <time>2018-05-26T14:57:33Z</time>
      </trkpt>
      <trkpt lat="43.87704" lon="6.53548">
        <ele>888</ele>
        <time>2018-05-26T14:57:48Z</time>
      </trkpt>
      <trkpt lat="43.87697" lon="6.53531">
        <ele>889</ele>
        <time>2018-05-26T14:57:51Z</time>
      </trkpt>
      <trkpt lat="43.87693" lon="6.53505">
        <ele>888</ele>
        <time>2018-05-26T14:57:55Z</time>
      </trkpt>
      <trkpt lat="43.87676" lon="6.53396">
        <ele>883</ele>
        <time>2018-05-26T14:58:12Z</time>
      </trkpt>
      <trkpt lat="43.8765" lon="6.53307">
        <ele>883</ele>
        <time>2018-05-26T14:58:29Z</time>
      </trkpt>
      <trkpt lat="43.87645" lon="6.53297">
        <ele>883</ele>
        <time>2018-05-26T14:58:31Z</time>
      </trkpt>
      <trkpt lat="43.87642" lon="6.53293">
        <ele>883</ele>
        <time>2018-05-26T14:58:32Z</time>
      </trkpt>
      <trkpt lat="43.8764" lon="6.53289">
        <ele>883</ele>
        <time>2018-05-26T14:58:33Z</time>
      </trkpt>
      <trkpt lat="43.87637" lon="6.53286">
        <ele>884</ele>
        <time>2018-05-26T14:58:34Z</time>
      </trkpt>
      <trkpt lat="43.87633" lon="6.53283">
        <ele>884</ele>
        <time>2018-05-26T14:58:35Z</time>
      </trkpt>
      <trkpt lat="43.87629" lon="6.5328">
        <ele>885</ele>
        <time>2018-05-26T14:58:36Z</time>
      </trkpt>
      <trkpt lat="43.87622" lon="6.53275">
        <ele>886</ele>
        <time>2018-05-26T14:58:38Z</time>
      </trkpt>
      <trkpt lat="43.87614" lon="6.53271">
        <ele>887</ele>
        <time>2018-05-26T14:58:40Z</time>
      </trkpt>
      <trkpt lat="43.8761" lon="6.5327">
        <ele>887</ele>
        <time>2018-05-26T14:58:41Z</time>
      </trkpt>
      <trkpt lat="43.87587" lon="6.53255">
        <ele>892</ele>
        <time>2018-05-26T14:58:47Z</time>
      </trkpt>
      <trkpt lat="43.87583" lon="6.53251">
        <ele>892</ele>
        <time>2018-05-26T14:58:48Z</time>
      </trkpt>
      <trkpt lat="43.8758" lon="6.53246">
        <ele>892</ele>
        <time>2018-05-26T14:58:49Z</time>
      </trkpt>
      <trkpt lat="43.87578" lon="6.53241">
        <ele>891</ele>
        <time>2018-05-26T14:58:50Z</time>
      </trkpt>
      <trkpt lat="43.87578" lon="6.53235">
        <ele>890</ele>
        <time>2018-05-26T14:58:51Z</time>
      </trkpt>
      <trkpt lat="43.87578" lon="6.53229">
        <ele>888</ele>
        <time>2018-05-26T14:58:52Z</time>
      </trkpt>
      <trkpt lat="43.87579" lon="6.53223">
        <ele>886</ele>
        <time>2018-05-26T14:58:53Z</time>
      </trkpt>
      <trkpt lat="43.8758" lon="6.53217">
        <ele>886</ele>
        <time>2018-05-26T14:58:54Z</time>
      </trkpt>
      <trkpt lat="43.87582" lon="6.53212">
        <ele>886</ele>
        <time>2018-05-26T14:58:55Z</time>
      </trkpt>
      <trkpt lat="43.8759" lon="6.53177">
        <ele>886</ele>
        <time>2018-05-26T14:59:01Z</time>
      </trkpt>
      <trkpt lat="43.87591" lon="6.53165">
        <ele>887</ele>
        <time>2018-05-26T14:59:03Z</time>
      </trkpt>
      <trkpt lat="43.8759" lon="6.53158">
        <ele>887</ele>
        <time>2018-05-26T14:59:04Z</time>
      </trkpt>
      <trkpt lat="43.87589" lon="6.53153">
        <ele>887</ele>
        <time>2018-05-26T14:59:05Z</time>
      </trkpt>
      <trkpt lat="43.87589" lon="6.53147">
        <ele>886</ele>
        <time>2018-05-26T14:59:06Z</time>
      </trkpt>
      <trkpt lat="43.87587" lon="6.53141">
        <ele>886</ele>
        <time>2018-05-26T14:59:07Z</time>
      </trkpt>
      <trkpt lat="43.87586" lon="6.53135">
        <ele>886</ele>
        <time>2018-05-26T14:59:08Z</time>
      </trkpt>
      <trkpt lat="43.87584" lon="6.53129">
        <ele>886</ele>
        <time>2018-05-26T14:59:09Z</time>
      </trkpt>
      <trkpt lat="43.87582" lon="6.53124">
        <ele>885</ele>
        <time>2018-05-26T14:59:10Z</time>
      </trkpt>
      <trkpt lat="43.8756" lon="6.53071">
        <ele>884</ele>
        <time>2018-05-26T14:59:20Z</time>
      </trkpt>
      <trkpt lat="43.87533" lon="6.53023">
        <ele>886</ele>
        <time>2018-05-26T14:59:29Z</time>
      </trkpt>
      <trkpt lat="43.8753" lon="6.53016">
        <ele>887</ele>
        <time>2018-05-26T14:59:30Z</time>
      </trkpt>
      <trkpt lat="43.87529" lon="6.5301">
        <ele>887</ele>
        <time>2018-05-26T14:59:31Z</time>
      </trkpt>
      <trkpt lat="43.87528" lon="6.53003">
        <ele>887</ele>
        <time>2018-05-26T14:59:32Z</time>
      </trkpt>
      <trkpt lat="43.87528" lon="6.52996">
        <ele>887</ele>
        <time>2018-05-26T14:59:33Z</time>
      </trkpt>
      <trkpt lat="43.87528" lon="6.52989">
        <ele>887</ele>
        <time>2018-05-26T14:59:34Z</time>
      </trkpt>
      <trkpt lat="43.87529" lon="6.52982">
        <ele>887</ele>
        <time>2018-05-26T14:59:35Z</time>
      </trkpt>
      <trkpt lat="43.87531" lon="6.52976">
        <ele>886</ele>
        <time>2018-05-26T14:59:36Z</time>
      </trkpt>
      <trkpt lat="43.87535" lon="6.52957">
        <ele>884</ele>
        <time>2018-05-26T14:59:39Z</time>
      </trkpt>
      <trkpt lat="43.87535" lon="6.52951">
        <ele>884</ele>
        <time>2018-05-26T14:59:40Z</time>
      </trkpt>
      <trkpt lat="43.87535" lon="6.52926">
        <ele>883</ele>
        <time>2018-05-26T14:59:44Z</time>
      </trkpt>
      <trkpt lat="43.87534" lon="6.52919">
        <ele>883</ele>
        <time>2018-05-26T14:59:45Z</time>
      </trkpt>
      <trkpt lat="43.87514" lon="6.52849">
        <ele>888</ele>
        <time>2018-05-26T14:59:57Z</time>
      </trkpt>
      <trkpt lat="43.87512" lon="6.52843">
        <ele>889</ele>
        <time>2018-05-26T14:59:58Z</time>
      </trkpt>
      <trkpt lat="43.87507" lon="6.52831">
        <ele>890</ele>
        <time>2018-05-26T15:00:00Z</time>
      </trkpt>
      <trkpt lat="43.8749" lon="6.52772">
        <ele>889</ele>
        <time>2018-05-26T15:00:09Z</time>
      </trkpt>
      <trkpt lat="43.87483" lon="6.52665">
        <ele>886</ele>
        <time>2018-05-26T15:00:24Z</time>
      </trkpt>
      <trkpt lat="43.87458" lon="6.52577">
        <ele>885</ele>
        <time>2018-05-26T15:00:37Z</time>
      </trkpt>
      <trkpt lat="43.87436" lon="6.52511">
        <ele>887</ele>
        <time>2018-05-26T15:00:47Z</time>
      </trkpt>
      <trkpt lat="43.87402" lon="6.5239">
        <ele>888</ele>
        <time>2018-05-26T15:01:05Z</time>
      </trkpt>
      <trkpt lat="43.87389" lon="6.52277">
        <ele>890</ele>
        <time>2018-05-26T15:01:22Z</time>
      </trkpt>
      <trkpt lat="43.87378" lon="6.52148">
        <ele>885</ele>
        <time>2018-05-26T15:01:41Z</time>
      </trkpt>
      <trkpt lat="43.87389" lon="6.52042">
        <ele>883</ele>
        <time>2018-05-26T15:01:57Z</time>
      </trkpt>
      <trkpt lat="43.87392" lon="6.52001">
        <ele>883</ele>
        <time>2018-05-26T15:02:03Z</time>
      </trkpt>
      <trkpt lat="43.87387" lon="6.51871">
        <ele>882</ele>
        <time>2018-05-26T15:02:22Z</time>
      </trkpt>
      <trkpt lat="43.8738" lon="6.51755">
        <ele>887</ele>
        <time>2018-05-26T15:02:42Z</time>
      </trkpt>
      <trkpt lat="43.87376" lon="6.51673">
        <ele>891</ele>
        <time>2018-05-26T15:02:58Z</time>
      </trkpt>
      <trkpt lat="43.87371" lon="6.51589">
        <ele>896</ele>
        <time>2018-05-26T15:03:16Z</time>
      </trkpt>
      <trkpt lat="43.87366" lon="6.51507">
        <ele>891</ele>
        <time>2018-05-26T15:03:34Z</time>
      </trkpt>
      <trkpt lat="43.87355" lon="6.5144">
        <ele>894</ele>
        <time>2018-05-26T15:03:48Z</time>
      </trkpt>
      <trkpt lat="43.87352" lon="6.51434">
        <ele>894</ele>
        <time>2018-05-26T15:03:49Z</time>
      </trkpt>
      <trkpt lat="43.87351" lon="6.5143">
        <ele>895</ele>
        <time>2018-05-26T15:03:50Z</time>
      </trkpt>
      <trkpt lat="43.87349" lon="6.51425">
        <ele>895</ele>
        <time>2018-05-26T15:03:51Z</time>
      </trkpt>
      <trkpt lat="43.87346" lon="6.51421">
        <ele>895</ele>
        <time>2018-05-26T15:03:52Z</time>
      </trkpt>
      <trkpt lat="43.87343" lon="6.51417">
        <ele>896</ele>
        <time>2018-05-26T15:03:53Z</time>
      </trkpt>
      <trkpt lat="43.8734" lon="6.51413">
        <ele>896</ele>
        <time>2018-05-26T15:03:54Z</time>
      </trkpt>
      <trkpt lat="43.87334" lon="6.51405">
        <ele>896</ele>
        <time>2018-05-26T15:03:56Z</time>
      </trkpt>
      <trkpt lat="43.87285" lon="6.51357">
        <ele>898</ele>
        <time>2018-05-26T15:04:11Z</time>
      </trkpt>
      <trkpt lat="43.87259" lon="6.51331">
        <ele>899</ele>
        <time>2018-05-26T15:04:19Z</time>
      </trkpt>
      <trkpt lat="43.87215" lon="6.51288">
        <ele>898</ele>
        <time>2018-05-26T15:04:32Z</time>
      </trkpt>
      <trkpt lat="43.87164" lon="6.51254">
        <ele>898</ele>
        <time>2018-05-26T15:04:45Z</time>
      </trkpt>
      <trkpt lat="43.8716" lon="6.51253">
        <ele>898</ele>
        <time>2018-05-26T15:04:46Z</time>
      </trkpt>
      <trkpt lat="43.87156" lon="6.51251">
        <ele>899</ele>
        <time>2018-05-26T15:04:47Z</time>
      </trkpt>
      <trkpt lat="43.87152" lon="6.5125">
        <ele>899</ele>
        <time>2018-05-26T15:04:48Z</time>
      </trkpt>
      <trkpt lat="43.87149" lon="6.51248">
        <ele>899</ele>
        <time>2018-05-26T15:04:49Z</time>
      </trkpt>
      <trkpt lat="43.87145" lon="6.51246">
        <ele>899</ele>
        <time>2018-05-26T15:04:50Z</time>
      </trkpt>
      <trkpt lat="43.87141" lon="6.51244">
        <ele>899</ele>
        <time>2018-05-26T15:04:51Z</time>
      </trkpt>
      <trkpt lat="43.87138" lon="6.51242">
        <ele>900</ele>
        <time>2018-05-26T15:04:52Z</time>
      </trkpt>
      <trkpt lat="43.87088" lon="6.51204">
        <ele>900</ele>
        <time>2018-05-26T15:05:07Z</time>
      </trkpt>
      <trkpt lat="43.87038" lon="6.51156">
        <ele>897</ele>
        <time>2018-05-26T15:05:22Z</time>
      </trkpt>
      <trkpt lat="43.86969" lon="6.51092">
        <ele>892</ele>
        <time>2018-05-26T15:05:38Z</time>
      </trkpt>
      <trkpt lat="43.86958" lon="6.51079">
        <ele>890</ele>
        <time>2018-05-26T15:05:42Z</time>
      </trkpt>
      <trkpt lat="43.86955" lon="6.51078">
        <ele>890</ele>
        <time>2018-05-26T15:05:43Z</time>
      </trkpt>
      <trkpt lat="43.86953" lon="6.51078">
        <ele>889</ele>
        <time>2018-05-26T15:05:44Z</time>
      </trkpt>
      <trkpt lat="43.86952" lon="6.51078">
        <ele>889</ele>
        <time>2018-05-26T15:05:56Z</time>
      </trkpt>
      <trkpt lat="43.86951" lon="6.51078">
        <ele>889</ele>
        <time>2018-05-26T15:06:22Z</time>
      </trkpt>
      <trkpt lat="43.86945" lon="6.51077">
        <ele>888</ele>
        <time>2018-05-26T15:06:36Z</time>
      </trkpt>
      <trkpt lat="43.86945" lon="6.51076">
        <ele>888</ele>
        <time>2018-05-26T15:07:00Z</time>
      </trkpt>
      <trkpt lat="43.86945" lon="6.51077">
        <ele>888</ele>
        <time>2018-05-26T15:07:23Z</time>
      </trkpt>
      <trkpt lat="43.86944" lon="6.51078">
        <ele>888</ele>
        <time>2018-05-26T15:07:44Z</time>
      </trkpt>
      <trkpt lat="43.86944" lon="6.51078">
        <ele>888</ele>
        <time>2018-05-26T15:08:05Z</time>
      </trkpt>
      <trkpt lat="43.86944" lon="6.51078">
        <ele>888</ele>
        <time>2018-05-26T15:08:31Z</time>
      </trkpt>
      <trkpt lat="43.86943" lon="6.51079">
        <ele>887</ele>
        <time>2018-05-26T15:08:36Z</time>
      </trkpt>
      <trkpt lat="43.86941" lon="6.5108">
        <ele>887</ele>
        <time>2018-05-26T15:08:37Z</time>
      </trkpt>
      <trkpt lat="43.86939" lon="6.51081">
        <ele>887</ele>
        <time>2018-05-26T15:08:38Z</time>
      </trkpt>
      <trkpt lat="43.86937" lon="6.51083">
        <ele>886</ele>
        <time>2018-05-26T15:08:39Z</time>
      </trkpt>
      <trkpt lat="43.86936" lon="6.51086">
        <ele>886</ele>
        <time>2018-05-26T15:08:40Z</time>
      </trkpt>
      <trkpt lat="43.86912" lon="6.51128">
        <ele>886</ele>
        <time>2018-05-26T15:08:51Z</time>
      </trkpt>
      <trkpt lat="43.8689" lon="6.51148">
        <ele>889</ele>
        <time>2018-05-26T15:09:00Z</time>
      </trkpt>
      <trkpt lat="43.86886" lon="6.51148">
        <ele>889</ele>
        <time>2018-05-26T15:09:02Z</time>
      </trkpt>
      <trkpt lat="43.86883" lon="6.51148">
        <ele>888</ele>
        <time>2018-05-26T15:09:03Z</time>
      </trkpt>
      <trkpt lat="43.86881" lon="6.51148">
        <ele>888</ele>
        <time>2018-05-26T15:09:04Z</time>
      </trkpt>
      <trkpt lat="43.8688" lon="6.51148">
        <ele>888</ele>
        <time>2018-05-26T15:09:05Z</time>
      </trkpt>
      <trkpt lat="43.86878" lon="6.51149">
        <ele>888</ele>
        <time>2018-05-26T15:09:06Z</time>
      </trkpt>
      <trkpt lat="43.86876" lon="6.51149">
        <ele>888</ele>
        <time>2018-05-26T15:09:19Z</time>
      </trkpt>
      <trkpt lat="43.86873" lon="6.5115">
        <ele>889</ele>
        <time>2018-05-26T15:09:38Z</time>
      </trkpt>
      <trkpt lat="43.86872" lon="6.51151">
        <ele>889</ele>
        <time>2018-05-26T15:09:55Z</time>
      </trkpt>
      <trkpt lat="43.86869" lon="6.51149">
        <ele>888</ele>
        <time>2018-05-26T15:10:05Z</time>
      </trkpt>
      <trkpt lat="43.86867" lon="6.51149">
        <ele>888</ele>
        <time>2018-05-26T15:10:06Z</time>
      </trkpt>
      <trkpt lat="43.86866" lon="6.51148">
        <ele>888</ele>
        <time>2018-05-26T15:10:07Z</time>
      </trkpt>
      <trkpt lat="43.86864" lon="6.51147">
        <ele>888</ele>
        <time>2018-05-26T15:10:08Z</time>
      </trkpt>
      <trkpt lat="43.86862" lon="6.51146">
        <ele>888</ele>
        <time>2018-05-26T15:10:09Z</time>
      </trkpt>
      <trkpt lat="43.86859" lon="6.51144">
        <ele>887</ele>
        <time>2018-05-26T15:10:11Z</time>
      </trkpt>
      <trkpt lat="43.86857" lon="6.51143">
        <ele>887</ele>
        <time>2018-05-26T15:10:12Z</time>
      </trkpt>
      <trkpt lat="43.86855" lon="6.51142">
        <ele>886</ele>
        <time>2018-05-26T15:10:13Z</time>
      </trkpt>
      <trkpt lat="43.86853" lon="6.5114">
        <ele>886</ele>
        <time>2018-05-26T15:10:14Z</time>
      </trkpt>
      <trkpt lat="43.86851" lon="6.51137">
        <ele>885</ele>
        <time>2018-05-26T15:10:15Z</time>
      </trkpt>
      <trkpt lat="43.86849" lon="6.51135">
        <ele>884</ele>
        <time>2018-05-26T15:10:16Z</time>
      </trkpt>
      <trkpt lat="43.86846" lon="6.51132">
        <ele>883</ele>
        <time>2018-05-26T15:10:17Z</time>
      </trkpt>
      <trkpt lat="43.86843" lon="6.51129">
        <ele>882</ele>
        <time>2018-05-26T15:10:18Z</time>
      </trkpt>
      <trkpt lat="43.86841" lon="6.51126">
        <ele>882</ele>
        <time>2018-05-26T15:10:19Z</time>
      </trkpt>
      <trkpt lat="43.86839" lon="6.51123">
        <ele>881</ele>
        <time>2018-05-26T15:10:20Z</time>
      </trkpt>
      <trkpt lat="43.86837" lon="6.5112">
        <ele>880</ele>
        <time>2018-05-26T15:10:21Z</time>
      </trkpt>
      <trkpt lat="43.86837" lon="6.51117">
        <ele>879</ele>
        <time>2018-05-26T15:10:22Z</time>
      </trkpt>
      <trkpt lat="43.86836" lon="6.51115">
        <ele>878</ele>
        <time>2018-05-26T15:10:23Z</time>
      </trkpt>
      <trkpt lat="43.86835" lon="6.51112">
        <ele>878</ele>
        <time>2018-05-26T15:10:24Z</time>
      </trkpt>
      <trkpt lat="43.86833" lon="6.51109">
        <ele>877</ele>
        <time>2018-05-26T15:10:25Z</time>
      </trkpt>
      <trkpt lat="43.86799" lon="6.51083">
        <ele>876</ele>
        <time>2018-05-26T15:10:38Z</time>
      </trkpt>
      <trkpt lat="43.86755" lon="6.51092">
        <ele>877</ele>
        <time>2018-05-26T15:10:50Z</time>
      </trkpt>
      <trkpt lat="43.86729" lon="6.51101">
        <ele>878</ele>
        <time>2018-05-26T15:11:03Z</time>
      </trkpt>
      <trkpt lat="43.86702" lon="6.5111">
        <ele>878</ele>
        <time>2018-05-26T15:11:13Z</time>
      </trkpt>
      <trkpt lat="43.86699" lon="6.51109">
        <ele>878</ele>
        <time>2018-05-26T15:11:14Z</time>
      </trkpt>
      <trkpt lat="43.86696" lon="6.51108">
        <ele>878</ele>
        <time>2018-05-26T15:11:15Z</time>
      </trkpt>
      <trkpt lat="43.86693" lon="6.51108">
        <ele>878</ele>
        <time>2018-05-26T15:11:16Z</time>
      </trkpt>
      <trkpt lat="43.8669" lon="6.51108">
        <ele>878</ele>
        <time>2018-05-26T15:11:17Z</time>
      </trkpt>
      <trkpt lat="43.8666" lon="6.51107">
        <ele>878</ele>
        <time>2018-05-26T15:11:28Z</time>
      </trkpt>
      <trkpt lat="43.86645" lon="6.51106">
        <ele>877</ele>
        <time>2018-05-26T15:11:32Z</time>
      </trkpt>
      <trkpt lat="43.86631" lon="6.51107">
        <ele>876</ele>
        <time>2018-05-26T15:11:35Z</time>
      </trkpt>
      <trkpt lat="43.86556" lon="6.51114">
        <ele>870</ele>
        <time>2018-05-26T15:11:48Z</time>
      </trkpt>
      <trkpt lat="43.86514" lon="6.51122">
        <ele>869</ele>
        <time>2018-05-26T15:11:56Z</time>
      </trkpt>
      <trkpt lat="43.86509" lon="6.51125">
        <ele>870</ele>
        <time>2018-05-26T15:11:57Z</time>
      </trkpt>
      <trkpt lat="43.86504" lon="6.51128">
        <ele>871</ele>
        <time>2018-05-26T15:11:58Z</time>
      </trkpt>
      <trkpt lat="43.865" lon="6.51131">
        <ele>871</ele>
        <time>2018-05-26T15:11:59Z</time>
      </trkpt>
      <trkpt lat="43.86495" lon="6.51134">
        <ele>872</ele>
        <time>2018-05-26T15:12:00Z</time>
      </trkpt>
      <trkpt lat="43.86443" lon="6.51167">
        <ele>870</ele>
        <time>2018-05-26T15:12:13Z</time>
      </trkpt>
      <trkpt lat="43.86426" lon="6.51177">
        <ele>868</ele>
        <time>2018-05-26T15:12:17Z</time>
      </trkpt>
      <trkpt lat="43.86423" lon="6.51181">
        <ele>868</ele>
        <time>2018-05-26T15:12:18Z</time>
      </trkpt>
      <trkpt lat="43.8642" lon="6.51186">
        <ele>868</ele>
        <time>2018-05-26T15:12:19Z</time>
      </trkpt>
      <trkpt lat="43.86385" lon="6.51243">
        <ele>875</ele>
        <time>2018-05-26T15:12:31Z</time>
      </trkpt>
      <trkpt lat="43.86332" lon="6.51289">
        <ele>866</ele>
        <time>2018-05-26T15:12:44Z</time>
      </trkpt>
      <trkpt lat="43.86328" lon="6.51294">
        <ele>866</ele>
        <time>2018-05-26T15:12:45Z</time>
      </trkpt>
      <trkpt lat="43.86279" lon="6.51359">
        <ele>865</ele>
        <time>2018-05-26T15:12:57Z</time>
      </trkpt>
      <trkpt lat="43.86273" lon="6.51365">
        <ele>866</ele>
        <time>2018-05-26T15:12:59Z</time>
      </trkpt>
      <trkpt lat="43.86269" lon="6.51368">
        <ele>866</ele>
        <time>2018-05-26T15:13:00Z</time>
      </trkpt>
      <trkpt lat="43.86264" lon="6.51369">
        <ele>866</ele>
        <time>2018-05-26T15:13:01Z</time>
      </trkpt>
      <trkpt lat="43.8626" lon="6.5137">
        <ele>866</ele>
        <time>2018-05-26T15:13:02Z</time>
      </trkpt>
      <trkpt lat="43.86255" lon="6.5137">
        <ele>865</ele>
        <time>2018-05-26T15:13:03Z</time>
      </trkpt>
      <trkpt lat="43.86246" lon="6.51372">
        <ele>865</ele>
        <time>2018-05-26T15:13:05Z</time>
      </trkpt>
      <trkpt lat="43.86242" lon="6.51374">
        <ele>865</ele>
        <time>2018-05-26T15:13:06Z</time>
      </trkpt>
      <trkpt lat="43.86238" lon="6.51376">
        <ele>865</ele>
        <time>2018-05-26T15:13:07Z</time>
      </trkpt>
      <trkpt lat="43.86234" lon="6.51378">
        <ele>865</ele>
        <time>2018-05-26T15:13:08Z</time>
      </trkpt>
      <trkpt lat="43.8623" lon="6.5138">
        <ele>865</ele>
        <time>2018-05-26T15:13:09Z</time>
      </trkpt>
      <trkpt lat="43.86226" lon="6.51382">
        <ele>865</ele>
        <time>2018-05-26T15:13:10Z</time>
      </trkpt>
      <trkpt lat="43.86222" lon="6.51386">
        <ele>865</ele>
        <time>2018-05-26T15:13:11Z</time>
      </trkpt>
      <trkpt lat="43.86219" lon="6.5139">
        <ele>865</ele>
        <time>2018-05-26T15:13:12Z</time>
      </trkpt>
      <trkpt lat="43.86217" lon="6.51394">
        <ele>866</ele>
        <time>2018-05-26T15:13:13Z</time>
      </trkpt>
      <trkpt lat="43.86213" lon="6.51397">
        <ele>866</ele>
        <time>2018-05-26T15:13:14Z</time>
      </trkpt>
      <trkpt lat="43.8621" lon="6.514">
        <ele>866</ele>
        <time>2018-05-26T15:13:15Z</time>
      </trkpt>
      <trkpt lat="43.86207" lon="6.51403">
        <ele>866</ele>
        <time>2018-05-26T15:13:16Z</time>
      </trkpt>
      <trkpt lat="43.86203" lon="6.51405">
        <ele>866</ele>
        <time>2018-05-26T15:13:17Z</time>
      </trkpt>
      <trkpt lat="43.86149" lon="6.51436">
        <ele>861</ele>
        <time>2018-05-26T15:13:30Z</time>
      </trkpt>
      <trkpt lat="43.86145" lon="6.5144">
        <ele>860</ele>
        <time>2018-05-26T15:13:31Z</time>
      </trkpt>
      <trkpt lat="43.8614" lon="6.51445">
        <ele>860</ele>
        <time>2018-05-26T15:13:32Z</time>
      </trkpt>
      <trkpt lat="43.86106" lon="6.51493">
        <ele>857</ele>
        <time>2018-05-26T15:13:43Z</time>
      </trkpt>
      <trkpt lat="43.86078" lon="6.51535">
        <ele>855</ele>
        <time>2018-05-26T15:13:55Z</time>
      </trkpt>
      <trkpt lat="43.86066" lon="6.51551">
        <ele>855</ele>
        <time>2018-05-26T15:14:00Z</time>
      </trkpt>
      <trkpt lat="43.86063" lon="6.51554">
        <ele>854</ele>
        <time>2018-05-26T15:14:01Z</time>
      </trkpt>
      <trkpt lat="43.86028" lon="6.5156">
        <ele>857</ele>
        <time>2018-05-26T15:14:12Z</time>
      </trkpt>
      <trkpt lat="43.86019" lon="6.51538">
        <ele>853</ele>
        <time>2018-05-26T15:14:17Z</time>
      </trkpt>
      <trkpt lat="43.86017" lon="6.51534">
        <ele>852</ele>
        <time>2018-05-26T15:14:18Z</time>
      </trkpt>
      <trkpt lat="43.86013" lon="6.5153">
        <ele>852</ele>
        <time>2018-05-26T15:14:19Z</time>
      </trkpt>
      <trkpt lat="43.86009" lon="6.51526">
        <ele>852</ele>
        <time>2018-05-26T15:14:20Z</time>
      </trkpt>
      <trkpt lat="43.86005" lon="6.51523">
        <ele>851</ele>
        <time>2018-05-26T15:14:21Z</time>
      </trkpt>
      <trkpt lat="43.86001" lon="6.5152">
        <ele>851</ele>
        <time>2018-05-26T15:14:22Z</time>
      </trkpt>
      <trkpt lat="43.85977" lon="6.515">
        <ele>848</ele>
        <time>2018-05-26T15:14:31Z</time>
      </trkpt>
      <trkpt lat="43.8595" lon="6.51462">
        <ele>844</ele>
        <time>2018-05-26T15:14:41Z</time>
      </trkpt>
      <trkpt lat="43.85913" lon="6.51443">
        <ele>842</ele>
        <time>2018-05-26T15:14:53Z</time>
      </trkpt>
      <trkpt lat="43.8589" lon="6.51438">
        <ele>841</ele>
        <time>2018-05-26T15:14:59Z</time>
      </trkpt>
      <trkpt lat="43.85866" lon="6.51427">
        <ele>839</ele>
        <time>2018-05-26T15:15:05Z</time>
      </trkpt>
      <trkpt lat="43.85862" lon="6.51424">
        <ele>838</ele>
        <time>2018-05-26T15:15:06Z</time>
      </trkpt>
      <trkpt lat="43.85849" lon="6.51405">
        <ele>837</ele>
        <time>2018-05-26T15:15:11Z</time>
      </trkpt>
      <trkpt lat="43.85837" lon="6.51396">
        <ele>835</ele>
        <time>2018-05-26T15:15:14Z</time>
      </trkpt>
      <trkpt lat="43.85834" lon="6.51392">
        <ele>835</ele>
        <time>2018-05-26T15:15:15Z</time>
      </trkpt>
      <trkpt lat="43.85817" lon="6.51366">
        <ele>833</ele>
        <time>2018-05-26T15:15:25Z</time>
      </trkpt>
      <trkpt lat="43.85815" lon="6.51342">
        <ele>831</ele>
        <time>2018-05-26T15:15:33Z</time>
      </trkpt>
      <trkpt lat="43.85814" lon="6.51338">
        <ele>831</ele>
        <time>2018-05-26T15:15:50Z</time>
      </trkpt>
      <trkpt lat="43.85793" lon="6.51308">
        <ele>827</ele>
        <time>2018-05-26T15:16:01Z</time>
      </trkpt>
      <trkpt lat="43.85786" lon="6.51282">
        <ele>823</ele>
        <time>2018-05-26T15:16:12Z</time>
      </trkpt>
      <trkpt lat="43.85768" lon="6.51234">
        <ele>821</ele>
        <time>2018-05-26T15:16:25Z</time>
      </trkpt>
      <trkpt lat="43.85746" lon="6.51196">
        <ele>821</ele>
        <time>2018-05-26T15:16:36Z</time>
      </trkpt>
      <trkpt lat="43.85724" lon="6.5118">
        <ele>819</ele>
        <time>2018-05-26T15:16:44Z</time>
      </trkpt>
      <trkpt lat="43.85695" lon="6.5119">
        <ele>817</ele>
        <time>2018-05-26T15:16:51Z</time>
      </trkpt>
      <trkpt lat="43.85691" lon="6.5119">
        <ele>817</ele>
        <time>2018-05-26T15:16:52Z</time>
      </trkpt>
      <trkpt lat="43.85687" lon="6.51188">
        <ele>816</ele>
        <time>2018-05-26T15:16:53Z</time>
      </trkpt>
      <trkpt lat="43.85678" lon="6.5118">
        <ele>814</ele>
        <time>2018-05-26T15:16:55Z</time>
      </trkpt>
      <trkpt lat="43.85673" lon="6.51174">
        <ele>813</ele>
        <time>2018-05-26T15:16:56Z</time>
      </trkpt>
      <trkpt lat="43.85668" lon="6.51167">
        <ele>811</ele>
        <time>2018-05-26T15:16:57Z</time>
      </trkpt>
      <trkpt lat="43.85643" lon="6.51136">
        <ele>803</ele>
        <time>2018-05-26T15:17:02Z</time>
      </trkpt>
      <trkpt lat="43.85636" lon="6.51132">
        <ele>802</ele>
        <time>2018-05-26T15:17:03Z</time>
      </trkpt>
      <trkpt lat="43.85624" lon="6.51125">
        <ele>800</ele>
        <time>2018-05-26T15:17:05Z</time>
      </trkpt>
      <trkpt lat="43.85617" lon="6.51124">
        <ele>799</ele>
        <time>2018-05-26T15:17:06Z</time>
      </trkpt>
      <trkpt lat="43.85529" lon="6.5112">
        <ele>788</ele>
        <time>2018-05-26T15:17:16Z</time>
      </trkpt>
      <trkpt lat="43.85436" lon="6.51106">
        <ele>775</ele>
        <time>2018-05-26T15:17:26Z</time>
      </trkpt>
      <trkpt lat="43.85426" lon="6.51102">
        <ele>774</ele>
        <time>2018-05-26T15:17:27Z</time>
      </trkpt>
      <trkpt lat="43.85416" lon="6.51097">
        <ele>773</ele>
        <time>2018-05-26T15:17:28Z</time>
      </trkpt>
      <trkpt lat="43.85356" lon="6.5106">
        <ele>766</ele>
        <time>2018-05-26T15:17:34Z</time>
      </trkpt>
      <trkpt lat="43.85348" lon="6.51051">
        <ele>764</ele>
        <time>2018-05-26T15:17:35Z</time>
      </trkpt>
      <trkpt lat="43.85282" lon="6.50991">
        <ele>757</ele>
        <time>2018-05-26T15:17:44Z</time>
      </trkpt>
      <trkpt lat="43.85277" lon="6.50987">
        <ele>757</ele>
        <time>2018-05-26T15:17:45Z</time>
      </trkpt>
      <trkpt lat="43.85272" lon="6.50984">
        <ele>757</ele>
        <time>2018-05-26T15:17:46Z</time>
      </trkpt>
      <trkpt lat="43.85266" lon="6.5098">
        <ele>756</ele>
        <time>2018-05-26T15:17:47Z</time>
      </trkpt>
      <trkpt lat="43.85261" lon="6.50975">
        <ele>756</ele>
        <time>2018-05-26T15:17:48Z</time>
      </trkpt>
      <trkpt lat="43.85255" lon="6.50969">
        <ele>755</ele>
        <time>2018-05-26T15:17:49Z</time>
      </trkpt>
      <trkpt lat="43.85202" lon="6.50904">
        <ele>752</ele>
        <time>2018-05-26T15:18:00Z</time>
      </trkpt>
      <trkpt lat="43.85173" lon="6.50871">
        <ele>752</ele>
        <time>2018-05-26T15:18:10Z</time>
      </trkpt>
      <trkpt lat="43.8516" lon="6.50854">
        <ele>751</ele>
        <time>2018-05-26T15:18:13Z</time>
      </trkpt>
      <trkpt lat="43.85143" lon="6.50825">
        <ele>748</ele>
        <time>2018-05-26T15:18:21Z</time>
      </trkpt>
      <trkpt lat="43.85143" lon="6.50823">
        <ele>748</ele>
        <time>2018-05-26T15:18:34Z</time>
      </trkpt>
      <trkpt lat="43.85141" lon="6.50822">
        <ele>748</ele>
        <time>2018-05-26T15:19:04Z</time>
      </trkpt>
      <trkpt lat="43.8514" lon="6.50821">
        <ele>748</ele>
        <time>2018-05-26T15:19:06Z</time>
      </trkpt>
      <trkpt lat="43.85119" lon="6.50808">
        <ele>744</ele>
        <time>2018-05-26T15:19:19Z</time>
      </trkpt>
      <trkpt lat="43.85116" lon="6.50801">
        <ele>743</ele>
        <time>2018-05-26T15:19:22Z</time>
      </trkpt>
      <trkpt lat="43.85116" lon="6.50799">
        <ele>742</ele>
        <time>2018-05-26T15:19:23Z</time>
      </trkpt>
      <trkpt lat="43.85115" lon="6.50797">
        <ele>742</ele>
        <time>2018-05-26T15:19:24Z</time>
      </trkpt>
      <trkpt lat="43.85112" lon="6.50797">
        <ele>742</ele>
        <time>2018-05-26T15:19:35Z</time>
      </trkpt>
      <trkpt lat="43.8511" lon="6.50801">
        <ele>742</ele>
        <time>2018-05-26T15:19:52Z</time>
      </trkpt>
      <trkpt lat="43.85107" lon="6.50804">
        <ele>742</ele>
        <time>2018-05-26T15:19:54Z</time>
      </trkpt>
      <trkpt lat="43.85075" lon="6.50822">
        <ele>744</ele>
        <time>2018-05-26T15:20:04Z</time>
      </trkpt>
      <trkpt lat="43.85071" lon="6.50824">
        <ele>744</ele>
        <time>2018-05-26T15:20:05Z</time>
      </trkpt>
      <trkpt lat="43.85062" lon="6.50829">
        <ele>744</ele>
        <time>2018-05-26T15:20:07Z</time>
      </trkpt>
      <trkpt lat="43.85058" lon="6.50832">
        <ele>744</ele>
        <time>2018-05-26T15:20:08Z</time>
      </trkpt>
      <trkpt lat="43.85053" lon="6.50834">
        <ele>744</ele>
        <time>2018-05-26T15:20:09Z</time>
      </trkpt>
      <trkpt lat="43.85048" lon="6.50837">
        <ele>744</ele>
        <time>2018-05-26T15:20:10Z</time>
      </trkpt>
      <trkpt lat="43.85043" lon="6.5084">
        <ele>743</ele>
        <time>2018-05-26T15:20:11Z</time>
      </trkpt>
      <trkpt lat="43.85037" lon="6.50842">
        <ele>743</ele>
        <time>2018-05-26T15:20:12Z</time>
      </trkpt>
      <trkpt lat="43.8495" lon="6.50889">
        <ele>740</ele>
        <time>2018-05-26T15:20:27Z</time>
      </trkpt>
      <trkpt lat="43.84895" lon="6.50923">
        <ele>739</ele>
        <time>2018-05-26T15:20:35Z</time>
      </trkpt>
      <trkpt lat="43.84889" lon="6.5093">
        <ele>739</ele>
        <time>2018-05-26T15:20:36Z</time>
      </trkpt>
      <trkpt lat="43.84845" lon="6.51011">
        <ele>737</ele>
        <time>2018-05-26T15:20:47Z</time>
      </trkpt>
      <trkpt lat="43.84803" lon="6.51096">
        <ele>734</ele>
        <time>2018-05-26T15:20:59Z</time>
      </trkpt>
      <trkpt lat="43.84776" lon="6.51185">
        <ele>735</ele>
        <time>2018-05-26T15:21:11Z</time>
      </trkpt>
      <trkpt lat="43.84772" lon="6.51194">
        <ele>735</ele>
        <time>2018-05-26T15:21:13Z</time>
      </trkpt>
      <trkpt lat="43.84768" lon="6.51196">
        <ele>735</ele>
        <time>2018-05-26T15:21:14Z</time>
      </trkpt>
      <trkpt lat="43.84715" lon="6.51212">
        <ele>731</ele>
        <time>2018-05-26T15:21:24Z</time>
      </trkpt>
      <trkpt lat="43.84697" lon="6.51225">
        <ele>731</ele>
        <time>2018-05-26T15:21:28Z</time>
      </trkpt>
      <trkpt lat="43.84679" lon="6.51246">
        <ele>730</ele>
        <time>2018-05-26T15:21:34Z</time>
      </trkpt>
      <trkpt lat="43.84675" lon="6.51248">
        <ele>730</ele>
        <time>2018-05-26T15:21:35Z</time>
      </trkpt>
      <trkpt lat="43.8464" lon="6.5125">
        <ele>729</ele>
        <time>2018-05-26T15:21:46Z</time>
      </trkpt>
      <trkpt lat="43.84609" lon="6.51226">
        <ele>727</ele>
        <time>2018-05-26T15:21:58Z</time>
      </trkpt>
      <trkpt lat="43.84606" lon="6.51225">
        <ele>727</ele>
        <time>2018-05-26T15:21:59Z</time>
      </trkpt>
      <trkpt lat="43.84603" lon="6.51224">
        <ele>727</ele>
        <time>2018-05-26T15:22:00Z</time>
      </trkpt>
      <trkpt lat="43.84556" lon="6.51208">
        <ele>723</ele>
        <time>2018-05-26T15:22:13Z</time>
      </trkpt>
      <trkpt lat="43.84517" lon="6.51193">
        <ele>721</ele>
        <time>2018-05-26T15:22:25Z</time>
      </trkpt>
      <trkpt lat="43.84516" lon="6.5119">
        <ele>721</ele>
        <time>2018-05-26T15:22:26Z</time>
      </trkpt>
      <trkpt lat="43.84515" lon="6.51185">
        <ele>721</ele>
        <time>2018-05-26T15:22:27Z</time>
      </trkpt>
      <trkpt lat="43.8451" lon="6.51154">
        <ele>722</ele>
        <time>2018-05-26T15:22:33Z</time>
      </trkpt>
      <trkpt lat="43.84509" lon="6.51141">
        <ele>722</ele>
        <time>2018-05-26T15:22:35Z</time>
      </trkpt>
      <trkpt lat="43.84507" lon="6.51128">
        <ele>722</ele>
        <time>2018-05-26T15:22:37Z</time>
      </trkpt>
      <trkpt lat="43.84505" lon="6.51122">
        <ele>722</ele>
        <time>2018-05-26T15:22:38Z</time>
      </trkpt>
      <trkpt lat="43.84479" lon="6.51016">
        <ele>723</ele>
        <time>2018-05-26T15:22:56Z</time>
      </trkpt>
      <trkpt lat="43.84457" lon="6.5093">
        <ele>722</ele>
        <time>2018-05-26T15:23:11Z</time>
      </trkpt>
      <trkpt lat="43.84438" lon="6.50852">
        <ele>722</ele>
        <time>2018-05-26T15:23:27Z</time>
      </trkpt>
      <trkpt lat="43.84425" lon="6.50801">
        <ele>722</ele>
        <time>2018-05-26T15:23:38Z</time>
      </trkpt>
      <trkpt lat="43.84417" lon="6.5077">
        <ele>721</ele>
        <time>2018-05-26T15:23:43Z</time>
      </trkpt>
      <trkpt lat="43.84389" lon="6.50663">
        <ele>719</ele>
        <time>2018-05-26T15:23:58Z</time>
      </trkpt>
      <trkpt lat="43.8436" lon="6.50548">
        <ele>719</ele>
        <time>2018-05-26T15:24:13Z</time>
      </trkpt>
      <trkpt lat="43.84349" lon="6.50504">
        <ele>719</ele>
        <time>2018-05-26T15:24:19Z</time>
      </trkpt>
      <trkpt lat="43.84347" lon="6.50496">
        <ele>719</ele>
        <time>2018-05-26T15:24:20Z</time>
      </trkpt>
      <trkpt lat="43.84332" lon="6.50441">
        <ele>719</ele>
        <time>2018-05-26T15:24:28Z</time>
      </trkpt>
      <trkpt lat="43.84314" lon="6.50379">
        <ele>719</ele>
        <time>2018-05-26T15:24:40Z</time>
      </trkpt>
      <trkpt lat="43.84282" lon="6.50304">
        <ele>719</ele>
        <time>2018-05-26T15:24:54Z</time>
      </trkpt>
      <trkpt lat="43.8426" lon="6.50251">
        <ele>719</ele>
        <time>2018-05-26T15:25:03Z</time>
      </trkpt>
      <trkpt lat="43.84258" lon="6.50246">
        <ele>719</ele>
        <time>2018-05-26T15:25:04Z</time>
      </trkpt>
      <trkpt lat="43.84224" lon="6.50166">
        <ele>719</ele>
        <time>2018-05-26T15:25:18Z</time>
      </trkpt>
      <trkpt lat="43.8418" lon="6.50065">
        <ele>719</ele>
        <time>2018-05-26T15:25:35Z</time>
      </trkpt>
      <trkpt lat="43.84142" lon="6.49975">
        <ele>719</ele>
        <time>2018-05-26T15:25:50Z</time>
      </trkpt>
      <trkpt lat="43.84115" lon="6.49911">
        <ele>719</ele>
        <time>2018-05-26T15:26:02Z</time>
      </trkpt>
      <trkpt lat="43.84113" lon="6.49905">
        <ele>719</ele>
        <time>2018-05-26T15:26:03Z</time>
      </trkpt>
      <trkpt lat="43.84079" lon="6.49825">
        <ele>719</ele>
        <time>2018-05-26T15:26:18Z</time>
      </trkpt>
      <trkpt lat="43.84069" lon="6.49803">
        <ele>719</ele>
        <time>2018-05-26T15:26:22Z</time>
      </trkpt>
      <trkpt lat="43.84029" lon="6.4971">
        <ele>719</ele>
        <time>2018-05-26T15:26:38Z</time>
      </trkpt>
      <trkpt lat="43.84017" lon="6.49679">
        <ele>719</ele>
        <time>2018-05-26T15:26:45Z</time>
      </trkpt>
      <trkpt lat="43.84003" lon="6.49649">
        <ele>719</ele>
        <time>2018-05-26T15:26:50Z</time>
      </trkpt>
      <trkpt lat="43.8397" lon="6.49571">
        <ele>718</ele>
        <time>2018-05-26T15:27:05Z</time>
      </trkpt>
      <trkpt lat="43.83968" lon="6.49564">
        <ele>718</ele>
        <time>2018-05-26T15:27:07Z</time>
      </trkpt>
      <trkpt lat="43.83974" lon="6.49556">
        <ele>718</ele>
        <time>2018-05-26T15:27:11Z</time>
      </trkpt>
      <trkpt lat="43.83965" lon="6.49539">
        <ele>718</ele>
        <time>2018-05-26T15:27:18Z</time>
      </trkpt>
      <trkpt lat="43.83961" lon="6.49528">
        <ele>718</ele>
        <time>2018-05-26T15:27:21Z</time>
      </trkpt>
      <trkpt lat="43.83955" lon="6.49474">
        <ele>717</ele>
        <time>2018-05-26T15:27:35Z</time>
      </trkpt>
      <trkpt lat="43.83953" lon="6.49467">
        <ele>717</ele>
        <time>2018-05-26T15:27:38Z</time>
      </trkpt>
      <trkpt lat="43.83936" lon="6.49457">
        <ele>717</ele>
        <time>2018-05-26T15:27:45Z</time>
      </trkpt>
      <trkpt lat="43.83918" lon="6.49455">
        <ele>717</ele>
        <time>2018-05-26T15:27:49Z</time>
      </trkpt>
      <trkpt lat="43.83879" lon="6.49454">
        <ele>717</ele>
        <time>2018-05-26T15:27:59Z</time>
      </trkpt>
      <trkpt lat="43.83831" lon="6.49451">
        <ele>717</ele>
        <time>2018-05-26T15:28:12Z</time>
      </trkpt>
      <trkpt lat="43.838" lon="6.49461">
        <ele>715</ele>
        <time>2018-05-26T15:28:20Z</time>
      </trkpt>
      <trkpt lat="43.83778" lon="6.49478">
        <ele>715</ele>
        <time>2018-05-26T15:28:26Z</time>
      </trkpt>
      <trkpt lat="43.83777" lon="6.49532">
        <ele>717</ele>
        <time>2018-05-26T15:28:37Z</time>
      </trkpt>
    </trkseg>
  </trk>
</gpx>